Wetterdaten: Freitag, 02.06.2017
Datum Zeit Temp. A. Temp. A. max Feuchte A. Luftdruck Regen Wind Richtung Richtung Sonnenschein ET UV Solar Taupunkt Windchill Windböen
02.06.2017 00:00 14,1 °C 14,1 °C 90 % 1017,2 hPa 0,0 mm 0,4 km/h (0 Bft) W-SW 244 ° 0 min 0,000 mm 0,0 UV-I 0 W/m² 12,5 °C 14,1 °C 1,6 km/h (1 Bft)
02.06.2017 00:01 14,1 °C 14,1 °C 89 % 1017,2 hPa 0,0 mm 0,5 km/h (0 Bft) W-SW 244 ° 0 min 0,000 mm 0,0 UV-I 0 W/m² 12,3 °C 14,1 °C 1,6 km/h (1 Bft)
02.06.2017 00:02 14,1 °C 14,1 °C 90 % 1017,1 hPa 0,0 mm 0,1 km/h (0 Bft) W-SW 244 ° 0 min 0,000 mm 0,0 UV-I 0 W/m² 12,5 °C 14,1 °C 1,6 km/h (1 Bft)
02.06.2017 00:03 14,0 °C 14,1 °C 90 % 1017,2 hPa 0,0 mm 0,5 km/h (0 Bft) W-SW 244 ° 0 min 0,000 mm 0,0 UV-I 0 W/m² 12,4 °C 14,0 °C 1,6 km/h (1 Bft)
02.06.2017 00:04 14,0 °C 14,1 °C 90 % 1017,1 hPa 0,0 mm 0,0 km/h (0 Bft) W-SW 244 ° 0 min 0,000 mm 0,0 UV-I 0 W/m² 12,4 °C 14,0 °C 0,0 km/h (0 Bft)
02.06.2017 00:05 14,0 °C 14,0 °C 90 % 1017,2 hPa 0,0 mm 0,0 km/h (0 Bft) W-SW 244 ° 0 min 0,000 mm 0,0 UV-I 0 W/m² 12,4 °C 14,0 °C 0,0 km/h (0 Bft)
02.06.2017 00:06 13,9 °C 14,0 °C 90 % 1017,2 hPa 0,0 mm 0,0 km/h (0 Bft) W-SW 244 ° 0 min 0,000 mm 0,0 UV-I 0 W/m² 12,3 °C 13,9 °C 0,0 km/h (0 Bft)
02.06.2017 00:07 13,9 °C 14,0 °C 90 % 1017,2 hPa 0,0 mm 0,0 km/h (0 Bft) W-SW 244 ° 0 min 0,000 mm 0,0 UV-I 0 W/m² 12,3 °C 13,9 °C 0,0 km/h (0 Bft)
02.06.2017 00:08 13,9 °C 14,0 °C 90 % 1017,2 hPa 0,0 mm 0,0 km/h (0 Bft) W-SW 244 ° 0 min 0,000 mm 0,0 UV-I 0 W/m² 12,3 °C 13,9 °C 0,0 km/h (0 Bft)
02.06.2017 00:09 13,9 °C 13,9 °C 90 % 1017,2 hPa 0,0 mm 0,8 km/h (0 Bft) W-SW 244 ° 0 min 0,000 mm 0,0 UV-I 0 W/m² 12,3 °C 13,9 °C 3,2 km/h (1 Bft)
02.06.2017 00:10 13,9 °C 13,9 °C 90 % 1017,2 hPa 0,0 mm 0,0 km/h (0 Bft) W-SW 244 ° 0 min 0,000 mm 0,0 UV-I 0 W/m² 12,3 °C 13,9 °C 0,0 km/h (0 Bft)
02.06.2017 00:11 13,9 °C 13,9 °C 90 % 1017,2 hPa 0,0 mm 0,0 km/h (0 Bft) W-SW 244 ° 0 min 0,000 mm 0,0 UV-I 0 W/m² 12,3 °C 13,9 °C 0,0 km/h (0 Bft)
02.06.2017 00:12 13,9 °C 13,9 °C 90 % 1017,2 hPa 0,0 mm 0,0 km/h (0 Bft) W-SW 244 ° 0 min 0,000 mm 0,0 UV-I 0 W/m² 12,3 °C 13,9 °C 0,0 km/h (0 Bft)
02.06.2017 00:13 13,9 °C 13,9 °C 90 % 1017,2 hPa 0,0 mm 0,0 km/h (0 Bft) W-SW 244 ° 0 min 0,000 mm 0,0 UV-I 0 W/m² 12,3 °C 13,9 °C 0,0 km/h (0 Bft)
02.06.2017 00:14 13,9 °C 13,9 °C 90 % 1017,2 hPa 0,0 mm 0,0 km/h (0 Bft) W-SW 244 ° 0 min 0,000 mm 0,0 UV-I 0 W/m² 12,3 °C 13,9 °C 0,0 km/h (0 Bft)
02.06.2017 00:15 13,9 °C 13,9 °C 90 % 1017,2 hPa 0,0 mm 0,0 km/h (0 Bft) W-SW 244 ° 0 min 0,000 mm 0,0 UV-I 0 W/m² 12,3 °C 13,9 °C 0,0 km/h (0 Bft)
02.06.2017 00:16 13,9 °C 13,9 °C 90 % 1017,1 hPa 0,0 mm 0,0 km/h (0 Bft) W-SW 244 ° 0 min 0,000 mm 0,0 UV-I 0 W/m² 12,3 °C 13,9 °C 0,0 km/h (0 Bft)
02.06.2017 00:17 14,1 °C 14,1 °C 90 % 1017,2 hPa 0,0 mm 0,0 km/h (0 Bft) W-SW 244 ° 0 min 0,000 mm 0,0 UV-I 0 W/m² 12,5 °C 14,1 °C 0,0 km/h (0 Bft)
02.06.2017 00:18 14,1 °C 14,1 °C 89 % 1017,2 hPa 0,0 mm 0,0 km/h (0 Bft) W-SW 244 ° 0 min 0,000 mm 0,0 UV-I 0 W/m² 12,3 °C 14,1 °C 0,0 km/h (0 Bft)
02.06.2017 00:19 14,1 °C 14,1 °C 89 % 1017,1 hPa 0,0 mm 0,9 km/h (0 Bft) W-SW 244 ° 0 min 0,000 mm 0,0 UV-I 0 W/m² 12,3 °C 14,1 °C 3,2 km/h (1 Bft)
02.06.2017 00:20 14,1 °C 14,1 °C 89 % 1017,2 hPa 0,0 mm 0,0 km/h (0 Bft) W-SW 244 ° 0 min 0,000 mm 0,0 UV-I 0 W/m² 12,3 °C 14,1 °C 0,0 km/h (0 Bft)
02.06.2017 00:21 14,1 °C 14,1 °C 89 % 1017,1 hPa 0,0 mm 0,0 km/h (0 Bft) W-SW 244 ° 0 min 0,000 mm 0,0 UV-I 0 W/m² 12,3 °C 14,1 °C 0,0 km/h (0 Bft)
02.06.2017 00:22 14,1 °C 14,1 °C 89 % 1017,1 hPa 0,0 mm 1,3 km/h (1 Bft) W-SW 244 ° 0 min 0,000 mm 0,0 UV-I 0 W/m² 12,3 °C 14,1 °C 3,2 km/h (1 Bft)
02.06.2017 00:23 14,1 °C 14,1 °C 89 % 1017,1 hPa 0,0 mm 0,1 km/h (0 Bft) W-SW 244 ° 0 min 0,000 mm 0,0 UV-I 0 W/m² 12,3 °C 14,1 °C 1,6 km/h (1 Bft)
02.06.2017 00:24 14,1 °C 14,1 °C 89 % 1017,1 hPa 0,0 mm 0,0 km/h (0 Bft) W-SW 244 ° 0 min 0,000 mm 0,0 UV-I 0 W/m² 12,3 °C 14,1 °C 0,0 km/h (0 Bft)
02.06.2017 00:25 14,0 °C 14,1 °C 89 % 1017,1 hPa 0,0 mm 0,0 km/h (0 Bft) W-SW 244 ° 0 min 0,000 mm 0,0 UV-I 0 W/m² 12,2 °C 14,0 °C 0,0 km/h (0 Bft)
02.06.2017 00:26 14,0 °C 14,1 °C 89 % 1017,1 hPa 0,0 mm 0,3 km/h (0 Bft) W-SW 244 ° 0 min 0,000 mm 0,0 UV-I 0 W/m² 12,2 °C 14,0 °C 1,6 km/h (1 Bft)
02.06.2017 00:27 14,0 °C 14,0 °C 89 % 1017,1 hPa 0,0 mm 0,0 km/h (0 Bft) W-SW 244 ° 0 min 0,000 mm 0,0 UV-I 0 W/m² 12,2 °C 14,0 °C 0,0 km/h (0 Bft)
02.06.2017 00:28 14,0 °C 14,0 °C 89 % 1017,1 hPa 0,0 mm 0,0 km/h (0 Bft) W-SW 244 ° 0 min 0,000 mm 0,0 UV-I 0 W/m² 12,2 °C 14,0 °C 0,0 km/h (0 Bft)
02.06.2017 00:29 13,9 °C 14,0 °C 89 % 1017,1 hPa 0,0 mm 0,0 km/h (0 Bft) W-SW 244 ° 0 min 0,000 mm 0,0 UV-I 0 W/m² 12,1 °C 13,9 °C 0,0 km/h (0 Bft)
02.06.2017 00:30 13,9 °C 13,9 °C 90 % 1017,1 hPa 0,0 mm 0,0 km/h (0 Bft) W-SW 244 ° 0 min 0,000 mm 0,0 UV-I 0 W/m² 12,3 °C 13,9 °C 0,0 km/h (0 Bft)
02.06.2017 00:31 13,9 °C 13,9 °C 89 % 1017,1 hPa 0,0 mm 0,0 km/h (0 Bft) W-SW 244 ° 0 min 0,000 mm 0,0 UV-I 0 W/m² 12,1 °C 13,9 °C 0,0 km/h (0 Bft)
02.06.2017 00:32 13,9 °C 13,9 °C 89 % 1017,0 hPa 0,0 mm 0,0 km/h (0 Bft) W-SW 244 ° 0 min 0,000 mm 0,0 UV-I 0 W/m² 12,1 °C 13,9 °C 0,0 km/h (0 Bft)
02.06.2017 00:33 14,0 °C 14,0 °C 89 % 1017,1 hPa 0,0 mm 0,0 km/h (0 Bft) W-SW 244 ° 0 min 0,000 mm 0,0 UV-I 0 W/m² 12,2 °C 14,0 °C 0,0 km/h (0 Bft)
02.06.2017 00:34 14,1 °C 14,1 °C 89 % 1017,1 hPa 0,0 mm 0,0 km/h (0 Bft) W-SW 244 ° 0 min 0,000 mm 0,0 UV-I 0 W/m² 12,3 °C 14,1 °C 0,0 km/h (0 Bft)
02.06.2017 00:35 14,1 °C 14,1 °C 89 % 1017,0 hPa 0,0 mm 0,6 km/h (0 Bft) SW 232 ° 0 min 0,000 mm 0,0 UV-I 0 W/m² 12,3 °C 14,1 °C 3,2 km/h (1 Bft)
02.06.2017 00:36 14,2 °C 14,2 °C 89 % 1017,1 hPa 0,0 mm 0,1 km/h (0 Bft) SW 232 ° 0 min 0,000 mm 0,0 UV-I 0 W/m² 12,4 °C 14,2 °C 1,6 km/h (1 Bft)
02.06.2017 00:37 14,2 °C 14,2 °C 88 % 1017,1 hPa 0,0 mm 0,7 km/h (0 Bft) SW 232 ° 0 min 0,000 mm 0,0 UV-I 0 W/m² 12,2 °C 14,2 °C 3,2 km/h (1 Bft)
02.06.2017 00:38 14,2 °C 14,2 °C 88 % 1017,0 hPa 0,0 mm 0,8 km/h (0 Bft) SW 232 ° 0 min 0,000 mm 0,0 UV-I 0 W/m² 12,2 °C 14,2 °C 1,6 km/h (1 Bft)
02.06.2017 00:39 14,1 °C 14,2 °C 88 % 1017,0 hPa 0,0 mm 0,0 km/h (0 Bft) SW 232 ° 0 min 0,000 mm 0,0 UV-I 0 W/m² 12,1 °C 14,1 °C 0,0 km/h (0 Bft)
02.06.2017 00:40 14,1 °C 14,1 °C 89 % 1017,0 hPa 0,0 mm 0,0 km/h (0 Bft) SW 232 ° 0 min 0,000 mm 0,0 UV-I 0 W/m² 12,3 °C 14,1 °C 0,0 km/h (0 Bft)
02.06.2017 00:41 14,0 °C 14,1 °C 89 % 1017,0 hPa 0,0 mm 0,0 km/h (0 Bft) SW 232 ° 0 min 0,000 mm 0,0 UV-I 0 W/m² 12,2 °C 14,0 °C 0,0 km/h (0 Bft)
02.06.2017 00:42 13,9 °C 14,0 °C 90 % 1017,0 hPa 0,0 mm 0,0 km/h (0 Bft) SW 232 ° 0 min 0,000 mm 0,0 UV-I 0 W/m² 12,3 °C 13,9 °C 0,0 km/h (0 Bft)
02.06.2017 00:43 13,9 °C 13,9 °C 90 % 1017,0 hPa 0,0 mm 0,0 km/h (0 Bft) SW 232 ° 0 min 0,000 mm 0,0 UV-I 0 W/m² 12,3 °C 13,9 °C 0,0 km/h (0 Bft)
02.06.2017 00:44 13,8 °C 13,9 °C 90 % 1017,0 hPa 0,0 mm 0,0 km/h (0 Bft) SW 232 ° 0 min 0,000 mm 0,0 UV-I 0 W/m² 12,2 °C 13,8 °C 0,0 km/h (0 Bft)
02.06.2017 00:45 13,8 °C 13,8 °C 90 % 1017,0 hPa 0,0 mm 0,0 km/h (0 Bft) SW 232 ° 0 min 0,000 mm 0,0 UV-I 0 W/m² 12,2 °C 13,8 °C 0,0 km/h (0 Bft)
02.06.2017 00:46 13,8 °C 13,8 °C 90 % 1017,0 hPa 0,0 mm 0,0 km/h (0 Bft) SW 232 ° 0 min 0,000 mm 0,0 UV-I 0 W/m² 12,2 °C 13,8 °C 0,0 km/h (0 Bft)
02.06.2017 00:47 13,8 °C 13,8 °C 90 % 1017,0 hPa 0,0 mm 0,0 km/h (0 Bft) SW 232 ° 0 min 0,000 mm 0,0 UV-I 0 W/m² 12,2 °C 13,8 °C 0,0 km/h (0 Bft)
02.06.2017 00:48 13,7 °C 13,8 °C 90 % 1017,0 hPa 0,0 mm 0,0 km/h (0 Bft) SW 232 ° 0 min 0,000 mm 0,0 UV-I 0 W/m² 12,1 °C 13,7 °C 0,0 km/h (0 Bft)
02.06.2017 00:49 13,7 °C 13,8 °C 90 % 1017,1 hPa 0,0 mm 0,0 km/h (0 Bft) SW 232 ° 0 min 0,000 mm 0,0 UV-I 0 W/m² 12,1 °C 13,7 °C 0,0 km/h (0 Bft)
02.06.2017 00:50 13,6 °C 13,7 °C 89 % 1017,1 hPa 0,0 mm 0,0 km/h (0 Bft) SW 232 ° 0 min 0,000 mm 0,0 UV-I 0 W/m² 11,8 °C 13,6 °C 0,0 km/h (0 Bft)
02.06.2017 00:51 13,6 °C 13,6 °C 90 % 1017,1 hPa 0,0 mm 0,0 km/h (0 Bft) SW 232 ° 0 min 0,000 mm 0,0 UV-I 0 W/m² 12,0 °C 13,6 °C 0,0 km/h (0 Bft)
02.06.2017 00:52 13,6 °C 13,6 °C 90 % 1017,1 hPa 0,0 mm 0,0 km/h (0 Bft) SW 232 ° 0 min 0,000 mm 0,0 UV-I 0 W/m² 12,0 °C 13,6 °C 0,0 km/h (0 Bft)
02.06.2017 00:53 13,6 °C 13,6 °C 91 % 1017,1 hPa 0,0 mm 0,0 km/h (0 Bft) SW 232 ° 0 min 0,000 mm 0,0 UV-I 0 W/m² 12,2 °C 13,6 °C 0,0 km/h (0 Bft)
02.06.2017 00:54 13,5 °C 13,6 °C 91 % 1017,0 hPa 0,0 mm 0,0 km/h (0 Bft) SW 232 ° 0 min 0,000 mm 0,0 UV-I 0 W/m² 12,1 °C 13,5 °C 0,0 km/h (0 Bft)
02.06.2017 00:55 13,6 °C 13,6 °C 90 % 1017,0 hPa 0,0 mm 0,0 km/h (0 Bft) SW 232 ° 0 min 0,000 mm 0,0 UV-I 0 W/m² 12,0 °C 13,6 °C 0,0 km/h (0 Bft)
02.06.2017 00:56 13,6 °C 13,6 °C 91 % 1017,0 hPa 0,0 mm 0,0 km/h (0 Bft) SW 232 ° 0 min 0,000 mm 0,0 UV-I 0 W/m² 12,2 °C 13,6 °C 0,0 km/h (0 Bft)
02.06.2017 00:57 13,6 °C 13,6 °C 91 % 1017,0 hPa 0,0 mm 0,0 km/h (0 Bft) SW 232 ° 0 min 0,000 mm 0,0 UV-I 0 W/m² 12,2 °C 13,6 °C 0,0 km/h (0 Bft)
02.06.2017 00:58 13,6 °C 13,6 °C 91 % 1017,0 hPa 0,0 mm 0,1 km/h (0 Bft) SW 232 ° 0 min 0,000 mm 0,0 UV-I 0 W/m² 12,2 °C 13,6 °C 1,6 km/h (1 Bft)
02.06.2017 00:59 13,6 °C 13,6 °C 91 % 1017,0 hPa 0,0 mm 0,1 km/h (0 Bft) SW 232 ° 0 min 0,000 mm 0,0 UV-I 0 W/m² 12,2 °C 13,6 °C 1,6 km/h (1 Bft)
02.06.2017 01:00 13,6 °C 13,6 °C 91 % 1017,0 hPa 0,0 mm 1,5 km/h (1 Bft) SW 232 ° 0 min 0,000 mm 0,0 UV-I 0 W/m² 12,2 °C 13,6 °C 3,2 km/h (1 Bft)
02.06.2017 01:01 13,7 °C 13,7 °C 91 % 1017,0 hPa 0,0 mm 1,1 km/h (1 Bft) SW 232 ° 0 min 0,000 mm 0,0 UV-I 0 W/m² 12,3 °C 13,7 °C 1,6 km/h (1 Bft)
02.06.2017 01:02 13,7 °C 13,7 °C 90 % 1017,0 hPa 0,0 mm 1,3 km/h (1 Bft) SW 216 ° 0 min 0,000 mm 0,0 UV-I 0 W/m² 12,1 °C 13,7 °C 3,2 km/h (1 Bft)
02.06.2017 01:03 13,7 °C 13,7 °C 90 % 1017,0 hPa 0,0 mm 1,3 km/h (1 Bft) SW 216 ° 0 min 0,000 mm 0,0 UV-I 0 W/m² 12,1 °C 13,7 °C 3,2 km/h (1 Bft)
02.06.2017 01:04 13,7 °C 13,7 °C 90 % 1017,0 hPa 0,0 mm 0,1 km/h (0 Bft) SW 216 ° 0 min 0,000 mm 0,0 UV-I 0 W/m² 12,1 °C 13,7 °C 1,6 km/h (1 Bft)
02.06.2017 01:05 13,8 °C 13,8 °C 90 % 1017,0 hPa 0,0 mm 0,0 km/h (0 Bft) SW 216 ° 0 min 0,000 mm 0,0 UV-I 0 W/m² 12,2 °C 13,8 °C 0,0 km/h (0 Bft)
02.06.2017 01:06 13,8 °C 13,8 °C 91 % 1017,0 hPa 0,0 mm 1,2 km/h (1 Bft) W 267 ° 0 min 0,000 mm 0,0 UV-I 0 W/m² 12,4 °C 13,8 °C 3,2 km/h (1 Bft)
02.06.2017 01:07 13,8 °C 13,8 °C 91 % 1017,0 hPa 0,0 mm 0,9 km/h (0 Bft) W 267 ° 0 min 0,000 mm 0,0 UV-I 0 W/m² 12,4 °C 13,8 °C 3,2 km/h (1 Bft)
02.06.2017 01:08 13,8 °C 13,8 °C 90 % 1017,0 hPa 0,0 mm 0,0 km/h (0 Bft) W 267 ° 0 min 0,000 mm 0,0 UV-I 0 W/m² 12,2 °C 13,8 °C 0,0 km/h (0 Bft)
02.06.2017 01:09 13,7 °C 13,8 °C 90 % 1017,0 hPa 0,0 mm 0,0 km/h (0 Bft) W 267 ° 0 min 0,000 mm 0,0 UV-I 0 W/m² 12,1 °C 13,7 °C 0,0 km/h (0 Bft)
02.06.2017 01:10 13,7 °C 13,7 °C 91 % 1017,1 hPa 0,0 mm 0,0 km/h (0 Bft) W 267 ° 0 min 0,000 mm 0,0 UV-I 0 W/m² 12,3 °C 13,7 °C 0,0 km/h (0 Bft)
02.06.2017 01:11 13,7 °C 13,7 °C 91 % 1017,1 hPa 0,0 mm 0,0 km/h (0 Bft) W 267 ° 0 min 0,000 mm 0,0 UV-I 0 W/m² 12,3 °C 13,7 °C 0,0 km/h (0 Bft)
02.06.2017 01:12 13,7 °C 13,7 °C 91 % 1017,1 hPa 0,0 mm 0,0 km/h (0 Bft) W 267 ° 0 min 0,000 mm 0,0 UV-I 0 W/m² 12,3 °C 13,7 °C 0,0 km/h (0 Bft)
02.06.2017 01:13 13,6 °C 13,7 °C 90 % 1017,1 hPa 0,0 mm 0,0 km/h (0 Bft) W 267 ° 0 min 0,000 mm 0,0 UV-I 0 W/m² 12,0 °C 13,6 °C 0,0 km/h (0 Bft)
02.06.2017 01:14 13,6 °C 13,6 °C 90 % 1017,1 hPa 0,0 mm 0,0 km/h (0 Bft) W 267 ° 0 min 0,000 mm 0,0 UV-I 0 W/m² 12,0 °C 13,6 °C 0,0 km/h (0 Bft)
02.06.2017 01:15 13,5 °C 13,6 °C 90 % 1017,1 hPa 0,0 mm 0,0 km/h (0 Bft) W 267 ° 0 min 0,000 mm 0,0 UV-I 0 W/m² 11,9 °C 13,5 °C 0,0 km/h (0 Bft)
02.06.2017 01:16 13,6 °C 13,6 °C 90 % 1017,1 hPa 0,0 mm 0,0 km/h (0 Bft) W 267 ° 0 min 0,000 mm 0,0 UV-I 0 W/m² 12,0 °C 13,6 °C 0,0 km/h (0 Bft)
02.06.2017 01:17 13,5 °C 13,6 °C 90 % 1017,0 hPa 0,0 mm 0,0 km/h (0 Bft) W 267 ° 0 min 0,000 mm 0,0 UV-I 0 W/m² 11,9 °C 13,5 °C 0,0 km/h (0 Bft)
02.06.2017 01:18 13,4 °C 13,5 °C 90 % 1017,0 hPa 0,0 mm 0,0 km/h (0 Bft) W 267 ° 0 min 0,000 mm 0,0 UV-I 0 W/m² 11,8 °C 13,4 °C 0,0 km/h (0 Bft)
02.06.2017 01:19 13,4 °C 13,4 °C 90 % 1017,1 hPa 0,0 mm 0,0 km/h (0 Bft) W 267 ° 0 min 0,000 mm 0,0 UV-I 0 W/m² 11,8 °C 13,4 °C 0,0 km/h (0 Bft)
02.06.2017 01:20 13,3 °C 13,4 °C 90 % 1017,0 hPa 0,0 mm 0,0 km/h (0 Bft) W 267 ° 0 min 0,000 mm 0,0 UV-I 0 W/m² 11,7 °C 13,3 °C 0,0 km/h (0 Bft)
02.06.2017 01:21 13,3 °C 13,4 °C 91 % 1017,0 hPa 0,0 mm 0,1 km/h (0 Bft) W 267 ° 0 min 0,000 mm 0,0 UV-I 0 W/m² 11,9 °C 13,3 °C 1,6 km/h (1 Bft)
02.06.2017 01:22 13,3 °C 13,3 °C 91 % 1017,0 hPa 0,0 mm 0,6 km/h (0 Bft) W 267 ° 0 min 0,000 mm 0,0 UV-I 0 W/m² 11,9 °C 13,3 °C 3,2 km/h (1 Bft)
02.06.2017 01:23 13,3 °C 13,3 °C 91 % 1017,0 hPa 0,0 mm 0,0 km/h (0 Bft) W 267 ° 0 min 0,000 mm 0,0 UV-I 0 W/m² 11,9 °C 13,3 °C 0,0 km/h (0 Bft)
02.06.2017 01:24 13,3 °C 13,3 °C 91 % 1017,0 hPa 0,0 mm 0,5 km/h (0 Bft) W 267 ° 0 min 0,000 mm 0,0 UV-I 0 W/m² 11,9 °C 13,3 °C 3,2 km/h (1 Bft)
02.06.2017 01:25 13,3 °C 13,3 °C 90 % 1017,1 hPa 0,0 mm 2,5 km/h (1 Bft) W 267 ° 0 min 0,000 mm 0,0 UV-I 0 W/m² 11,7 °C 13,3 °C 4,8 km/h (1 Bft)
02.06.2017 01:26 13,3 °C 13,4 °C 90 % 1017,1 hPa 0,0 mm 0,0 km/h (0 Bft) W 267 ° 0 min 0,000 mm 0,0 UV-I 0 W/m² 11,7 °C 13,3 °C 0,0 km/h (0 Bft)
02.06.2017 01:27 13,4 °C 13,4 °C 90 % 1017,0 hPa 0,0 mm 0,3 km/h (0 Bft) W 267 ° 0 min 0,000 mm 0,0 UV-I 0 W/m² 11,8 °C 13,4 °C 1,6 km/h (1 Bft)
02.06.2017 01:28 13,4 °C 13,4 °C 90 % 1017,0 hPa 0,0 mm 0,0 km/h (0 Bft) W 267 ° 0 min 0,000 mm 0,0 UV-I 0 W/m² 11,8 °C 13,4 °C 0,0 km/h (0 Bft)
02.06.2017 01:29 13,4 °C 13,4 °C 90 % 1017,1 hPa 0,0 mm 0,0 km/h (0 Bft) W 267 ° 0 min 0,000 mm 0,0 UV-I 0 W/m² 11,8 °C 13,4 °C 0,0 km/h (0 Bft)
02.06.2017 01:30 13,4 °C 13,4 °C 90 % 1017,1 hPa 0,0 mm 0,0 km/h (0 Bft) W 267 ° 0 min 0,000 mm 0,0 UV-I 0 W/m² 11,8 °C 13,4 °C 0,0 km/h (0 Bft)
02.06.2017 01:31 13,4 °C 13,4 °C 90 % 1017,1 hPa 0,0 mm 0,0 km/h (0 Bft) W 267 ° 0 min 0,000 mm 0,0 UV-I 0 W/m² 11,8 °C 13,4 °C 0,0 km/h (0 Bft)
02.06.2017 01:32 13,4 °C 13,4 °C 90 % 1017,1 hPa 0,0 mm 0,0 km/h (0 Bft) W 267 ° 0 min 0,000 mm 0,0 UV-I 0 W/m² 11,8 °C 13,4 °C 0,0 km/h (0 Bft)
02.06.2017 01:33 13,4 °C 13,4 °C 91 % 1017,1 hPa 0,0 mm 0,0 km/h (0 Bft) W 267 ° 0 min 0,000 mm 0,0 UV-I 0 W/m² 12,0 °C 13,4 °C 0,0 km/h (0 Bft)
02.06.2017 01:34 13,3 °C 13,4 °C 90 % 1017,1 hPa 0,0 mm 0,0 km/h (0 Bft) W 267 ° 0 min 0,000 mm 0,0 UV-I 0 W/m² 11,7 °C 13,3 °C 0,0 km/h (0 Bft)
02.06.2017 01:35 13,3 °C 13,3 °C 91 % 1017,1 hPa 0,0 mm 0,0 km/h (0 Bft) W 267 ° 0 min 0,000 mm 0,0 UV-I 0 W/m² 11,9 °C 13,3 °C 0,0 km/h (0 Bft)
02.06.2017 01:36 13,3 °C 13,3 °C 91 % 1017,1 hPa 0,0 mm 0,0 km/h (0 Bft) W 267 ° 0 min 0,000 mm 0,0 UV-I 0 W/m² 11,9 °C 13,3 °C 0,0 km/h (0 Bft)
02.06.2017 01:37 13,2 °C 13,3 °C 91 % 1017,1 hPa 0,0 mm 0,0 km/h (0 Bft) W 267 ° 0 min 0,000 mm 0,0 UV-I 0 W/m² 11,8 °C 13,2 °C 0,0 km/h (0 Bft)
02.06.2017 01:38 13,2 °C 13,3 °C 91 % 1017,1 hPa 0,0 mm 0,0 km/h (0 Bft) W 267 ° 0 min 0,000 mm 0,0 UV-I 0 W/m² 11,8 °C 13,2 °C 0,0 km/h (0 Bft)
02.06.2017 01:39 13,2 °C 13,2 °C 91 % 1017,1 hPa 0,0 mm 0,0 km/h (0 Bft) W 267 ° 0 min 0,000 mm 0,0 UV-I 0 W/m² 11,8 °C 13,2 °C 0,0 km/h (0 Bft)
02.06.2017 01:40 13,3 °C 13,3 °C 91 % 1017,1 hPa 0,0 mm 0,5 km/h (0 Bft) W 267 ° 0 min 0,000 mm 0,0 UV-I 0 W/m² 11,9 °C 13,3 °C 3,2 km/h (1 Bft)
02.06.2017 01:41 13,4 °C 13,4 °C 91 % 1017,1 hPa 0,0 mm 1,0 km/h (0 Bft) W 267 ° 0 min 0,000 mm 0,0 UV-I 0 W/m² 12,0 °C 13,4 °C 1,6 km/h (1 Bft)
02.06.2017 01:42 13,4 °C 13,4 °C 91 % 1017,1 hPa 0,0 mm 0,5 km/h (0 Bft) W 267 ° 0 min 0,000 mm 0,0 UV-I 0 W/m² 12,0 °C 13,4 °C 1,6 km/h (1 Bft)
02.06.2017 01:43 13,5 °C 13,5 °C 90 % 1017,1 hPa 0,0 mm 0,2 km/h (0 Bft) W 267 ° 0 min 0,000 mm 0,0 UV-I 0 W/m² 11,9 °C 13,5 °C 1,6 km/h (1 Bft)
02.06.2017 01:44 13,5 °C 13,5 °C 90 % 1017,0 hPa 0,0 mm 0,0 km/h (0 Bft) W 267 ° 0 min 0,000 mm 0,0 UV-I 0 W/m² 11,9 °C 13,5 °C 0,0 km/h (0 Bft)
02.06.2017 01:45 13,5 °C 13,6 °C 90 % 1017,1 hPa 0,0 mm 0,0 km/h (0 Bft) W 267 ° 0 min 0,000 mm 0,0 UV-I 0 W/m² 11,9 °C 13,5 °C 0,0 km/h (0 Bft)
02.06.2017 01:46 13,4 °C 13,5 °C 90 % 1017,1 hPa 0,0 mm 0,0 km/h (0 Bft) W 267 ° 0 min 0,000 mm 0,0 UV-I 0 W/m² 11,8 °C 13,4 °C 0,0 km/h (0 Bft)
02.06.2017 01:47 13,4 °C 13,5 °C 90 % 1017,1 hPa 0,0 mm 0,0 km/h (0 Bft) W 267 ° 0 min 0,000 mm 0,0 UV-I 0 W/m² 11,8 °C 13,4 °C 0,0 km/h (0 Bft)
02.06.2017 01:48 13,4 °C 13,4 °C 90 % 1017,1 hPa 0,0 mm 0,0 km/h (0 Bft) W 267 ° 0 min 0,000 mm 0,0 UV-I 0 W/m² 11,8 °C 13,4 °C 0,0 km/h (0 Bft)
02.06.2017 01:49 13,4 °C 13,4 °C 91 % 1017,1 hPa 0,0 mm 0,1 km/h (0 Bft) W 267 ° 0 min 0,000 mm 0,0 UV-I 0 W/m² 12,0 °C 13,4 °C 1,6 km/h (1 Bft)
02.06.2017 01:50 13,4 °C 13,4 °C 90 % 1017,1 hPa 0,0 mm 0,0 km/h (0 Bft) W 267 ° 0 min 0,000 mm 0,0 UV-I 0 W/m² 11,8 °C 13,4 °C 0,0 km/h (0 Bft)
02.06.2017 01:51 13,4 °C 13,4 °C 91 % 1017,1 hPa 0,0 mm 0,0 km/h (0 Bft) W 267 ° 0 min 0,000 mm 0,0 UV-I 0 W/m² 12,0 °C 13,4 °C 0,0 km/h (0 Bft)
02.06.2017 01:52 13,3 °C 13,4 °C 91 % 1017,1 hPa 0,0 mm 0,0 km/h (0 Bft) W 267 ° 0 min 0,000 mm 0,0 UV-I 0 W/m² 11,9 °C 13,3 °C 0,0 km/h (0 Bft)
02.06.2017 01:53 13,3 °C 13,3 °C 91 % 1017,1 hPa 0,0 mm 0,0 km/h (0 Bft) W 267 ° 0 min 0,000 mm 0,0 UV-I 0 W/m² 11,9 °C 13,3 °C 0,0 km/h (0 Bft)
02.06.2017 01:54 13,3 °C 13,3 °C 91 % 1017,2 hPa 0,0 mm 0,0 km/h (0 Bft) W 267 ° 0 min 0,000 mm 0,0 UV-I 0 W/m² 11,9 °C 13,3 °C 0,0 km/h (0 Bft)
02.06.2017 01:55 13,2 °C 13,3 °C 91 % 1017,1 hPa 0,0 mm 0,0 km/h (0 Bft) W 267 ° 0 min 0,000 mm 0,0 UV-I 0 W/m² 11,8 °C 13,2 °C 0,0 km/h (0 Bft)
02.06.2017 01:56 13,2 °C 13,2 °C 91 % 1017,1 hPa 0,0 mm 0,1 km/h (0 Bft) W 267 ° 0 min 0,000 mm 0,0 UV-I 0 W/m² 11,8 °C 13,2 °C 1,6 km/h (1 Bft)
02.06.2017 01:57 13,1 °C 13,2 °C 91 % 1017,2 hPa 0,0 mm 0,0 km/h (0 Bft) W 267 ° 0 min 0,000 mm 0,0 UV-I 0 W/m² 11,7 °C 13,1 °C 0,0 km/h (0 Bft)
02.06.2017 01:58 13,1 °C 13,1 °C 91 % 1017,2 hPa 0,0 mm 0,0 km/h (0 Bft) W 267 ° 0 min 0,000 mm 0,0 UV-I 0 W/m² 11,7 °C 13,1 °C 0,0 km/h (0 Bft)
02.06.2017 01:59 13,1 °C 13,1 °C 91 % 1017,1 hPa 0,0 mm 0,0 km/h (0 Bft) W 267 ° 0 min 0,000 mm 0,0 UV-I 0 W/m² 11,7 °C 13,1 °C 0,0 km/h (0 Bft)
02.06.2017 02:00 13,1 °C 13,1 °C 91 % 1017,1 hPa 0,0 mm 0,3 km/h (0 Bft) W 267 ° 0 min 0,000 mm 0,0 UV-I 0 W/m² 11,7 °C 13,1 °C 1,6 km/h (1 Bft)
02.06.2017 02:01 13,1 °C 13,1 °C 91 % 1017,1 hPa 0,0 mm 0,0 km/h (0 Bft) W 267 ° 0 min 0,000 mm 0,0 UV-I 0 W/m² 11,7 °C 13,1 °C 0,0 km/h (0 Bft)
02.06.2017 02:02 13,1 °C 13,1 °C 91 % 1017,1 hPa 0,0 mm 0,0 km/h (0 Bft) W 267 ° 0 min 0,000 mm 0,0 UV-I 0 W/m² 11,7 °C 13,1 °C 0,0 km/h (0 Bft)
02.06.2017 02:03 12,9 °C 13,1 °C 91 % 1017,1 hPa 0,0 mm 0,0 km/h (0 Bft) W 267 ° 0 min 0,000 mm 0,0 UV-I 0 W/m² 11,5 °C 12,9 °C 0,0 km/h (0 Bft)
02.06.2017 02:04 12,9 °C 12,9 °C 91 % 1017,1 hPa 0,0 mm 0,0 km/h (0 Bft) W 267 ° 0 min 0,000 mm 0,0 UV-I 0 W/m² 11,5 °C 12,9 °C 0,0 km/h (0 Bft)
02.06.2017 02:05 12,9 °C 12,9 °C 91 % 1017,1 hPa 0,0 mm 0,0 km/h (0 Bft) W 267 ° 0 min 0,000 mm 0,0 UV-I 0 W/m² 11,5 °C 12,9 °C 0,0 km/h (0 Bft)
02.06.2017 02:06 12,9 °C 12,9 °C 91 % 1017,2 hPa 0,0 mm 0,0 km/h (0 Bft) W 267 ° 0 min 0,000 mm 0,0 UV-I 0 W/m² 11,5 °C 12,9 °C 0,0 km/h (0 Bft)
02.06.2017 02:07 12,9 °C 12,9 °C 91 % 1017,1 hPa 0,0 mm 0,0 km/h (0 Bft) W 267 ° 0 min 0,000 mm 0,0 UV-I 0 W/m² 11,5 °C 12,9 °C 0,0 km/h (0 Bft)
02.06.2017 02:08 12,8 °C 12,9 °C 91 % 1017,1 hPa 0,0 mm 0,0 km/h (0 Bft) W 267 ° 0 min 0,000 mm 0,0 UV-I 0 W/m² 11,4 °C 12,8 °C 0,0 km/h (0 Bft)
02.06.2017 02:09 12,8 °C 12,9 °C 91 % 1017,1 hPa 0,0 mm 0,0 km/h (0 Bft) W 267 ° 0 min 0,000 mm 0,0 UV-I 0 W/m² 11,4 °C 12,8 °C 0,0 km/h (0 Bft)
02.06.2017 02:10 12,8 °C 12,8 °C 91 % 1017,1 hPa 0,0 mm 0,0 km/h (0 Bft) W 267 ° 0 min 0,000 mm 0,0 UV-I 0 W/m² 11,4 °C 12,8 °C 0,0 km/h (0 Bft)
02.06.2017 02:11 12,8 °C 12,8 °C 92 % 1017,1 hPa 0,0 mm 0,5 km/h (0 Bft) W 267 ° 0 min 0,000 mm 0,0 UV-I 0 W/m² 11,5 °C 12,8 °C 1,6 km/h (1 Bft)
02.06.2017 02:12 12,8 °C 12,8 °C 92 % 1017,1 hPa 0,0 mm 0,0 km/h (0 Bft) W 267 ° 0 min 0,000 mm 0,0 UV-I 0 W/m² 11,5 °C 12,8 °C 0,0 km/h (0 Bft)
02.06.2017 02:13 12,8 °C 12,8 °C 92 % 1017,1 hPa 0,0 mm 0,0 km/h (0 Bft) W 267 ° 0 min 0,000 mm 0,0 UV-I 0 W/m² 11,5 °C 12,8 °C 0,0 km/h (0 Bft)
02.06.2017 02:14 12,8 °C 12,8 °C 92 % 1017,0 hPa 0,0 mm 0,0 km/h (0 Bft) W 267 ° 0 min 0,000 mm 0,0 UV-I 0 W/m² 11,5 °C 12,8 °C 0,0 km/h (0 Bft)
02.06.2017 02:15 12,8 °C 12,8 °C 92 % 1017,0 hPa 0,0 mm 0,0 km/h (0 Bft) W 267 ° 0 min 0,000 mm 0,0 UV-I 0 W/m² 11,5 °C 12,8 °C 0,0 km/h (0 Bft)
02.06.2017 02:16 12,8 °C 12,8 °C 92 % 1017,0 hPa 0,0 mm 0,2 km/h (0 Bft) W 267 ° 0 min 0,000 mm 0,0 UV-I 0 W/m² 11,5 °C 12,8 °C 1,6 km/h (1 Bft)
02.06.2017 02:17 12,8 °C 12,8 °C 92 % 1017,0 hPa 0,0 mm 1,8 km/h (1 Bft) W-NW 285 ° 0 min 0,000 mm 0,0 UV-I 0 W/m² 11,5 °C 12,8 °C 3,2 km/h (1 Bft)
02.06.2017 02:18 12,8 °C 12,8 °C 92 % 1017,0 hPa 0,0 mm 0,1 km/h (0 Bft) W-NW 285 ° 0 min 0,000 mm 0,0 UV-I 0 W/m² 11,5 °C 12,8 °C 1,6 km/h (1 Bft)
02.06.2017 02:19 12,8 °C 12,8 °C 92 % 1017,0 hPa 0,0 mm 0,0 km/h (0 Bft) W-NW 285 ° 0 min 0,000 mm 0,0 UV-I 0 W/m² 11,5 °C 12,8 °C 0,0 km/h (0 Bft)
02.06.2017 02:20 12,9 °C 12,9 °C 92 % 1017,0 hPa 0,0 mm 0,0 km/h (0 Bft) W-NW 285 ° 0 min 0,000 mm 0,0 UV-I 0 W/m² 11,6 °C 12,9 °C 0,0 km/h (0 Bft)
02.06.2017 02:21 12,9 °C 12,9 °C 92 % 1017,0 hPa 0,0 mm 0,7 km/h (0 Bft) W-NW 285 ° 0 min 0,000 mm 0,0 UV-I 0 W/m² 11,6 °C 12,9 °C 1,6 km/h (1 Bft)
02.06.2017 02:22 12,9 °C 12,9 °C 92 % 1017,0 hPa 0,0 mm 0,3 km/h (0 Bft) W-NW 285 ° 0 min 0,000 mm 0,0 UV-I 0 W/m² 11,6 °C 12,9 °C 1,6 km/h (1 Bft)
02.06.2017 02:23 12,9 °C 12,9 °C 92 % 1017,0 hPa 0,0 mm 0,0 km/h (0 Bft) W-NW 285 ° 0 min 0,000 mm 0,0 UV-I 0 W/m² 11,6 °C 12,9 °C 0,0 km/h (0 Bft)
02.06.2017 02:24 12,9 °C 12,9 °C 92 % 1017,0 hPa 0,0 mm 0,0 km/h (0 Bft) W-NW 285 ° 0 min 0,000 mm 0,0 UV-I 0 W/m² 11,6 °C 12,9 °C 0,0 km/h (0 Bft)
02.06.2017 02:25 13,0 °C 13,0 °C 92 % 1017,0 hPa 0,0 mm 0,0 km/h (0 Bft) W-NW 285 ° 0 min 0,000 mm 0,0 UV-I 0 W/m² 11,7 °C 13,0 °C 0,0 km/h (0 Bft)
02.06.2017 02:26 13,0 °C 13,0 °C 92 % 1017,1 hPa 0,0 mm 0,0 km/h (0 Bft) W-NW 285 ° 0 min 0,000 mm 0,0 UV-I 0 W/m² 11,7 °C 13,0 °C 0,0 km/h (0 Bft)
02.06.2017 02:27 13,0 °C 13,0 °C 92 % 1017,0 hPa 0,0 mm 2,6 km/h (1 Bft) N 355 ° 0 min 0,000 mm 0,0 UV-I 0 W/m² 11,7 °C 13,0 °C 4,8 km/h (1 Bft)
02.06.2017 02:28 12,9 °C 13,0 °C 92 % 1017,0 hPa 0,0 mm 1,0 km/h (0 Bft) N 355 ° 0 min 0,000 mm 0,0 UV-I 0 W/m² 11,6 °C 12,9 °C 3,2 km/h (1 Bft)
02.06.2017 02:29 13,0 °C 13,0 °C 92 % 1017,0 hPa 0,0 mm 0,0 km/h (0 Bft) N 355 ° 0 min 0,000 mm 0,0 UV-I 0 W/m² 11,7 °C 13,0 °C 0,0 km/h (0 Bft)
02.06.2017 02:30 13,1 °C 13,1 °C 92 % 1017,0 hPa 0,0 mm 0,0 km/h (0 Bft) N 355 ° 0 min 0,000 mm 0,0 UV-I 0 W/m² 11,8 °C 13,1 °C 0,0 km/h (0 Bft)
02.06.2017 02:31 13,1 °C 13,1 °C 92 % 1017,0 hPa 0,0 mm 0,3 km/h (0 Bft) N 355 ° 0 min 0,000 mm 0,0 UV-I 0 W/m² 11,8 °C 13,1 °C 1,6 km/h (1 Bft)
02.06.2017 02:32 13,1 °C 13,1 °C 92 % 1017,0 hPa 0,0 mm 0,6 km/h (0 Bft) N 355 ° 0 min 0,000 mm 0,0 UV-I 0 W/m² 11,8 °C 13,1 °C 1,6 km/h (1 Bft)
02.06.2017 02:33 13,2 °C 13,2 °C 92 % 1017,0 hPa 0,0 mm 2,3 km/h (1 Bft) N-NW 342 ° 0 min 0,000 mm 0,0 UV-I 0 W/m² 11,9 °C 13,2 °C 3,2 km/h (1 Bft)
02.06.2017 02:34 13,2 °C 13,2 °C 92 % 1017,0 hPa 0,0 mm 2,1 km/h (1 Bft) N-NW 342 ° 0 min 0,000 mm 0,0 UV-I 0 W/m² 11,9 °C 13,2 °C 3,2 km/h (1 Bft)
02.06.2017 02:35 13,3 °C 13,3 °C 91 % 1017,0 hPa 0,0 mm 1,9 km/h (1 Bft) N-NW 342 ° 0 min 0,000 mm 0,0 UV-I 0 W/m² 11,9 °C 13,3 °C 3,2 km/h (1 Bft)
02.06.2017 02:36 13,3 °C 13,3 °C 91 % 1017,0 hPa 0,0 mm 0,3 km/h (0 Bft) N-NW 342 ° 0 min 0,000 mm 0,0 UV-I 0 W/m² 11,9 °C 13,3 °C 1,6 km/h (1 Bft)
02.06.2017 02:37 13,4 °C 13,4 °C 91 % 1017,0 hPa 0,0 mm 0,3 km/h (0 Bft) N-NW 342 ° 0 min 0,000 mm 0,0 UV-I 0 W/m² 12,0 °C 13,4 °C 1,6 km/h (1 Bft)
02.06.2017 02:38 13,4 °C 13,4 °C 91 % 1017,0 hPa 0,0 mm 0,0 km/h (0 Bft) N-NW 342 ° 0 min 0,000 mm 0,0 UV-I 0 W/m² 12,0 °C 13,4 °C 0,0 km/h (0 Bft)
02.06.2017 02:39 13,4 °C 13,4 °C 91 % 1017,0 hPa 0,0 mm 0,0 km/h (0 Bft) N-NW 342 ° 0 min 0,000 mm 0,0 UV-I 0 W/m² 12,0 °C 13,4 °C 0,0 km/h (0 Bft)
02.06.2017 02:40 13,4 °C 13,4 °C 91 % 1017,0 hPa 0,0 mm 0,0 km/h (0 Bft) N-NW 342 ° 0 min 0,000 mm 0,0 UV-I 0 W/m² 12,0 °C 13,4 °C 0,0 km/h (0 Bft)
02.06.2017 02:41 13,4 °C 13,4 °C 91 % 1017,0 hPa 0,0 mm 0,0 km/h (0 Bft) N-NW 342 ° 0 min 0,000 mm 0,0 UV-I 0 W/m² 12,0 °C 13,4 °C 0,0 km/h (0 Bft)
02.06.2017 02:42 13,4 °C 13,4 °C 91 % 1017,0 hPa 0,0 mm 0,0 km/h (0 Bft) N-NW 342 ° 0 min 0,000 mm 0,0 UV-I 0 W/m² 12,0 °C 13,4 °C 0,0 km/h (0 Bft)
02.06.2017 02:43 13,4 °C 13,4 °C 91 % 1017,0 hPa 0,0 mm 0,0 km/h (0 Bft) N-NW 342 ° 0 min 0,000 mm 0,0 UV-I 0 W/m² 12,0 °C 13,4 °C 0,0 km/h (0 Bft)
02.06.2017 02:44 13,4 °C 13,4 °C 91 % 1017,0 hPa 0,0 mm 0,0 km/h (0 Bft) N-NW 342 ° 0 min 0,000 mm 0,0 UV-I 0 W/m² 12,0 °C 13,4 °C 0,0 km/h (0 Bft)
02.06.2017 02:45 13,4 °C 13,4 °C 91 % 1017,0 hPa 0,0 mm 0,3 km/h (0 Bft) N-NW 342 ° 0 min 0,000 mm 0,0 UV-I 0 W/m² 12,0 °C 13,4 °C 1,6 km/h (1 Bft)
02.06.2017 02:46 13,3 °C 13,4 °C 91 % 1017,0 hPa 0,0 mm 0,0 km/h (0 Bft) N-NW 342 ° 0 min 0,000 mm 0,0 UV-I 0 W/m² 11,9 °C 13,3 °C 0,0 km/h (0 Bft)
02.06.2017 02:47 13,3 °C 13,4 °C 91 % 1016,9 hPa 0,0 mm 0,0 km/h (0 Bft) N-NW 342 ° 0 min 0,000 mm 0,0 UV-I 0 W/m² 11,9 °C 13,3 °C 0,0 km/h (0 Bft)
02.06.2017 02:48 13,3 °C 13,3 °C 91 % 1016,9 hPa 0,0 mm 0,0 km/h (0 Bft) N-NW 342 ° 0 min 0,000 mm 0,0 UV-I 0 W/m² 11,9 °C 13,3 °C 0,0 km/h (0 Bft)
02.06.2017 02:49 13,3 °C 13,3 °C 91 % 1016,9 hPa 0,0 mm 0,0 km/h (0 Bft) N-NW 342 ° 0 min 0,000 mm 0,0 UV-I 0 W/m² 11,9 °C 13,3 °C 0,0 km/h (0 Bft)
02.06.2017 02:50 13,4 °C 13,4 °C 91 % 1016,9 hPa 0,0 mm 0,0 km/h (0 Bft) N-NW 342 ° 0 min 0,000 mm 0,0 UV-I 0 W/m² 12,0 °C 13,4 °C 0,0 km/h (0 Bft)
02.06.2017 02:51 13,4 °C 13,4 °C 91 % 1016,9 hPa 0,0 mm 0,0 km/h (0 Bft) N-NW 342 ° 0 min 0,000 mm 0,0 UV-I 0 W/m² 12,0 °C 13,4 °C 0,0 km/h (0 Bft)
02.06.2017 02:52 13,4 °C 13,4 °C 90 % 1016,9 hPa 0,0 mm 0,0 km/h (0 Bft) N-NW 342 ° 0 min 0,000 mm 0,0 UV-I 0 W/m² 11,8 °C 13,4 °C 0,0 km/h (0 Bft)
02.06.2017 02:53 13,5 °C 13,5 °C 90 % 1016,9 hPa 0,0 mm 0,0 km/h (0 Bft) N-NW 342 ° 0 min 0,000 mm 0,0 UV-I 0 W/m² 11,9 °C 13,5 °C 0,0 km/h (0 Bft)
02.06.2017 02:54 13,5 °C 13,5 °C 90 % 1016,9 hPa 0,0 mm 0,0 km/h (0 Bft) N-NW 342 ° 0 min 0,000 mm 0,0 UV-I 0 W/m² 11,9 °C 13,5 °C 0,0 km/h (0 Bft)
02.06.2017 02:55 13,4 °C 13,5 °C 90 % 1016,9 hPa 0,0 mm 0,0 km/h (0 Bft) N-NW 342 ° 0 min 0,000 mm 0,0 UV-I 0 W/m² 11,8 °C 13,4 °C 0,0 km/h (0 Bft)
02.06.2017 02:56 13,4 °C 13,4 °C 90 % 1016,9 hPa 0,0 mm 0,0 km/h (0 Bft) N-NW 342 ° 0 min 0,000 mm 0,0 UV-I 0 W/m² 11,8 °C 13,4 °C 0,0 km/h (0 Bft)
02.06.2017 02:57 13,3 °C 13,4 °C 90 % 1016,9 hPa 0,0 mm 0,0 km/h (0 Bft) N-NW 342 ° 0 min 0,000 mm 0,0 UV-I 0 W/m² 11,7 °C 13,3 °C 0,0 km/h (0 Bft)
02.06.2017 02:58 13,3 °C 13,3 °C 91 % 1016,9 hPa 0,0 mm 0,0 km/h (0 Bft) N-NW 342 ° 0 min 0,000 mm 0,0 UV-I 0 W/m² 11,9 °C 13,3 °C 0,0 km/h (0 Bft)
02.06.2017 02:59 13,3 °C 13,3 °C 91 % 1016,9 hPa 0,0 mm 0,0 km/h (0 Bft) N-NW 342 ° 0 min 0,000 mm 0,0 UV-I 0 W/m² 11,9 °C 13,3 °C 0,0 km/h (0 Bft)
02.06.2017 03:00 13,3 °C 13,3 °C 91 % 1016,9 hPa 0,0 mm 0,0 km/h (0 Bft) N-NW 342 ° 0 min 0,000 mm 0,0 UV-I 0 W/m² 11,9 °C 13,3 °C 0,0 km/h (0 Bft)
02.06.2017 03:01 13,2 °C 13,3 °C 91 % 1016,9 hPa 0,0 mm 0,0 km/h (0 Bft) N-NW 342 ° 0 min 0,000 mm 0,0 UV-I 0 W/m² 11,8 °C 13,2 °C 0,0 km/h (0 Bft)
02.06.2017 03:02 13,2 °C 13,3 °C 91 % 1016,9 hPa 0,0 mm 0,0 km/h (0 Bft) N-NW 342 ° 0 min 0,000 mm 0,0 UV-I 0 W/m² 11,8 °C 13,2 °C 0,0 km/h (0 Bft)
02.06.2017 03:03 13,2 °C 13,2 °C 91 % 1016,9 hPa 0,0 mm 0,0 km/h (0 Bft) N-NW 342 ° 0 min 0,000 mm 0,0 UV-I 0 W/m² 11,8 °C 13,2 °C 0,0 km/h (0 Bft)
02.06.2017 03:04 13,2 °C 13,2 °C 91 % 1016,9 hPa 0,0 mm 0,0 km/h (0 Bft) N-NW 342 ° 0 min 0,000 mm 0,0 UV-I 0 W/m² 11,8 °C 13,2 °C 0,0 km/h (0 Bft)
02.06.2017 03:05 13,2 °C 13,2 °C 91 % 1016,8 hPa 0,0 mm 0,0 km/h (0 Bft) N-NW 342 ° 0 min 0,000 mm 0,0 UV-I 0 W/m² 11,8 °C 13,2 °C 0,0 km/h (0 Bft)
02.06.2017 03:06 13,2 °C 13,2 °C 91 % 1016,9 hPa 0,0 mm 0,0 km/h (0 Bft) N-NW 342 ° 0 min 0,000 mm 0,0 UV-I 0 W/m² 11,8 °C 13,2 °C 0,0 km/h (0 Bft)
02.06.2017 03:07 13,1 °C 13,2 °C 91 % 1016,9 hPa 0,0 mm 0,0 km/h (0 Bft) N-NW 342 ° 0 min 0,000 mm 0,0 UV-I 0 W/m² 11,7 °C 13,1 °C 0,0 km/h (0 Bft)
02.06.2017 03:08 13,1 °C 13,1 °C 91 % 1016,9 hPa 0,0 mm 0,0 km/h (0 Bft) N-NW 342 ° 0 min 0,000 mm 0,0 UV-I 0 W/m² 11,7 °C 13,1 °C 0,0 km/h (0 Bft)
02.06.2017 03:09 13,0 °C 13,1 °C 91 % 1016,8 hPa 0,0 mm 0,0 km/h (0 Bft) N-NW 342 ° 0 min 0,000 mm 0,0 UV-I 0 W/m² 11,6 °C 13,0 °C 0,0 km/h (0 Bft)
02.06.2017 03:10 12,9 °C 13,0 °C 91 % 1016,8 hPa 0,0 mm 0,0 km/h (0 Bft) N-NW 342 ° 0 min 0,000 mm 0,0 UV-I 0 W/m² 11,5 °C 12,9 °C 0,0 km/h (0 Bft)
02.06.2017 03:11 12,9 °C 13,0 °C 91 % 1016,8 hPa 0,0 mm 0,0 km/h (0 Bft) N-NW 342 ° 0 min 0,000 mm 0,0 UV-I 0 W/m² 11,5 °C 12,9 °C 0,0 km/h (0 Bft)
02.06.2017 03:12 12,9 °C 12,9 °C 91 % 1016,8 hPa 0,0 mm 0,0 km/h (0 Bft) N-NW 342 ° 0 min 0,000 mm 0,0 UV-I 0 W/m² 11,5 °C 12,9 °C 0,0 km/h (0 Bft)
02.06.2017 03:13 12,9 °C 12,9 °C 91 % 1016,8 hPa 0,0 mm 0,0 km/h (0 Bft) N-NW 342 ° 0 min 0,000 mm 0,0 UV-I 0 W/m² 11,5 °C 12,9 °C 0,0 km/h (0 Bft)
02.06.2017 03:14 12,9 °C 12,9 °C 91 % 1016,8 hPa 0,0 mm 0,0 km/h (0 Bft) N-NW 342 ° 0 min 0,000 mm 0,0 UV-I 0 W/m² 11,5 °C 12,9 °C 0,0 km/h (0 Bft)
02.06.2017 03:15 12,9 °C 12,9 °C 91 % 1016,8 hPa 0,0 mm 0,0 km/h (0 Bft) N-NW 342 ° 0 min 0,000 mm 0,0 UV-I 0 W/m² 11,5 °C 12,9 °C 0,0 km/h (0 Bft)
02.06.2017 03:16 12,8 °C 12,9 °C 92 % 1016,8 hPa 0,0 mm 0,0 km/h (0 Bft) N-NW 342 ° 0 min 0,000 mm 0,0 UV-I 0 W/m² 11,5 °C 12,8 °C 0,0 km/h (0 Bft)
02.06.2017 03:17 12,8 °C 12,9 °C 92 % 1016,8 hPa 0,0 mm 0,0 km/h (0 Bft) N-NW 342 ° 0 min 0,000 mm 0,0 UV-I 0 W/m² 11,5 °C 12,8 °C 0,0 km/h (0 Bft)
02.06.2017 03:18 12,8 °C 12,8 °C 92 % 1016,7 hPa 0,0 mm 0,0 km/h (0 Bft) N-NW 342 ° 0 min 0,000 mm 0,0 UV-I 0 W/m² 11,5 °C 12,8 °C 0,0 km/h (0 Bft)
02.06.2017 03:19 12,8 °C 12,8 °C 92 % 1016,7 hPa 0,0 mm 0,0 km/h (0 Bft) N-NW 342 ° 0 min 0,000 mm 0,0 UV-I 0 W/m² 11,5 °C 12,8 °C 0,0 km/h (0 Bft)
02.06.2017 03:20 12,8 °C 12,8 °C 92 % 1016,7 hPa 0,0 mm 0,5 km/h (0 Bft) N-NW 342 ° 0 min 0,000 mm 0,0 UV-I 0 W/m² 11,5 °C 12,8 °C 3,2 km/h (1 Bft)
02.06.2017 03:21 12,8 °C 12,8 °C 92 % 1016,7 hPa 0,0 mm 0,1 km/h (0 Bft) N-NW 342 ° 0 min 0,000 mm 0,0 UV-I 0 W/m² 11,5 °C 12,8 °C 1,6 km/h (1 Bft)
02.06.2017 03:22 12,8 °C 12,8 °C 92 % 1016,7 hPa 0,0 mm 0,1 km/h (0 Bft) N-NW 342 ° 0 min 0,000 mm 0,0 UV-I 0 W/m² 11,5 °C 12,8 °C 1,6 km/h (1 Bft)
02.06.2017 03:23 12,8 °C 12,8 °C 92 % 1016,7 hPa 0,0 mm 0,0 km/h (0 Bft) N-NW 342 ° 0 min 0,000 mm 0,0 UV-I 0 W/m² 11,5 °C 12,8 °C 0,0 km/h (0 Bft)
02.06.2017 03:24 12,9 °C 12,9 °C 92 % 1016,7 hPa 0,0 mm 1,1 km/h (1 Bft) N-NW 342 ° 0 min 0,000 mm 0,0 UV-I 0 W/m² 11,6 °C 12,9 °C 3,2 km/h (1 Bft)
02.06.2017 03:25 12,9 °C 12,9 °C 92 % 1016,6 hPa 0,0 mm 1,5 km/h (1 Bft) W-NW 284 ° 0 min 0,000 mm 0,0 UV-I 0 W/m² 11,6 °C 12,9 °C 3,2 km/h (1 Bft)
02.06.2017 03:26 12,9 °C 12,9 °C 91 % 1016,7 hPa 0,0 mm 0,6 km/h (0 Bft) W-NW 284 ° 0 min 0,000 mm 0,0 UV-I 0 W/m² 11,5 °C 12,9 °C 3,2 km/h (1 Bft)
02.06.2017 03:27 13,1 °C 13,1 °C 91 % 1016,6 hPa 0,0 mm 0,0 km/h (0 Bft) W-NW 284 ° 0 min 0,000 mm 0,0 UV-I 0 W/m² 11,7 °C 13,1 °C 0,0 km/h (0 Bft)
02.06.2017 03:28 13,2 °C 13,2 °C 91 % 1016,7 hPa 0,0 mm 0,0 km/h (0 Bft) W-NW 284 ° 0 min 0,000 mm 0,0 UV-I 0 W/m² 11,8 °C 13,2 °C 0,0 km/h (0 Bft)
02.06.2017 03:29 13,3 °C 13,3 °C 91 % 1016,7 hPa 0,0 mm 1,1 km/h (1 Bft) W 277 ° 0 min 0,000 mm 0,0 UV-I 0 W/m² 11,9 °C 13,3 °C 3,2 km/h (1 Bft)
02.06.2017 03:30 13,3 °C 13,3 °C 90 % 1016,7 hPa 0,0 mm 1,2 km/h (1 Bft) S-SO 152 ° 0 min 0,000 mm 0,0 UV-I 0 W/m² 11,7 °C 13,3 °C 3,2 km/h (1 Bft)
02.06.2017 03:31 13,4 °C 13,4 °C 90 % 1016,6 hPa 0,0 mm 1,3 km/h (1 Bft) S-SO 152 ° 0 min 0,000 mm 0,0 UV-I 0 W/m² 11,8 °C 13,4 °C 3,2 km/h (1 Bft)
02.06.2017 03:32 13,4 °C 13,4 °C 90 % 1016,6 hPa 0,0 mm 0,0 km/h (0 Bft) S-SO 152 ° 0 min 0,000 mm 0,0 UV-I 0 W/m² 11,8 °C 13,4 °C 0,0 km/h (0 Bft)
02.06.2017 03:33 13,4 °C 13,4 °C 90 % 1016,6 hPa 0,0 mm 0,0 km/h (0 Bft) S-SO 152 ° 0 min 0,000 mm 0,0 UV-I 0 W/m² 11,8 °C 13,4 °C 0,0 km/h (0 Bft)
02.06.2017 03:34 13,4 °C 13,4 °C 90 % 1016,6 hPa 0,0 mm 0,0 km/h (0 Bft) S-SO 152 ° 0 min 0,000 mm 0,0 UV-I 0 W/m² 11,8 °C 13,4 °C 0,0 km/h (0 Bft)
02.06.2017 03:35 13,4 °C 13,5 °C 90 % 1016,5 hPa 0,0 mm 0,0 km/h (0 Bft) S-SO 152 ° 0 min 0,000 mm 0,0 UV-I 0 W/m² 11,8 °C 13,4 °C 0,0 km/h (0 Bft)
02.06.2017 03:36 13,4 °C 13,4 °C 90 % 1016,5 hPa 0,0 mm 0,0 km/h (0 Bft) S-SO 152 ° 0 min 0,000 mm 0,0 UV-I 0 W/m² 11,8 °C 13,4 °C 0,0 km/h (0 Bft)
02.06.2017 03:37 13,4 °C 13,5 °C 90 % 1016,6 hPa 0,0 mm 0,0 km/h (0 Bft) S-SO 152 ° 0 min 0,000 mm 0,0 UV-I 0 W/m² 11,8 °C 13,4 °C 0,0 km/h (0 Bft)
02.06.2017 03:38 13,5 °C 13,5 °C 89 % 1016,5 hPa 0,0 mm 0,0 km/h (0 Bft) S-SO 152 ° 0 min 0,000 mm 0,0 UV-I 0 W/m² 11,7 °C 13,5 °C 0,0 km/h (0 Bft)
02.06.2017 03:39 13,4 °C 13,5 °C 89 % 1016,5 hPa 0,0 mm 0,1 km/h (0 Bft) S-SO 152 ° 0 min 0,000 mm 0,0 UV-I 0 W/m² 11,6 °C 13,4 °C 1,6 km/h (1 Bft)
02.06.2017 03:40 13,5 °C 13,5 °C 89 % 1016,5 hPa 0,0 mm 0,0 km/h (0 Bft) S-SO 152 ° 0 min 0,000 mm 0,0 UV-I 0 W/m² 11,7 °C 13,5 °C 0,0 km/h (0 Bft)
02.06.2017 03:41 13,5 °C 13,5 °C 89 % 1016,5 hPa 0,0 mm 0,5 km/h (0 Bft) S-SO 152 ° 0 min 0,000 mm 0,0 UV-I 0 W/m² 11,7 °C 13,5 °C 1,6 km/h (1 Bft)
02.06.2017 03:42 13,5 °C 13,5 °C 89 % 1016,5 hPa 0,0 mm 0,0 km/h (0 Bft) S-SO 152 ° 0 min 0,000 mm 0,0 UV-I 0 W/m² 11,7 °C 13,5 °C 0,0 km/h (0 Bft)
02.06.2017 03:43 13,4 °C 13,5 °C 89 % 1016,5 hPa 0,0 mm 0,2 km/h (0 Bft) S-SO 152 ° 0 min 0,000 mm 0,0 UV-I 0 W/m² 11,6 °C 13,4 °C 1,6 km/h (1 Bft)
02.06.2017 03:44 13,4 °C 13,4 °C 89 % 1016,5 hPa 0,0 mm 0,0 km/h (0 Bft) S-SO 152 ° 0 min 0,000 mm 0,0 UV-I 0 W/m² 11,6 °C 13,4 °C 0,0 km/h (0 Bft)
02.06.2017 03:45 13,4 °C 13,4 °C 89 % 1016,5 hPa 0,0 mm 0,0 km/h (0 Bft) S-SO 152 ° 0 min 0,000 mm 0,0 UV-I 0 W/m² 11,6 °C 13,4 °C 0,0 km/h (0 Bft)
02.06.2017 03:46 13,4 °C 13,4 °C 90 % 1016,5 hPa 0,0 mm 0,0 km/h (0 Bft) S-SO 152 ° 0 min 0,000 mm 0,0 UV-I 0 W/m² 11,8 °C 13,4 °C 0,0 km/h (0 Bft)
02.06.2017 03:47 13,4 °C 13,4 °C 90 % 1016,6 hPa 0,0 mm 0,0 km/h (0 Bft) S-SO 152 ° 0 min 0,000 mm 0,0 UV-I 0 W/m² 11,8 °C 13,4 °C 0,0 km/h (0 Bft)
02.06.2017 03:48 13,3 °C 13,4 °C 90 % 1016,5 hPa 0,0 mm 0,0 km/h (0 Bft) S-SO 152 ° 0 min 0,000 mm 0,0 UV-I 0 W/m² 11,7 °C 13,3 °C 0,0 km/h (0 Bft)
02.06.2017 03:49 13,3 °C 13,4 °C 90 % 1016,6 hPa 0,0 mm 0,0 km/h (0 Bft) S-SO 152 ° 0 min 0,000 mm 0,0 UV-I 0 W/m² 11,7 °C 13,3 °C 0,0 km/h (0 Bft)
02.06.2017 03:50 13,3 °C 13,3 °C 90 % 1016,6 hPa 0,0 mm 0,0 km/h (0 Bft) S-SO 152 ° 0 min 0,000 mm 0,0 UV-I 0 W/m² 11,7 °C 13,3 °C 0,0 km/h (0 Bft)
02.06.2017 03:51 13,2 °C 13,3 °C 90 % 1016,6 hPa 0,0 mm 0,0 km/h (0 Bft) S-SO 152 ° 0 min 0,000 mm 0,0 UV-I 0 W/m² 11,6 °C 13,2 °C 0,0 km/h (0 Bft)
02.06.2017 03:52 13,2 °C 13,2 °C 90 % 1016,6 hPa 0,0 mm 0,0 km/h (0 Bft) S-SO 152 ° 0 min 0,000 mm 0,0 UV-I 0 W/m² 11,6 °C 13,2 °C 0,0 km/h (0 Bft)
02.06.2017 03:53 13,2 °C 13,2 °C 90 % 1016,6 hPa 0,0 mm 0,5 km/h (0 Bft) S-SO 152 ° 0 min 0,000 mm 0,0 UV-I 0 W/m² 11,6 °C 13,2 °C 1,6 km/h (1 Bft)
02.06.2017 03:54 13,1 °C 13,2 °C 90 % 1016,6 hPa 0,0 mm 1,7 km/h (1 Bft) S-SO 152 ° 0 min 0,000 mm 0,0 UV-I 0 W/m² 11,5 °C 13,1 °C 3,2 km/h (1 Bft)
02.06.2017 03:55 13,1 °C 13,1 °C 90 % 1016,7 hPa 0,0 mm 1,1 km/h (1 Bft) S-SO 152 ° 0 min 0,000 mm 0,0 UV-I 0 W/m² 11,5 °C 13,1 °C 1,6 km/h (1 Bft)
02.06.2017 03:56 13,1 °C 13,1 °C 90 % 1016,7 hPa 0,0 mm 1,4 km/h (1 Bft) S-SO 153 ° 0 min 0,000 mm 0,0 UV-I 0 W/m² 11,5 °C 13,1 °C 3,2 km/h (1 Bft)
02.06.2017 03:57 13,1 °C 13,1 °C 90 % 1016,7 hPa 0,0 mm 1,6 km/h (1 Bft) S-SO 153 ° 0 min 0,000 mm 0,0 UV-I 0 W/m² 11,5 °C 13,1 °C 3,2 km/h (1 Bft)
02.06.2017 03:58 13,1 °C 13,1 °C 90 % 1016,6 hPa 0,0 mm 1,9 km/h (1 Bft) S-SO 153 ° 0 min 0,000 mm 0,0 UV-I 0 W/m² 11,5 °C 13,1 °C 3,2 km/h (1 Bft)
02.06.2017 03:59 13,1 °C 13,1 °C 90 % 1016,6 hPa 0,0 mm 0,1 km/h (0 Bft) S-SO 153 ° 0 min 0,000 mm 0,0 UV-I 0 W/m² 11,5 °C 13,1 °C 1,6 km/h (1 Bft)
02.06.2017 04:00 13,1 °C 13,1 °C 90 % 1016,6 hPa 0,0 mm 0,7 km/h (0 Bft) S-SO 153 ° 0 min 0,000 mm 0,0 UV-I 0 W/m² 11,5 °C 13,1 °C 1,6 km/h (1 Bft)
02.06.2017 04:01 13,1 °C 13,1 °C 90 % 1016,6 hPa 0,0 mm 0,5 km/h (0 Bft) S-SO 153 ° 0 min 0,000 mm 0,0 UV-I 0 W/m² 11,5 °C 13,1 °C 1,6 km/h (1 Bft)
02.06.2017 04:02 13,1 °C 13,1 °C 90 % 1016,6 hPa 0,0 mm 3,3 km/h (1 Bft) W-SW 247 ° 0 min 0,000 mm 0,0 UV-I 0 W/m² 11,5 °C 13,1 °C 4,8 km/h (1 Bft)
02.06.2017 04:03 13,1 °C 13,1 °C 90 % 1016,6 hPa 0,0 mm 2,3 km/h (1 Bft) W-SW 247 ° 0 min 0,000 mm 0,0 UV-I 0 W/m² 11,5 °C 13,1 °C 3,2 km/h (1 Bft)
02.06.2017 04:04 13,1 °C 13,1 °C 90 % 1016,6 hPa 0,0 mm 1,5 km/h (1 Bft) W-SW 247 ° 0 min 0,000 mm 0,0 UV-I 0 W/m² 11,5 °C 13,1 °C 3,2 km/h (1 Bft)
02.06.2017 04:05 13,1 °C 13,1 °C 89 % 1016,5 hPa 0,0 mm 0,0 km/h (0 Bft) W-SW 247 ° 0 min 0,000 mm 0,0 UV-I 0 W/m² 11,3 °C 13,1 °C 0,0 km/h (0 Bft)
02.06.2017 04:06 13,1 °C 13,1 °C 90 % 1016,5 hPa 0,0 mm 0,1 km/h (0 Bft) W-SW 247 ° 0 min 0,000 mm 0,0 UV-I 0 W/m² 11,5 °C 13,1 °C 1,6 km/h (1 Bft)
02.06.2017 04:07 13,0 °C 13,1 °C 90 % 1016,5 hPa 0,0 mm 0,0 km/h (0 Bft) W-SW 247 ° 0 min 0,000 mm 0,0 UV-I 0 W/m² 11,4 °C 13,0 °C 0,0 km/h (0 Bft)
02.06.2017 04:08 12,9 °C 13,0 °C 90 % 1016,5 hPa 0,0 mm 0,0 km/h (0 Bft) W-SW 247 ° 0 min 0,000 mm 0,0 UV-I 0 W/m² 11,3 °C 12,9 °C 0,0 km/h (0 Bft)
02.06.2017 04:09 12,9 °C 12,9 °C 90 % 1016,5 hPa 0,0 mm 0,0 km/h (0 Bft) W-SW 247 ° 0 min 0,000 mm 0,0 UV-I 0 W/m² 11,3 °C 12,9 °C 0,0 km/h (0 Bft)
02.06.2017 04:10 12,9 °C 12,9 °C 90 % 1016,5 hPa 0,0 mm 0,0 km/h (0 Bft) W-SW 247 ° 0 min 0,000 mm 0,0 UV-I 0 W/m² 11,3 °C 12,9 °C 0,0 km/h (0 Bft)
02.06.2017 04:11 12,9 °C 12,9 °C 90 % 1016,5 hPa 0,0 mm 0,0 km/h (0 Bft) W-SW 247 ° 0 min 0,000 mm 0,0 UV-I 0 W/m² 11,3 °C 12,9 °C 0,0 km/h (0 Bft)
02.06.2017 04:12 12,8 °C 12,9 °C 90 % 1016,5 hPa 0,0 mm 0,0 km/h (0 Bft) W-SW 247 ° 0 min 0,000 mm 0,0 UV-I 0 W/m² 11,2 °C 12,8 °C 0,0 km/h (0 Bft)
02.06.2017 04:13 12,8 °C 12,8 °C 90 % 1016,5 hPa 0,0 mm 0,0 km/h (0 Bft) W-SW 247 ° 0 min 0,000 mm 0,0 UV-I 0 W/m² 11,2 °C 12,8 °C 0,0 km/h (0 Bft)
02.06.2017 04:14 12,8 °C 12,8 °C 90 % 1016,5 hPa 0,0 mm 0,0 km/h (0 Bft) W-SW 247 ° 0 min 0,000 mm 0,0 UV-I 0 W/m² 11,2 °C 12,8 °C 0,0 km/h (0 Bft)
02.06.2017 04:15 12,7 °C 12,8 °C 91 % 1016,4 hPa 0,0 mm 0,3 km/h (0 Bft) W-SW 247 ° 0 min 0,000 mm 0,0 UV-I 0 W/m² 11,3 °C 12,7 °C 1,6 km/h (1 Bft)
02.06.2017 04:16 12,8 °C 12,8 °C 91 % 1016,4 hPa 0,0 mm 0,8 km/h (0 Bft) W-SW 247 ° 0 min 0,000 mm 0,0 UV-I 0 W/m² 11,4 °C 12,8 °C 3,2 km/h (1 Bft)
02.06.2017 04:17 12,8 °C 12,8 °C 90 % 1016,4 hPa 0,0 mm 1,1 km/h (1 Bft) W-SW 246 ° 0 min 0,000 mm 0,0 UV-I 0 W/m² 11,2 °C 12,8 °C 3,2 km/h (1 Bft)
02.06.2017 04:18 12,8 °C 12,8 °C 91 % 1016,4 hPa 0,0 mm 0,1 km/h (0 Bft) W-SW 246 ° 0 min 0,000 mm 0,0 UV-I 0 W/m² 11,4 °C 12,8 °C 1,6 km/h (1 Bft)
02.06.2017 04:19 12,8 °C 12,8 °C 90 % 1016,4 hPa 0,0 mm 0,5 km/h (0 Bft) W-SW 246 ° 0 min 0,000 mm 0,0 UV-I 0 W/m² 11,2 °C 12,8 °C 1,6 km/h (1 Bft)
02.06.2017 04:20 12,8 °C 12,8 °C 90 % 1016,4 hPa 0,0 mm 0,2 km/h (0 Bft) W-SW 246 ° 0 min 0,000 mm 0,0 UV-I 0 W/m² 11,2 °C 12,8 °C 1,6 km/h (1 Bft)
02.06.2017 04:21 12,8 °C 12,8 °C 90 % 1016,4 hPa 0,0 mm 0,0 km/h (0 Bft) W-SW 246 ° 0 min 0,000 mm 0,0 UV-I 0 W/m² 11,2 °C 12,8 °C 0,0 km/h (0 Bft)
02.06.2017 04:22 12,9 °C 12,9 °C 91 % 1016,3 hPa 0,0 mm 0,0 km/h (0 Bft) W-SW 246 ° 0 min 0,000 mm 0,0 UV-I 0 W/m² 11,5 °C 12,9 °C 0,0 km/h (0 Bft)
02.06.2017 04:23 12,9 °C 12,9 °C 90 % 1016,3 hPa 0,0 mm 0,0 km/h (0 Bft) W-SW 246 ° 0 min 0,000 mm 0,0 UV-I 0 W/m² 11,3 °C 12,9 °C 0,0 km/h (0 Bft)
02.06.2017 04:24 12,9 °C 12,9 °C 90 % 1016,4 hPa 0,0 mm 0,0 km/h (0 Bft) W-SW 246 ° 0 min 0,000 mm 0,0 UV-I 0 W/m² 11,3 °C 12,9 °C 0,0 km/h (0 Bft)
02.06.2017 04:25 12,9 °C 12,9 °C 90 % 1016,4 hPa 0,0 mm 0,1 km/h (0 Bft) W-SW 246 ° 0 min 0,000 mm 0,0 UV-I 0 W/m² 11,3 °C 12,9 °C 1,6 km/h (1 Bft)
02.06.2017 04:26 12,9 °C 12,9 °C 90 % 1016,4 hPa 0,0 mm 1,8 km/h (1 Bft) W 264 ° 0 min 0,000 mm 0,0 UV-I 0 W/m² 11,3 °C 12,9 °C 3,2 km/h (1 Bft)
02.06.2017 04:27 12,9 °C 12,9 °C 90 % 1016,4 hPa 0,0 mm 2,4 km/h (1 Bft) NW 312 ° 0 min 0,000 mm 0,0 UV-I 0 W/m² 11,3 °C 12,9 °C 4,8 km/h (1 Bft)
02.06.2017 04:28 12,9 °C 12,9 °C 89 % 1016,4 hPa 0,0 mm 2,1 km/h (1 Bft) NW 312 ° 0 min 0,000 mm 0,0 UV-I 0 W/m² 11,1 °C 12,9 °C 3,2 km/h (1 Bft)
02.06.2017 04:29 12,9 °C 12,9 °C 89 % 1016,4 hPa 0,0 mm 2,0 km/h (1 Bft) NW 312 ° 0 min 0,000 mm 0,0 UV-I 0 W/m² 11,1 °C 12,9 °C 4,8 km/h (1 Bft)
02.06.2017 04:30 12,8 °C 12,9 °C 89 % 1016,4 hPa 0,0 mm 0,4 km/h (0 Bft) NW 312 ° 0 min 0,000 mm 0,0 UV-I 0 W/m² 11,0 °C 12,8 °C 1,6 km/h (1 Bft)
02.06.2017 04:31 12,7 °C 12,8 °C 89 % 1016,4 hPa 0,0 mm 0,0 km/h (0 Bft) NW 312 ° 0 min 0,000 mm 0,0 UV-I 0 W/m² 10,9 °C 12,7 °C 0,0 km/h (0 Bft)
02.06.2017 04:32 12,6 °C 12,7 °C 90 % 1016,4 hPa 0,0 mm 0,0 km/h (0 Bft) NW 312 ° 0 min 0,000 mm 0,0 UV-I 0 W/m² 11,0 °C 12,6 °C 0,0 km/h (0 Bft)
02.06.2017 04:33 12,6 °C 12,6 °C 90 % 1016,4 hPa 0,0 mm 0,0 km/h (0 Bft) NW 312 ° 0 min 0,000 mm 0,0 UV-I 0 W/m² 11,0 °C 12,6 °C 0,0 km/h (0 Bft)
02.06.2017 04:34 12,6 °C 12,6 °C 91 % 1016,4 hPa 0,0 mm 0,0 km/h (0 Bft) NW 312 ° 0 min 0,000 mm 0,0 UV-I 0 W/m² 11,2 °C 12,6 °C 0,0 km/h (0 Bft)
02.06.2017 04:35 12,6 °C 12,6 °C 91 % 1016,4 hPa 0,0 mm 0,0 km/h (0 Bft) NW 312 ° 0 min 0,000 mm 0,0 UV-I 0 W/m² 11,2 °C 12,6 °C 0,0 km/h (0 Bft)
02.06.2017 04:36 12,5 °C 12,6 °C 91 % 1016,4 hPa 0,0 mm 0,0 km/h (0 Bft) NW 312 ° 0 min 0,000 mm 0,0 UV-I 0 W/m² 11,1 °C 12,5 °C 0,0 km/h (0 Bft)
02.06.2017 04:37 12,5 °C 12,6 °C 91 % 1016,5 hPa 0,0 mm 0,0 km/h (0 Bft) NW 312 ° 0 min 0,000 mm 0,0 UV-I 0 W/m² 11,1 °C 12,5 °C 0,0 km/h (0 Bft)
02.06.2017 04:38 12,4 °C 12,5 °C 91 % 1016,5 hPa 0,0 mm 0,7 km/h (0 Bft) NW 312 ° 0 min 0,000 mm 0,0 UV-I 0 W/m² 11,0 °C 12,4 °C 3,2 km/h (1 Bft)
02.06.2017 04:39 12,4 °C 12,4 °C 90 % 1016,5 hPa 0,0 mm 0,3 km/h (0 Bft) NW 312 ° 0 min 0,000 mm 0,0 UV-I 0 W/m² 10,8 °C 12,4 °C 1,6 km/h (1 Bft)
02.06.2017 04:40 12,4 °C 12,4 °C 90 % 1016,4 hPa 0,0 mm 0,7 km/h (0 Bft) NW 312 ° 0 min 0,000 mm 0,0 UV-I 0 W/m² 10,8 °C 12,4 °C 1,6 km/h (1 Bft)
02.06.2017 04:41 12,4 °C 12,4 °C 91 % 1016,4 hPa 0,0 mm 0,0 km/h (0 Bft) NW 312 ° 0 min 0,000 mm 0,0 UV-I 0 W/m² 11,0 °C 12,4 °C 0,0 km/h (0 Bft)
02.06.2017 04:42 12,3 °C 12,4 °C 91 % 1016,5 hPa 0,0 mm 0,2 km/h (0 Bft) NW 312 ° 0 min 0,000 mm 0,0 UV-I 0 W/m² 10,9 °C 12,3 °C 1,6 km/h (1 Bft)
02.06.2017 04:43 12,3 °C 12,3 °C 91 % 1016,4 hPa 0,0 mm 0,1 km/h (0 Bft) NW 312 ° 0 min 0,000 mm 0,0 UV-I 0 W/m² 10,9 °C 12,3 °C 1,6 km/h (1 Bft)
02.06.2017 04:44 12,3 °C 12,3 °C 91 % 1016,5 hPa 0,0 mm 0,0 km/h (0 Bft) NW 312 ° 0 min 0,000 mm 0,0 UV-I 0 W/m² 10,9 °C 12,3 °C 0,0 km/h (0 Bft)
02.06.2017 04:45 12,3 °C 12,3 °C 91 % 1016,4 hPa 0,0 mm 0,0 km/h (0 Bft) NW 312 ° 0 min 0,000 mm 0,0 UV-I 0 W/m² 10,9 °C 12,3 °C 0,0 km/h (0 Bft)
02.06.2017 04:46 12,2 °C 12,3 °C 92 % 1016,4 hPa 0,0 mm 0,0 km/h (0 Bft) NW 312 ° 0 min 0,000 mm 0,0 UV-I 0 W/m² 10,9 °C 12,2 °C 0,0 km/h (0 Bft)
02.06.2017 04:47 12,3 °C 12,3 °C 92 % 1016,5 hPa 0,0 mm 0,0 km/h (0 Bft) NW 312 ° 0 min 0,000 mm 0,0 UV-I 0 W/m² 11,0 °C 12,3 °C 0,0 km/h (0 Bft)
02.06.2017 04:48 12,2 °C 12,3 °C 91 % 1016,5 hPa 0,0 mm 0,0 km/h (0 Bft) NW 312 ° 0 min 0,000 mm 0,0 UV-I 0 W/m² 10,8 °C 12,2 °C 0,0 km/h (0 Bft)
02.06.2017 04:49 12,2 °C 12,2 °C 91 % 1016,4 hPa 0,0 mm 0,0 km/h (0 Bft) NW 312 ° 0 min 0,000 mm 0,0 UV-I 0 W/m² 10,8 °C 12,2 °C 0,0 km/h (0 Bft)
02.06.2017 04:50 12,2 °C 12,2 °C 91 % 1016,4 hPa 0,0 mm 0,0 km/h (0 Bft) NW 312 ° 0 min 0,000 mm 0,0 UV-I 0 W/m² 10,8 °C 12,2 °C 0,0 km/h (0 Bft)
02.06.2017 04:51 12,2 °C 12,2 °C 92 % 1016,4 hPa 0,0 mm 0,0 km/h (0 Bft) NW 312 ° 0 min 0,000 mm 0,0 UV-I 0 W/m² 10,9 °C 12,2 °C 0,0 km/h (0 Bft)
02.06.2017 04:52 12,2 °C 12,2 °C 92 % 1016,4 hPa 0,0 mm 0,0 km/h (0 Bft) NW 312 ° 0 min 0,000 mm 0,0 UV-I 0 W/m² 10,9 °C 12,2 °C 0,0 km/h (0 Bft)
02.06.2017 04:53 12,2 °C 12,2 °C 92 % 1016,4 hPa 0,0 mm 0,0 km/h (0 Bft) NW 312 ° 0 min 0,000 mm 0,0 UV-I 0 W/m² 10,9 °C 12,2 °C 0,0 km/h (0 Bft)
02.06.2017 04:54 12,2 °C 12,2 °C 92 % 1016,5 hPa 0,0 mm 0,0 km/h (0 Bft) NW 312 ° 0 min 0,000 mm 0,0 UV-I 0 W/m² 10,9 °C 12,2 °C 0,0 km/h (0 Bft)
02.06.2017 04:55 12,2 °C 12,2 °C 92 % 1016,5 hPa 0,0 mm 0,0 km/h (0 Bft) NW 312 ° 0 min 0,000 mm 0,0 UV-I 0 W/m² 10,9 °C 12,2 °C 0,0 km/h (0 Bft)
02.06.2017 04:56 12,2 °C 12,3 °C 92 % 1016,5 hPa 0,0 mm 0,0 km/h (0 Bft) NW 312 ° 0 min 0,000 mm 0,0 UV-I 0 W/m² 10,9 °C 12,2 °C 0,0 km/h (0 Bft)
02.06.2017 04:57 12,3 °C 12,3 °C 92 % 1016,4 hPa 0,0 mm 0,0 km/h (0 Bft) NW 312 ° 0 min 0,000 mm 0,0 UV-I 0 W/m² 11,0 °C 12,3 °C 0,0 km/h (0 Bft)
02.06.2017 04:58 12,3 °C 12,3 °C 92 % 1016,4 hPa 0,0 mm 0,0 km/h (0 Bft) NW 312 ° 0 min 0,000 mm 0,0 UV-I 0 W/m² 11,0 °C 12,3 °C 0,0 km/h (0 Bft)
02.06.2017 04:59 12,3 °C 12,3 °C 92 % 1016,5 hPa 0,0 mm 0,0 km/h (0 Bft) NW 312 ° 0 min 0,000 mm 0,0 UV-I 0 W/m² 11,0 °C 12,3 °C 0,0 km/h (0 Bft)
02.06.2017 05:00 12,4 °C 12,4 °C 92 % 1016,5 hPa 0,0 mm 0,0 km/h (0 Bft) NW 312 ° 0 min 0,000 mm 0,0 UV-I 0 W/m² 11,1 °C 12,4 °C 0,0 km/h (0 Bft)
02.06.2017 05:01 12,5 °C 12,5 °C 92 % 1016,4 hPa 0,0 mm 0,0 km/h (0 Bft) NW 312 ° 0 min 0,000 mm 0,0 UV-I 0 W/m² 11,2 °C 12,5 °C 0,0 km/h (0 Bft)
02.06.2017 05:02 12,6 °C 12,6 °C 92 % 1016,5 hPa 0,0 mm 1,3 km/h (1 Bft) SW 232 ° 0 min 0,000 mm 0,0 UV-I 0 W/m² 11,3 °C 12,6 °C 3,2 km/h (1 Bft)
02.06.2017 05:03 12,7 °C 12,8 °C 92 % 1016,4 hPa 0,0 mm 1,9 km/h (1 Bft) S-SW 193 ° 0 min 0,000 mm 0,0 UV-I 0 W/m² 11,4 °C 12,7 °C 4,8 km/h (1 Bft)
02.06.2017 05:04 12,8 °C 12,8 °C 91 % 1016,4 hPa 0,0 mm 1,3 km/h (1 Bft) S-SW 193 ° 0 min 0,000 mm 0,0 UV-I 0 W/m² 11,4 °C 12,8 °C 4,8 km/h (1 Bft)
02.06.2017 05:05 12,8 °C 12,8 °C 91 % 1016,4 hPa 0,0 mm 0,2 km/h (0 Bft) S-SW 193 ° 0 min 0,000 mm 0,0 UV-I 0 W/m² 11,4 °C 12,8 °C 1,6 km/h (1 Bft)
02.06.2017 05:06 12,8 °C 12,8 °C 91 % 1016,4 hPa 0,0 mm 2,8 km/h (1 Bft) S-SW 196 ° 0 min 0,000 mm 0,0 UV-I 0 W/m² 11,4 °C 12,8 °C 4,8 km/h (1 Bft)
02.06.2017 05:07 12,9 °C 12,9 °C 91 % 1016,4 hPa 0,0 mm 3,4 km/h (1 Bft) S-SW 195 ° 0 min 0,000 mm 0,0 UV-I 0 W/m² 11,5 °C 12,9 °C 4,8 km/h (1 Bft)
02.06.2017 05:08 13,1 °C 13,1 °C 91 % 1016,4 hPa 0,0 mm 2,8 km/h (1 Bft) S-SW 195 ° 0 min 0,000 mm 0,0 UV-I 0 W/m² 11,7 °C 13,1 °C 4,8 km/h (1 Bft)
02.06.2017 05:09 13,1 °C 13,1 °C 91 % 1016,4 hPa 0,0 mm 2,5 km/h (1 Bft) S-SW 195 ° 0 min 0,000 mm 0,0 UV-I 0 W/m² 11,7 °C 13,1 °C 4,8 km/h (1 Bft)
02.06.2017 05:10 13,2 °C 13,2 °C 90 % 1016,3 hPa 0,0 mm 2,1 km/h (1 Bft) S-SW 195 ° 0 min 0,000 mm 0,0 UV-I 0 W/m² 11,6 °C 13,2 °C 3,2 km/h (1 Bft)
02.06.2017 05:11 13,2 °C 13,2 °C 91 % 1016,3 hPa 0,0 mm 1,0 km/h (0 Bft) S-SW 195 ° 0 min 0,000 mm 0,0 UV-I 0 W/m² 11,8 °C 13,2 °C 1,6 km/h (1 Bft)
02.06.2017 05:12 13,2 °C 13,3 °C 90 % 1016,3 hPa 0,0 mm 0,0 km/h (0 Bft) S-SW 195 ° 0 min 0,000 mm 0,0 UV-I 0 W/m² 11,6 °C 13,2 °C 0,0 km/h (0 Bft)
02.06.2017 05:13 13,3 °C 13,3 °C 90 % 1016,3 hPa 0,0 mm 0,0 km/h (0 Bft) S-SW 195 ° 0 min 0,000 mm 0,0 UV-I 0 W/m² 11,7 °C 13,3 °C 0,0 km/h (0 Bft)
02.06.2017 05:14 13,3 °C 13,3 °C 90 % 1016,3 hPa 0,0 mm 0,0 km/h (0 Bft) S-SW 195 ° 0 min 0,000 mm 0,0 UV-I 0 W/m² 11,7 °C 13,3 °C 0,0 km/h (0 Bft)
02.06.2017 05:15 13,3 °C 13,4 °C 90 % 1016,3 hPa 0,0 mm 0,1 km/h (0 Bft) S-SW 195 ° 0 min 0,000 mm 0,0 UV-I 0 W/m² 11,7 °C 13,3 °C 1,6 km/h (1 Bft)
02.06.2017 05:16 13,3 °C 13,4 °C 90 % 1016,3 hPa 0,0 mm 0,0 km/h (0 Bft) S-SW 195 ° 0 min 0,000 mm 0,0 UV-I 0 W/m² 11,7 °C 13,3 °C 0,0 km/h (0 Bft)
02.06.2017 05:17 13,4 °C 13,4 °C 90 % 1016,3 hPa 0,0 mm 0,0 km/h (0 Bft) S-SW 195 ° 0 min 0,000 mm 0,0 UV-I 0 W/m² 11,8 °C 13,4 °C 0,0 km/h (0 Bft)
02.06.2017 05:18 13,4 °C 13,4 °C 90 % 1016,3 hPa 0,0 mm 2,3 km/h (1 Bft) S-SO 167 ° 0 min 0,000 mm 0,0 UV-I 0 W/m² 11,8 °C 13,4 °C 6,4 km/h (2 Bft)
02.06.2017 05:19 13,4 °C 13,4 °C 90 % 1016,3 hPa 0,0 mm 1,7 km/h (1 Bft) S-SO 167 ° 0 min 0,000 mm 0,0 UV-I 0 W/m² 11,8 °C 13,4 °C 4,8 km/h (1 Bft)
02.06.2017 05:20 13,4 °C 13,4 °C 90 % 1016,3 hPa 0,0 mm 0,5 km/h (0 Bft) S-SO 167 ° 0 min 0,000 mm 0,0 UV-I 0 W/m² 11,8 °C 13,4 °C 4,8 km/h (1 Bft)
02.06.2017 05:21 13,4 °C 13,4 °C 90 % 1016,3 hPa 0,0 mm 0,0 km/h (0 Bft) S-SO 167 ° 0 min 0,000 mm 0,0 UV-I 0 W/m² 11,8 °C 13,4 °C 0,0 km/h (0 Bft)
02.06.2017 05:22 13,4 °C 13,4 °C 90 % 1016,3 hPa 0,0 mm 0,0 km/h (0 Bft) S-SO 167 ° 0 min 0,000 mm 0,0 UV-I 0 W/m² 11,8 °C 13,4 °C 0,0 km/h (0 Bft)
02.06.2017 05:23 13,4 °C 13,4 °C 90 % 1016,3 hPa 0,0 mm 0,1 km/h (0 Bft) S-SO 167 ° 0 min 0,000 mm 0,0 UV-I 0 W/m² 11,8 °C 13,4 °C 1,6 km/h (1 Bft)
02.06.2017 05:24 13,3 °C 13,4 °C 90 % 1016,2 hPa 0,0 mm 0,4 km/h (0 Bft) S-SO 167 ° 0 min 0,000 mm 0,0 UV-I 0 W/m² 11,7 °C 13,3 °C 1,6 km/h (1 Bft)
02.06.2017 05:25 13,3 °C 13,3 °C 90 % 1016,3 hPa 0,0 mm 0,1 km/h (0 Bft) S-SO 167 ° 0 min 0,000 mm 0,0 UV-I 5 W/m² 11,7 °C 13,3 °C 1,6 km/h (1 Bft)
02.06.2017 05:26 13,3 °C 13,3 °C 90 % 1016,3 hPa 0,0 mm 0,1 km/h (0 Bft) S-SO 167 ° 0 min 0,000 mm 0,0 UV-I 5 W/m² 11,7 °C 13,3 °C 1,6 km/h (1 Bft)
02.06.2017 05:27 13,3 °C 13,3 °C 91 % 1016,3 hPa 0,0 mm 0,0 km/h (0 Bft) S-SO 167 ° 0 min 0,000 mm 0,0 UV-I 5 W/m² 11,9 °C 13,3 °C 0,0 km/h (0 Bft)
02.06.2017 05:28 13,2 °C 13,3 °C 91 % 1016,3 hPa 0,0 mm 0,0 km/h (0 Bft) S-SO 167 ° 0 min 0,000 mm 0,0 UV-I 5 W/m² 11,8 °C 13,2 °C 0,0 km/h (0 Bft)
02.06.2017 05:29 13,3 °C 13,3 °C 91 % 1016,2 hPa 0,0 mm 0,0 km/h (0 Bft) S-SO 167 ° 0 min 0,000 mm 0,0 UV-I 5 W/m² 11,9 °C 13,3 °C 0,0 km/h (0 Bft)
02.06.2017 05:30 13,2 °C 13,3 °C 91 % 1016,3 hPa 0,0 mm 0,0 km/h (0 Bft) S-SO 167 ° 0 min 0,000 mm 0,0 UV-I 7 W/m² 11,8 °C 13,2 °C 0,0 km/h (0 Bft)
02.06.2017 05:31 13,3 °C 13,3 °C 91 % 1016,3 hPa 0,0 mm 0,0 km/h (0 Bft) S-SO 167 ° 0 min 0,000 mm 0,0 UV-I 7 W/m² 11,9 °C 13,3 °C 0,0 km/h (0 Bft)
02.06.2017 05:32 13,3 °C 13,3 °C 90 % 1016,3 hPa 0,0 mm 0,0 km/h (0 Bft) S-SO 167 ° 0 min 0,000 mm 0,0 UV-I 7 W/m² 11,7 °C 13,3 °C 0,0 km/h (0 Bft)
02.06.2017 05:33 13,3 °C 13,3 °C 90 % 1016,3 hPa 0,0 mm 0,0 km/h (0 Bft) S-SO 167 ° 0 min 0,000 mm 0,0 UV-I 7 W/m² 11,7 °C 13,3 °C 0,0 km/h (0 Bft)
02.06.2017 05:34 13,3 °C 13,3 °C 90 % 1016,3 hPa 0,0 mm 0,0 km/h (0 Bft) S-SO 167 ° 0 min 0,000 mm 0,0 UV-I 9 W/m² 11,7 °C 13,3 °C 0,0 km/h (0 Bft)
02.06.2017 05:35 13,3 °C 13,3 °C 90 % 1016,3 hPa 0,0 mm 0,0 km/h (0 Bft) S-SO 167 ° 0 min 0,000 mm 0,0 UV-I 9 W/m² 11,7 °C 13,3 °C 0,0 km/h (0 Bft)
02.06.2017 05:36 13,3 °C 13,3 °C 91 % 1016,3 hPa 0,0 mm 0,0 km/h (0 Bft) S-SO 167 ° 0 min 0,000 mm 0,0 UV-I 9 W/m² 11,9 °C 13,3 °C 0,0 km/h (0 Bft)
02.06.2017 05:37 13,3 °C 13,3 °C 91 % 1016,3 hPa 0,0 mm 0,7 km/h (0 Bft) S-SO 167 ° 0 min 0,000 mm 0,0 UV-I 9 W/m² 11,9 °C 13,3 °C 4,8 km/h (1 Bft)
02.06.2017 05:38 13,2 °C 13,3 °C 91 % 1016,3 hPa 0,0 mm 0,0 km/h (0 Bft) S-SO 167 ° 0 min 0,000 mm 0,0 UV-I 11 W/m² 11,8 °C 13,2 °C 0,0 km/h (0 Bft)
02.06.2017 05:39 13,2 °C 13,2 °C 91 % 1016,2 hPa 0,0 mm 0,0 km/h (0 Bft) S-SO 167 ° 0 min 0,000 mm 0,0 UV-I 11 W/m² 11,8 °C 13,2 °C 0,0 km/h (0 Bft)
02.06.2017 05:40 13,2 °C 13,2 °C 91 % 1016,3 hPa 0,0 mm 0,5 km/h (0 Bft) S-SO 167 ° 0 min 0,000 mm 0,0 UV-I 11 W/m² 11,8 °C 13,2 °C 1,6 km/h (1 Bft)
02.06.2017 05:41 13,3 °C 13,3 °C 91 % 1016,3 hPa 0,0 mm 0,0 km/h (0 Bft) S-SO 167 ° 0 min 0,000 mm 0,0 UV-I 11 W/m² 11,9 °C 13,3 °C 0,0 km/h (0 Bft)
02.06.2017 05:42 13,2 °C 13,3 °C 91 % 1016,2 hPa 0,0 mm 0,1 km/h (0 Bft) S-SO 167 ° 0 min 0,000 mm 0,0 UV-I 12 W/m² 11,8 °C 13,2 °C 1,6 km/h (1 Bft)
02.06.2017 05:43 13,2 °C 13,3 °C 91 % 1016,2 hPa 0,0 mm 1,0 km/h (0 Bft) S-SO 167 ° 0 min 0,000 mm 0,0 UV-I 12 W/m² 11,8 °C 13,2 °C 4,8 km/h (1 Bft)
02.06.2017 05:44 13,3 °C 13,3 °C 91 % 1016,3 hPa 0,0 mm 0,5 km/h (0 Bft) S-SO 167 ° 0 min 0,000 mm 0,0 UV-I 12 W/m² 11,9 °C 13,3 °C 1,6 km/h (1 Bft)
02.06.2017 05:45 13,3 °C 13,3 °C 91 % 1016,3 hPa 0,0 mm 0,0 km/h (0 Bft) S-SO 167 ° 0 min 0,000 mm 0,0 UV-I 14 W/m² 11,9 °C 13,3 °C 0,0 km/h (0 Bft)
02.06.2017 05:46 13,3 °C 13,3 °C 91 % 1016,3 hPa 0,0 mm 0,0 km/h (0 Bft) S-SO 167 ° 0 min 0,000 mm 0,0 UV-I 14 W/m² 11,9 °C 13,3 °C 0,0 km/h (0 Bft)
02.06.2017 05:47 13,3 °C 13,3 °C 91 % 1016,3 hPa 0,0 mm 0,0 km/h (0 Bft) S-SO 167 ° 0 min 0,000 mm 0,0 UV-I 16 W/m² 11,9 °C 13,3 °C 0,0 km/h (0 Bft)
02.06.2017 05:48 13,3 °C 13,3 °C 91 % 1016,2 hPa 0,0 mm 0,0 km/h (0 Bft) S-SO 167 ° 0 min 0,000 mm 0,0 UV-I 16 W/m² 11,9 °C 13,3 °C 0,0 km/h (0 Bft)
02.06.2017 05:49 13,3 °C 13,3 °C 91 % 1016,3 hPa 0,0 mm 0,0 km/h (0 Bft) S-SO 167 ° 0 min 0,000 mm 0,0 UV-I 16 W/m² 11,9 °C 13,3 °C 0,0 km/h (0 Bft)
02.06.2017 05:50 13,3 °C 13,3 °C 91 % 1016,3 hPa 0,0 mm 0,0 km/h (0 Bft) S-SO 167 ° 0 min 0,000 mm 0,0 UV-I 18 W/m² 11,9 °C 13,3 °C 0,0 km/h (0 Bft)
02.06.2017 05:51 13,3 °C 13,4 °C 91 % 1016,2 hPa 0,0 mm 0,0 km/h (0 Bft) S-SO 167 ° 0 min 0,000 mm 0,0 UV-I 18 W/m² 11,9 °C 13,3 °C 0,0 km/h (0 Bft)
02.06.2017 05:52 13,4 °C 13,4 °C 91 % 1016,3 hPa 0,0 mm 0,0 km/h (0 Bft) S-SO 167 ° 0 min 0,000 mm 0,0 UV-I 19 W/m² 12,0 °C 13,4 °C 0,0 km/h (0 Bft)
02.06.2017 05:53 13,4 °C 13,4 °C 91 % 1016,3 hPa 0,0 mm 0,0 km/h (0 Bft) S-SO 167 ° 0 min 0,000 mm 0,0 UV-I 19 W/m² 12,0 °C 13,4 °C 0,0 km/h (0 Bft)
02.06.2017 05:54 13,4 °C 13,4 °C 91 % 1016,3 hPa 0,0 mm 0,0 km/h (0 Bft) S-SO 167 ° 0 min 0,000 mm 0,0 UV-I 19 W/m² 12,0 °C 13,4 °C 0,0 km/h (0 Bft)
02.06.2017 05:55 13,4 °C 13,4 °C 91 % 1016,3 hPa 0,0 mm 2,1 km/h (1 Bft) O 98 ° 0 min 0,000 mm 0,0 UV-I 21 W/m² 12,0 °C 13,4 °C 6,4 km/h (2 Bft)
02.06.2017 05:56 13,4 °C 13,4 °C 91 % 1016,3 hPa 0,0 mm 2,2 km/h (1 Bft) W-NW 290 ° 0 min 0,000 mm 0,0 UV-I 21 W/m² 12,0 °C 13,4 °C 6,4 km/h (2 Bft)
02.06.2017 05:57 13,5 °C 13,5 °C 90 % 1016,3 hPa 0,0 mm 0,1 km/h (0 Bft) W-NW 290 ° 0 min 0,000 mm 0,0 UV-I 23 W/m² 11,9 °C 13,5 °C 1,6 km/h (1 Bft)
02.06.2017 05:58 13,6 °C 13,6 °C 90 % 1016,3 hPa 0,0 mm 0,0 km/h (0 Bft) W-NW 290 ° 0 min 0,000 mm 0,0 UV-I 23 W/m² 12,0 °C 13,6 °C 0,0 km/h (0 Bft)
02.06.2017 05:59 13,7 °C 13,7 °C 90 % 1016,3 hPa 0,0 mm 0,0 km/h (0 Bft) W-NW 290 ° 0 min 0,000 mm 0,0 UV-I 23 W/m² 12,1 °C 13,7 °C 0,0 km/h (0 Bft)
02.06.2017 06:00 13,7 °C 13,7 °C 90 % 1016,3 hPa 0,0 mm 0,0 km/h (0 Bft) W-NW 290 ° 0 min 0,000 mm 0,0 UV-I 25 W/m² 12,1 °C 13,7 °C 0,0 km/h (0 Bft)
02.06.2017 06:01 13,7 °C 13,7 °C 89 % 1016,3 hPa 0,0 mm 0,0 km/h (0 Bft) W-NW 290 ° 0 min 0,000 mm 0,0 UV-I 23 W/m² 11,9 °C 13,7 °C 0,0 km/h (0 Bft)
02.06.2017 06:02 13,7 °C 13,7 °C 89 % 1016,3 hPa 0,0 mm 0,0 km/h (0 Bft) W-NW 290 ° 0 min 0,000 mm 0,0 UV-I 21 W/m² 11,9 °C 13,7 °C 0,0 km/h (0 Bft)
02.06.2017 06:03 13,7 °C 13,7 °C 89 % 1016,3 hPa 0,0 mm 0,0 km/h (0 Bft) W-NW 290 ° 0 min 0,000 mm 0,0 UV-I 21 W/m² 11,9 °C 13,7 °C 0,0 km/h (0 Bft)
02.06.2017 06:04 13,7 °C 13,7 °C 89 % 1016,3 hPa 0,0 mm 0,0 km/h (0 Bft) W-NW 290 ° 0 min 0,000 mm 0,0 UV-I 21 W/m² 11,9 °C 13,7 °C 0,0 km/h (0 Bft)
02.06.2017 06:05 13,7 °C 13,7 °C 89 % 1016,4 hPa 0,0 mm 0,0 km/h (0 Bft) W-NW 290 ° 0 min 0,000 mm 0,0 UV-I 21 W/m² 11,9 °C 13,7 °C 0,0 km/h (0 Bft)
02.06.2017 06:06 13,7 °C 13,7 °C 89 % 1016,3 hPa 0,0 mm 0,0 km/h (0 Bft) W-NW 290 ° 0 min 0,000 mm 0,0 UV-I 21 W/m² 11,9 °C 13,7 °C 0,0 km/h (0 Bft)
02.06.2017 06:07 13,7 °C 13,7 °C 89 % 1016,3 hPa 0,0 mm 0,0 km/h (0 Bft) W-NW 290 ° 0 min 0,000 mm 0,0 UV-I 21 W/m² 11,9 °C 13,7 °C 0,0 km/h (0 Bft)
02.06.2017 06:08 13,7 °C 13,7 °C 89 % 1016,4 hPa 0,0 mm 0,0 km/h (0 Bft) W-NW 290 ° 0 min 0,000 mm 0,0 UV-I 23 W/m² 11,9 °C 13,7 °C 0,0 km/h (0 Bft)
02.06.2017 06:09 13,7 °C 13,7 °C 89 % 1016,4 hPa 0,0 mm 0,0 km/h (0 Bft) W-NW 290 ° 0 min 0,000 mm 0,0 UV-I 25 W/m² 11,9 °C 13,7 °C 0,0 km/h (0 Bft)
02.06.2017 06:10 13,7 °C 13,7 °C 89 % 1016,4 hPa 0,0 mm 0,0 km/h (0 Bft) W-NW 290 ° 0 min 0,000 mm 0,0 UV-I 25 W/m² 11,9 °C 13,7 °C 0,0 km/h (0 Bft)
02.06.2017 06:11 13,7 °C 13,7 °C 89 % 1016,3 hPa 0,0 mm 0,0 km/h (0 Bft) W-NW 290 ° 0 min 0,000 mm 0,0 UV-I 25 W/m² 11,9 °C 13,7 °C 0,0 km/h (0 Bft)
02.06.2017 06:12 13,6 °C 13,7 °C 89 % 1016,3 hPa 0,0 mm 0,0 km/h (0 Bft) W-NW 290 ° 0 min 0,000 mm 0,0 UV-I 26 W/m² 11,8 °C 13,6 °C 0,0 km/h (0 Bft)
02.06.2017 06:13 13,7 °C 13,7 °C 90 % 1016,3 hPa 0,0 mm 0,0 km/h (0 Bft) W-NW 290 ° 0 min 0,000 mm 0,0 UV-I 26 W/m² 12,1 °C 13,7 °C 0,0 km/h (0 Bft)
02.06.2017 06:14 13,6 °C 13,7 °C 90 % 1016,3 hPa 0,0 mm 0,0 km/h (0 Bft) W-NW 290 ° 0 min 0,000 mm 0,0 UV-I 26 W/m² 12,0 °C 13,6 °C 0,0 km/h (0 Bft)
02.06.2017 06:15 13,6 °C 13,6 °C 89 % 1016,3 hPa 0,0 mm 0,0 km/h (0 Bft) W-NW 290 ° 0 min 0,000 mm 0,0 UV-I 28 W/m² 11,8 °C 13,6 °C 0,0 km/h (0 Bft)
02.06.2017 06:16 13,6 °C 13,6 °C 89 % 1016,3 hPa 0,0 mm 0,0 km/h (0 Bft) W-NW 290 ° 0 min 0,000 mm 0,0 UV-I 28 W/m² 11,8 °C 13,6 °C 0,0 km/h (0 Bft)
02.06.2017 06:17 13,6 °C 13,6 °C 89 % 1016,4 hPa 0,0 mm 0,0 km/h (0 Bft) W-NW 290 ° 0 min 0,000 mm 0,0 UV-I 28 W/m² 11,8 °C 13,6 °C 0,0 km/h (0 Bft)
02.06.2017 06:18 13,6 °C 13,6 °C 89 % 1016,4 hPa 0,0 mm 0,0 km/h (0 Bft) W-NW 290 ° 0 min 0,000 mm 0,0 UV-I 30 W/m² 11,8 °C 13,6 °C 0,0 km/h (0 Bft)
02.06.2017 06:19 13,6 °C 13,6 °C 89 % 1016,4 hPa 0,0 mm 0,8 km/h (0 Bft) W-NW 290 ° 0 min 0,000 mm 0,0 UV-I 32 W/m² 11,8 °C 13,6 °C 1,6 km/h (1 Bft)
02.06.2017 06:20 13,6 °C 13,6 °C 90 % 1016,4 hPa 0,0 mm 0,4 km/h (0 Bft) W-NW 290 ° 0 min 0,000 mm 0,0 UV-I 37 W/m² 12,0 °C 13,6 °C 3,2 km/h (1 Bft)
02.06.2017 06:21 13,6 °C 13,6 °C 90 % 1016,4 hPa 0,0 mm 0,0 km/h (0 Bft) W-NW 290 ° 0 min 0,000 mm 0,0 UV-I 32 W/m² 12,0 °C 13,6 °C 0,0 km/h (0 Bft)
02.06.2017 06:22 13,6 °C 13,6 °C 90 % 1016,4 hPa 0,0 mm 0,0 km/h (0 Bft) W-NW 290 ° 0 min 0,000 mm 0,0 UV-I 32 W/m² 12,0 °C 13,6 °C 0,0 km/h (0 Bft)
02.06.2017 06:23 13,6 °C 13,6 °C 90 % 1016,3 hPa 0,0 mm 0,1 km/h (0 Bft) W-NW 290 ° 0 min 0,000 mm 0,0 UV-I 32 W/m² 12,0 °C 13,6 °C 1,6 km/h (1 Bft)
02.06.2017 06:24 13,6 °C 13,6 °C 90 % 1016,4 hPa 0,0 mm 0,0 km/h (0 Bft) W-NW 290 ° 0 min 0,000 mm 0,0 UV-I 32 W/m² 12,0 °C 13,6 °C 0,0 km/h (0 Bft)
02.06.2017 06:25 13,5 °C 13,6 °C 90 % 1016,3 hPa 0,0 mm 0,0 km/h (0 Bft) W-NW 290 ° 0 min 0,000 mm 0,0 UV-I 33 W/m² 11,9 °C 13,5 °C 0,0 km/h (0 Bft)
02.06.2017 06:26 13,4 °C 13,5 °C 90 % 1016,3 hPa 0,0 mm 0,0 km/h (0 Bft) W-NW 290 ° 0 min 0,000 mm 0,0 UV-I 33 W/m² 11,8 °C 13,4 °C 0,0 km/h (0 Bft)
02.06.2017 06:27 13,4 °C 13,4 °C 90 % 1016,3 hPa 0,0 mm 0,0 km/h (0 Bft) W-NW 290 ° 0 min 0,000 mm 0,0 UV-I 35 W/m² 11,8 °C 13,4 °C 0,0 km/h (0 Bft)
02.06.2017 06:28 13,4 °C 13,4 °C 90 % 1016,3 hPa 0,0 mm 0,0 km/h (0 Bft) W-NW 290 ° 0 min 0,000 mm 0,0 UV-I 35 W/m² 11,8 °C 13,4 °C 0,0 km/h (0 Bft)
02.06.2017 06:29 13,4 °C 13,4 °C 90 % 1016,3 hPa 0,0 mm 0,0 km/h (0 Bft) W-NW 290 ° 0 min 0,000 mm 0,0 UV-I 35 W/m² 11,8 °C 13,4 °C 0,0 km/h (0 Bft)
02.06.2017 06:30 13,4 °C 13,4 °C 91 % 1016,3 hPa 0,0 mm 0,0 km/h (0 Bft) W-NW 290 ° 0 min 0,000 mm 0,0 UV-I 35 W/m² 12,0 °C 13,4 °C 0,0 km/h (0 Bft)
02.06.2017 06:31 13,4 °C 13,4 °C 91 % 1016,3 hPa 0,0 mm 0,0 km/h (0 Bft) W-NW 290 ° 0 min 0,000 mm 0,0 UV-I 35 W/m² 12,0 °C 13,4 °C 0,0 km/h (0 Bft)
02.06.2017 06:32 13,4 °C 13,4 °C 91 % 1016,3 hPa 0,0 mm 0,0 km/h (0 Bft) W-NW 290 ° 0 min 0,000 mm 0,0 UV-I 35 W/m² 12,0 °C 13,4 °C 0,0 km/h (0 Bft)
02.06.2017 06:33 13,4 °C 13,4 °C 91 % 1016,3 hPa 0,0 mm 0,5 km/h (0 Bft) W-NW 290 ° 0 min 0,000 mm 0,0 UV-I 35 W/m² 12,0 °C 13,4 °C 1,6 km/h (1 Bft)
02.06.2017 06:34 13,4 °C 13,4 °C 91 % 1016,3 hPa 0,0 mm 0,0 km/h (0 Bft) W-NW 290 ° 0 min 0,000 mm 0,0 UV-I 35 W/m² 12,0 °C 13,4 °C 0,0 km/h (0 Bft)
02.06.2017 06:35 13,4 °C 13,4 °C 91 % 1016,3 hPa 0,0 mm 0,0 km/h (0 Bft) W-NW 290 ° 0 min 0,000 mm 0,0 UV-I 35 W/m² 12,0 °C 13,4 °C 0,0 km/h (0 Bft)
02.06.2017 06:36 13,4 °C 13,4 °C 91 % 1016,4 hPa 0,0 mm 0,0 km/h (0 Bft) W-NW 290 ° 0 min 0,000 mm 0,0 UV-I 37 W/m² 12,0 °C 13,4 °C 0,0 km/h (0 Bft)
02.06.2017 06:37 13,4 °C 13,4 °C 91 % 1016,4 hPa 0,0 mm 0,0 km/h (0 Bft) W-NW 290 ° 0 min 0,000 mm 0,0 UV-I 37 W/m² 12,0 °C 13,4 °C 0,0 km/h (0 Bft)
02.06.2017 06:38 13,4 °C 13,4 °C 91 % 1016,4 hPa 0,0 mm 0,0 km/h (0 Bft) W-NW 290 ° 0 min 0,000 mm 0,0 UV-I 37 W/m² 12,0 °C 13,4 °C 0,0 km/h (0 Bft)
02.06.2017 06:39 13,4 °C 13,4 °C 91 % 1016,4 hPa 0,0 mm 0,0 km/h (0 Bft) W-NW 290 ° 0 min 0,000 mm 0,0 UV-I 37 W/m² 12,0 °C 13,4 °C 0,0 km/h (0 Bft)
02.06.2017 06:40 13,4 °C 13,4 °C 91 % 1016,4 hPa 0,0 mm 0,2 km/h (0 Bft) W-NW 290 ° 0 min 0,000 mm 0,0 UV-I 39 W/m² 12,0 °C 13,4 °C 1,6 km/h (1 Bft)
02.06.2017 06:41 13,4 °C 13,4 °C 91 % 1016,4 hPa 0,0 mm 0,2 km/h (0 Bft) W-NW 290 ° 0 min 0,000 mm 0,0 UV-I 39 W/m² 12,0 °C 13,4 °C 1,6 km/h (1 Bft)
02.06.2017 06:42 13,4 °C 13,4 °C 90 % 1016,4 hPa 0,0 mm 0,0 km/h (0 Bft) W-NW 290 ° 0 min 0,000 mm 0,0 UV-I 39 W/m² 11,8 °C 13,4 °C 0,0 km/h (0 Bft)
02.06.2017 06:43 13,4 °C 13,4 °C 91 % 1016,4 hPa 0,0 mm 0,0 km/h (0 Bft) W-NW 290 ° 0 min 0,000 mm 0,0 UV-I 40 W/m² 12,0 °C 13,4 °C 0,0 km/h (0 Bft)
02.06.2017 06:44 13,5 °C 13,5 °C 91 % 1016,4 hPa 0,0 mm 0,0 km/h (0 Bft) W-NW 290 ° 0 min 0,000 mm 0,0 UV-I 40 W/m² 12,1 °C 13,5 °C 0,0 km/h (0 Bft)
02.06.2017 06:45 13,5 °C 13,5 °C 91 % 1016,5 hPa 0,0 mm 0,0 km/h (0 Bft) W-NW 290 ° 0 min 0,000 mm 0,0 UV-I 42 W/m² 12,1 °C 13,5 °C 0,0 km/h (0 Bft)
02.06.2017 06:46 13,5 °C 13,5 °C 91 % 1016,4 hPa 0,0 mm 0,0 km/h (0 Bft) W-NW 290 ° 0 min 0,000 mm 0,0 UV-I 44 W/m² 12,1 °C 13,5 °C 0,0 km/h (0 Bft)
02.06.2017 06:47 13,5 °C 13,5 °C 91 % 1016,5 hPa 0,0 mm 0,0 km/h (0 Bft) W-NW 290 ° 0 min 0,000 mm 0,0 UV-I 44 W/m² 12,1 °C 13,5 °C 0,0 km/h (0 Bft)
02.06.2017 06:48 13,6 °C 13,6 °C 91 % 1016,5 hPa 0,0 mm 0,0 km/h (0 Bft) W-NW 290 ° 0 min 0,000 mm 0,0 UV-I 46 W/m² 12,2 °C 13,6 °C 0,0 km/h (0 Bft)
02.06.2017 06:49 13,6 °C 13,6 °C 91 % 1016,4 hPa 0,0 mm 0,0 km/h (0 Bft) W-NW 290 ° 0 min 0,000 mm 0,0 UV-I 47 W/m² 12,2 °C 13,6 °C 0,0 km/h (0 Bft)
02.06.2017 06:50 13,7 °C 13,7 °C 91 % 1016,4 hPa 0,0 mm 0,0 km/h (0 Bft) SW 214 ° 0 min 0,000 mm 0,0 UV-I 49 W/m² 12,3 °C 13,7 °C 0,0 km/h (0 Bft)
02.06.2017 06:51 13,7 °C 13,7 °C 91 % 1016,4 hPa 0,0 mm 0,1 km/h (0 Bft) SW 214 ° 0 min 0,000 mm 0,0 UV-I 51 W/m² 12,3 °C 13,7 °C 1,6 km/h (1 Bft)
02.06.2017 06:52 13,7 °C 13,7 °C 91 % 1016,5 hPa 0,0 mm 0,0 km/h (0 Bft) SW 214 ° 0 min 0,000 mm 0,0 UV-I 51 W/m² 12,3 °C 13,7 °C 0,0 km/h (0 Bft)
02.06.2017 06:53 13,7 °C 13,7 °C 91 % 1016,5 hPa 0,0 mm 0,0 km/h (0 Bft) SW 214 ° 0 min 0,000 mm 0,0 UV-I 53 W/m² 12,3 °C 13,7 °C 0,0 km/h (0 Bft)
02.06.2017 06:54 13,8 °C 13,8 °C 91 % 1016,5 hPa 0,0 mm 0,0 km/h (0 Bft) SW 214 ° 0 min 0,000 mm 0,0 UV-I 53 W/m² 12,4 °C 13,8 °C 0,0 km/h (0 Bft)
02.06.2017 06:55 13,8 °C 13,8 °C 91 % 1016,5 hPa 0,0 mm 0,0 km/h (0 Bft) SW 214 ° 0 min 0,000 mm 0,0 UV-I 54 W/m² 12,4 °C 13,8 °C 0,0 km/h (0 Bft)
02.06.2017 06:56 13,8 °C 13,8 °C 91 % 1016,5 hPa 0,0 mm 0,0 km/h (0 Bft) SW 214 ° 0 min 0,000 mm 0,0 UV-I 58 W/m² 12,4 °C 13,8 °C 0,0 km/h (0 Bft)
02.06.2017 06:57 13,8 °C 13,8 °C 91 % 1016,4 hPa 0,0 mm 0,0 km/h (0 Bft) SW 214 ° 0 min 0,000 mm 0,0 UV-I 58 W/m² 12,4 °C 13,8 °C 0,0 km/h (0 Bft)
02.06.2017 06:58 13,8 °C 13,8 °C 91 % 1016,4 hPa 0,0 mm 0,0 km/h (0 Bft) SW 214 ° 0 min 0,000 mm 0,0 UV-I 60 W/m² 12,4 °C 13,8 °C 0,0 km/h (0 Bft)
02.06.2017 06:59 13,9 °C 13,9 °C 91 % 1016,4 hPa 0,0 mm 0,0 km/h (0 Bft) SW 214 ° 0 min 0,000 mm 0,0 UV-I 62 W/m² 12,5 °C 13,9 °C 0,0 km/h (0 Bft)
02.06.2017 07:00 13,9 °C 13,9 °C 91 % 1016,4 hPa 0,0 mm 0,0 km/h (0 Bft) SW 214 ° 0 min 0,025 mm 0,0 UV-I 62 W/m² 12,5 °C 13,9 °C 0,0 km/h (0 Bft)
02.06.2017 07:01 13,9 °C 13,9 °C 91 % 1016,5 hPa 0,0 mm 0,0 km/h (0 Bft) SW 214 ° 0 min 0,000 mm 0,0 UV-I 63 W/m² 12,5 °C 13,9 °C 0,0 km/h (0 Bft)
02.06.2017 07:02 14,0 °C 14,0 °C 91 % 1016,5 hPa 0,0 mm 0,0 km/h (0 Bft) SW 214 ° 0 min 0,000 mm 0,0 UV-I 63 W/m² 12,6 °C 14,0 °C 0,0 km/h (0 Bft)
02.06.2017 07:03 14,1 °C 14,1 °C 91 % 1016,5 hPa 0,0 mm 0,0 km/h (0 Bft) SW 214 ° 0 min 0,000 mm 0,0 UV-I 63 W/m² 12,7 °C 14,1 °C 0,0 km/h (0 Bft)
02.06.2017 07:04 14,1 °C 14,1 °C 91 % 1016,5 hPa 0,0 mm 0,0 km/h (0 Bft) SW 214 ° 0 min 0,000 mm 0,0 UV-I 63 W/m² 12,7 °C 14,1 °C 0,0 km/h (0 Bft)
02.06.2017 07:05 14,1 °C 14,1 °C 91 % 1016,4 hPa 0,0 mm 0,0 km/h (0 Bft) SW 214 ° 0 min 0,000 mm 0,0 UV-I 63 W/m² 12,7 °C 14,1 °C 0,0 km/h (0 Bft)
02.06.2017 07:06 14,1 °C 14,1 °C 91 % 1016,4 hPa 0,0 mm 0,0 km/h (0 Bft) SW 215 ° 0 min 0,000 mm 0,0 UV-I 63 W/m² 12,7 °C 14,1 °C 0,0 km/h (0 Bft)
02.06.2017 07:07 14,1 °C 14,1 °C 91 % 1016,5 hPa 0,0 mm 0,0 km/h (0 Bft) SW 214 ° 0 min 0,000 mm 0,0 UV-I 63 W/m² 12,7 °C 14,1 °C 0,0 km/h (0 Bft)
02.06.2017 07:08 14,1 °C 14,2 °C 90 % 1016,5 hPa 0,0 mm 0,0 km/h (0 Bft) SW 215 ° 0 min 0,000 mm 0,0 UV-I 63 W/m² 12,5 °C 14,1 °C 0,0 km/h (0 Bft)
02.06.2017 07:09 14,1 °C 14,2 °C 90 % 1016,5 hPa 0,0 mm 0,0 km/h (0 Bft) SW 214 ° 0 min 0,000 mm 0,0 UV-I 63 W/m² 12,5 °C 14,1 °C 0,0 km/h (0 Bft)
02.06.2017 07:10 14,2 °C 14,2 °C 90 % 1016,5 hPa 0,0 mm 0,0 km/h (0 Bft) SW 215 ° 0 min 0,000 mm 0,0 UV-I 65 W/m² 12,6 °C 14,2 °C 0,0 km/h (0 Bft)
02.06.2017 07:11 14,2 °C 14,2 °C 90 % 1016,5 hPa 0,0 mm 0,0 km/h (0 Bft) SW 215 ° 0 min 0,000 mm 0,0 UV-I 67 W/m² 12,6 °C 14,2 °C 0,0 km/h (0 Bft)
02.06.2017 07:12 14,2 °C 14,3 °C 90 % 1016,5 hPa 0,0 mm 0,0 km/h (0 Bft) SW 215 ° 0 min 0,000 mm 0,0 UV-I 69 W/m² 12,6 °C 14,2 °C 0,0 km/h (0 Bft)
02.06.2017 07:13 14,3 °C 14,3 °C 90 % 1016,5 hPa 0,0 mm 0,0 km/h (0 Bft) SW 215 ° 0 min 0,000 mm 0,0 UV-I 70 W/m² 12,7 °C 14,3 °C 0,0 km/h (0 Bft)
02.06.2017 07:14 14,3 °C 14,3 °C 90 % 1016,5 hPa 0,0 mm 0,0 km/h (0 Bft) SW 215 ° 0 min 0,000 mm 0,0 UV-I 74 W/m² 12,7 °C 14,3 °C 0,0 km/h (0 Bft)
02.06.2017 07:15 14,3 °C 14,3 °C 90 % 1016,5 hPa 0,0 mm 0,0 km/h (0 Bft) SW 215 ° 0 min 0,000 mm 0,0 UV-I 76 W/m² 12,7 °C 14,3 °C 0,0 km/h (0 Bft)
02.06.2017 07:16 14,3 °C 14,3 °C 90 % 1016,5 hPa 0,0 mm 0,0 km/h (0 Bft) SW 215 ° 0 min 0,000 mm 0,0 UV-I 77 W/m² 12,7 °C 14,3 °C 0,0 km/h (0 Bft)
02.06.2017 07:17 14,4 °C 14,4 °C 90 % 1016,5 hPa 0,0 mm 0,0 km/h (0 Bft) SW 215 ° 0 min 0,000 mm 0,5 UV-I 77 W/m² 12,8 °C 14,4 °C 0,0 km/h (0 Bft)
02.06.2017 07:18 14,4 °C 14,4 °C 90 % 1016,6 hPa 0,0 mm 0,0 km/h (0 Bft) SW 215 ° 0 min 0,000 mm 0,5 UV-I 79 W/m² 12,8 °C 14,4 °C 0,0 km/h (0 Bft)
02.06.2017 07:19 14,4 °C 14,4 °C 90 % 1016,5 hPa 0,0 mm 0,0 km/h (0 Bft) SW 215 ° 0 min 0,000 mm 0,5 UV-I 81 W/m² 12,8 °C 14,4 °C 0,0 km/h (0 Bft)
02.06.2017 07:20 14,4 °C 14,4 °C 90 % 1016,6 hPa 0,0 mm 0,0 km/h (0 Bft) SW 215 ° 0 min 0,000 mm 0,5 UV-I 83 W/m² 12,8 °C 14,4 °C 0,0 km/h (0 Bft)
02.06.2017 07:21 14,6 °C 14,6 °C 90 % 1016,6 hPa 0,0 mm 0,0 km/h (0 Bft) SW 215 ° 0 min 0,000 mm 0,5 UV-I 84 W/m² 13,0 °C 14,6 °C 0,0 km/h (0 Bft)
02.06.2017 07:22 14,6 °C 14,6 °C 90 % 1016,6 hPa 0,0 mm 0,0 km/h (0 Bft) SW 215 ° 0 min 0,000 mm 0,5 UV-I 86 W/m² 13,0 °C 14,6 °C 0,0 km/h (0 Bft)
02.06.2017 07:23 14,6 °C 14,6 °C 90 % 1016,6 hPa 0,0 mm 0,0 km/h (0 Bft) SW 215 ° 0 min 0,000 mm 0,5 UV-I 88 W/m² 13,0 °C 14,6 °C 0,0 km/h (0 Bft)
02.06.2017 07:24 14,6 °C 14,6 °C 89 % 1016,6 hPa 0,0 mm 0,0 km/h (0 Bft) SW 215 ° 0 min 0,000 mm 0,6 UV-I 90 W/m² 12,8 °C 14,6 °C 0,0 km/h (0 Bft)
02.06.2017 07:25 14,6 °C 14,6 °C 90 % 1016,6 hPa 0,0 mm 0,0 km/h (0 Bft) SW 215 ° 0 min 0,000 mm 0,6 UV-I 95 W/m² 13,0 °C 14,6 °C 0,0 km/h (0 Bft)
02.06.2017 07:26 14,6 °C 14,7 °C 90 % 1016,6 hPa 0,0 mm 0,0 km/h (0 Bft) SW 215 ° 0 min 0,000 mm 0,6 UV-I 97 W/m² 13,0 °C 14,6 °C 0,0 km/h (0 Bft)
02.06.2017 07:27 14,7 °C 14,7 °C 90 % 1016,6 hPa 0,0 mm 0,0 km/h (0 Bft) SW 215 ° 0 min 0,000 mm 0,6 UV-I 98 W/m² 13,1 °C 14,7 °C 0,0 km/h (0 Bft)
02.06.2017 07:28 14,7 °C 14,7 °C 89 % 1016,6 hPa 0,0 mm 0,0 km/h (0 Bft) SW 215 ° 0 min 0,000 mm 0,6 UV-I 98 W/m² 12,9 °C 14,7 °C 0,0 km/h (0 Bft)
02.06.2017 07:29 14,7 °C 14,7 °C 88 % 1016,6 hPa 0,0 mm 0,0 km/h (0 Bft) SW 215 ° 0 min 0,000 mm 0,6 UV-I 98 W/m² 12,7 °C 14,7 °C 0,0 km/h (0 Bft)
02.06.2017 07:30 14,7 °C 14,7 °C 88 % 1016,6 hPa 0,0 mm 0,0 km/h (0 Bft) W-SW 245 ° 0 min 0,000 mm 0,6 UV-I 98 W/m² 12,7 °C 14,7 °C 0,0 km/h (0 Bft)
02.06.2017 07:31 14,8 °C 14,8 °C 89 % 1016,6 hPa 0,0 mm 0,3 km/h (0 Bft) W-SW 248 ° 0 min 0,000 mm 0,6 UV-I 97 W/m² 13,0 °C 14,8 °C 1,6 km/h (1 Bft)
02.06.2017 07:32 14,9 °C 14,9 °C 88 % 1016,6 hPa 0,0 mm 0,1 km/h (0 Bft) W-SW 248 ° 0 min 0,000 mm 0,6 UV-I 98 W/m² 12,9 °C 14,9 °C 1,6 km/h (1 Bft)
02.06.2017 07:33 14,9 °C 14,9 °C 88 % 1016,5 hPa 0,0 mm 0,0 km/h (0 Bft) W-SW 248 ° 0 min 0,000 mm 0,6 UV-I 100 W/m² 12,9 °C 14,9 °C 0,0 km/h (0 Bft)
02.06.2017 07:34 14,9 °C 14,9 °C 88 % 1016,5 hPa 0,0 mm 0,0 km/h (0 Bft) W-SW 248 ° 0 min 0,000 mm 0,6 UV-I 100 W/m² 12,9 °C 14,9 °C 0,0 km/h (0 Bft)
02.06.2017 07:35 14,9 °C 14,9 °C 88 % 1016,5 hPa 0,0 mm 0,0 km/h (0 Bft) W-SW 248 ° 0 min 0,000 mm 0,7 UV-I 104 W/m² 12,9 °C 14,9 °C 0,0 km/h (0 Bft)
02.06.2017 07:36 15,0 °C 15,0 °C 89 % 1016,6 hPa 0,0 mm 0,0 km/h (0 Bft) W-SW 248 ° 0 min 0,000 mm 0,7 UV-I 107 W/m² 13,2 °C 15,0 °C 0,0 km/h (0 Bft)
02.06.2017 07:37 15,0 °C 15,0 °C 89 % 1016,6 hPa 0,0 mm 0,0 km/h (0 Bft) W-SW 248 ° 0 min 0,000 mm 0,7 UV-I 114 W/m² 13,2 °C 15,0 °C 0,0 km/h (0 Bft)
02.06.2017 07:38 15,0 °C 15,0 °C 88 % 1016,5 hPa 0,0 mm 0,0 km/h (0 Bft) W-SW 248 ° 0 min 0,000 mm 0,7 UV-I 118 W/m² 13,0 °C 15,0 °C 0,0 km/h (0 Bft)
02.06.2017 07:39 15,0 °C 15,0 °C 88 % 1016,6 hPa 0,0 mm 0,0 km/h (0 Bft) W-SW 248 ° 0 min 0,000 mm 0,8 UV-I 121 W/m² 13,0 °C 15,0 °C 0,0 km/h (0 Bft)
02.06.2017 07:40 15,1 °C 15,1 °C 88 % 1016,6 hPa 0,0 mm 0,4 km/h (0 Bft) W-SW 248 ° 0 min 0,000 mm 0,8 UV-I 125 W/m² 13,1 °C 15,1 °C 1,6 km/h (1 Bft)
02.06.2017 07:41 15,1 °C 15,1 °C 87 % 1016,6 hPa 0,0 mm 1,7 km/h (1 Bft) NW 307 ° 0 min 0,000 mm 0,8 UV-I 120 W/m² 13,0 °C 15,1 °C 3,2 km/h (1 Bft)
02.06.2017 07:42 15,1 °C 15,1 °C 88 % 1016,6 hPa 0,0 mm 0,0 km/h (0 Bft) NW 307 ° 0 min 0,000 mm 0,8 UV-I 120 W/m² 13,1 °C 15,1 °C 0,0 km/h (0 Bft)
02.06.2017 07:43 15,1 °C 15,2 °C 88 % 1016,6 hPa 0,0 mm 0,1 km/h (0 Bft) NW 307 ° 0 min 0,000 mm 0,8 UV-I 120 W/m² 13,1 °C 15,1 °C 1,6 km/h (1 Bft)
02.06.2017 07:44 15,2 °C 15,2 °C 88 % 1016,6 hPa 0,0 mm 0,2 km/h (0 Bft) NW 307 ° 0 min 0,000 mm 0,8 UV-I 118 W/m² 13,2 °C 15,2 °C 1,6 km/h (1 Bft)
02.06.2017 07:45 15,2 °C 15,2 °C 87 % 1016,6 hPa 0,0 mm 0,1 km/h (0 Bft) NW 307 ° 0 min 0,000 mm 0,8 UV-I 118 W/m² 13,0 °C 15,2 °C 1,6 km/h (1 Bft)
02.06.2017 07:46 15,2 °C 15,2 °C 88 % 1016,6 hPa 0,0 mm 0,8 km/h (0 Bft) NW 307 ° 0 min 0,000 mm 0,8 UV-I 116 W/m² 13,2 °C 15,2 °C 3,2 km/h (1 Bft)
02.06.2017 07:47 15,2 °C 15,2 °C 88 % 1016,6 hPa 0,0 mm 0,7 km/h (0 Bft) NW 307 ° 0 min 0,000 mm 0,8 UV-I 116 W/m² 13,2 °C 15,2 °C 1,6 km/h (1 Bft)
02.06.2017 07:48 15,2 °C 15,2 °C 88 % 1016,7 hPa 0,0 mm 1,5 km/h (1 Bft) NW 307 ° 0 min 0,000 mm 0,8 UV-I 116 W/m² 13,2 °C 15,2 °C 3,2 km/h (1 Bft)
02.06.2017 07:49 15,2 °C 15,2 °C 89 % 1016,7 hPa 0,0 mm 2,8 km/h (1 Bft) NW 307 ° 0 min 0,000 mm 0,8 UV-I 116 W/m² 13,4 °C 15,2 °C 3,2 km/h (1 Bft)
02.06.2017 07:50 15,2 °C 15,2 °C 88 % 1016,7 hPa 0,0 mm 2,4 km/h (1 Bft) NW 308 ° 0 min 0,000 mm 0,8 UV-I 118 W/m² 13,2 °C 15,2 °C 3,2 km/h (1 Bft)
02.06.2017 07:51 15,3 °C 15,3 °C 88 % 1016,7 hPa 0,0 mm 0,4 km/h (0 Bft) NW 307 ° 0 min 0,000 mm 0,8 UV-I 118 W/m² 13,3 °C 15,3 °C 1,6 km/h (1 Bft)
02.06.2017 07:52 15,3 °C 15,3 °C 87 % 1016,7 hPa 0,0 mm 0,0 km/h (0 Bft) NW 307 ° 0 min 0,000 mm 0,8 UV-I 120 W/m² 13,1 °C 15,3 °C 0,0 km/h (0 Bft)
02.06.2017 07:53 15,3 °C 15,3 °C 86 % 1016,6 hPa 0,0 mm 0,0 km/h (0 Bft) NW 307 ° 0 min 0,000 mm 0,8 UV-I 121 W/m² 13,0 °C 15,3 °C 0,0 km/h (0 Bft)
02.06.2017 07:54 15,3 °C 15,3 °C 88 % 1016,7 hPa 0,0 mm 0,0 km/h (0 Bft) NW 307 ° 0 min 0,000 mm 0,8 UV-I 121 W/m² 13,3 °C 15,3 °C 0,0 km/h (0 Bft)
02.06.2017 07:55 15,3 °C 15,3 °C 87 % 1016,7 hPa 0,0 mm 0,0 km/h (0 Bft) NW 307 ° 0 min 0,000 mm 0,8 UV-I 123 W/m² 13,1 °C 15,3 °C 0,0 km/h (0 Bft)
02.06.2017 07:56 15,4 °C 15,4 °C 87 % 1016,6 hPa 0,0 mm 0,0 km/h (0 Bft) NW 307 ° 0 min 0,000 mm 0,8 UV-I 123 W/m² 13,2 °C 15,4 °C 0,0 km/h (0 Bft)
02.06.2017 07:57 15,4 °C 15,4 °C 88 % 1016,7 hPa 0,0 mm 0,8 km/h (0 Bft) NW 307 ° 0 min 0,000 mm 0,9 UV-I 123 W/m² 13,4 °C 15,4 °C 1,6 km/h (1 Bft)
02.06.2017 07:58 15,5 °C 15,5 °C 87 % 1016,7 hPa 0,0 mm 0,1 km/h (0 Bft) NW 307 ° 0 min 0,000 mm 0,9 UV-I 121 W/m² 13,3 °C 15,5 °C 1,6 km/h (1 Bft)
02.06.2017 07:59 15,5 °C 15,5 °C 87 % 1016,7 hPa 0,0 mm 0,0 km/h (0 Bft) NW 307 ° 0 min 0,000 mm 0,9 UV-I 121 W/m² 13,3 °C 15,5 °C 0,0 km/h (0 Bft)
02.06.2017 08:00 15,6 °C 15,6 °C 87 % 1016,7 hPa 0,0 mm 0,6 km/h (0 Bft) NW 307 ° 0 min 0,000 mm 0,9 UV-I 121 W/m² 13,4 °C 15,6 °C 1,6 km/h (1 Bft)
02.06.2017 08:01 15,6 °C 15,6 °C 88 % 1016,7 hPa 0,0 mm 0,4 km/h (0 Bft) NW 307 ° 0 min 0,051 mm 0,9 UV-I 121 W/m² 13,6 °C 15,6 °C 1,6 km/h (1 Bft)
02.06.2017 08:02 15,7 °C 15,7 °C 89 % 1016,7 hPa 0,0 mm 0,7 km/h (0 Bft) NW 307 ° 0 min 0,000 mm 0,9 UV-I 121 W/m² 13,9 °C 15,7 °C 1,6 km/h (1 Bft)
02.06.2017 08:03 15,7 °C 15,7 °C 89 % 1016,7 hPa 0,0 mm 1,7 km/h (1 Bft) NW 307 ° 0 min 0,000 mm 0,9 UV-I 123 W/m² 13,9 °C 15,7 °C 3,2 km/h (1 Bft)
02.06.2017 08:04 15,7 °C 15,7 °C 87 % 1016,7 hPa 0,0 mm 2,2 km/h (1 Bft) NW 307 ° 0 min 0,000 mm 0,9 UV-I 125 W/m² 13,5 °C 15,7 °C 3,2 km/h (1 Bft)
02.06.2017 08:05 15,7 °C 15,7 °C 87 % 1016,7 hPa 0,0 mm 1,0 km/h (0 Bft) NW 307 ° 0 min 0,000 mm 0,9 UV-I 125 W/m² 13,5 °C 15,7 °C 1,6 km/h (1 Bft)
02.06.2017 08:06 15,7 °C 15,7 °C 87 % 1016,7 hPa 0,0 mm 0,1 km/h (0 Bft) NW 307 ° 0 min 0,000 mm 0,9 UV-I 127 W/m² 13,5 °C 15,7 °C 1,6 km/h (1 Bft)
02.06.2017 08:07 15,7 °C 15,7 °C 86 % 1016,7 hPa 0,0 mm 0,8 km/h (0 Bft) NW 307 ° 0 min 0,000 mm 0,9 UV-I 128 W/m² 13,4 °C 15,7 °C 1,6 km/h (1 Bft)
02.06.2017 08:08 15,7 °C 15,7 °C 87 % 1016,7 hPa 0,0 mm 1,3 km/h (1 Bft) NW 307 ° 0 min 0,000 mm 0,9 UV-I 130 W/m² 13,5 °C 15,7 °C 1,6 km/h (1 Bft)
02.06.2017 08:09 15,8 °C 15,8 °C 88 % 1016,7 hPa 0,0 mm 0,1 km/h (0 Bft) NW 307 ° 0 min 0,000 mm 0,9 UV-I 130 W/m² 13,8 °C 15,8 °C 1,6 km/h (1 Bft)
02.06.2017 08:10 15,8 °C 15,8 °C 88 % 1016,7 hPa 0,0 mm 0,0 km/h (0 Bft) NW 307 ° 0 min 0,000 mm 0,9 UV-I 132 W/m² 13,8 °C 15,8 °C 0,0 km/h (0 Bft)
02.06.2017 08:11 15,8 °C 15,8 °C 87 % 1016,7 hPa 0,0 mm 0,0 km/h (0 Bft) NW 307 ° 0 min 0,000 mm 0,9 UV-I 134 W/m² 13,6 °C 15,8 °C 0,0 km/h (0 Bft)
02.06.2017 08:12 15,8 °C 15,8 °C 86 % 1016,7 hPa 0,0 mm 0,0 km/h (0 Bft) NW 307 ° 0 min 0,000 mm 1,0 UV-I 137 W/m² 13,5 °C 15,8 °C 0,0 km/h (0 Bft)
02.06.2017 08:13 15,9 °C 15,9 °C 87 % 1016,8 hPa 0,0 mm 0,0 km/h (0 Bft) NW 307 ° 0 min 0,000 mm 1,0 UV-I 139 W/m² 13,7 °C 15,9 °C 0,0 km/h (0 Bft)
02.06.2017 08:14 15,9 °C 15,9 °C 88 % 1016,8 hPa 0,0 mm 0,0 km/h (0 Bft) NW 307 ° 0 min 0,000 mm 1,0 UV-I 139 W/m² 13,9 °C 15,9 °C 0,0 km/h (0 Bft)
02.06.2017 08:15 15,9 °C 15,9 °C 88 % 1016,8 hPa 0,0 mm 0,0 km/h (0 Bft) NW 307 ° 0 min 0,000 mm 1,0 UV-I 142 W/m² 13,9 °C 15,9 °C 0,0 km/h (0 Bft)
02.06.2017 08:16 15,8 °C 15,9 °C 87 % 1016,8 hPa 0,0 mm 0,0 km/h (0 Bft) NW 307 ° 0 min 0,000 mm 1,0 UV-I 144 W/m² 13,6 °C 15,8 °C 0,0 km/h (0 Bft)
02.06.2017 08:17 15,8 °C 15,9 °C 87 % 1016,8 hPa 0,0 mm 0,0 km/h (0 Bft) NW 307 ° 0 min 0,000 mm 1,0 UV-I 146 W/m² 13,6 °C 15,8 °C 0,0 km/h (0 Bft)
02.06.2017 08:18 15,9 °C 15,9 °C 88 % 1016,8 hPa 0,0 mm 0,0 km/h (0 Bft) NW 307 ° 0 min 0,000 mm 1,0 UV-I 148 W/m² 13,9 °C 15,9 °C 0,0 km/h (0 Bft)
02.06.2017 08:19 15,9 °C 15,9 °C 88 % 1016,8 hPa 0,0 mm 0,0 km/h (0 Bft) NW 307 ° 0 min 0,000 mm 1,1 UV-I 149 W/m² 13,9 °C 15,9 °C 0,0 km/h (0 Bft)
02.06.2017 08:20 15,9 °C 15,9 °C 87 % 1016,8 hPa 0,0 mm 0,0 km/h (0 Bft) NW 307 ° 0 min 0,000 mm 1,1 UV-I 149 W/m² 13,7 °C 15,9 °C 0,0 km/h (0 Bft)
02.06.2017 08:21 16,0 °C 16,0 °C 87 % 1016,8 hPa 0,0 mm 0,0 km/h (0 Bft) NW 307 ° 0 min 0,000 mm 1,1 UV-I 151 W/m² 13,8 °C 16,0 °C 0,0 km/h (0 Bft)
02.06.2017 08:22 16,0 °C 16,0 °C 87 % 1016,8 hPa 0,0 mm 0,0 km/h (0 Bft) NW 307 ° 0 min 0,000 mm 1,1 UV-I 151 W/m² 13,8 °C 16,0 °C 0,0 km/h (0 Bft)
02.06.2017 08:23 16,0 °C 16,1 °C 87 % 1016,9 hPa 0,0 mm 0,0 km/h (0 Bft) NW 307 ° 0 min 0,000 mm 1,1 UV-I 151 W/m² 13,8 °C 16,0 °C 0,0 km/h (0 Bft)
02.06.2017 08:24 16,1 °C 16,1 °C 88 % 1016,8 hPa 0,0 mm 0,0 km/h (0 Bft) NW 307 ° 0 min 0,000 mm 1,1 UV-I 153 W/m² 14,1 °C 16,1 °C 0,0 km/h (0 Bft)
02.06.2017 08:25 16,1 °C 16,1 °C 87 % 1016,9 hPa 0,0 mm 0,0 km/h (0 Bft) NW 307 ° 0 min 0,000 mm 1,1 UV-I 155 W/m² 13,9 °C 16,1 °C 0,0 km/h (0 Bft)
02.06.2017 08:26 16,1 °C 16,1 °C 88 % 1016,9 hPa 0,0 mm 0,0 km/h (0 Bft) NW 307 ° 0 min 0,000 mm 1,1 UV-I 155 W/m² 14,1 °C 16,1 °C 0,0 km/h (0 Bft)
02.06.2017 08:27 16,2 °C 16,2 °C 88 % 1016,8 hPa 0,0 mm 0,0 km/h (0 Bft) NW 307 ° 0 min 0,000 mm 1,2 UV-I 156 W/m² 14,2 °C 16,2 °C 0,0 km/h (0 Bft)
02.06.2017 08:28 16,2 °C 16,2 °C 88 % 1016,8 hPa 0,0 mm 0,0 km/h (0 Bft) NW 307 ° 0 min 0,000 mm 1,2 UV-I 156 W/m² 14,2 °C 16,2 °C 0,0 km/h (0 Bft)
02.06.2017 08:29 16,2 °C 16,2 °C 87 % 1016,8 hPa 0,0 mm 0,0 km/h (0 Bft) NW 307 ° 0 min 0,000 mm 1,2 UV-I 158 W/m² 14,0 °C 16,2 °C 0,0 km/h (0 Bft)
02.06.2017 08:30 16,2 °C 16,2 °C 87 % 1016,8 hPa 0,0 mm 0,0 km/h (0 Bft) NW 307 ° 0 min 0,000 mm 1,2 UV-I 160 W/m² 14,0 °C 16,2 °C 0,0 km/h (0 Bft)
02.06.2017 08:31 16,2 °C 16,2 °C 86 % 1016,7 hPa 0,0 mm 0,0 km/h (0 Bft) NW 307 ° 0 min 0,000 mm 1,2 UV-I 160 W/m² 13,9 °C 16,2 °C 0,0 km/h (0 Bft)
02.06.2017 08:32 16,2 °C 16,2 °C 86 % 1016,8 hPa 0,0 mm 0,5 km/h (0 Bft) NW 307 ° 0 min 0,000 mm 1,2 UV-I 160 W/m² 13,9 °C 16,2 °C 1,6 km/h (1 Bft)
02.06.2017 08:33 16,2 °C 16,2 °C 86 % 1016,8 hPa 0,0 mm 0,1 km/h (0 Bft) NW 307 ° 0 min 0,000 mm 1,2 UV-I 162 W/m² 13,9 °C 16,2 °C 1,6 km/h (1 Bft)
02.06.2017 08:34 16,3 °C 16,3 °C 87 % 1016,8 hPa 0,0 mm 0,0 km/h (0 Bft) NW 307 ° 0 min 0,000 mm 1,3 UV-I 162 W/m² 14,1 °C 16,3 °C 0,0 km/h (0 Bft)
02.06.2017 08:35 16,3 °C 16,3 °C 87 % 1016,8 hPa 0,0 mm 0,0 km/h (0 Bft) NW 307 ° 0 min 0,000 mm 1,3 UV-I 165 W/m² 14,1 °C 16,3 °C 0,0 km/h (0 Bft)
02.06.2017 08:36 16,3 °C 16,3 °C 87 % 1016,8 hPa 0,0 mm 0,1 km/h (0 Bft) NW 307 ° 0 min 0,000 mm 1,3 UV-I 167 W/m² 14,1 °C 16,3 °C 1,6 km/h (1 Bft)
02.06.2017 08:37 16,4 °C 16,4 °C 86 % 1016,8 hPa 0,0 mm 0,1 km/h (0 Bft) NW 307 ° 0 min 0,000 mm 1,3 UV-I 169 W/m² 14,1 °C 16,4 °C 1,6 km/h (1 Bft)
02.06.2017 08:38 16,4 °C 16,4 °C 86 % 1016,8 hPa 0,0 mm 0,3 km/h (0 Bft) NW 307 ° 0 min 0,000 mm 1,3 UV-I 169 W/m² 14,1 °C 16,4 °C 1,6 km/h (1 Bft)
02.06.2017 08:39 16,4 °C 16,4 °C 87 % 1016,8 hPa 0,0 mm 0,8 km/h (0 Bft) NW 307 ° 0 min 0,000 mm 1,3 UV-I 171 W/m² 14,2 °C 16,4 °C 1,6 km/h (1 Bft)
02.06.2017 08:40 16,4 °C 16,5 °C 87 % 1016,8 hPa 0,0 mm 0,0 km/h (0 Bft) NW 307 ° 0 min 0,000 mm 1,3 UV-I 171 W/m² 14,2 °C 16,4 °C 0,0 km/h (0 Bft)
02.06.2017 08:41 16,5 °C 16,5 °C 88 % 1016,8 hPa 0,0 mm 0,0 km/h (0 Bft) NW 307 ° 0 min 0,000 mm 1,3 UV-I 171 W/m² 14,5 °C 16,5 °C 0,0 km/h (0 Bft)
02.06.2017 08:42 16,4 °C 16,5 °C 86 % 1016,8 hPa 0,0 mm 0,0 km/h (0 Bft) NW 307 ° 0 min 0,000 mm 1,3 UV-I 169 W/m² 14,1 °C 16,4 °C 0,0 km/h (0 Bft)
02.06.2017 08:43 16,4 °C 16,5 °C 85 % 1016,8 hPa 0,0 mm 0,0 km/h (0 Bft) NW 307 ° 0 min 0,000 mm 1,4 UV-I 169 W/m² 13,9 °C 16,4 °C 0,0 km/h (0 Bft)
02.06.2017 08:44 16,5 °C 16,5 °C 85 % 1016,9 hPa 0,0 mm 0,0 km/h (0 Bft) NW 307 ° 0 min 0,000 mm 1,4 UV-I 169 W/m² 14,0 °C 16,5 °C 0,0 km/h (0 Bft)
02.06.2017 08:45 16,6 °C 16,6 °C 86 % 1016,8 hPa 0,0 mm 0,0 km/h (0 Bft) NW 307 ° 0 min 0,000 mm 1,4 UV-I 169 W/m² 14,2 °C 16,6 °C 0,0 km/h (0 Bft)
02.06.2017 08:46 16,6 °C 16,6 °C 87 % 1016,8 hPa 0,0 mm 0,0 km/h (0 Bft) NW 307 ° 0 min 0,000 mm 1,4 UV-I 169 W/m² 14,4 °C 16,6 °C 0,0 km/h (0 Bft)
02.06.2017 08:47 16,6 °C 16,6 °C 87 % 1016,8 hPa 0,0 mm 0,0 km/h (0 Bft) NW 307 ° 0 min 0,000 mm 1,4 UV-I 169 W/m² 14,4 °C 16,6 °C 0,0 km/h (0 Bft)
02.06.2017 08:48 16,7 °C 16,7 °C 85 % 1016,9 hPa 0,0 mm 0,0 km/h (0 Bft) NW 307 ° 0 min 0,000 mm 1,4 UV-I 169 W/m² 14,2 °C 16,7 °C 0,0 km/h (0 Bft)
02.06.2017 08:49 16,7 °C 16,7 °C 85 % 1016,9 hPa 0,0 mm 0,0 km/h (0 Bft) NW 307 ° 0 min 0,000 mm 1,4 UV-I 169 W/m² 14,2 °C 16,7 °C 0,0 km/h (0 Bft)
02.06.2017 08:50 16,7 °C 16,7 °C 85 % 1016,8 hPa 0,0 mm 0,0 km/h (0 Bft) NW 307 ° 0 min 0,000 mm 1,4 UV-I 169 W/m² 14,2 °C 16,7 °C 0,0 km/h (0 Bft)
02.06.2017 08:51 16,7 °C 16,7 °C 86 % 1016,9 hPa 0,0 mm 0,0 km/h (0 Bft) NW 307 ° 0 min 0,000 mm 1,4 UV-I 169 W/m² 14,3 °C 16,7 °C 0,0 km/h (0 Bft)
02.06.2017 08:52 16,8 °C 16,8 °C 85 % 1016,8 hPa 0,0 mm 0,0 km/h (0 Bft) NW 307 ° 0 min 0,000 mm 1,5 UV-I 171 W/m² 14,3 °C 16,8 °C 0,0 km/h (0 Bft)
02.06.2017 08:53 16,8 °C 16,8 °C 83 % 1016,8 hPa 0,0 mm 0,0 km/h (0 Bft) NW 307 ° 0 min 0,000 mm 1,5 UV-I 174 W/m² 13,9 °C 16,8 °C 0,0 km/h (0 Bft)
02.06.2017 08:54 16,9 °C 16,9 °C 86 % 1016,8 hPa 0,0 mm 0,0 km/h (0 Bft) NW 307 ° 0 min 0,000 mm 1,5 UV-I 176 W/m² 14,5 °C 16,9 °C 0,0 km/h (0 Bft)
02.06.2017 08:55 16,9 °C 16,9 °C 86 % 1016,9 hPa 0,0 mm 0,0 km/h (0 Bft) NW 307 ° 0 min 0,000 mm 1,5 UV-I 178 W/m² 14,5 °C 16,9 °C 0,0 km/h (0 Bft)
02.06.2017 08:56 16,9 °C 16,9 °C 86 % 1016,8 hPa 0,0 mm 0,7 km/h (0 Bft) NW 307 ° 0 min 0,000 mm 1,5 UV-I 179 W/m² 14,5 °C 16,9 °C 3,2 km/h (1 Bft)
02.06.2017 08:57 16,9 °C 16,9 °C 84 % 1016,8 hPa 0,0 mm 1,7 km/h (1 Bft) NW 307 ° 0 min 0,000 mm 1,5 UV-I 181 W/m² 14,2 °C 16,9 °C 3,2 km/h (1 Bft)
02.06.2017 08:58 17,0 °C 17,0 °C 84 % 1016,8 hPa 0,0 mm 1,3 km/h (1 Bft) NW 307 ° 0 min 0,000 mm 1,6 UV-I 183 W/m² 14,3 °C 17,0 °C 3,2 km/h (1 Bft)
02.06.2017 08:59 16,9 °C 17,0 °C 84 % 1016,9 hPa 0,0 mm 0,1 km/h (0 Bft) NW 307 ° 0 min 0,000 mm 1,6 UV-I 186 W/m² 14,2 °C 16,9 °C 1,6 km/h (1 Bft)
02.06.2017 09:00 17,0 °C 17,0 °C 83 % 1016,8 hPa 0,0 mm 0,0 km/h (0 Bft) NW 307 ° 0 min 0,076 mm 1,6 UV-I 188 W/m² 14,1 °C 17,0 °C 0,0 km/h (0 Bft)
02.06.2017 09:01 17,0 °C 17,0 °C 84 % 1016,8 hPa 0,0 mm 0,0 km/h (0 Bft) NW 307 ° 0 min 0,000 mm 1,6 UV-I 188 W/m² 14,3 °C 17,0 °C 0,0 km/h (0 Bft)
02.06.2017 09:02 17,0 °C 17,0 °C 84 % 1016,8 hPa 0,0 mm 0,0 km/h (0 Bft) NW 307 ° 0 min 0,000 mm 1,6 UV-I 190 W/m² 14,3 °C 17,0 °C 0,0 km/h (0 Bft)
02.06.2017 09:03 17,0 °C 17,0 °C 83 % 1016,9 hPa 0,0 mm 0,0 km/h (0 Bft) NW 307 ° 0 min 0,000 mm 1,6 UV-I 190 W/m² 14,1 °C 17,0 °C 0,0 km/h (0 Bft)
02.06.2017 09:04 17,0 °C 17,1 °C 84 % 1016,9 hPa 0,0 mm 0,3 km/h (0 Bft) NW 307 ° 0 min 0,000 mm 1,6 UV-I 188 W/m² 14,3 °C 17,0 °C 1,6 km/h (1 Bft)
02.06.2017 09:05 17,0 °C 17,0 °C 83 % 1016,8 hPa 0,0 mm 0,3 km/h (0 Bft) NW 307 ° 0 min 0,000 mm 1,6 UV-I 186 W/m² 14,1 °C 17,0 °C 1,6 km/h (1 Bft)
02.06.2017 09:06 17,0 °C 17,0 °C 83 % 1016,8 hPa 0,0 mm 0,1 km/h (0 Bft) NW 307 ° 0 min 0,000 mm 1,7 UV-I 185 W/m² 14,1 °C 17,0 °C 1,6 km/h (1 Bft)
02.06.2017 09:07 17,0 °C 17,0 °C 83 % 1016,9 hPa 0,0 mm 1,2 km/h (1 Bft) NW 307 ° 0 min 0,000 mm 1,7 UV-I 185 W/m² 14,1 °C 17,0 °C 3,2 km/h (1 Bft)
02.06.2017 09:08 17,0 °C 17,0 °C 83 % 1016,8 hPa 0,0 mm 0,0 km/h (0 Bft) NW 307 ° 0 min 0,000 mm 1,7 UV-I 186 W/m² 14,1 °C 17,0 °C 0,0 km/h (0 Bft)
02.06.2017 09:09 16,9 °C 17,0 °C 84 % 1016,8 hPa 0,0 mm 0,3 km/h (0 Bft) NW 307 ° 0 min 0,000 mm 1,7 UV-I 188 W/m² 14,2 °C 16,9 °C 1,6 km/h (1 Bft)
02.06.2017 09:10 17,0 °C 17,0 °C 84 % 1016,8 hPa 0,0 mm 0,0 km/h (0 Bft) NW 307 ° 0 min 0,000 mm 1,7 UV-I 190 W/m² 14,3 °C 17,0 °C 0,0 km/h (0 Bft)
02.06.2017 09:11 17,0 °C 17,1 °C 83 % 1016,8 hPa 0,0 mm 0,0 km/h (0 Bft) NW 307 ° 0 min 0,000 mm 1,7 UV-I 195 W/m² 14,1 °C 17,0 °C 0,0 km/h (0 Bft)
02.06.2017 09:12 17,1 °C 17,1 °C 83 % 1016,8 hPa 0,0 mm 0,0 km/h (0 Bft) NW 307 ° 0 min 0,000 mm 1,8 UV-I 199 W/m² 14,2 °C 17,1 °C 0,0 km/h (0 Bft)
02.06.2017 09:13 17,1 °C 17,1 °C 83 % 1016,8 hPa 0,0 mm 0,0 km/h (0 Bft) NW 307 ° 0 min 0,000 mm 1,8 UV-I 200 W/m² 14,2 °C 17,1 °C 0,0 km/h (0 Bft)
02.06.2017 09:14 17,1 °C 17,1 °C 83 % 1016,8 hPa 0,0 mm 0,0 km/h (0 Bft) NW 307 ° 0 min 0,000 mm 1,8 UV-I 202 W/m² 14,2 °C 17,1 °C 0,0 km/h (0 Bft)
02.06.2017 09:15 17,1 °C 17,1 °C 84 % 1016,8 hPa 0,0 mm 0,0 km/h (0 Bft) NW 307 ° 0 min 0,000 mm 1,8 UV-I 204 W/m² 14,4 °C 17,1 °C 0,0 km/h (0 Bft)
02.06.2017 09:16 17,1 °C 17,1 °C 85 % 1016,8 hPa 0,0 mm 0,0 km/h (0 Bft) NW 307 ° 0 min 0,000 mm 1,8 UV-I 207 W/m² 14,6 °C 17,1 °C 0,0 km/h (0 Bft)
02.06.2017 09:17 17,2 °C 17,2 °C 84 % 1016,9 hPa 0,0 mm 0,0 km/h (0 Bft) NW 307 ° 0 min 0,000 mm 1,8 UV-I 207 W/m² 14,5 °C 17,2 °C 0,0 km/h (0 Bft)
02.06.2017 09:18 17,2 °C 17,2 °C 85 % 1016,8 hPa 0,0 mm 0,0 km/h (0 Bft) NW 307 ° 0 min 0,000 mm 1,9 UV-I 209 W/m² 14,7 °C 17,2 °C 0,0 km/h (0 Bft)
02.06.2017 09:19 17,3 °C 17,3 °C 82 % 1016,9 hPa 0,0 mm 0,7 km/h (0 Bft) NW 307 ° 0 min 0,000 mm 1,9 UV-I 211 W/m² 14,2 °C 17,3 °C 1,6 km/h (1 Bft)
02.06.2017 09:20 17,3 °C 17,3 °C 82 % 1016,8 hPa 0,0 mm 1,1 km/h (1 Bft) NW 307 ° 0 min 0,000 mm 1,9 UV-I 211 W/m² 14,2 °C 17,3 °C 3,2 km/h (1 Bft)
02.06.2017 09:21 17,3 °C 17,4 °C 83 % 1016,8 hPa 0,0 mm 0,6 km/h (0 Bft) NW 307 ° 0 min 0,000 mm 1,9 UV-I 211 W/m² 14,4 °C 17,3 °C 1,6 km/h (1 Bft)
02.06.2017 09:22 17,4 °C 17,4 °C 84 % 1016,8 hPa 0,0 mm 0,4 km/h (0 Bft) NW 307 ° 0 min 0,000 mm 1,9 UV-I 209 W/m² 14,7 °C 17,4 °C 1,6 km/h (1 Bft)
02.06.2017 09:23 17,4 °C 17,4 °C 83 % 1016,8 hPa 0,0 mm 0,3 km/h (0 Bft) NW 307 ° 0 min 0,000 mm 1,9 UV-I 207 W/m² 14,5 °C 17,4 °C 1,6 km/h (1 Bft)
02.06.2017 09:24 17,4 °C 17,5 °C 81 % 1016,8 hPa 0,0 mm 0,2 km/h (0 Bft) NW 307 ° 0 min 0,000 mm 1,9 UV-I 204 W/m² 14,1 °C 17,4 °C 1,6 km/h (1 Bft)
02.06.2017 09:25 17,5 °C 17,5 °C 83 % 1016,8 hPa 0,0 mm 0,0 km/h (0 Bft) NW 307 ° 0 min 0,000 mm 2,0 UV-I 202 W/m² 14,6 °C 17,5 °C 0,0 km/h (0 Bft)
02.06.2017 09:26 17,5 °C 17,5 °C 79 % 1016,8 hPa 0,0 mm 0,7 km/h (0 Bft) NW 306 ° 0 min 0,000 mm 2,0 UV-I 200 W/m² 13,8 °C 17,5 °C 1,6 km/h (1 Bft)
02.06.2017 09:27 17,5 °C 17,5 °C 79 % 1016,8 hPa 0,0 mm 0,0 km/h (0 Bft) NW 306 ° 0 min 0,000 mm 2,0 UV-I 200 W/m² 13,8 °C 17,5 °C 0,0 km/h (0 Bft)
02.06.2017 09:28 17,5 °C 17,5 °C 79 % 1016,8 hPa 0,0 mm 0,1 km/h (0 Bft) NW 306 ° 0 min 0,000 mm 2,0 UV-I 204 W/m² 13,8 °C 17,5 °C 1,6 km/h (1 Bft)
02.06.2017 09:29 17,5 °C 17,5 °C 81 % 1016,8 hPa 0,0 mm 0,0 km/h (0 Bft) NW 306 ° 0 min 0,000 mm 2,0 UV-I 207 W/m² 14,2 °C 17,5 °C 0,0 km/h (0 Bft)
02.06.2017 09:30 17,5 °C 17,5 °C 81 % 1016,9 hPa 0,0 mm 0,0 km/h (0 Bft) NW 306 ° 0 min 0,000 mm 2,1 UV-I 213 W/m² 14,2 °C 17,5 °C 0,0 km/h (0 Bft)
02.06.2017 09:31 17,5 °C 17,5 °C 80 % 1016,8 hPa 0,0 mm 0,0 km/h (0 Bft) NW 306 ° 0 min 0,000 mm 2,1 UV-I 214 W/m² 14,0 °C 17,5 °C 0,0 km/h (0 Bft)
02.06.2017 09:32 17,6 °C 17,6 °C 80 % 1016,8 hPa 0,0 mm 0,0 km/h (0 Bft) NW 306 ° 0 min 0,000 mm 2,1 UV-I 216 W/m² 14,1 °C 17,6 °C 0,0 km/h (0 Bft)
02.06.2017 09:33 17,6 °C 17,6 °C 80 % 1016,8 hPa 0,0 mm 1,2 km/h (1 Bft) NW 306 ° 0 min 0,000 mm 2,2 UV-I 220 W/m² 14,1 °C 17,6 °C 3,2 km/h (1 Bft)
02.06.2017 09:34 17,6 °C 17,6 °C 80 % 1016,8 hPa 0,0 mm 2,1 km/h (1 Bft) NW 306 ° 0 min 0,000 mm 2,2 UV-I 230 W/m² 14,1 °C 17,6 °C 3,2 km/h (1 Bft)
02.06.2017 09:35 17,6 °C 17,6 °C 80 % 1016,8 hPa 0,0 mm 1,9 km/h (1 Bft) NW 306 ° 0 min 0,000 mm 2,3 UV-I 239 W/m² 14,1 °C 17,6 °C 3,2 km/h (1 Bft)
02.06.2017 09:36 17,6 °C 17,6 °C 80 % 1016,8 hPa 0,0 mm 1,6 km/h (1 Bft) NW 306 ° 0 min 0,000 mm 2,3 UV-I 253 W/m² 14,1 °C 17,6 °C 3,2 km/h (1 Bft)
02.06.2017 09:37 17,6 °C 17,6 °C 81 % 1016,8 hPa 0,0 mm 1,6 km/h (1 Bft) NW 305 ° 0 min 0,000 mm 2,4 UV-I 269 W/m² 14,3 °C 17,6 °C 3,2 km/h (1 Bft)
02.06.2017 09:38 17,6 °C 17,7 °C 80 % 1016,8 hPa 0,0 mm 1,7 km/h (1 Bft) NW 304 ° 0 min 0,000 mm 2,5 UV-I 281 W/m² 14,1 °C 17,6 °C 3,2 km/h (1 Bft)
02.06.2017 09:39 17,7 °C 17,7 °C 81 % 1016,9 hPa 0,0 mm 1,3 km/h (1 Bft) NW 304 ° 0 min 0,000 mm 2,5 UV-I 288 W/m² 14,4 °C 17,7 °C 3,2 km/h (1 Bft)
02.06.2017 09:40 17,7 °C 17,7 °C 80 % 1016,9 hPa 0,0 mm 0,9 km/h (0 Bft) NW 304 ° 1 min 0,000 mm 2,7 UV-I 355 W/m² 14,2 °C 17,7 °C 3,2 km/h (1 Bft)
02.06.2017 09:41 17,8 °C 17,8 °C 81 % 1016,9 hPa 0,0 mm 0,9 km/h (0 Bft) NW 304 ° 1 min 0,000 mm 2,8 UV-I 362 W/m² 14,5 °C 17,8 °C 1,6 km/h (1 Bft)
02.06.2017 09:42 17,8 °C 17,8 °C 79 % 1016,9 hPa 0,0 mm 0,0 km/h (0 Bft) NW 304 ° 1 min 0,000 mm 2,8 UV-I 348 W/m² 14,1 °C 17,8 °C 0,0 km/h (0 Bft)
02.06.2017 09:43 17,9 °C 17,9 °C 81 % 1016,8 hPa 0,0 mm 0,0 km/h (0 Bft) NW 304 ° 1 min 0,000 mm 2,8 UV-I 338 W/m² 14,6 °C 17,9 °C 0,0 km/h (0 Bft)
02.06.2017 09:44 18,0 °C 18,0 °C 81 % 1016,8 hPa 0,0 mm 0,0 km/h (0 Bft) NW 304 ° 1 min 0,000 mm 2,8 UV-I 343 W/m² 14,7 °C 18,0 °C 0,0 km/h (0 Bft)
02.06.2017 09:45 18,1 °C 18,1 °C 79 % 1016,9 hPa 0,0 mm 0,3 km/h (0 Bft) NW 304 ° 1 min 0,000 mm 2,8 UV-I 346 W/m² 14,4 °C 18,1 °C 1,6 km/h (1 Bft)
02.06.2017 09:46 18,2 °C 18,2 °C 80 % 1016,8 hPa 0,0 mm 2,3 km/h (1 Bft) NW 314 ° 1 min 0,000 mm 2,8 UV-I 350 W/m² 14,7 °C 18,2 °C 6,4 km/h (2 Bft)
02.06.2017 09:47 18,3 °C 18,3 °C 80 % 1016,8 hPa 0,0 mm 2,7 km/h (1 Bft) NW 313 ° 1 min 0,000 mm 2,8 UV-I 350 W/m² 14,8 °C 18,3 °C 3,2 km/h (1 Bft)
02.06.2017 09:48 18,3 °C 18,3 °C 77 % 1016,9 hPa 0,0 mm 1,6 km/h (1 Bft) NW 313 ° 1 min 0,000 mm 2,8 UV-I 350 W/m² 14,2 °C 18,3 °C 3,2 km/h (1 Bft)
02.06.2017 09:49 18,3 °C 18,3 °C 79 % 1016,9 hPa 0,0 mm 2,8 km/h (1 Bft) NW 318 ° 1 min 0,000 mm 2,8 UV-I 348 W/m² 14,6 °C 18,3 °C 6,4 km/h (2 Bft)
02.06.2017 09:50 18,3 °C 18,3 °C 78 % 1016,9 hPa 0,0 mm 5,4 km/h (1 Bft) W-NW 291 ° 1 min 0,000 mm 2,8 UV-I 341 W/m² 14,4 °C 18,3 °C 6,4 km/h (2 Bft)
02.06.2017 09:51 18,3 °C 18,4 °C 78 % 1016,8 hPa 0,0 mm 5,1 km/h (1 Bft) W-NW 295 ° 1 min 0,000 mm 2,8 UV-I 336 W/m² 14,4 °C 18,3 °C 9,7 km/h (2 Bft)
02.06.2017 09:52 18,4 °C 18,4 °C 77 % 1016,8 hPa 0,0 mm 7,4 km/h (2 Bft) W-NW 284 ° 1 min 0,000 mm 2,8 UV-I 336 W/m² 14,3 °C 18,4 °C 12,9 km/h (3 Bft)
02.06.2017 09:53 18,4 °C 18,4 °C 77 % 1016,9 hPa 0,0 mm 6,2 km/h (2 Bft) W-NW 292 ° 1 min 0,000 mm 2,8 UV-I 338 W/m² 14,3 °C 18,4 °C 8,0 km/h (2 Bft)
02.06.2017 09:54 18,4 °C 18,4 °C 75 % 1016,9 hPa 0,0 mm 1,1 km/h (1 Bft) W-NW 292 ° 1 min 0,000 mm 2,8 UV-I 341 W/m² 13,9 °C 18,4 °C 3,2 km/h (1 Bft)
02.06.2017 09:55 18,4 °C 18,4 °C 77 % 1016,8 hPa 0,0 mm 1,9 km/h (1 Bft) W-NW 301 ° 1 min 0,000 mm 2,8 UV-I 339 W/m² 14,3 °C 18,4 °C 4,8 km/h (1 Bft)
02.06.2017 09:56 18,4 °C 18,4 °C 78 % 1016,8 hPa 0,0 mm 3,2 km/h (1 Bft) W-NW 296 ° 1 min 0,000 mm 2,8 UV-I 338 W/m² 14,5 °C 18,4 °C 4,8 km/h (1 Bft)
02.06.2017 09:57 18,5 °C 18,5 °C 77 % 1016,8 hPa 0,0 mm 2,2 km/h (1 Bft) W 272 ° 1 min 0,000 mm 2,8 UV-I 334 W/m² 14,4 °C 18,5 °C 4,8 km/h (1 Bft)
02.06.2017 09:58 18,5 °C 18,5 °C 77 % 1016,8 hPa 0,0 mm 5,3 km/h (1 Bft) W 266 ° 1 min 0,000 mm 2,7 UV-I 332 W/m² 14,4 °C 18,5 °C 6,4 km/h (2 Bft)
02.06.2017 09:59 18,6 °C 18,6 °C 77 % 1016,8 hPa 0,0 mm 4,6 km/h (1 Bft) NW 310 ° 1 min 0,000 mm 2,7 UV-I 332 W/m² 14,5 °C 18,6 °C 6,4 km/h (2 Bft)
02.06.2017 10:00 18,6 °C 18,6 °C 79 % 1016,8 hPa 0,0 mm 4,4 km/h (1 Bft) N-NW 338 ° 1 min 0,153 mm 2,7 UV-I 334 W/m² 14,9 °C 18,6 °C 4,8 km/h (1 Bft)
02.06.2017 10:01 18,6 °C 18,6 °C 77 % 1016,8 hPa 0,0 mm 2,7 km/h (1 Bft) N-NW 338 ° 1 min 0,000 mm 2,8 UV-I 336 W/m² 14,5 °C 18,6 °C 3,2 km/h (1 Bft)
02.06.2017 10:02 18,6 °C 18,6 °C 78 % 1016,8 hPa 0,0 mm 4,4 km/h (1 Bft) W-NW 286 ° 1 min 0,000 mm 2,8 UV-I 338 W/m² 14,7 °C 18,6 °C 6,4 km/h (2 Bft)
02.06.2017 10:03 18,7 °C 18,7 °C 79 % 1016,8 hPa 0,0 mm 2,6 km/h (1 Bft) N-NW 337 ° 1 min 0,000 mm 2,8 UV-I 334 W/m² 15,0 °C 18,7 °C 8,0 km/h (2 Bft)
02.06.2017 10:04 18,7 °C 18,8 °C 79 % 1016,8 hPa 0,0 mm 4,2 km/h (1 Bft) NW 326 ° 1 min 0,000 mm 2,7 UV-I 323 W/m² 15,0 °C 18,7 °C 8,0 km/h (2 Bft)
02.06.2017 10:05 18,8 °C 18,8 °C 79 % 1016,7 hPa 0,0 mm 6,4 km/h (2 Bft) W-NW 302 ° 1 min 0,000 mm 2,7 UV-I 315 W/m² 15,1 °C 18,8 °C 11,3 km/h (2 Bft)
02.06.2017 10:06 18,8 °C 18,8 °C 79 % 1016,8 hPa 0,0 mm 3,9 km/h (1 Bft) W-NW 300 ° 1 min 0,000 mm 2,6 UV-I 315 W/m² 15,1 °C 18,8 °C 6,4 km/h (2 Bft)
02.06.2017 10:07 18,8 °C 18,8 °C 76 % 1016,7 hPa 0,0 mm 4,9 km/h (1 Bft) W 275 ° 1 min 0,000 mm 2,6 UV-I 311 W/m² 14,5 °C 18,8 °C 8,0 km/h (2 Bft)
02.06.2017 10:08 18,7 °C 18,8 °C 76 % 1016,7 hPa 0,0 mm 4,4 km/h (1 Bft) N-NW 327 ° 1 min 0,000 mm 2,7 UV-I 313 W/m² 14,4 °C 18,7 °C 8,0 km/h (2 Bft)
02.06.2017 10:09 18,7 °C 18,7 °C 77 % 1016,7 hPa 0,0 mm 3,8 km/h (1 Bft) NW 316 ° 1 min 0,000 mm 2,7 UV-I 316 W/m² 14,6 °C 18,7 °C 6,4 km/h (2 Bft)
02.06.2017 10:10 18,7 °C 18,7 °C 77 % 1016,7 hPa 0,0 mm 4,8 km/h (1 Bft) N-NW 336 ° 1 min 0,000 mm 2,7 UV-I 316 W/m² 14,6 °C 18,7 °C 6,4 km/h (2 Bft)
02.06.2017 10:11 18,7 °C 18,7 °C 78 % 1016,7 hPa 0,0 mm 6,3 km/h (2 Bft) W-NW 302 ° 1 min 0,000 mm 2,7 UV-I 320 W/m² 14,8 °C 18,7 °C 9,7 km/h (2 Bft)
02.06.2017 10:12 18,7 °C 18,7 °C 79 % 1016,7 hPa 0,0 mm 6,8 km/h (2 Bft) W-NW 298 ° 1 min 0,000 mm 2,7 UV-I 320 W/m² 15,0 °C 18,7 °C 11,3 km/h (2 Bft)
02.06.2017 10:13 18,7 °C 18,7 °C 77 % 1016,7 hPa 0,0 mm 7,4 km/h (2 Bft) N-NW 327 ° 1 min 0,000 mm 2,7 UV-I 316 W/m² 14,6 °C 18,7 °C 9,7 km/h (2 Bft)
02.06.2017 10:14 18,8 °C 18,8 °C 77 % 1016,7 hPa 0,0 mm 5,4 km/h (1 Bft) NW 304 ° 1 min 0,000 mm 2,6 UV-I 309 W/m² 14,7 °C 18,8 °C 9,7 km/h (2 Bft)
02.06.2017 10:15 18,7 °C 18,8 °C 78 % 1016,7 hPa 0,0 mm 4,6 km/h (1 Bft) W 277 ° 1 min 0,000 mm 2,6 UV-I 302 W/m² 14,8 °C 18,7 °C 6,4 km/h (2 Bft)
02.06.2017 10:16 18,7 °C 18,7 °C 78 % 1016,7 hPa 0,0 mm 6,4 km/h (2 Bft) W 273 ° 1 min 0,000 mm 2,6 UV-I 302 W/m² 14,8 °C 18,7 °C 9,7 km/h (2 Bft)
02.06.2017 10:17 18,7 °C 18,7 °C 77 % 1016,7 hPa 0,0 mm 6,6 km/h (2 Bft) W-NW 300 ° 1 min 0,000 mm 2,6 UV-I 302 W/m² 14,6 °C 18,7 °C 9,7 km/h (2 Bft)
02.06.2017 10:18 18,6 °C 18,7 °C 78 % 1016,7 hPa 0,0 mm 2,9 km/h (1 Bft) W 281 ° 1 min 0,000 mm 2,6 UV-I 304 W/m² 14,7 °C 18,6 °C 4,8 km/h (1 Bft)
02.06.2017 10:19 18,6 °C 18,7 °C 79 % 1016,7 hPa 0,0 mm 4,7 km/h (1 Bft) W-NW 292 ° 1 min 0,000 mm 2,6 UV-I 306 W/m² 14,9 °C 18,6 °C 6,4 km/h (2 Bft)
02.06.2017 10:20 18,7 °C 18,7 °C 77 % 1016,7 hPa 0,0 mm 3,6 km/h (1 Bft) W-NW 293 ° 1 min 0,000 mm 2,6 UV-I 308 W/m² 14,6 °C 18,7 °C 4,8 km/h (1 Bft)
02.06.2017 10:21 18,6 °C 18,7 °C 77 % 1016,7 hPa 0,0 mm 3,8 km/h (1 Bft) N-NW 327 ° 1 min 0,000 mm 2,6 UV-I 311 W/m² 14,5 °C 18,6 °C 4,8 km/h (1 Bft)
02.06.2017 10:22 18,7 °C 18,7 °C 78 % 1016,7 hPa 0,0 mm 3,5 km/h (1 Bft) W-NW 285 ° 1 min 0,000 mm 2,7 UV-I 313 W/m² 14,8 °C 18,7 °C 6,4 km/h (2 Bft)
02.06.2017 10:23 18,7 °C 18,7 °C 78 % 1016,7 hPa 0,0 mm 7,3 km/h (2 Bft) W-NW 287 ° 1 min 0,000 mm 2,7 UV-I 313 W/m² 14,8 °C 18,7 °C 11,3 km/h (2 Bft)
02.06.2017 10:24 18,7 °C 18,7 °C 77 % 1016,7 hPa 0,0 mm 7,0 km/h (2 Bft) W-NW 290 ° 1 min 0,000 mm 2,7 UV-I 313 W/m² 14,6 °C 18,7 °C 11,3 km/h (2 Bft)
02.06.2017 10:25 18,7 °C 18,7 °C 77 % 1016,7 hPa 0,0 mm 2,5 km/h (1 Bft) W-NW 302 ° 1 min 0,000 mm 2,7 UV-I 313 W/m² 14,6 °C 18,7 °C 4,8 km/h (1 Bft)
02.06.2017 10:26 18,7 °C 18,7 °C 78 % 1016,8 hPa 0,0 mm 3,1 km/h (1 Bft) W-NW 289 ° 1 min 0,000 mm 2,7 UV-I 313 W/m² 14,8 °C 18,7 °C 4,8 km/h (1 Bft)
02.06.2017 10:27 18,7 °C 18,7 °C 78 % 1016,8 hPa 0,0 mm 2,1 km/h (1 Bft) NW 318 ° 1 min 0,000 mm 2,7 UV-I 313 W/m² 14,8 °C 18,7 °C 4,8 km/h (1 Bft)
02.06.2017 10:28 18,8 °C 18,8 °C 79 % 1016,8 hPa 0,0 mm 3,6 km/h (1 Bft) W-NW 302 ° 1 min 0,000 mm 2,7 UV-I 316 W/m² 15,1 °C 18,8 °C 4,8 km/h (1 Bft)
02.06.2017 10:29 18,8 °C 18,8 °C 77 % 1016,8 hPa 0,0 mm 3,3 km/h (1 Bft) W-NW 302 ° 1 min 0,000 mm 2,7 UV-I 320 W/m² 14,7 °C 18,8 °C 4,8 km/h (1 Bft)
02.06.2017 10:30 18,8 °C 18,8 °C 76 % 1016,8 hPa 0,0 mm 1,8 km/h (1 Bft) W-NW 294 ° 1 min 0,000 mm 2,8 UV-I 323 W/m² 14,5 °C 18,8 °C 3,2 km/h (1 Bft)
02.06.2017 10:31 18,8 °C 18,8 °C 78 % 1016,8 hPa 0,0 mm 2,6 km/h (1 Bft) W-NW 297 ° 1 min 0,000 mm 2,8 UV-I 329 W/m² 14,9 °C 18,8 °C 4,8 km/h (1 Bft)
02.06.2017 10:32 18,8 °C 18,8 °C 78 % 1016,8 hPa 0,0 mm 2,7 km/h (1 Bft) NW 315 ° 1 min 0,000 mm 2,9 UV-I 334 W/m² 14,9 °C 18,8 °C 6,4 km/h (2 Bft)
02.06.2017 10:33 18,8 °C 18,8 °C 78 % 1016,8 hPa 0,0 mm 3,3 km/h (1 Bft) NW 309 ° 1 min 0,000 mm 2,9 UV-I 348 W/m² 14,9 °C 18,8 °C 4,8 km/h (1 Bft)
02.06.2017 10:34 18,8 °C 18,8 °C 76 % 1016,7 hPa 0,0 mm 3,6 km/h (1 Bft) NW 315 ° 1 min 0,000 mm 3,1 UV-I 357 W/m² 14,5 °C 18,8 °C 4,8 km/h (1 Bft)
02.06.2017 10:35 18,9 °C 18,9 °C 77 % 1016,7 hPa 0,0 mm 4,3 km/h (1 Bft) NW 306 ° 1 min 0,000 mm 3,1 UV-I 364 W/m² 14,8 °C 18,9 °C 6,4 km/h (2 Bft)
02.06.2017 10:36 18,9 °C 18,9 °C 78 % 1016,7 hPa 0,0 mm 4,0 km/h (1 Bft) NW 320 ° 1 min 0,000 mm 3,2 UV-I 373 W/m² 15,0 °C 18,9 °C 6,4 km/h (2 Bft)
02.06.2017 10:37 18,9 °C 18,9 °C 76 % 1016,7 hPa 0,0 mm 2,1 km/h (1 Bft) NW 320 ° 1 min 0,000 mm 3,3 UV-I 392 W/m² 14,6 °C 18,9 °C 4,8 km/h (1 Bft)
02.06.2017 10:38 18,9 °C 18,9 °C 77 % 1016,7 hPa 0,0 mm 2,2 km/h (1 Bft) NW 320 ° 1 min 0,000 mm 3,4 UV-I 436 W/m² 14,8 °C 18,9 °C 3,2 km/h (1 Bft)
02.06.2017 10:39 19,0 °C 19,1 °C 78 % 1016,7 hPa 0,0 mm 3,8 km/h (1 Bft) NW 306 ° 1 min 0,000 mm 3,6 UV-I 482 W/m² 15,1 °C 19,0 °C 6,4 km/h (2 Bft)
02.06.2017 10:40 19,1 °C 19,1 °C 75 % 1016,7 hPa 0,0 mm 4,9 km/h (1 Bft) NW 305 ° 1 min 0,000 mm 4,0 UV-I 494 W/m² 14,6 °C 19,1 °C 6,4 km/h (2 Bft)
02.06.2017 10:41 19,1 °C 19,1 °C 75 % 1016,7 hPa 0,0 mm 5,0 km/h (1 Bft) W-NW 289 ° 1 min 0,000 mm 4,0 UV-I 510 W/m² 14,6 °C 19,1 °C 6,4 km/h (2 Bft)
02.06.2017 10:42 19,2 °C 19,2 °C 76 % 1016,7 hPa 0,0 mm 4,6 km/h (1 Bft) W-NW 292 ° 1 min 0,000 mm 4,6 UV-I 510 W/m² 14,9 °C 19,2 °C 6,4 km/h (2 Bft)
02.06.2017 10:43 19,2 °C 19,2 °C 77 % 1016,7 hPa 0,0 mm 4,9 km/h (1 Bft) W-NW 286 ° 1 min 0,000 mm 5,4 UV-I 510 W/m² 15,1 °C 19,2 °C 9,7 km/h (2 Bft)
02.06.2017 10:44 19,3 °C 19,3 °C 78 % 1016,7 hPa 0,0 mm 3,8 km/h (1 Bft) NW 306 ° 1 min 0,000 mm 4,3 UV-I 510 W/m² 15,4 °C 19,3 °C 6,4 km/h (2 Bft)
02.06.2017 10:45 19,4 °C 19,4 °C 77 % 1016,7 hPa 0,0 mm 4,3 km/h (1 Bft) W-NW 285 ° 1 min 0,000 mm 4,2 UV-I 520 W/m² 15,3 °C 19,4 °C 8,0 km/h (2 Bft)
02.06.2017 10:46 19,5 °C 19,5 °C 76 % 1016,7 hPa 0,0 mm 6,1 km/h (2 Bft) W-NW 301 ° 1 min 0,000 mm 4,5 UV-I 578 W/m² 15,2 °C 19,5 °C 6,4 km/h (2 Bft)
02.06.2017 10:47 19,5 °C 19,5 °C 74 % 1016,7 hPa 0,0 mm 4,5 km/h (1 Bft) W-NW 288 ° 1 min 0,000 mm 4,8 UV-I 596 W/m² 14,7 °C 19,5 °C 6,4 km/h (2 Bft)
02.06.2017 10:48 19,5 °C 19,6 °C 75 % 1016,7 hPa 0,0 mm 2,6 km/h (1 Bft) W-NW 289 ° 1 min 0,000 mm 4,4 UV-I 529 W/m² 14,9 °C 19,5 °C 4,8 km/h (1 Bft)
02.06.2017 10:49 19,4 °C 19,5 °C 73 % 1016,7 hPa 0,0 mm 3,6 km/h (1 Bft) W-NW 289 ° 1 min 0,000 mm 4,5 UV-I 548 W/m² 14,4 °C 19,4 °C 4,8 km/h (1 Bft)
02.06.2017 10:50 19,4 °C 19,4 °C 74 % 1016,7 hPa 0,0 mm 0,7 km/h (0 Bft) W-NW 289 ° 1 min 0,000 mm 5,5 UV-I 548 W/m² 14,6 °C 19,4 °C 3,2 km/h (1 Bft)
02.06.2017 10:51 19,6 °C 19,6 °C 75 % 1016,7 hPa 0,0 mm 2,8 km/h (1 Bft) W-NW 289 ° 1 min 0,000 mm 6,0 UV-I 548 W/m² 15,0 °C 19,6 °C 4,8 km/h (1 Bft)
02.06.2017 10:52 19,7 °C 19,7 °C 75 % 1016,7 hPa 0,0 mm 4,0 km/h (1 Bft) W-NW 300 ° 1 min 0,000 mm 4,8 UV-I 548 W/m² 15,1 °C 19,7 °C 8,0 km/h (2 Bft)
02.06.2017 10:53 19,8 °C 19,8 °C 76 % 1016,7 hPa 0,0 mm 3,5 km/h (1 Bft) NW 309 ° 1 min 0,000 mm 4,8 UV-I 578 W/m² 15,4 °C 19,8 °C 4,8 km/h (1 Bft)
02.06.2017 10:54 19,8 °C 19,8 °C 74 % 1016,6 hPa 0,0 mm 2,0 km/h (1 Bft) W 273 ° 1 min 0,000 mm 4,7 UV-I 575 W/m² 15,0 °C 19,8 °C 3,2 km/h (1 Bft)
02.06.2017 10:55 19,8 °C 19,8 °C 74 % 1016,6 hPa 0,0 mm 0,8 km/h (0 Bft) W 273 ° 1 min 0,000 mm 4,9 UV-I 621 W/m² 15,0 °C 19,8 °C 3,2 km/h (1 Bft)
02.06.2017 10:56 19,8 °C 19,8 °C 75 % 1016,6 hPa 0,0 mm 3,6 km/h (1 Bft) N 355 ° 1 min 0,000 mm 5,4 UV-I 789 W/m² 15,2 °C 19,8 °C 4,8 km/h (1 Bft)
02.06.2017 10:57 20,1 °C 20,1 °C 76 % 1016,6 hPa 0,0 mm 4,6 km/h (1 Bft) N-NW 348 ° 1 min 0,000 mm 5,2 UV-I 756 W/m² 15,7 °C 20,1 °C 8,0 km/h (2 Bft)
02.06.2017 10:58 20,2 °C 20,2 °C 75 % 1016,6 hPa 0,0 mm 2,1 km/h (1 Bft) N-NW 329 ° 1 min 0,000 mm 5,0 UV-I 756 W/m² 15,6 °C 20,2 °C 6,4 km/h (2 Bft)
02.06.2017 10:59 20,2 °C 20,2 °C 74 % 1016,6 hPa 0,0 mm 4,9 km/h (1 Bft) N 355 ° 1 min 0,000 mm 5,0 UV-I 613 W/m² 15,4 °C 20,2 °C 6,4 km/h (2 Bft)
02.06.2017 11:00 20,2 °C 20,2 °C 71 % 1016,6 hPa 0,0 mm 3,1 km/h (1 Bft) N 5 ° 1 min 0,000 mm 5,3 UV-I 689 W/m² 14,8 °C 20,2 °C 3,2 km/h (1 Bft)
02.06.2017 11:01 20,2 °C 20,2 °C 74 % 1016,6 hPa 0,0 mm 5,3 km/h (1 Bft) NW 309 ° 1 min 0,254 mm 5,5 UV-I 666 W/m² 15,4 °C 20,2 °C 8,0 km/h (2 Bft)
02.06.2017 11:02 20,3 °C 20,3 °C 74 % 1016,6 hPa 0,0 mm 5,6 km/h (1 Bft) W-NW 300 ° 1 min 0,000 mm 6,0 UV-I 666 W/m² 15,5 °C 20,3 °C 8,0 km/h (2 Bft)
02.06.2017 11:03 20,4 °C 20,4 °C 78 % 1016,6 hPa 0,0 mm 3,8 km/h (1 Bft) W-NW 300 ° 1 min 0,000 mm 5,1 UV-I 698 W/m² 16,4 °C 20,4 °C 6,4 km/h (2 Bft)
02.06.2017 11:04 20,3 °C 20,4 °C 73 % 1016,5 hPa 0,0 mm 7,3 km/h (2 Bft) W-SW 258 ° 1 min 0,000 mm 4,7 UV-I 698 W/m² 15,3 °C 20,3 °C 11,3 km/h (2 Bft)
02.06.2017 11:05 20,2 °C 20,3 °C 73 % 1016,6 hPa 0,0 mm 5,1 km/h (1 Bft) W-SW 251 ° 1 min 0,000 mm 4,7 UV-I 526 W/m² 15,2 °C 20,2 °C 9,7 km/h (2 Bft)
02.06.2017 11:06 20,1 °C 20,2 °C 71 % 1016,5 hPa 0,0 mm 2,9 km/h (1 Bft) W 264 ° 1 min 0,000 mm 4,9 UV-I 584 W/m² 14,7 °C 20,1 °C 4,8 km/h (1 Bft)
02.06.2017 11:07 20,1 °C 20,1 °C 74 % 1016,5 hPa 0,0 mm 4,6 km/h (1 Bft) W 278 ° 1 min 0,000 mm 5,1 UV-I 605 W/m² 15,3 °C 20,1 °C 6,4 km/h (2 Bft)
02.06.2017 11:08 20,1 °C 20,1 °C 73 % 1016,5 hPa 0,0 mm 4,6 km/h (1 Bft) NW 304 ° 1 min 0,000 mm 5,1 UV-I 578 W/m² 15,1 °C 20,1 °C 6,4 km/h (2 Bft)
02.06.2017 11:09 19,9 °C 20,1 °C 74 % 1016,6 hPa 0,0 mm 2,1 km/h (1 Bft) NW 324 ° 1 min 0,000 mm 4,9 UV-I 578 W/m² 15,1 °C 19,9 °C 3,2 km/h (1 Bft)
02.06.2017 11:10 19,9 °C 19,9 °C 72 % 1016,6 hPa 0,0 mm 1,5 km/h (1 Bft) NW 324 ° 1 min 0,000 mm 5,4 UV-I 677 W/m² 14,7 °C 19,9 °C 3,2 km/h (1 Bft)
02.06.2017 11:11 20,1 °C 20,1 °C 75 % 1016,6 hPa 0,0 mm 1,5 km/h (1 Bft) NW 319 ° 1 min 0,000 mm 5,1 UV-I 613 W/m² 15,5 °C 20,1 °C 3,2 km/h (1 Bft)
02.06.2017 11:12 20,1 °C 20,1 °C 74 % 1016,6 hPa 0,0 mm 4,7 km/h (1 Bft) W-NW 284 ° 1 min 0,000 mm 4,8 UV-I 570 W/m² 15,3 °C 20,1 °C 6,4 km/h (2 Bft)
02.06.2017 11:13 20,2 °C 20,2 °C 73 % 1016,6 hPa 0,0 mm 4,8 km/h (1 Bft) NW 318 ° 1 min 0,000 mm 5,3 UV-I 601 W/m² 15,2 °C 20,2 °C 9,7 km/h (2 Bft)
02.06.2017 11:14 20,2 °C 20,2 °C 74 % 1016,5 hPa 0,0 mm 5,2 km/h (1 Bft) N-NW 328 ° 1 min 0,000 mm 4,9 UV-I 568 W/m² 15,4 °C 20,2 °C 8,0 km/h (2 Bft)
02.06.2017 11:15 20,1 °C 20,2 °C 71 % 1016,6 hPa 0,0 mm 2,3 km/h (1 Bft) NW 316 ° 1 min 0,000 mm 4,9 UV-I 571 W/m² 14,7 °C 20,1 °C 4,8 km/h (1 Bft)
02.06.2017 11:16 20,1 °C 20,1 °C 74 % 1016,6 hPa 0,0 mm 0,9 km/h (0 Bft) W-NW 301 ° 1 min 0,000 mm 4,8 UV-I 550 W/m² 15,3 °C 20,1 °C 4,8 km/h (1 Bft)
02.06.2017 11:17 20,1 °C 20,1 °C 72 % 1016,5 hPa 0,0 mm 3,0 km/h (1 Bft) N-NW 330 ° 1 min 0,000 mm 5,6 UV-I 550 W/m² 14,9 °C 20,1 °C 6,4 km/h (2 Bft)
02.06.2017 11:18 20,3 °C 20,3 °C 76 % 1016,6 hPa 0,0 mm 4,5 km/h (1 Bft) NW 323 ° 1 min 0,000 mm 6,5 UV-I 550 W/m² 15,9 °C 20,3 °C 6,4 km/h (2 Bft)
02.06.2017 11:19 20,5 °C 20,5 °C 75 % 1016,6 hPa 0,0 mm 3,5 km/h (1 Bft) W 273 ° 1 min 0,000 mm 5,0 UV-I 550 W/m² 15,9 °C 20,5 °C 6,4 km/h (2 Bft)
02.06.2017 11:20 20,4 °C 20,5 °C 68 % 1016,5 hPa 0,0 mm 4,8 km/h (1 Bft) NW 313 ° 1 min 0,000 mm 4,8 UV-I 550 W/m² 14,3 °C 20,4 °C 6,4 km/h (2 Bft)
02.06.2017 11:21 20,3 °C 20,4 °C 71 % 1016,6 hPa 0,0 mm 3,8 km/h (1 Bft) W-NW 298 ° 1 min 0,000 mm 5,0 UV-I 554 W/m² 14,9 °C 20,3 °C 4,8 km/h (1 Bft)
02.06.2017 11:22 20,2 °C 20,3 °C 71 % 1016,6 hPa 0,0 mm 2,5 km/h (1 Bft) NW 311 ° 1 min 0,000 mm 5,6 UV-I 554 W/m² 14,8 °C 20,2 °C 4,8 km/h (1 Bft)
02.06.2017 11:23 20,1 °C 20,2 °C 70 % 1016,6 hPa 0,0 mm 1,5 km/h (1 Bft) NW 311 ° 1 min 0,000 mm 5,6 UV-I 554 W/m² 14,5 °C 20,1 °C 3,2 km/h (1 Bft)
02.06.2017 11:24 20,1 °C 20,1 °C 72 % 1016,6 hPa 0,0 mm 1,0 km/h (0 Bft) NW 311 ° 1 min 0,000 mm 4,9 UV-I 550 W/m² 14,9 °C 20,1 °C 3,2 km/h (1 Bft)
02.06.2017 11:25 20,1 °C 20,1 °C 73 % 1016,6 hPa 0,0 mm 2,5 km/h (1 Bft) N-NO 28 ° 1 min 0,000 mm 5,9 UV-I 705 W/m² 15,1 °C 20,1 °C 3,2 km/h (1 Bft)
02.06.2017 11:26 20,2 °C 20,2 °C 75 % 1016,5 hPa 0,0 mm 2,3 km/h (1 Bft) NW 317 ° 1 min 0,000 mm 5,4 UV-I 705 W/m² 15,6 °C 20,2 °C 4,8 km/h (1 Bft)
02.06.2017 11:27 20,3 °C 20,3 °C 72 % 1016,5 hPa 0,0 mm 4,7 km/h (1 Bft) W 281 ° 1 min 0,000 mm 4,8 UV-I 513 W/m² 15,1 °C 20,3 °C 9,7 km/h (2 Bft)
02.06.2017 11:28 20,2 °C 20,3 °C 70 % 1016,5 hPa 0,0 mm 3,8 km/h (1 Bft) NW 313 ° 1 min 0,000 mm 5,2 UV-I 559 W/m² 14,5 °C 20,2 °C 4,8 km/h (1 Bft)
02.06.2017 11:29 20,2 °C 20,2 °C 70 % 1016,5 hPa 0,0 mm 3,6 km/h (1 Bft) NW 317 ° 1 min 0,000 mm 6,3 UV-I 559 W/m² 14,5 °C 20,2 °C 4,8 km/h (1 Bft)
02.06.2017 11:30 20,3 °C 20,3 °C 74 % 1016,5 hPa 0,0 mm 1,5 km/h (1 Bft) NW 317 ° 1 min 0,000 mm 5,7 UV-I 891 W/m² 15,5 °C 20,3 °C 3,2 km/h (1 Bft)
02.06.2017 11:31 20,4 °C 20,4 °C 71 % 1016,5 hPa 0,0 mm 2,7 km/h (1 Bft) N-NW 339 ° 1 min 0,000 mm 4,7 UV-I 439 W/m² 15,0 °C 20,4 °C 4,8 km/h (1 Bft)
02.06.2017 11:32 20,4 °C 20,4 °C 70 % 1016,5 hPa 0,0 mm 4,0 km/h (1 Bft) N-NW 332 ° 1 min 0,000 mm 4,5 UV-I 434 W/m² 14,7 °C 20,4 °C 6,4 km/h (2 Bft)
02.06.2017 11:33 20,4 °C 20,4 °C 69 % 1016,5 hPa 0,0 mm 2,5 km/h (1 Bft) N-NW 331 ° 1 min 0,000 mm 4,6 UV-I 454 W/m² 14,5 °C 20,4 °C 4,8 km/h (1 Bft)
02.06.2017 11:34 20,2 °C 20,4 °C 69 % 1016,5 hPa 0,0 mm 1,5 km/h (1 Bft) N-NW 331 ° 1 min 0,000 mm 4,9 UV-I 503 W/m² 14,3 °C 20,2 °C 3,2 km/h (1 Bft)
02.06.2017 11:35 20,1 °C 20,2 °C 69 % 1016,5 hPa 0,0 mm 0,0 km/h (0 Bft) N-NW 331 ° 1 min 0,000 mm 5,6 UV-I 503 W/m² 14,2 °C 20,1 °C 0,0 km/h (0 Bft)
02.06.2017 11:36 20,0 °C 20,1 °C 68 % 1016,5 hPa 0,0 mm 0,0 km/h (0 Bft) N-NW 331 ° 1 min 0,000 mm 5,8 UV-I 503 W/m² 13,9 °C 20,0 °C 0,0 km/h (0 Bft)
02.06.2017 11:37 20,0 °C 20,0 °C 71 % 1016,5 hPa 0,0 mm 0,0 km/h (0 Bft) N-NW 331 ° 1 min 0,000 mm 5,8 UV-I 661 W/m² 14,6 °C 20,0 °C 0,0 km/h (0 Bft)
02.06.2017 11:38 20,1 °C 20,1 °C 73 % 1016,4 hPa 0,0 mm 1,4 km/h (1 Bft) N-NW 329 ° 1 min 0,000 mm 5,8 UV-I 643 W/m² 15,1 °C 20,1 °C 3,2 km/h (1 Bft)
02.06.2017 11:39 20,1 °C 20,1 °C 71 % 1016,4 hPa 0,0 mm 1,5 km/h (1 Bft) O 90 ° 1 min 0,000 mm 6,4 UV-I 643 W/m² 14,7 °C 20,1 °C 3,2 km/h (1 Bft)
02.06.2017 11:40 20,1 °C 20,1 °C 73 % 1016,4 hPa 0,0 mm 4,4 km/h (1 Bft) O-SO 108 ° 1 min 0,000 mm 6,7 UV-I 879 W/m² 15,1 °C 20,1 °C 6,4 km/h (2 Bft)
02.06.2017 11:41 20,1 °C 20,1 °C 69 % 1016,4 hPa 0,0 mm 1,9 km/h (1 Bft) O-SO 108 ° 1 min 0,000 mm 6,3 UV-I 846 W/m² 14,2 °C 20,1 °C 3,2 km/h (1 Bft)
02.06.2017 11:42 20,1 °C 20,1 °C 70 % 1016,4 hPa 0,0 mm 0,4 km/h (0 Bft) O-SO 121 ° 1 min 0,000 mm 6,8 UV-I 900 W/m² 14,5 °C 20,1 °C 1,6 km/h (1 Bft)
02.06.2017 11:43 20,1 °C 20,1 °C 70 % 1016,4 hPa 0,0 mm 1,1 km/h (1 Bft) O-SO 121 ° 1 min 0,000 mm 6,7 UV-I 900 W/m² 14,5 °C 20,1 °C 3,2 km/h (1 Bft)
02.06.2017 11:44 20,1 °C 20,1 °C 69 % 1016,4 hPa 0,0 mm 0,0 km/h (0 Bft) O-SO 121 ° 1 min 0,000 mm 5,5 UV-I 587 W/m² 14,2 °C 20,1 °C 0,0 km/h (0 Bft)
02.06.2017 11:45 20,2 °C 20,2 °C 73 % 1016,5 hPa 0,0 mm 3,3 km/h (1 Bft) O-NO 63 ° 1 min 0,000 mm 7,1 UV-I 587 W/m² 15,2 °C 20,2 °C 4,8 km/h (1 Bft)
02.06.2017 11:46 20,4 °C 20,4 °C 74 % 1016,5 hPa 0,0 mm 3,4 km/h (1 Bft) NO 52 ° 1 min 0,000 mm 6,6 UV-I 842 W/m² 15,6 °C 20,4 °C 4,8 km/h (1 Bft)
02.06.2017 11:47 20,5 °C 20,5 °C 73 % 1016,5 hPa 0,0 mm 2,9 km/h (1 Bft) N-NO 27 ° 1 min 0,000 mm 5,8 UV-I 752 W/m² 15,5 °C 20,5 °C 3,2 km/h (1 Bft)
02.06.2017 11:48 20,7 °C 20,7 °C 72 % 1016,4 hPa 0,0 mm 3,0 km/h (1 Bft) N-NW 342 ° 1 min 0,000 mm 6,0 UV-I 659 W/m² 15,5 °C 20,7 °C 4,8 km/h (1 Bft)
02.06.2017 11:49 20,8 °C 20,8 °C 69 % 1016,4 hPa 0,0 mm 1,4 km/h (1 Bft) N-NW 342 ° 1 min 0,000 mm 6,0 UV-I 659 W/m² 14,9 °C 20,8 °C 3,2 km/h (1 Bft)
02.06.2017 11:50 20,8 °C 20,8 °C 70 % 1016,4 hPa 0,0 mm 4,0 km/h (1 Bft) N-NW 336 ° 1 min 0,000 mm 6,5 UV-I 659 W/m² 15,1 °C 20,8 °C 6,4 km/h (2 Bft)
02.06.2017 11:51 20,9 °C 20,9 °C 70 % 1016,4 hPa 0,0 mm 2,1 km/h (1 Bft) N-NW 330 ° 1 min 0,000 mm 6,1 UV-I 853 W/m² 15,2 °C 20,9 °C 4,8 km/h (1 Bft)
02.06.2017 11:52 21,0 °C 21,0 °C 72 % 1016,4 hPa 0,0 mm 2,0 km/h (1 Bft) NW 309 ° 1 min 0,000 mm 7,1 UV-I 853 W/m² 15,8 °C 21,0 °C 4,8 km/h (1 Bft)
02.06.2017 11:53 21,1 °C 21,1 °C 68 % 1016,4 hPa 0,0 mm 1,5 km/h (1 Bft) NW 309 ° 1 min 0,000 mm 5,7 UV-I 853 W/m² 15,0 °C 21,1 °C 3,2 km/h (1 Bft)
02.06.2017 11:54 21,0 °C 21,1 °C 67 % 1016,4 hPa 0,0 mm 1,9 km/h (1 Bft) NW 309 ° 1 min 0,000 mm 5,8 UV-I 652 W/m² 14,6 °C 21,0 °C 3,2 km/h (1 Bft)
02.06.2017 11:55 20,8 °C 21,0 °C 70 % 1016,4 hPa 0,0 mm 1,0 km/h (0 Bft) N-NW 333 ° 1 min 0,000 mm 6,3 UV-I 714 W/m² 15,1 °C 20,8 °C 3,2 km/h (1 Bft)
02.06.2017 11:56 21,0 °C 21,0 °C 75 % 1016,4 hPa 0,0 mm 4,4 km/h (1 Bft) NO 51 ° 1 min 0,000 mm 6,3 UV-I 768 W/m² 16,4 °C 21,0 °C 6,4 km/h (2 Bft)
02.06.2017 11:57 20,9 °C 21,0 °C 67 % 1016,3 hPa 0,0 mm 4,0 km/h (1 Bft) NO 56 ° 1 min 0,000 mm 5,9 UV-I 731 W/m² 14,5 °C 20,9 °C 4,8 km/h (1 Bft)
02.06.2017 11:58 20,8 °C 20,9 °C 69 % 1016,3 hPa 0,0 mm 4,5 km/h (1 Bft) NO 42 ° 1 min 0,000 mm 5,6 UV-I 650 W/m² 14,9 °C 20,8 °C 8,0 km/h (2 Bft)
02.06.2017 11:59 20,8 °C 20,8 °C 69 % 1016,3 hPa 0,0 mm 0,7 km/h (0 Bft) O-NO 59 ° 1 min 0,000 mm 5,5 UV-I 621 W/m² 14,9 °C 20,8 °C 1,6 km/h (1 Bft)
02.06.2017 12:00 20,7 °C 20,8 °C 67 % 1016,3 hPa 0,0 mm 3,8 km/h (1 Bft) O-NO 75 ° 1 min 0,406 mm 5,6 UV-I 696 W/m² 14,3 °C 20,7 °C 4,8 km/h (1 Bft)
02.06.2017 12:01 20,6 °C 20,7 °C 70 % 1016,3 hPa 0,0 mm 3,7 km/h (1 Bft) O-SO 105 ° 1 min 0,000 mm 5,9 UV-I 708 W/m² 14,9 °C 20,6 °C 4,8 km/h (1 Bft)
02.06.2017 12:02 20,5 °C 20,6 °C 69 % 1016,3 hPa 0,0 mm 2,5 km/h (1 Bft) SO 130 ° 1 min 0,000 mm 5,7 UV-I 671 W/m² 14,6 °C 20,5 °C 3,2 km/h (1 Bft)
02.06.2017 12:03 20,4 °C 20,5 °C 69 % 1016,3 hPa 0,0 mm 4,9 km/h (1 Bft) S 180 ° 1 min 0,000 mm 5,6 UV-I 622 W/m² 14,5 °C 20,4 °C 8,0 km/h (2 Bft)
02.06.2017 12:04 20,4 °C 20,4 °C 68 % 1016,2 hPa 0,0 mm 1,8 km/h (1 Bft) O-SO 113 ° 1 min 0,000 mm 5,4 UV-I 594 W/m² 14,3 °C 20,4 °C 4,8 km/h (1 Bft)
02.06.2017 12:05 20,5 °C 20,5 °C 73 % 1016,2 hPa 0,0 mm 4,0 km/h (1 Bft) NO 51 ° 1 min 0,000 mm 5,6 UV-I 622 W/m² 15,5 °C 20,5 °C 6,4 km/h (2 Bft)
02.06.2017 12:06 20,6 °C 20,6 °C 68 % 1016,2 hPa 0,0 mm 3,3 km/h (1 Bft) NO 45 ° 1 min 0,000 mm 6,1 UV-I 814 W/m² 14,5 °C 20,6 °C 4,8 km/h (1 Bft)
02.06.2017 12:07 20,7 °C 20,7 °C 68 % 1016,2 hPa 0,0 mm 3,4 km/h (1 Bft) NO 51 ° 1 min 0,000 mm 6,4 UV-I 893 W/m² 14,6 °C 20,7 °C 4,8 km/h (1 Bft)
02.06.2017 12:08 20,7 °C 20,7 °C 68 % 1016,1 hPa 0,0 mm 0,5 km/h (0 Bft) NO 51 ° 1 min 0,000 mm 7,2 UV-I 988 W/m² 14,6 °C 20,7 °C 3,2 km/h (1 Bft)
02.06.2017 12:09 20,9 °C 20,9 °C 71 % 1016,1 hPa 0,0 mm 5,6 km/h (1 Bft) N-NO 19 ° 1 min 0,000 mm 7,6 UV-I 988 W/m² 15,4 °C 20,9 °C 6,4 km/h (2 Bft)
02.06.2017 12:10 21,2 °C 21,2 °C 69 % 1016,1 hPa 0,0 mm 6,4 km/h (2 Bft) NO 48 ° 1 min 0,000 mm 7,5 UV-I 1083 W/m² 15,3 °C 21,2 °C 9,7 km/h (2 Bft)
02.06.2017 12:11 21,3 °C 21,3 °C 66 % 1016,2 hPa 0,0 mm 3,1 km/h (1 Bft) NO 48 ° 1 min 0,000 mm 7,3 UV-I 1044 W/m² 14,7 °C 21,3 °C 6,4 km/h (2 Bft)
02.06.2017 12:12 21,3 °C 21,3 °C 68 % 1016,1 hPa 0,0 mm 4,5 km/h (1 Bft) O-NO 65 ° 1 min 0,000 mm 6,8 UV-I 1044 W/m² 15,1 °C 21,3 °C 8,0 km/h (2 Bft)
02.06.2017 12:13 21,2 °C 21,3 °C 67 % 1016,1 hPa 0,0 mm 4,8 km/h (1 Bft) O 86 ° 1 min 0,000 mm 6,7 UV-I 879 W/m² 14,8 °C 21,2 °C 11,3 km/h (2 Bft)
02.06.2017 12:14 21,2 °C 21,2 °C 71 % 1016,0 hPa 0,0 mm 5,2 km/h (1 Bft) O 90 ° 1 min 0,000 mm 6,5 UV-I 858 W/m² 15,7 °C 21,2 °C 11,3 km/h (2 Bft)
02.06.2017 12:15 21,1 °C 21,2 °C 67 % 1016,1 hPa 0,0 mm 3,4 km/h (1 Bft) O 84 ° 1 min 0,000 mm 6,6 UV-I 870 W/m² 14,7 °C 21,1 °C 4,8 km/h (1 Bft)
02.06.2017 12:16 21,1 °C 21,1 °C 69 % 1016,0 hPa 0,0 mm 3,9 km/h (1 Bft) SO 126 ° 1 min 0,000 mm 6,9 UV-I 928 W/m² 15,2 °C 21,1 °C 4,8 km/h (1 Bft)
02.06.2017 12:17 21,1 °C 21,1 °C 66 % 1016,0 hPa 0,0 mm 3,5 km/h (1 Bft) S 180 ° 1 min 0,000 mm 6,8 UV-I 981 W/m² 14,5 °C 21,1 °C 4,8 km/h (1 Bft)
02.06.2017 12:18 21,1 °C 21,1 °C 67 % 1016,0 hPa 0,0 mm 0,3 km/h (0 Bft) S 180 ° 1 min 0,000 mm 6,0 UV-I 835 W/m² 14,7 °C 21,1 °C 1,6 km/h (1 Bft)
02.06.2017 12:19 21,2 °C 21,2 °C 71 % 1016,0 hPa 0,0 mm 0,0 km/h (0 Bft) S 180 ° 1 min 0,000 mm 5,4 UV-I 835 W/m² 15,7 °C 21,2 °C 0,0 km/h (0 Bft)
02.06.2017 12:20 21,2 °C 21,2 °C 67 % 1016,0 hPa 0,0 mm 4,0 km/h (1 Bft) O-SO 117 ° 1 min 0,000 mm 5,2 UV-I 613 W/m² 14,8 °C 21,2 °C 6,4 km/h (2 Bft)
02.06.2017 12:21 21,2 °C 21,3 °C 66 % 1016,0 hPa 0,0 mm 4,7 km/h (1 Bft) NO 38 ° 1 min 0,000 mm 4,7 UV-I 536 W/m² 14,6 °C 21,2 °C 8,0 km/h (2 Bft)
02.06.2017 12:22 21,2 °C 21,2 °C 68 % 1016,0 hPa 0,0 mm 6,1 km/h (2 Bft) O-NO 57 ° 1 min 0,000 mm 4,2 UV-I 462 W/m² 15,1 °C 21,2 °C 6,4 km/h (2 Bft)
02.06.2017 12:23 21,2 °C 21,2 °C 66 % 1015,9 hPa 0,0 mm 6,8 km/h (2 Bft) NO 51 ° 1 min 0,000 mm 4,1 UV-I 432 W/m² 14,6 °C 21,2 °C 9,7 km/h (2 Bft)
02.06.2017 12:24 21,1 °C 21,2 °C 66 % 1015,9 hPa 0,0 mm 5,2 km/h (1 Bft) O 95 ° 1 min 0,000 mm 4,0 UV-I 404 W/m² 14,5 °C 21,1 °C 6,4 km/h (2 Bft)
02.06.2017 12:25 20,8 °C 21,1 °C 66 % 1015,9 hPa 0,0 mm 3,4 km/h (1 Bft) O 95 ° 1 min 0,000 mm 4,4 UV-I 452 W/m² 14,2 °C 20,8 °C 6,4 km/h (2 Bft)
02.06.2017 12:26 20,8 °C 20,8 °C 66 % 1015,9 hPa 0,0 mm 2,3 km/h (1 Bft) O 95 ° 1 min 0,000 mm 4,1 UV-I 446 W/m² 14,2 °C 20,8 °C 3,2 km/h (1 Bft)
02.06.2017 12:27 20,7 °C 20,8 °C 69 % 1015,9 hPa 0,0 mm 0,8 km/h (0 Bft) O 95 ° 1 min 0,000 mm 4,4 UV-I 446 W/m² 14,8 °C 20,7 °C 3,2 km/h (1 Bft)
02.06.2017 12:28 20,7 °C 20,7 °C 70 % 1015,8 hPa 0,0 mm 0,2 km/h (0 Bft) O 95 ° 1 min 0,000 mm 4,4 UV-I 554 W/m² 15,0 °C 20,7 °C 1,6 km/h (1 Bft)
02.06.2017 12:29 20,7 °C 20,8 °C 67 % 1015,9 hPa 0,0 mm 0,2 km/h (0 Bft) O 95 ° 1 min 0,000 mm 3,7 UV-I 554 W/m² 14,3 °C 20,7 °C 1,6 km/h (1 Bft)
02.06.2017 12:30 20,8 °C 20,8 °C 69 % 1015,9 hPa 0,0 mm 1,1 km/h (1 Bft) SO 128 ° 1 min 0,000 mm 3,5 UV-I 338 W/m² 14,9 °C 20,8 °C 3,2 km/h (1 Bft)
02.06.2017 12:31 20,8 °C 20,8 °C 68 % 1015,8 hPa 0,0 mm 3,0 km/h (1 Bft) S-SO 157 ° 1 min 0,000 mm 3,3 UV-I 327 W/m² 14,7 °C 20,8 °C 4,8 km/h (1 Bft)
02.06.2017 12:32 20,7 °C 20,8 °C 67 % 1015,9 hPa 0,0 mm 1,9 km/h (1 Bft) S-SO 157 ° 1 min 0,000 mm 3,3 UV-I 323 W/m² 14,3 °C 20,7 °C 3,2 km/h (1 Bft)
02.06.2017 12:33 20,7 °C 20,7 °C 70 % 1015,8 hPa 0,0 mm 1,3 km/h (1 Bft) S-SW 192 ° 1 min 0,000 mm 3,2 UV-I 309 W/m² 15,0 °C 20,7 °C 3,2 km/h (1 Bft)
02.06.2017 12:34 20,6 °C 20,7 °C 70 % 1015,8 hPa 0,0 mm 3,0 km/h (1 Bft) SW 217 ° 1 min 0,000 mm 3,2 UV-I 306 W/m² 14,9 °C 20,6 °C 4,8 km/h (1 Bft)
02.06.2017 12:35 20,6 °C 20,6 °C 70 % 1015,9 hPa 0,0 mm 1,6 km/h (1 Bft) SW 216 ° 1 min 0,000 mm 3,2 UV-I 306 W/m² 14,9 °C 20,6 °C 3,2 km/h (1 Bft)
02.06.2017 12:36 20,6 °C 20,6 °C 69 % 1015,8 hPa 0,0 mm 0,1 km/h (0 Bft) SW 216 ° 1 min 0,000 mm 3,3 UV-I 330 W/m² 14,7 °C 20,6 °C 1,6 km/h (1 Bft)
02.06.2017 12:37 20,5 °C 20,6 °C 68 % 1015,7 hPa 0,0 mm 0,0 km/h (0 Bft) SW 216 ° 1 min 0,000 mm 3,7 UV-I 355 W/m² 14,4 °C 20,5 °C 0,0 km/h (0 Bft)
02.06.2017 12:38 20,5 °C 20,6 °C 68 % 1015,7 hPa 0,0 mm 1,5 km/h (1 Bft) SW 216 ° 1 min 0,000 mm 4,0 UV-I 399 W/m² 14,4 °C 20,5 °C 3,2 km/h (1 Bft)
02.06.2017 12:39 20,4 °C 20,5 °C 68 % 1015,7 hPa 0,0 mm 1,7 km/h (1 Bft) SW 215 ° 1 min 0,000 mm 4,7 UV-I 399 W/m² 14,3 °C 20,4 °C 3,2 km/h (1 Bft)
02.06.2017 12:40 20,4 °C 20,4 °C 70 % 1015,7 hPa 0,0 mm 2,2 km/h (1 Bft) SO 138 ° 1 min 0,000 mm 4,9 UV-I 550 W/m² 14,7 °C 20,4 °C 4,8 km/h (1 Bft)
02.06.2017 12:41 20,6 °C 20,6 °C 70 % 1015,7 hPa 0,0 mm 2,4 km/h (1 Bft) O-NO 78 ° 1 min 0,000 mm 5,4 UV-I 628 W/m² 14,9 °C 20,6 °C 3,2 km/h (1 Bft)
02.06.2017 12:42 20,9 °C 20,9 °C 70 % 1015,7 hPa 0,0 mm 2,3 km/h (1 Bft) O-NO 77 ° 1 min 0,000 mm 5,4 UV-I 715 W/m² 15,2 °C 20,9 °C 4,8 km/h (1 Bft)
02.06.2017 12:43 21,2 °C 21,2 °C 68 % 1015,7 hPa 0,0 mm 3,6 km/h (1 Bft) N 11 ° 1 min 0,000 mm 5,1 UV-I 673 W/m² 15,1 °C 21,2 °C 4,8 km/h (1 Bft)
02.06.2017 12:44 21,3 °C 21,3 °C 68 % 1015,7 hPa 0,0 mm 3,0 km/h (1 Bft) N-NW 346 ° 1 min 0,000 mm 4,8 UV-I 673 W/m² 15,1 °C 21,3 °C 4,8 km/h (1 Bft)
02.06.2017 12:45 21,5 °C 21,5 °C 68 % 1015,7 hPa 0,0 mm 1,6 km/h (1 Bft) N-NW 339 ° 1 min 0,000 mm 4,9 UV-I 608 W/m² 15,3 °C 21,5 °C 3,2 km/h (1 Bft)
02.06.2017 12:46 21,6 °C 21,6 °C 70 % 1015,6 hPa 0,0 mm 2,9 km/h (1 Bft) N 360 ° 1 min 0,000 mm 4,1 UV-I 608 W/m² 15,9 °C 21,6 °C 4,8 km/h (1 Bft)
02.06.2017 12:47 21,6 °C 21,7 °C 67 % 1015,7 hPa 0,0 mm 3,5 km/h (1 Bft) NO 55 ° 1 min 0,000 mm 4,1 UV-I 411 W/m² 15,2 °C 21,6 °C 6,4 km/h (2 Bft)
02.06.2017 12:48 21,6 °C 21,6 °C 64 % 1015,6 hPa 0,0 mm 5,5 km/h (1 Bft) NO 46 ° 1 min 0,000 mm 3,9 UV-I 394 W/m² 14,5 °C 21,6 °C 8,0 km/h (2 Bft)
02.06.2017 12:49 21,3 °C 21,6 °C 65 % 1015,6 hPa 0,0 mm 3,6 km/h (1 Bft) NO 51 ° 1 min 0,000 mm 3,6 UV-I 366 W/m² 14,4 °C 21,3 °C 4,8 km/h (1 Bft)
02.06.2017 12:50 21,2 °C 21,3 °C 66 % 1015,6 hPa 0,0 mm 1,1 km/h (1 Bft) NO 51 ° 1 min 0,000 mm 3,4 UV-I 343 W/m² 14,6 °C 21,2 °C 3,2 km/h (1 Bft)
02.06.2017 12:51 21,0 °C 21,2 °C 64 % 1015,7 hPa 0,0 mm 0,1 km/h (0 Bft) NO 51 ° 1 min 0,000 mm 3,3 UV-I 327 W/m² 13,9 °C 21,0 °C 1,6 km/h (1 Bft)
02.06.2017 12:52 20,8 °C 21,0 °C 65 % 1015,6 hPa 0,0 mm 0,0 km/h (0 Bft) NO 51 ° 1 min 0,000 mm 3,2 UV-I 313 W/m² 14,0 °C 20,8 °C 0,0 km/h (0 Bft)
02.06.2017 12:53 20,7 °C 20,8 °C 66 % 1015,6 hPa 0,0 mm 0,5 km/h (0 Bft) NO 51 ° 1 min 0,000 mm 3,2 UV-I 295 W/m² 14,1 °C 20,7 °C 1,6 km/h (1 Bft)
02.06.2017 12:54 20,7 °C 20,8 °C 66 % 1015,6 hPa 0,0 mm 0,6 km/h (0 Bft) NO 51 ° 0 min 0,000 mm 3,1 UV-I 288 W/m² 14,1 °C 20,7 °C 3,2 km/h (1 Bft)
02.06.2017 12:55 20,8 °C 20,8 °C 66 % 1015,6 hPa 0,0 mm 3,0 km/h (1 Bft) NO 53 ° 0 min 0,000 mm 3,0 UV-I 285 W/m² 14,2 °C 20,8 °C 4,8 km/h (1 Bft)
02.06.2017 12:56 20,8 °C 20,8 °C 67 % 1015,6 hPa 0,0 mm 1,7 km/h (1 Bft) NO 53 ° 0 min 0,000 mm 3,0 UV-I 279 W/m² 14,4 °C 20,8 °C 3,2 km/h (1 Bft)
02.06.2017 12:57 20,8 °C 20,8 °C 68 % 1015,6 hPa 0,0 mm 1,1 km/h (1 Bft) N-NW 327 ° 0 min 0,000 mm 3,0 UV-I 274 W/m² 14,7 °C 20,8 °C 4,8 km/h (1 Bft)
02.06.2017 12:58 20,8 °C 20,8 °C 68 % 1015,6 hPa 0,0 mm 4,1 km/h (1 Bft) NW 323 ° 0 min 0,000 mm 3,0 UV-I 272 W/m² 14,7 °C 20,8 °C 6,4 km/h (2 Bft)
02.06.2017 12:59 20,8 °C 20,8 °C 69 % 1015,6 hPa 0,0 mm 3,4 km/h (1 Bft) W-NW 300 ° 0 min 0,000 mm 3,0 UV-I 279 W/m² 14,9 °C 20,8 °C 6,4 km/h (2 Bft)
02.06.2017 13:00 20,8 °C 20,8 °C 70 % 1015,6 hPa 0,0 mm 1,7 km/h (1 Bft) N 355 ° 0 min 0,000 mm 3,1 UV-I 283 W/m² 15,1 °C 20,8 °C 4,8 km/h (1 Bft)
02.06.2017 13:01 20,8 °C 20,8 °C 69 % 1015,6 hPa 0,0 mm 2,4 km/h (1 Bft) N-NW 346 ° 0 min 0,330 mm 3,1 UV-I 281 W/m² 14,9 °C 20,8 °C 6,4 km/h (2 Bft)
02.06.2017 13:02 20,8 °C 20,8 °C 69 % 1015,5 hPa 0,0 mm 2,7 km/h (1 Bft) NW 317 ° 0 min 0,000 mm 3,2 UV-I 283 W/m² 14,9 °C 20,8 °C 6,4 km/h (2 Bft)
02.06.2017 13:03 20,8 °C 20,9 °C 68 % 1015,5 hPa 0,0 mm 5,4 km/h (1 Bft) NW 317 ° 0 min 0,000 mm 3,2 UV-I 285 W/m² 14,7 °C 20,8 °C 6,4 km/h (2 Bft)
02.06.2017 13:04 20,9 °C 20,9 °C 70 % 1015,5 hPa 0,0 mm 3,9 km/h (1 Bft) NW 317 ° 0 min 0,000 mm 3,3 UV-I 287 W/m² 15,2 °C 20,9 °C 4,8 km/h (1 Bft)
02.06.2017 13:05 20,8 °C 20,9 °C 67 % 1015,5 hPa 0,0 mm 2,3 km/h (1 Bft) NW 317 ° 0 min 0,000 mm 3,3 UV-I 287 W/m² 14,4 °C 20,8 °C 3,2 km/h (1 Bft)
02.06.2017 13:06 20,8 °C 20,8 °C 65 % 1015,4 hPa 0,0 mm 2,3 km/h (1 Bft) NW 313 ° 0 min 0,000 mm 3,4 UV-I 288 W/m² 14,0 °C 20,8 °C 4,8 km/h (1 Bft)
02.06.2017 13:07 20,7 °C 20,8 °C 65 % 1015,3 hPa 0,0 mm 1,8 km/h (1 Bft) NW 313 ° 0 min 0,000 mm 3,4 UV-I 283 W/m² 13,9 °C 20,7 °C 3,2 km/h (1 Bft)
02.06.2017 13:08 20,7 °C 20,7 °C 67 % 1015,3 hPa 0,0 mm 1,1 km/h (1 Bft) NW 313 ° 0 min 0,000 mm 3,3 UV-I 271 W/m² 14,3 °C 20,7 °C 3,2 km/h (1 Bft)
02.06.2017 13:09 20,7 °C 20,7 °C 70 % 1015,4 hPa 0,0 mm 0,1 km/h (0 Bft) NW 313 ° 0 min 0,000 mm 3,3 UV-I 257 W/m² 15,0 °C 20,7 °C 1,6 km/h (1 Bft)
02.06.2017 13:10 20,7 °C 20,7 °C 73 % 1015,3 hPa 0,0 mm 0,2 km/h (0 Bft) NW 313 ° 0 min 0,000 mm 3,2 UV-I 243 W/m² 15,7 °C 20,7 °C 1,6 km/h (1 Bft)
02.06.2017 13:11 20,7 °C 20,8 °C 71 % 1015,3 hPa 0,0 mm 0,4 km/h (0 Bft) NW 313 ° 0 min 0,000 mm 3,1 UV-I 229 W/m² 15,2 °C 20,7 °C 1,6 km/h (1 Bft)
02.06.2017 13:12 20,8 °C 20,8 °C 71 % 1015,4 hPa 0,0 mm 1,0 km/h (0 Bft) NW 326 ° 0 min 0,000 mm 3,1 UV-I 227 W/m² 15,3 °C 20,8 °C 3,2 km/h (1 Bft)
02.06.2017 13:13 20,8 °C 20,8 °C 71 % 1015,4 hPa 0,0 mm 2,1 km/h (1 Bft) N-NW 330 ° 0 min 0,000 mm 3,1 UV-I 230 W/m² 15,3 °C 20,8 °C 4,8 km/h (1 Bft)
02.06.2017 13:14 20,8 °C 20,8 °C 71 % 1015,4 hPa 0,0 mm 2,6 km/h (1 Bft) N-NW 330 ° 0 min 0,000 mm 3,1 UV-I 236 W/m² 15,3 °C 20,8 °C 3,2 km/h (1 Bft)
02.06.2017 13:15 20,8 °C 20,8 °C 71 % 1015,4 hPa 0,0 mm 1,9 km/h (1 Bft) N-NW 330 ° 0 min 0,000 mm 3,1 UV-I 243 W/m² 15,3 °C 20,8 °C 3,2 km/h (1 Bft)
02.06.2017 13:16 20,8 °C 20,8 °C 69 % 1015,4 hPa 0,0 mm 1,2 km/h (1 Bft) N-NW 330 ° 0 min 0,000 mm 3,2 UV-I 250 W/m² 14,9 °C 20,8 °C 3,2 km/h (1 Bft)
02.06.2017 13:17 20,8 °C 20,9 °C 66 % 1015,5 hPa 0,0 mm 1,8 km/h (1 Bft) N-NW 330 ° 0 min 0,000 mm 3,3 UV-I 269 W/m² 14,2 °C 20,8 °C 3,2 km/h (1 Bft)
02.06.2017 13:18 20,8 °C 20,8 °C 65 % 1015,4 hPa 0,0 mm 2,1 km/h (1 Bft) N-NW 342 ° 0 min 0,000 mm 3,4 UV-I 278 W/m² 14,0 °C 20,8 °C 4,8 km/h (1 Bft)
02.06.2017 13:19 20,9 °C 20,9 °C 65 % 1015,4 hPa 0,0 mm 2,6 km/h (1 Bft) N 355 ° 0 min 0,000 mm 3,5 UV-I 283 W/m² 14,1 °C 20,9 °C 4,8 km/h (1 Bft)
02.06.2017 13:20 20,9 °C 20,9 °C 65 % 1015,4 hPa 0,0 mm 2,8 km/h (1 Bft) N 355 ° 1 min 0,000 mm 3,5 UV-I 290 W/m² 14,1 °C 20,9 °C 6,4 km/h (2 Bft)
02.06.2017 13:21 20,9 °C 20,9 °C 68 % 1015,4 hPa 0,0 mm 2,1 km/h (1 Bft) N 355 ° 1 min 0,000 mm 3,5 UV-I 299 W/m² 14,8 °C 20,9 °C 3,2 km/h (1 Bft)
02.06.2017 13:22 21,0 °C 21,0 °C 66 % 1015,4 hPa 0,0 mm 3,2 km/h (1 Bft) N 355 ° 1 min 0,000 mm 3,6 UV-I 320 W/m² 14,4 °C 21,0 °C 6,4 km/h (2 Bft)
02.06.2017 13:23 21,0 °C 21,0 °C 66 % 1015,4 hPa 0,0 mm 3,5 km/h (1 Bft) N 355 ° 1 min 0,000 mm 3,7 UV-I 341 W/m² 14,4 °C 21,0 °C 4,8 km/h (1 Bft)
02.06.2017 13:24 21,0 °C 21,0 °C 67 % 1015,4 hPa 0,0 mm 2,1 km/h (1 Bft) N 355 ° 1 min 0,000 mm 3,7 UV-I 338 W/m² 14,6 °C 21,0 °C 4,8 km/h (1 Bft)
02.06.2017 13:25 21,0 °C 21,0 °C 63 % 1015,4 hPa 0,0 mm 0,1 km/h (0 Bft) N 355 ° 1 min 0,000 mm 3,6 UV-I 322 W/m² 13,7 °C 21,0 °C 1,6 km/h (1 Bft)
02.06.2017 13:26 20,9 °C 21,0 °C 61 % 1015,4 hPa 0,0 mm 0,0 km/h (0 Bft) N 355 ° 1 min 0,000 mm 3,7 UV-I 327 W/m² 13,1 °C 20,9 °C 0,0 km/h (0 Bft)
02.06.2017 13:27 20,9 °C 20,9 °C 62 % 1015,3 hPa 0,0 mm 0,0 km/h (0 Bft) N 355 ° 1 min 0,000 mm 3,8 UV-I 346 W/m² 13,3 °C 20,9 °C 0,0 km/h (0 Bft)
02.06.2017 13:28 20,8 °C 20,9 °C 65 % 1015,3 hPa 0,0 mm 0,0 km/h (0 Bft) N 355 ° 1 min 0,000 mm 4,3 UV-I 346 W/m² 14,0 °C 20,8 °C 0,0 km/h (0 Bft)
02.06.2017 13:29 20,9 °C 20,9 °C 66 % 1015,3 hPa 0,0 mm 0,1 km/h (0 Bft) N 355 ° 1 min 0,000 mm 5,3 UV-I 346 W/m² 14,3 °C 20,9 °C 1,6 km/h (1 Bft)
02.06.2017 13:30 20,9 °C 20,9 °C 63 % 1015,3 hPa 0,0 mm 0,7 km/h (0 Bft) N 355 ° 1 min 0,000 mm 7,2 UV-I 346 W/m² 13,6 °C 20,9 °C 1,6 km/h (1 Bft)
02.06.2017 13:31 21,1 °C 21,1 °C 66 % 1015,3 hPa 0,0 mm 2,0 km/h (1 Bft) N 355 ° 1 min 0,000 mm 6,8 UV-I 346 W/m² 14,5 °C 21,1 °C 3,2 km/h (1 Bft)
02.06.2017 13:32 21,2 °C 21,2 °C 60 % 1015,3 hPa 0,0 mm 0,6 km/h (0 Bft) N 355 ° 1 min 0,000 mm 6,7 UV-I 921 W/m² 13,1 °C 21,2 °C 1,6 km/h (1 Bft)
02.06.2017 13:33 21,2 °C 21,2 °C 65 % 1015,2 hPa 0,0 mm 1,3 km/h (1 Bft) N 355 ° 1 min 0,000 mm 6,9 UV-I 991 W/m² 14,4 °C 21,2 °C 1,6 km/h (1 Bft)
02.06.2017 13:34 21,4 °C 21,4 °C 63 % 1015,2 hPa 0,0 mm 3,2 km/h (1 Bft) NO 53 ° 1 min 0,000 mm 6,7 UV-I 965 W/m² 14,1 °C 21,4 °C 4,8 km/h (1 Bft)
02.06.2017 13:35 21,4 °C 21,4 °C 63 % 1015,2 hPa 0,0 mm 3,7 km/h (1 Bft) O 98 ° 1 min 0,000 mm 4,6 UV-I 965 W/m² 14,1 °C 21,4 °C 6,4 km/h (2 Bft)
02.06.2017 13:36 21,5 °C 21,6 °C 63 % 1015,2 hPa 0,0 mm 5,1 km/h (1 Bft) O 92 ° 1 min 0,000 mm 5,3 UV-I 965 W/m² 14,2 °C 21,5 °C 6,4 km/h (2 Bft)
02.06.2017 13:37 21,5 °C 21,6 °C 61 % 1015,2 hPa 0,0 mm 3,0 km/h (1 Bft) SO 134 ° 1 min 0,000 mm 5,8 UV-I 552 W/m² 13,7 °C 21,5 °C 4,8 km/h (1 Bft)
02.06.2017 13:38 21,4 °C 21,5 °C 65 % 1015,2 hPa 0,0 mm 2,1 km/h (1 Bft) NO 49 ° 1 min 0,000 mm 4,9 UV-I 552 W/m² 14,5 °C 21,4 °C 3,2 km/h (1 Bft)
02.06.2017 13:39 21,6 °C 21,6 °C 62 % 1015,2 hPa 0,0 mm 2,3 km/h (1 Bft) NO 49 ° 1 min 0,000 mm 4,5 UV-I 552 W/m² 14,0 °C 21,6 °C 4,8 km/h (1 Bft)
02.06.2017 13:40 21,6 °C 21,6 °C 66 % 1015,2 hPa 0,0 mm 2,5 km/h (1 Bft) O-NO 72 ° 1 min 0,000 mm 4,4 UV-I 446 W/m² 15,0 °C 21,6 °C 4,8 km/h (1 Bft)
02.06.2017 13:41 21,6 °C 21,6 °C 65 % 1015,2 hPa 0,0 mm 3,8 km/h (1 Bft) O 82 ° 1 min 0,000 mm 4,3 UV-I 441 W/m² 14,7 °C 21,6 °C 4,8 km/h (1 Bft)
02.06.2017 13:42 21,6 °C 21,6 °C 64 % 1015,2 hPa 0,0 mm 2,4 km/h (1 Bft) O-NO 72 ° 1 min 0,000 mm 4,2 UV-I 436 W/m² 14,5 °C 21,6 °C 3,2 km/h (1 Bft)
02.06.2017 13:43 21,6 °C 21,6 °C 67 % 1015,2 hPa 0,0 mm 4,5 km/h (1 Bft) N-NO 20 ° 1 min 0,000 mm 4,1 UV-I 432 W/m² 15,2 °C 21,6 °C 6,4 km/h (2 Bft)
02.06.2017 13:44 21,7 °C 21,7 °C 62 % 1015,2 hPa 0,0 mm 5,5 km/h (1 Bft) NO 40 ° 1 min 0,000 mm 4,0 UV-I 432 W/m² 14,1 °C 21,7 °C 8,0 km/h (2 Bft)
02.06.2017 13:45 21,7 °C 21,7 °C 61 % 1015,2 hPa 0,0 mm 3,0 km/h (1 Bft) NO 40 ° 1 min 0,000 mm 3,9 UV-I 418 W/m² 13,8 °C 21,7 °C 4,8 km/h (1 Bft)
02.06.2017 13:46 21,6 °C 21,7 °C 62 % 1015,3 hPa 0,0 mm 4,1 km/h (1 Bft) NO 36 ° 1 min 0,000 mm 3,6 UV-I 353 W/m² 14,0 °C 21,6 °C 6,4 km/h (2 Bft)
02.06.2017 13:47 21,7 °C 21,7 °C 62 % 1015,3 hPa 0,0 mm 5,2 km/h (1 Bft) O-NO 65 ° 1 min 0,000 mm 3,2 UV-I 318 W/m² 14,1 °C 21,7 °C 8,0 km/h (2 Bft)
02.06.2017 13:48 21,6 °C 21,7 °C 63 % 1015,3 hPa 0,0 mm 6,6 km/h (2 Bft) NO 46 ° 1 min 0,000 mm 3,1 UV-I 301 W/m² 14,2 °C 21,6 °C 9,7 km/h (2 Bft)
02.06.2017 13:49 21,6 °C 21,6 °C 64 % 1015,3 hPa 0,0 mm 3,5 km/h (1 Bft) NO 46 ° 1 min 0,000 mm 3,0 UV-I 290 W/m² 14,5 °C 21,6 °C 4,8 km/h (1 Bft)
02.06.2017 13:50 21,4 °C 21,6 °C 65 % 1015,3 hPa 0,0 mm 4,4 km/h (1 Bft) NO 56 ° 0 min 0,000 mm 2,9 UV-I 281 W/m² 14,5 °C 21,4 °C 8,0 km/h (2 Bft)
02.06.2017 13:51 21,4 °C 21,4 °C 66 % 1015,3 hPa 0,0 mm 3,9 km/h (1 Bft) O-NO 59 ° 0 min 0,000 mm 2,9 UV-I 279 W/m² 14,8 °C 21,4 °C 6,4 km/h (2 Bft)
02.06.2017 13:52 21,4 °C 21,4 °C 67 % 1015,3 hPa 0,0 mm 0,9 km/h (0 Bft) O-NO 59 ° 0 min 0,000 mm 2,8 UV-I 262 W/m² 15,0 °C 21,4 °C 3,2 km/h (1 Bft)
02.06.2017 13:53 21,4 °C 21,4 °C 67 % 1015,3 hPa 0,0 mm 1,9 km/h (1 Bft) O-NO 59 ° 0 min 0,000 mm 2,5 UV-I 258 W/m² 15,0 °C 21,4 °C 3,2 km/h (1 Bft)
02.06.2017 13:54 21,3 °C 21,4 °C 68 % 1015,2 hPa 0,0 mm 0,9 km/h (0 Bft) O-NO 59 ° 0 min 0,000 mm 2,4 UV-I 257 W/m² 15,1 °C 21,3 °C 1,6 km/h (1 Bft)
02.06.2017 13:55 21,3 °C 21,3 °C 67 % 1015,3 hPa 0,0 mm 2,0 km/h (1 Bft) O-NO 59 ° 0 min 0,000 mm 2,3 UV-I 248 W/m² 14,9 °C 21,3 °C 3,2 km/h (1 Bft)
02.06.2017 13:56 21,2 °C 21,3 °C 68 % 1015,3 hPa 0,0 mm 1,6 km/h (1 Bft) NO 44 ° 0 min 0,000 mm 2,2 UV-I 236 W/m² 15,1 °C 21,2 °C 4,8 km/h (1 Bft)
02.06.2017 13:57 21,2 °C 21,2 °C 69 % 1015,2 hPa 0,0 mm 3,4 km/h (1 Bft) N 9 ° 0 min 0,000 mm 2,1 UV-I 227 W/m² 15,3 °C 21,2 °C 4,8 km/h (1 Bft)
02.06.2017 13:58 21,2 °C 21,2 °C 69 % 1015,3 hPa 0,0 mm 2,2 km/h (1 Bft) N 9 ° 0 min 0,000 mm 2,0 UV-I 206 W/m² 15,3 °C 21,2 °C 4,8 km/h (1 Bft)
02.06.2017 13:59 21,2 °C 21,2 °C 67 % 1015,2 hPa 0,0 mm 0,8 km/h (0 Bft) N 5 ° 0 min 0,000 mm 1,8 UV-I 195 W/m² 14,8 °C 21,2 °C 3,2 km/h (1 Bft)
02.06.2017 14:00 21,2 °C 21,2 °C 70 % 1015,2 hPa 0,0 mm 1,5 km/h (1 Bft) NO 49 ° 0 min 0,000 mm 1,7 UV-I 195 W/m² 15,5 °C 21,2 °C 4,8 km/h (1 Bft)
02.06.2017 14:01 21,2 °C 21,2 °C 68 % 1015,2 hPa 0,0 mm 3,9 km/h (1 Bft) N-NW 335 ° 0 min 0,229 mm 1,6 UV-I 174 W/m² 15,1 °C 21,2 °C 6,4 km/h (2 Bft)
02.06.2017 14:02 21,1 °C 21,2 °C 69 % 1015,1 hPa 0,0 mm 3,8 km/h (1 Bft) NO 34 ° 0 min 0,000 mm 1,6 UV-I 167 W/m² 15,2 °C 21,1 °C 4,8 km/h (1 Bft)
02.06.2017 14:03 21,1 °C 21,1 °C 69 % 1015,2 hPa 0,0 mm 5,3 km/h (1 Bft) N-NO 13 ° 0 min 0,000 mm 1,6 UV-I 163 W/m² 15,2 °C 21,1 °C 8,0 km/h (2 Bft)
02.06.2017 14:04 21,1 °C 21,1 °C 69 % 1015,2 hPa 0,0 mm 8,7 km/h (2 Bft) NO 36 ° 0 min 0,000 mm 1,5 UV-I 153 W/m² 15,2 °C 21,1 °C 12,9 km/h (3 Bft)
02.06.2017 14:05 21,0 °C 21,1 °C 67 % 1015,2 hPa 0,0 mm 9,3 km/h (2 Bft) O 86 ° 0 min 0,000 mm 1,4 UV-I 146 W/m² 14,6 °C 21,0 °C 14,5 km/h (3 Bft)
02.06.2017 14:06 20,9 °C 21,0 °C 67 % 1015,2 hPa 0,0 mm 7,6 km/h (2 Bft) N-NW 348 ° 0 min 0,000 mm 1,3 UV-I 139 W/m² 14,5 °C 20,9 °C 14,5 km/h (3 Bft)
02.06.2017 14:07 20,8 °C 20,9 °C 67 % 1015,2 hPa 0,0 mm 4,7 km/h (1 Bft) N-NO 12 ° 0 min 0,000 mm 1,2 UV-I 132 W/m² 14,4 °C 20,8 °C 8,0 km/h (2 Bft)
02.06.2017 14:08 20,7 °C 20,8 °C 67 % 1015,2 hPa 0,0 mm 7,4 km/h (2 Bft) N-NW 343 ° 0 min 0,000 mm 1,2 UV-I 127 W/m² 14,3 °C 20,7 °C 9,7 km/h (2 Bft)
02.06.2017 14:09 20,6 °C 20,7 °C 65 % 1015,3 hPa 0,0 mm 9,9 km/h (2 Bft) N-NW 340 ° 0 min 0,000 mm 1,1 UV-I 109 W/m² 13,8 °C 20,6 °C 16,1 km/h (3 Bft)
02.06.2017 14:10 20,5 °C 20,6 °C 66 % 1015,3 hPa 0,0 mm 9,1 km/h (2 Bft) N-NO 15 ° 0 min 0,000 mm 1,0 UV-I 97 W/m² 13,9 °C 20,5 °C 14,5 km/h (3 Bft)
02.06.2017 14:11 20,4 °C 20,5 °C 67 % 1015,3 hPa 0,0 mm 5,8 km/h (2 Bft) N-NO 13 ° 0 min 0,000 mm 0,8 UV-I 88 W/m² 14,1 °C 20,4 °C 8,0 km/h (2 Bft)
02.06.2017 14:12 20,4 °C 20,4 °C 66 % 1015,3 hPa 0,0 mm 5,6 km/h (1 Bft) N-NO 30 ° 0 min 0,000 mm 0,7 UV-I 81 W/m² 13,8 °C 20,4 °C 9,7 km/h (2 Bft)
02.06.2017 14:13 20,4 °C 20,4 °C 67 % 1015,3 hPa 0,0 mm 7,9 km/h (2 Bft) N-NO 30 ° 0 min 0,000 mm 0,6 UV-I 76 W/m² 14,1 °C 20,4 °C 12,9 km/h (3 Bft)
02.06.2017 14:14 20,4 °C 20,4 °C 68 % 1015,3 hPa 0,0 mm 5,9 km/h (2 Bft) N-NO 32 ° 0 min 0,000 mm 0,6 UV-I 72 W/m² 14,3 °C 20,4 °C 9,7 km/h (2 Bft)
02.06.2017 14:15 20,4 °C 20,4 °C 68 % 1015,3 hPa 0,0 mm 7,9 km/h (2 Bft) N 355 ° 0 min 0,000 mm 0,6 UV-I 69 W/m² 14,3 °C 20,4 °C 14,5 km/h (3 Bft)
02.06.2017 14:16 20,3 °C 20,4 °C 68 % 1015,3 hPa 0,0 mm 6,8 km/h (2 Bft) O-NO 71 ° 0 min 0,000 mm 0,5 UV-I 67 W/m² 14,2 °C 20,3 °C 8,0 km/h (2 Bft)
02.06.2017 14:17 20,3 °C 20,3 °C 69 % 1015,4 hPa 0,0 mm 6,6 km/h (2 Bft) O-NO 61 ° 0 min 0,000 mm 0,6 UV-I 67 W/m² 14,4 °C 20,3 °C 11,3 km/h (2 Bft)
02.06.2017 14:18 20,3 °C 20,3 °C 70 % 1015,4 hPa 0,0 mm 6,4 km/h (2 Bft) O-NO 57 ° 0 min 0,000 mm 0,6 UV-I 67 W/m² 14,6 °C 20,3 °C 11,3 km/h (2 Bft)
02.06.2017 14:19 20,2 °C 20,3 °C 70 % 1015,4 hPa 0,0 mm 8,6 km/h (2 Bft) O-NO 62 ° 0 min 0,000 mm 0,6 UV-I 67 W/m² 14,5 °C 20,2 °C 16,1 km/h (3 Bft)
02.06.2017 14:20 20,2 °C 20,2 °C 70 % 1015,4 hPa 0,0 mm 10,3 km/h (2 Bft) O-NO 59 ° 0 min 0,000 mm 0,6 UV-I 67 W/m² 14,5 °C 20,2 °C 14,5 km/h (3 Bft)
02.06.2017 14:21 20,1 °C 20,2 °C 71 % 1015,5 hPa 0,0 mm 7,4 km/h (2 Bft) NO 40 ° 0 min 0,000 mm 0,5 UV-I 63 W/m² 14,7 °C 20,1 °C 12,9 km/h (3 Bft)
02.06.2017 14:22 20,0 °C 20,1 °C 72 % 1015,5 hPa 0,2 mm 2,9 km/h (1 Bft) NO 46 ° 0 min 0,000 mm 0,5 UV-I 62 W/m² 14,8 °C 20,0 °C 4,8 km/h (1 Bft)
02.06.2017 14:23 19,9 °C 20,0 °C 72 % 1015,5 hPa 0,0 mm 7,1 km/h (2 Bft) O 84 ° 0 min 0,000 mm 0,5 UV-I 60 W/m² 14,7 °C 19,9 °C 11,3 km/h (2 Bft)
02.06.2017 14:24 19,7 °C 19,9 °C 77 % 1015,5 hPa 0,0 mm 3,9 km/h (1 Bft) O-SO 110 ° 0 min 0,000 mm 0,5 UV-I 58 W/m² 15,5 °C 19,7 °C 4,8 km/h (1 Bft)
02.06.2017 14:25 19,4 °C 19,7 °C 76 % 1015,6 hPa 0,2 mm 10,3 km/h (2 Bft) O-NO 62 ° 0 min 0,000 mm 0,5 UV-I 56 W/m² 15,1 °C 19,4 °C 19,3 km/h (3 Bft)
02.06.2017 14:26 19,3 °C 19,4 °C 77 % 1015,5 hPa 0,0 mm 5,6 km/h (1 Bft) SO 139 ° 0 min 0,000 mm 0,0 UV-I 54 W/m² 15,2 °C 19,3 °C 14,5 km/h (3 Bft)
02.06.2017 14:27 18,9 °C 19,3 °C 78 % 1015,6 hPa 0,0 mm 2,0 km/h (1 Bft) O 98 ° 0 min 0,000 mm 0,0 UV-I 51 W/m² 15,0 °C 18,9 °C 8,0 km/h (2 Bft)
02.06.2017 14:28 18,7 °C 18,9 °C 78 % 1015,6 hPa 0,0 mm 3,3 km/h (1 Bft) SO 143 ° 0 min 0,000 mm 0,0 UV-I 49 W/m² 14,8 °C 18,7 °C 8,0 km/h (2 Bft)
02.06.2017 14:29 18,4 °C 18,7 °C 78 % 1015,6 hPa 0,0 mm 3,1 km/h (1 Bft) SO 126 ° 0 min 0,000 mm 0,0 UV-I 47 W/m² 14,5 °C 18,4 °C 6,4 km/h (2 Bft)
02.06.2017 14:30 18,3 °C 18,4 °C 81 % 1015,7 hPa 0,2 mm 3,3 km/h (1 Bft) O-SO 116 ° 0 min 0,000 mm 0,0 UV-I 47 W/m² 15,0 °C 18,3 °C 4,8 km/h (1 Bft)
02.06.2017 14:31 18,0 °C 18,3 °C 81 % 1015,6 hPa 0,0 mm 3,3 km/h (1 Bft) S 180 ° 0 min 0,000 mm 0,0 UV-I 49 W/m² 14,7 °C 18,0 °C 4,8 km/h (1 Bft)
02.06.2017 14:32 17,8 °C 18,0 °C 83 % 1015,7 hPa 0,0 mm 4,5 km/h (1 Bft) S-SO 159 ° 0 min 0,000 mm 0,0 UV-I 49 W/m² 14,9 °C 17,8 °C 6,4 km/h (2 Bft)
02.06.2017 14:33 17,7 °C 17,8 °C 83 % 1015,7 hPa 0,0 mm 5,9 km/h (2 Bft) S 181 ° 0 min 0,000 mm 0,0 UV-I 49 W/m² 14,8 °C 17,7 °C 8,0 km/h (2 Bft)
02.06.2017 14:34 17,5 °C 17,7 °C 84 % 1015,7 hPa 0,2 mm 4,5 km/h (1 Bft) SO 139 ° 0 min 0,000 mm 0,0 UV-I 49 W/m² 14,8 °C 17,5 °C 8,0 km/h (2 Bft)
02.06.2017 14:35 17,4 °C 17,5 °C 83 % 1015,7 hPa 0,0 mm 3,6 km/h (1 Bft) S-SW 206 ° 0 min 0,000 mm 0,0 UV-I 51 W/m² 14,5 °C 17,4 °C 6,4 km/h (2 Bft)
02.06.2017 14:36 17,3 °C 17,4 °C 85 % 1015,7 hPa 0,0 mm 5,0 km/h (1 Bft) S-SW 211 ° 0 min 0,000 mm 0,0 UV-I 51 W/m² 14,8 °C 17,3 °C 9,7 km/h (2 Bft)
02.06.2017 14:37 17,2 °C 17,3 °C 86 % 1015,7 hPa 0,0 mm 2,2 km/h (1 Bft) S 171 ° 0 min 0,000 mm 0,0 UV-I 53 W/m² 14,8 °C 17,2 °C 6,4 km/h (2 Bft)
02.06.2017 14:38 17,0 °C 17,2 °C 87 % 1015,7 hPa 0,2 mm 4,5 km/h (1 Bft) S 191 ° 0 min 0,000 mm 0,0 UV-I 53 W/m² 14,8 °C 17,0 °C 8,0 km/h (2 Bft)
02.06.2017 14:39 16,8 °C 17,0 °C 86 % 1015,7 hPa 0,0 mm 5,5 km/h (1 Bft) S 172 ° 0 min 0,000 mm 0,0 UV-I 56 W/m² 14,4 °C 16,8 °C 8,0 km/h (2 Bft)
02.06.2017 14:40 16,8 °C 16,8 °C 86 % 1015,7 hPa 0,0 mm 4,6 km/h (1 Bft) S 182 ° 0 min 0,000 mm 0,5 UV-I 58 W/m² 14,4 °C 16,8 °C 6,4 km/h (2 Bft)
02.06.2017 14:41 16,6 °C 16,8 °C 87 % 1015,7 hPa 0,0 mm 3,6 km/h (1 Bft) S 181 ° 0 min 0,000 mm 0,5 UV-I 58 W/m² 14,4 °C 16,6 °C 4,8 km/h (1 Bft)
02.06.2017 14:42 16,6 °C 16,6 °C 87 % 1015,6 hPa 0,0 mm 2,1 km/h (1 Bft) S 182 ° 0 min 0,000 mm 0,5 UV-I 60 W/m² 14,4 °C 16,6 °C 4,8 km/h (1 Bft)
02.06.2017 14:43 16,5 °C 16,6 °C 88 % 1015,6 hPa 0,0 mm 1,7 km/h (1 Bft) S 182 ° 0 min 0,000 mm 0,5 UV-I 62 W/m² 14,5 °C 16,5 °C 3,2 km/h (1 Bft)
02.06.2017 14:44 16,4 °C 16,5 °C 89 % 1015,5 hPa 0,0 mm 1,7 km/h (1 Bft) S 181 ° 0 min 0,000 mm 0,5 UV-I 62 W/m² 14,6 °C 16,4 °C 3,2 km/h (1 Bft)
02.06.2017 14:45 16,3 °C 16,4 °C 89 % 1015,5 hPa 0,0 mm 2,6 km/h (1 Bft) S 169 ° 0 min 0,000 mm 0,5 UV-I 63 W/m² 14,5 °C 16,3 °C 3,2 km/h (1 Bft)
02.06.2017 14:46 16,1 °C 16,3 °C 90 % 1015,5 hPa 0,2 mm 2,6 km/h (1 Bft) S 169 ° 0 min 0,000 mm 0,5 UV-I 65 W/m² 14,5 °C 16,1 °C 3,2 km/h (1 Bft)
02.06.2017 14:47 16,1 °C 16,1 °C 90 % 1015,4 hPa 0,0 mm 4,0 km/h (1 Bft) SO 129 ° 0 min 0,000 mm 0,6 UV-I 65 W/m² 14,5 °C 16,1 °C 8,0 km/h (2 Bft)
02.06.2017 14:48 16,0 °C 16,1 °C 90 % 1015,4 hPa 0,0 mm 4,8 km/h (1 Bft) SO 146 ° 0 min 0,000 mm 0,6 UV-I 67 W/m² 14,4 °C 16,0 °C 6,4 km/h (2 Bft)
02.06.2017 14:49 15,9 °C 16,0 °C 90 % 1015,4 hPa 0,2 mm 4,2 km/h (1 Bft) SO 142 ° 0 min 0,000 mm 0,6 UV-I 67 W/m² 14,3 °C 15,9 °C 4,8 km/h (1 Bft)
02.06.2017 14:50 15,9 °C 15,9 °C 90 % 1015,3 hPa 0,0 mm 2,2 km/h (1 Bft) SO 142 ° 0 min 0,000 mm 0,6 UV-I 69 W/m² 14,3 °C 15,9 °C 3,2 km/h (1 Bft)
02.06.2017 14:51 15,9 °C 15,9 °C 90 % 1015,3 hPa 0,0 mm 3,2 km/h (1 Bft) SO 144 ° 0 min 0,000 mm 0,6 UV-I 70 W/m² 14,3 °C 15,9 °C 4,8 km/h (1 Bft)
02.06.2017 14:52 15,9 °C 15,9 °C 90 % 1015,3 hPa 0,2 mm 3,0 km/h (1 Bft) SO 144 ° 0 min 0,000 mm 0,6 UV-I 70 W/m² 14,3 °C 15,9 °C 4,8 km/h (1 Bft)
02.06.2017 14:53 15,8 °C 15,9 °C 90 % 1015,3 hPa 0,0 mm 1,8 km/h (1 Bft) SO 144 ° 0 min 0,000 mm 0,6 UV-I 72 W/m² 14,2 °C 15,8 °C 3,2 km/h (1 Bft)
02.06.2017 14:54 15,8 °C 15,8 °C 90 % 1015,3 hPa 0,2 mm 2,7 km/h (1 Bft) SO 124 ° 0 min 0,000 mm 0,6 UV-I 72 W/m² 14,2 °C 15,8 °C 4,8 km/h (1 Bft)
02.06.2017 14:55 15,7 °C 15,8 °C 91 % 1015,3 hPa 0,0 mm 2,5 km/h (1 Bft) SO 144 ° 0 min 0,000 mm 0,6 UV-I 72 W/m² 14,2 °C 15,7 °C 4,8 km/h (1 Bft)
02.06.2017 14:56 15,7 °C 15,7 °C 91 % 1015,2 hPa 0,2 mm 1,3 km/h (1 Bft) SO 144 ° 0 min 0,000 mm 0,6 UV-I 74 W/m² 14,2 °C 15,7 °C 3,2 km/h (1 Bft)
02.06.2017 14:57 15,7 °C 15,7 °C 90 % 1015,2 hPa 0,0 mm 1,3 km/h (1 Bft) O 87 ° 0 min 0,000 mm 0,6 UV-I 74 W/m² 14,1 °C 15,7 °C 3,2 km/h (1 Bft)
02.06.2017 14:58 15,7 °C 15,7 °C 91 % 1015,2 hPa 0,2 mm 1,6 km/h (1 Bft) O 87 ° 0 min 0,000 mm 0,6 UV-I 76 W/m² 14,2 °C 15,7 °C 3,2 km/h (1 Bft)
02.06.2017 14:59 15,7 °C 15,7 °C 91 % 1015,2 hPa 0,0 mm 0,0 km/h (0 Bft) O 87 ° 0 min 0,000 mm 0,6 UV-I 76 W/m² 14,2 °C 15,7 °C 0,0 km/h (0 Bft)
02.06.2017 15:00 15,6 °C 15,7 °C 91 % 1015,2 hPa 0,0 mm 0,0 km/h (0 Bft) O 87 ° 0 min 0,000 mm 0,6 UV-I 76 W/m² 14,1 °C 15,6 °C 0,0 km/h (0 Bft)
02.06.2017 15:01 15,6 °C 15,6 °C 91 % 1015,1 hPa 0,0 mm 1,1 km/h (1 Bft) O 90 ° 0 min 0,051 mm 0,7 UV-I 77 W/m² 14,1 °C 15,6 °C 3,2 km/h (1 Bft)
02.06.2017 15:02 15,6 °C 15,6 °C 91 % 1015,1 hPa 0,2 mm 1,0 km/h (0 Bft) O 96 ° 0 min 0,000 mm 0,7 UV-I 79 W/m² 14,1 °C 15,6 °C 3,2 km/h (1 Bft)
02.06.2017 15:03 15,6 °C 15,6 °C 91 % 1015,2 hPa 0,0 mm 2,6 km/h (1 Bft) SO 144 ° 0 min 0,000 mm 0,7 UV-I 79 W/m² 14,1 °C 15,6 °C 3,2 km/h (1 Bft)
02.06.2017 15:04 15,6 °C 15,7 °C 91 % 1015,2 hPa 0,0 mm 3,6 km/h (1 Bft) S-SO 155 ° 0 min 0,000 mm 0,7 UV-I 81 W/m² 14,1 °C 15,6 °C 6,4 km/h (2 Bft)
02.06.2017 15:05 15,7 °C 15,7 °C 90 % 1015,2 hPa 0,0 mm 2,9 km/h (1 Bft) S-SO 149 ° 0 min 0,000 mm 0,7 UV-I 81 W/m² 14,1 °C 15,7 °C 4,8 km/h (1 Bft)
02.06.2017 15:06 15,8 °C 15,8 °C 90 % 1015,2 hPa 0,0 mm 1,9 km/h (1 Bft) S-SO 157 ° 0 min 0,000 mm 0,7 UV-I 83 W/m² 14,2 °C 15,8 °C 4,8 km/h (1 Bft)
02.06.2017 15:07 15,8 °C 15,8 °C 90 % 1015,2 hPa 0,0 mm 0,7 km/h (0 Bft) S-SO 164 ° 0 min 0,000 mm 0,7 UV-I 83 W/m² 14,2 °C 15,8 °C 3,2 km/h (1 Bft)
02.06.2017 15:08 15,9 °C 15,9 °C 90 % 1015,3 hPa 0,0 mm 2,2 km/h (1 Bft) S 184 ° 0 min 0,000 mm 0,7 UV-I 86 W/m² 14,3 °C 15,9 °C 4,8 km/h (1 Bft)
02.06.2017 15:09 15,9 °C 15,9 °C 89 % 1015,3 hPa 0,0 mm 2,5 km/h (1 Bft) S-SO 159 ° 0 min 0,000 mm 0,7 UV-I 88 W/m² 14,1 °C 15,9 °C 3,2 km/h (1 Bft)
02.06.2017 15:10 15,9 °C 15,9 °C 89 % 1015,3 hPa 0,0 mm 4,1 km/h (1 Bft) S 179 ° 0 min 0,000 mm 0,8 UV-I 88 W/m² 14,1 °C 15,9 °C 6,4 km/h (2 Bft)
02.06.2017 15:11 15,9 °C 15,9 °C 90 % 1015,3 hPa 0,0 mm 2,7 km/h (1 Bft) S-SW 195 ° 0 min 0,000 mm 0,8 UV-I 90 W/m² 14,3 °C 15,9 °C 4,8 km/h (1 Bft)
02.06.2017 15:12 16,0 °C 16,0 °C 90 % 1015,3 hPa 0,0 mm 0,1 km/h (0 Bft) S-SW 194 ° 0 min 0,000 mm 0,8 UV-I 91 W/m² 14,4 °C 16,0 °C 1,6 km/h (1 Bft)
02.06.2017 15:13 15,9 °C 16,0 °C 91 % 1015,3 hPa 0,0 mm 2,3 km/h (1 Bft) S 169 ° 0 min 0,000 mm 0,8 UV-I 93 W/m² 14,4 °C 15,9 °C 6,4 km/h (2 Bft)
02.06.2017 15:14 15,9 °C 15,9 °C 91 % 1015,3 hPa 0,0 mm 1,3 km/h (1 Bft) S 169 ° 0 min 0,000 mm 0,8 UV-I 95 W/m² 14,4 °C 15,9 °C 6,4 km/h (2 Bft)
02.06.2017 15:15 15,9 °C 15,9 °C 91 % 1015,3 hPa 0,0 mm 0,0 km/h (0 Bft) S 169 ° 0 min 0,000 mm 0,8 UV-I 97 W/m² 14,4 °C 15,9 °C 0,0 km/h (0 Bft)
02.06.2017 15:16 15,9 °C 15,9 °C 91 % 1015,3 hPa 0,0 mm 1,5 km/h (1 Bft) S 169 ° 0 min 0,000 mm 0,8 UV-I 98 W/m² 14,4 °C 15,9 °C 3,2 km/h (1 Bft)
02.06.2017 15:17 15,8 °C 15,9 °C 91 % 1015,3 hPa 0,0 mm 3,3 km/h (1 Bft) S 169 ° 0 min 0,000 mm 0,8 UV-I 100 W/m² 14,3 °C 15,8 °C 6,4 km/h (2 Bft)
02.06.2017 15:18 15,9 °C 15,9 °C 91 % 1015,3 hPa 0,2 mm 1,0 km/h (0 Bft) S 169 ° 0 min 0,000 mm 0,9 UV-I 102 W/m² 14,4 °C 15,9 °C 3,2 km/h (1 Bft)
02.06.2017 15:19 15,9 °C 15,9 °C 91 % 1015,4 hPa 0,0 mm 0,0 km/h (0 Bft) S 169 ° 0 min 0,000 mm 0,9 UV-I 104 W/m² 14,4 °C 15,9 °C 0,0 km/h (0 Bft)
02.06.2017 15:20 15,9 °C 15,9 °C 92 % 1015,3 hPa 0,0 mm 2,0 km/h (1 Bft) S 169 ° 0 min 0,000 mm 0,9 UV-I 105 W/m² 14,6 °C 15,9 °C 3,2 km/h (1 Bft)
02.06.2017 15:21 15,9 °C 15,9 °C 92 % 1015,4 hPa 0,0 mm 1,7 km/h (1 Bft) S 169 ° 0 min 0,000 mm 0,9 UV-I 107 W/m² 14,6 °C 15,9 °C 3,2 km/h (1 Bft)
02.06.2017 15:22 15,9 °C 15,9 °C 91 % 1015,4 hPa 0,0 mm 2,3 km/h (1 Bft) S 169 ° 0 min 0,000 mm 0,9 UV-I 109 W/m² 14,4 °C 15,9 °C 3,2 km/h (1 Bft)
02.06.2017 15:23 16,1 °C 16,1 °C 91 % 1015,4 hPa 0,0 mm 1,3 km/h (1 Bft) S 169 ° 0 min 0,000 mm 0,9 UV-I 111 W/m² 14,6 °C 16,1 °C 3,2 km/h (1 Bft)
02.06.2017 15:24 16,1 °C 16,1 °C 92 % 1015,4 hPa 0,0 mm 2,7 km/h (1 Bft) W-SW 243 ° 0 min 0,000 mm 0,9 UV-I 111 W/m² 14,8 °C 16,1 °C 4,8 km/h (1 Bft)
02.06.2017 15:25 16,2 °C 16,2 °C 92 % 1015,4 hPa 0,0 mm 3,3 km/h (1 Bft) W-SW 243 ° 0 min 0,000 mm 0,9 UV-I 113 W/m² 14,9 °C 16,2 °C 4,8 km/h (1 Bft)
02.06.2017 15:26 16,3 °C 16,3 °C 92 % 1015,4 hPa 0,0 mm 3,3 km/h (1 Bft) W 268 ° 0 min 0,000 mm 0,9 UV-I 113 W/m² 15,0 °C 16,3 °C 4,8 km/h (1 Bft)
02.06.2017 15:27 16,3 °C 16,3 °C 92 % 1015,4 hPa 0,0 mm 3,9 km/h (1 Bft) W 272 ° 0 min 0,000 mm 1,0 UV-I 114 W/m² 15,0 °C 16,3 °C 4,8 km/h (1 Bft)
02.06.2017 15:28 16,3 °C 16,3 °C 92 % 1015,5 hPa 0,0 mm 3,2 km/h (1 Bft) W 272 ° 0 min 0,000 mm 1,0 UV-I 114 W/m² 15,0 °C 16,3 °C 4,8 km/h (1 Bft)
02.06.2017 15:29 16,3 °C 16,3 °C 92 % 1015,5 hPa 0,0 mm 4,8 km/h (1 Bft) W 263 ° 0 min 0,000 mm 1,0 UV-I 114 W/m² 15,0 °C 16,3 °C 6,4 km/h (2 Bft)
02.06.2017 15:30 16,3 °C 16,3 °C 92 % 1015,5 hPa 0,0 mm 3,0 km/h (1 Bft) W 263 ° 0 min 0,000 mm 1,0 UV-I 116 W/m² 15,0 °C 16,3 °C 4,8 km/h (1 Bft)
02.06.2017 15:31 16,3 °C 16,4 °C 92 % 1015,5 hPa 0,0 mm 1,7 km/h (1 Bft) W 261 ° 0 min 0,000 mm 1,0 UV-I 116 W/m² 15,0 °C 16,3 °C 3,2 km/h (1 Bft)
02.06.2017 15:32 16,4 °C 16,4 °C 92 % 1015,5 hPa 0,0 mm 0,0 km/h (0 Bft) W 261 ° 0 min 0,000 mm 1,0 UV-I 118 W/m² 15,1 °C 16,4 °C 0,0 km/h (0 Bft)
02.06.2017 15:33 16,3 °C 16,4 °C 92 % 1015,5 hPa 0,0 mm 0,0 km/h (0 Bft) W 261 ° 0 min 0,000 mm 1,0 UV-I 118 W/m² 15,0 °C 16,3 °C 0,0 km/h (0 Bft)
02.06.2017 15:34 16,3 °C 16,3 °C 91 % 1015,5 hPa 0,0 mm 0,0 km/h (0 Bft) W 261 ° 0 min 0,000 mm 1,0 UV-I 120 W/m² 14,8 °C 16,3 °C 0,0 km/h (0 Bft)
02.06.2017 15:35 16,3 °C 16,3 °C 92 % 1015,6 hPa 0,0 mm 0,0 km/h (0 Bft) W 261 ° 0 min 0,000 mm 1,0 UV-I 121 W/m² 15,0 °C 16,3 °C 0,0 km/h (0 Bft)
02.06.2017 15:36 16,3 °C 16,3 °C 92 % 1015,6 hPa 0,0 mm 0,6 km/h (0 Bft) W 261 ° 0 min 0,000 mm 1,0 UV-I 123 W/m² 15,0 °C 16,3 °C 1,6 km/h (1 Bft)
02.06.2017 15:37 16,3 °C 16,3 °C 92 % 1015,5 hPa 0,0 mm 0,2 km/h (0 Bft) W 261 ° 0 min 0,000 mm 1,1 UV-I 128 W/m² 15,0 °C 16,3 °C 1,6 km/h (1 Bft)
02.06.2017 15:38 16,3 °C 16,3 °C 92 % 1015,5 hPa 0,0 mm 0,0 km/h (0 Bft) W 261 ° 0 min 0,000 mm 1,1 UV-I 130 W/m² 15,0 °C 16,3 °C 0,0 km/h (0 Bft)
02.06.2017 15:39 16,3 °C 16,3 °C 92 % 1015,6 hPa 0,0 mm 0,0 km/h (0 Bft) W 261 ° 0 min 0,000 mm 1,1 UV-I 132 W/m² 15,0 °C 16,3 °C 0,0 km/h (0 Bft)
02.06.2017 15:40 16,3 °C 16,3 °C 93 % 1015,6 hPa 0,0 mm 0,0 km/h (0 Bft) W 261 ° 0 min 0,000 mm 1,1 UV-I 135 W/m² 15,2 °C 16,3 °C 0,0 km/h (0 Bft)
02.06.2017 15:41 16,3 °C 16,4 °C 93 % 1015,6 hPa 0,0 mm 0,0 km/h (0 Bft) W 261 ° 0 min 0,000 mm 1,1 UV-I 137 W/m² 15,2 °C 16,3 °C 0,0 km/h (0 Bft)
02.06.2017 15:42 16,4 °C 16,4 °C 93 % 1015,6 hPa 0,0 mm 0,2 km/h (0 Bft) W 261 ° 0 min 0,000 mm 1,2 UV-I 141 W/m² 15,3 °C 16,4 °C 1,6 km/h (1 Bft)
02.06.2017 15:43 16,4 °C 16,4 °C 93 % 1015,6 hPa 0,0 mm 0,6 km/h (0 Bft) W 261 ° 0 min 0,000 mm 1,2 UV-I 146 W/m² 15,3 °C 16,4 °C 1,6 km/h (1 Bft)
02.06.2017 15:44 16,4 °C 16,4 °C 93 % 1015,6 hPa 0,0 mm 0,2 km/h (0 Bft) W 261 ° 0 min 0,000 mm 1,2 UV-I 148 W/m² 15,3 °C 16,4 °C 1,6 km/h (1 Bft)
02.06.2017 15:45 16,4 °C 16,4 °C 93 % 1015,6 hPa 0,0 mm 0,6 km/h (0 Bft) W 261 ° 0 min 0,000 mm 1,3 UV-I 151 W/m² 15,3 °C 16,4 °C 1,6 km/h (1 Bft)
02.06.2017 15:46 16,4 °C 16,4 °C 93 % 1015,6 hPa 0,0 mm 0,0 km/h (0 Bft) W 261 ° 0 min 0,000 mm 1,3 UV-I 153 W/m² 15,3 °C 16,4 °C 0,0 km/h (0 Bft)
02.06.2017 15:47 16,4 °C 16,4 °C 92 % 1015,6 hPa 0,0 mm 0,0 km/h (0 Bft) W 261 ° 0 min 0,000 mm 1,3 UV-I 155 W/m² 15,1 °C 16,4 °C 0,0 km/h (0 Bft)
02.06.2017 15:48 16,4 °C 16,4 °C 92 % 1015,6 hPa 0,0 mm 0,0 km/h (0 Bft) W 261 ° 0 min 0,000 mm 1,3 UV-I 156 W/m² 15,1 °C 16,4 °C 0,0 km/h (0 Bft)
02.06.2017 15:49 16,4 °C 16,4 °C 92 % 1015,5 hPa 0,0 mm 0,0 km/h (0 Bft) W 261 ° 0 min 0,000 mm 1,3 UV-I 162 W/m² 15,1 °C 16,4 °C 0,0 km/h (0 Bft)
02.06.2017 15:50 16,4 °C 16,4 °C 92 % 1015,5 hPa 0,0 mm 0,0 km/h (0 Bft) W 261 ° 0 min 0,000 mm 1,3 UV-I 163 W/m² 15,1 °C 16,4 °C 0,0 km/h (0 Bft)
02.06.2017 15:51 16,4 °C 16,4 °C 93 % 1015,5 hPa 0,0 mm 0,0 km/h (0 Bft) W 261 ° 0 min 0,000 mm 1,3 UV-I 165 W/m² 15,3 °C 16,4 °C 0,0 km/h (0 Bft)
02.06.2017 15:52 16,4 °C 16,4 °C 92 % 1015,5 hPa 0,0 mm 0,0 km/h (0 Bft) W 261 ° 0 min 0,000 mm 1,4 UV-I 167 W/m² 15,1 °C 16,4 °C 0,0 km/h (0 Bft)
02.06.2017 15:53 16,4 °C 16,4 °C 92 % 1015,5 hPa 0,0 mm 0,0 km/h (0 Bft) W 261 ° 0 min 0,000 mm 1,4 UV-I 167 W/m² 15,1 °C 16,4 °C 0,0 km/h (0 Bft)
02.06.2017 15:54 16,4 °C 16,4 °C 92 % 1015,4 hPa 0,0 mm 0,0 km/h (0 Bft) W 261 ° 0 min 0,000 mm 1,4 UV-I 169 W/m² 15,1 °C 16,4 °C 0,0 km/h (0 Bft)
02.06.2017 15:55 16,4 °C 16,4 °C 92 % 1015,5 hPa 0,0 mm 0,0 km/h (0 Bft) W 261 ° 0 min 0,000 mm 1,4 UV-I 171 W/m² 15,1 °C 16,4 °C 0,0 km/h (0 Bft)
02.06.2017 15:56 16,4 °C 16,4 °C 92 % 1015,4 hPa 0,0 mm 0,0 km/h (0 Bft) W 261 ° 0 min 0,000 mm 1,4 UV-I 171 W/m² 15,1 °C 16,4 °C 0,0 km/h (0 Bft)
02.06.2017 15:57 16,4 °C 16,4 °C 92 % 1015,4 hPa 0,0 mm 0,0 km/h (0 Bft) W 261 ° 0 min 0,000 mm 1,4 UV-I 171 W/m² 15,1 °C 16,4 °C 0,0 km/h (0 Bft)
02.06.2017 15:58 16,4 °C 16,4 °C 92 % 1015,4 hPa 0,0 mm 0,0 km/h (0 Bft) W 261 ° 0 min 0,000 mm 1,4 UV-I 171 W/m² 15,1 °C 16,4 °C 0,0 km/h (0 Bft)
02.06.2017 15:59 16,4 °C 16,4 °C 92 % 1015,4 hPa 0,0 mm 0,0 km/h (0 Bft) W 261 ° 0 min 0,000 mm 1,4 UV-I 172 W/m² 15,1 °C 16,4 °C 0,0 km/h (0 Bft)
02.06.2017 16:00 16,4 °C 16,4 °C 92 % 1015,4 hPa 0,0 mm 1,4 km/h (1 Bft) W 263 ° 0 min 0,000 mm 1,4 UV-I 172 W/m² 15,1 °C 16,4 °C 3,2 km/h (1 Bft)
02.06.2017 16:01 16,5 °C 16,5 °C 92 % 1015,4 hPa 0,0 mm 2,3 km/h (1 Bft) W 272 ° 0 min 0,076 mm 1,4 UV-I 174 W/m² 15,2 °C 16,5 °C 4,8 km/h (1 Bft)
02.06.2017 16:02 16,6 °C 16,6 °C 92 % 1015,4 hPa 0,0 mm 0,6 km/h (0 Bft) W 272 ° 0 min 0,000 mm 1,4 UV-I 174 W/m² 15,3 °C 16,6 °C 1,6 km/h (1 Bft)
02.06.2017 16:03 16,7 °C 16,7 °C 92 % 1015,3 hPa 0,0 mm 0,1 km/h (0 Bft) W 272 ° 0 min 0,000 mm 1,4 UV-I 176 W/m² 15,4 °C 16,7 °C 1,6 km/h (1 Bft)
02.06.2017 16:04 16,7 °C 16,7 °C 92 % 1015,4 hPa 0,0 mm 0,0 km/h (0 Bft) W 272 ° 0 min 0,000 mm 1,4 UV-I 176 W/m² 15,4 °C 16,7 °C 0,0 km/h (0 Bft)
02.06.2017 16:05 16,7 °C 16,7 °C 92 % 1015,3 hPa 0,0 mm 0,0 km/h (0 Bft) W 272 ° 0 min 0,000 mm 1,4 UV-I 178 W/m² 15,4 °C 16,7 °C 0,0 km/h (0 Bft)
02.06.2017 16:06 16,7 °C 16,7 °C 92 % 1015,3 hPa 0,0 mm 0,0 km/h (0 Bft) W 272 ° 0 min 0,000 mm 1,4 UV-I 179 W/m² 15,4 °C 16,7 °C 0,0 km/h (0 Bft)
02.06.2017 16:07 16,7 °C 16,7 °C 92 % 1015,3 hPa 0,0 mm 0,0 km/h (0 Bft) W 272 ° 0 min 0,000 mm 1,4 UV-I 181 W/m² 15,4 °C 16,7 °C 0,0 km/h (0 Bft)
02.06.2017 16:08 16,7 °C 16,7 °C 92 % 1015,3 hPa 0,0 mm 0,0 km/h (0 Bft) W 272 ° 0 min 0,000 mm 1,5 UV-I 183 W/m² 15,4 °C 16,7 °C 0,0 km/h (0 Bft)
02.06.2017 16:09 16,7 °C 16,7 °C 92 % 1015,3 hPa 0,0 mm 0,0 km/h (0 Bft) W 272 ° 0 min 0,000 mm 1,5 UV-I 185 W/m² 15,4 °C 16,7 °C 0,0 km/h (0 Bft)
02.06.2017 16:10 16,7 °C 16,7 °C 92 % 1015,2 hPa 0,0 mm 0,0 km/h (0 Bft) W 272 ° 0 min 0,000 mm 1,5 UV-I 186 W/m² 15,4 °C 16,7 °C 0,0 km/h (0 Bft)
02.06.2017 16:11 16,8 °C 16,8 °C 92 % 1015,2 hPa 0,0 mm 0,0 km/h (0 Bft) W 272 ° 0 min 0,000 mm 1,5 UV-I 188 W/m² 15,5 °C 16,8 °C 0,0 km/h (0 Bft)
02.06.2017 16:12 16,8 °C 16,8 °C 92 % 1015,2 hPa 0,0 mm 0,0 km/h (0 Bft) W 272 ° 0 min 0,000 mm 1,5 UV-I 192 W/m² 15,5 °C 16,8 °C 0,0 km/h (0 Bft)
02.06.2017 16:13 16,9 °C 16,9 °C 92 % 1015,2 hPa 0,0 mm 0,0 km/h (0 Bft) W 272 ° 0 min 0,000 mm 1,5 UV-I 193 W/m² 15,6 °C 16,9 °C 0,0 km/h (0 Bft)
02.06.2017 16:14 16,9 °C 16,9 °C 92 % 1015,2 hPa 0,0 mm 0,0 km/h (0 Bft) W 272 ° 0 min 0,000 mm 1,5 UV-I 195 W/m² 15,6 °C 16,9 °C 0,0 km/h (0 Bft)
02.06.2017 16:15 16,9 °C 16,9 °C 92 % 1015,2 hPa 0,0 mm 0,1 km/h (0 Bft) W 272 ° 0 min 0,000 mm 1,5 UV-I 197 W/m² 15,6 °C 16,9 °C 1,6 km/h (1 Bft)
02.06.2017 16:16 17,0 °C 17,0 °C 92 % 1015,2 hPa 0,0 mm 0,0 km/h (0 Bft) W 272 ° 0 min 0,000 mm 1,6 UV-I 197 W/m² 15,7 °C 17,0 °C 0,0 km/h (0 Bft)
02.06.2017 16:17 17,1 °C 17,1 °C 93 % 1015,2 hPa 0,0 mm 0,0 km/h (0 Bft) W 272 ° 0 min 0,000 mm 1,6 UV-I 199 W/m² 16,0 °C 17,1 °C 0,0 km/h (0 Bft)
02.06.2017 16:18 17,1 °C 17,1 °C 93 % 1015,1 hPa 0,0 mm 0,1 km/h (0 Bft) W 272 ° 0 min 0,000 mm 1,6 UV-I 202 W/m² 16,0 °C 17,1 °C 1,6 km/h (1 Bft)
02.06.2017 16:19 17,2 °C 17,2 °C 93 % 1015,1 hPa 0,0 mm 0,0 km/h (0 Bft) W 272 ° 0 min 0,000 mm 1,6 UV-I 202 W/m² 16,1 °C 17,2 °C 0,0 km/h (0 Bft)
02.06.2017 16:20 17,2 °C 17,2 °C 93 % 1015,1 hPa 0,0 mm 0,1 km/h (0 Bft) W 272 ° 0 min 0,000 mm 1,6 UV-I 204 W/m² 16,1 °C 17,2 °C 1,6 km/h (1 Bft)
02.06.2017 16:21 17,2 °C 17,2 °C 93 % 1015,0 hPa 0,0 mm 0,0 km/h (0 Bft) W 272 ° 0 min 0,000 mm 1,6 UV-I 206 W/m² 16,1 °C 17,2 °C 0,0 km/h (0 Bft)
02.06.2017 16:22 17,2 °C 17,3 °C 93 % 1015,0 hPa 0,0 mm 0,0 km/h (0 Bft) W 272 ° 0 min 0,000 mm 1,6 UV-I 207 W/m² 16,1 °C 17,2 °C 0,0 km/h (0 Bft)
02.06.2017 16:23 17,2 °C 17,2 °C 92 % 1015,0 hPa 0,0 mm 0,0 km/h (0 Bft) W 272 ° 0 min 0,000 mm 1,6 UV-I 209 W/m² 15,9 °C 17,2 °C 0,0 km/h (0 Bft)
02.06.2017 16:24 17,2 °C 17,2 °C 93 % 1015,0 hPa 0,0 mm 1,9 km/h (1 Bft) W-SW 244 ° 0 min 0,000 mm 1,6 UV-I 211 W/m² 16,1 °C 17,2 °C 4,8 km/h (1 Bft)
02.06.2017 16:25 17,2 °C 17,2 °C 93 % 1015,0 hPa 0,0 mm 0,3 km/h (0 Bft) W-SW 244 ° 0 min 0,000 mm 1,7 UV-I 213 W/m² 16,1 °C 17,2 °C 1,6 km/h (1 Bft)
02.06.2017 16:26 17,2 °C 17,2 °C 92 % 1015,0 hPa 0,0 mm 0,2 km/h (0 Bft) W-SW 244 ° 0 min 0,000 mm 1,7 UV-I 214 W/m² 15,9 °C 17,2 °C 1,6 km/h (1 Bft)
02.06.2017 16:27 17,2 °C 17,2 °C 93 % 1015,0 hPa 0,0 mm 0,0 km/h (0 Bft) W-SW 244 ° 0 min 0,000 mm 1,7 UV-I 214 W/m² 16,1 °C 17,2 °C 0,0 km/h (0 Bft)
02.06.2017 16:28 17,2 °C 17,2 °C 93 % 1014,9 hPa 0,0 mm 0,0 km/h (0 Bft) W-SW 244 ° 0 min 0,000 mm 1,7 UV-I 216 W/m² 16,1 °C 17,2 °C 0,0 km/h (0 Bft)
02.06.2017 16:29 17,2 °C 17,3 °C 93 % 1015,0 hPa 0,0 mm 0,9 km/h (0 Bft) W-SW 244 ° 0 min 0,000 mm 1,7 UV-I 218 W/m² 16,1 °C 17,2 °C 1,6 km/h (1 Bft)
02.06.2017 16:30 17,3 °C 17,3 °C 93 % 1014,9 hPa 0,0 mm 0,2 km/h (0 Bft) W-SW 244 ° 0 min 0,000 mm 1,7 UV-I 220 W/m² 16,2 °C 17,3 °C 1,6 km/h (1 Bft)
02.06.2017 16:31 17,3 °C 17,3 °C 93 % 1014,9 hPa 0,0 mm 0,0 km/h (0 Bft) W-SW 244 ° 0 min 0,000 mm 1,7 UV-I 221 W/m² 16,2 °C 17,3 °C 0,0 km/h (0 Bft)
02.06.2017 16:32 17,3 °C 17,3 °C 93 % 1014,9 hPa 0,0 mm 0,0 km/h (0 Bft) W-SW 244 ° 0 min 0,000 mm 1,7 UV-I 221 W/m² 16,2 °C 17,3 °C 0,0 km/h (0 Bft)
02.06.2017 16:33 17,3 °C 17,3 °C 93 % 1014,8 hPa 0,0 mm 0,0 km/h (0 Bft) W-SW 244 ° 0 min 0,000 mm 1,7 UV-I 223 W/m² 16,2 °C 17,3 °C 0,0 km/h (0 Bft)
02.06.2017 16:34 17,3 °C 17,3 °C 93 % 1014,9 hPa 0,0 mm 0,0 km/h (0 Bft) W-SW 244 ° 0 min 0,000 mm 1,7 UV-I 225 W/m² 16,2 °C 17,3 °C 0,0 km/h (0 Bft)
02.06.2017 16:35 17,3 °C 17,3 °C 92 % 1014,9 hPa 0,0 mm 0,0 km/h (0 Bft) W-SW 244 ° 0 min 0,000 mm 1,7 UV-I 227 W/m² 16,0 °C 17,3 °C 0,0 km/h (0 Bft)
02.06.2017 16:36 17,3 °C 17,3 °C 93 % 1014,9 hPa 0,0 mm 0,0 km/h (0 Bft) W-SW 244 ° 0 min 0,000 mm 1,7 UV-I 229 W/m² 16,2 °C 17,3 °C 0,0 km/h (0 Bft)
02.06.2017 16:37 17,4 °C 17,4 °C 93 % 1014,9 hPa 0,0 mm 0,0 km/h (0 Bft) W-SW 244 ° 0 min 0,000 mm 1,8 UV-I 230 W/m² 16,3 °C 17,4 °C 0,0 km/h (0 Bft)
02.06.2017 16:38 17,4 °C 17,4 °C 93 % 1014,9 hPa 0,0 mm 0,0 km/h (0 Bft) W-SW 244 ° 0 min 0,000 mm 1,8 UV-I 232 W/m² 16,3 °C 17,4 °C 0,0 km/h (0 Bft)
02.06.2017 16:39 17,5 °C 17,5 °C 93 % 1014,9 hPa 0,0 mm 0,0 km/h (0 Bft) W-SW 244 ° 0 min 0,000 mm 1,8 UV-I 232 W/m² 16,4 °C 17,5 °C 0,0 km/h (0 Bft)
02.06.2017 16:40 17,6 °C 17,6 °C 93 % 1014,9 hPa 0,0 mm 0,0 km/h (0 Bft) W-SW 244 ° 0 min 0,000 mm 1,8 UV-I 234 W/m² 16,5 °C 17,6 °C 0,0 km/h (0 Bft)
02.06.2017 16:41 17,8 °C 17,8 °C 93 % 1014,9 hPa 0,0 mm 0,0 km/h (0 Bft) W-SW 244 ° 0 min 0,000 mm 1,8 UV-I 236 W/m² 16,7 °C 17,8 °C 0,0 km/h (0 Bft)
02.06.2017 16:42 18,0 °C 18,0 °C 93 % 1014,9 hPa 0,0 mm 3,4 km/h (1 Bft) W 276 ° 0 min 0,000 mm 1,8 UV-I 237 W/m² 16,8 °C 18,0 °C 4,8 km/h (1 Bft)
02.06.2017 16:43 18,1 °C 18,1 °C 92 % 1014,9 hPa 0,0 mm 2,1 km/h (1 Bft) W 276 ° 0 min 0,000 mm 1,9 UV-I 239 W/m² 16,8 °C 18,1 °C 3,2 km/h (1 Bft)
02.06.2017 16:44 18,2 °C 18,2 °C 91 % 1015,0 hPa 0,0 mm 3,0 km/h (1 Bft) W-SW 252 ° 0 min 0,000 mm 1,9 UV-I 241 W/m² 16,7 °C 18,2 °C 4,8 km/h (1 Bft)
02.06.2017 16:45 18,2 °C 18,2 °C 91 % 1014,9 hPa 0,0 mm 1,8 km/h (1 Bft) W-SW 252 ° 0 min 0,000 mm 1,9 UV-I 241 W/m² 16,7 °C 18,2 °C 3,2 km/h (1 Bft)
02.06.2017 16:46 18,3 °C 18,3 °C 91 % 1015,0 hPa 0,0 mm 1,2 km/h (1 Bft) W 268 ° 0 min 0,000 mm 1,9 UV-I 243 W/m² 16,8 °C 18,3 °C 3,2 km/h (1 Bft)
02.06.2017 16:47 18,4 °C 18,4 °C 90 % 1015,0 hPa 0,0 mm 1,0 km/h (0 Bft) W 268 ° 0 min 0,000 mm 1,9 UV-I 243 W/m² 16,7 °C 18,4 °C 1,6 km/h (1 Bft)
02.06.2017 16:48 18,4 °C 18,4 °C 90 % 1014,9 hPa 0,0 mm 1,5 km/h (1 Bft) W 272 ° 0 min 0,000 mm 1,9 UV-I 244 W/m² 16,7 °C 18,4 °C 3,2 km/h (1 Bft)
02.06.2017 16:49 18,4 °C 18,4 °C 90 % 1014,9 hPa 0,0 mm 2,1 km/h (1 Bft) W 272 ° 0 min 0,000 mm 1,9 UV-I 244 W/m² 16,7 °C 18,4 °C 3,2 km/h (1 Bft)
02.06.2017 16:50 18,5 °C 18,5 °C 90 % 1014,9 hPa 0,0 mm 1,1 km/h (1 Bft) W 272 ° 0 min 0,000 mm 1,9 UV-I 244 W/m² 16,8 °C 18,5 °C 3,2 km/h (1 Bft)
02.06.2017 16:51 18,6 °C 18,6 °C 91 % 1015,0 hPa 0,0 mm 0,2 km/h (0 Bft) W 272 ° 0 min 0,000 mm 2,0 UV-I 244 W/m² 17,1 °C 18,6 °C 1,6 km/h (1 Bft)
02.06.2017 16:52 18,6 °C 18,6 °C 91 % 1014,9 hPa 0,0 mm 0,0 km/h (0 Bft) W 272 ° 0 min 0,000 mm 2,0 UV-I 244 W/m² 17,1 °C 18,6 °C 0,0 km/h (0 Bft)
02.06.2017 16:53 18,4 °C 18,6 °C 91 % 1014,9 hPa 0,0 mm 0,0 km/h (0 Bft) W 272 ° 0 min 0,000 mm 2,0 UV-I 243 W/m² 16,9 °C 18,4 °C 0,0 km/h (0 Bft)
02.06.2017 16:54 18,5 °C 18,5 °C 91 % 1014,9 hPa 0,0 mm 0,0 km/h (0 Bft) W 272 ° 0 min 0,000 mm 2,0 UV-I 241 W/m² 17,0 °C 18,5 °C 0,0 km/h (0 Bft)
02.06.2017 16:55 18,4 °C 18,5 °C 92 % 1014,9 hPa 0,0 mm 0,0 km/h (0 Bft) W 272 ° 0 min 0,000 mm 2,0 UV-I 241 W/m² 17,1 °C 18,4 °C 0,0 km/h (0 Bft)
02.06.2017 16:56 18,4 °C 18,4 °C 92 % 1014,9 hPa 0,0 mm 0,0 km/h (0 Bft) W 272 ° 0 min 0,000 mm 2,0 UV-I 237 W/m² 17,1 °C 18,4 °C 0,0 km/h (0 Bft)
02.06.2017 16:57 18,3 °C 18,4 °C 92 % 1014,9 hPa 0,0 mm 0,0 km/h (0 Bft) W 272 ° 0 min 0,000 mm 2,0 UV-I 236 W/m² 17,0 °C 18,3 °C 0,0 km/h (0 Bft)
02.06.2017 16:58 18,4 °C 18,4 °C 92 % 1014,9 hPa 0,0 mm 0,3 km/h (0 Bft) W 272 ° 0 min 0,000 mm 2,0 UV-I 234 W/m² 17,1 °C 18,4 °C 1,6 km/h (1 Bft)
02.06.2017 16:59 18,4 °C 18,4 °C 92 % 1014,9 hPa 0,0 mm 0,0 km/h (0 Bft) W 272 ° 0 min 0,000 mm 2,0 UV-I 227 W/m² 17,1 °C 18,4 °C 0,0 km/h (0 Bft)
02.06.2017 17:00 18,4 °C 18,4 °C 91 % 1014,9 hPa 0,0 mm 0,0 km/h (0 Bft) W 272 ° 0 min 0,000 mm 2,0 UV-I 223 W/m² 16,9 °C 18,4 °C 0,0 km/h (0 Bft)
02.06.2017 17:01 18,4 °C 18,4 °C 90 % 1014,9 hPa 0,0 mm 0,0 km/h (0 Bft) W 272 ° 0 min 0,127 mm 2,0 UV-I 220 W/m² 16,7 °C 18,4 °C 0,0 km/h (0 Bft)
02.06.2017 17:02 18,4 °C 18,4 °C 91 % 1014,9 hPa 0,0 mm 0,0 km/h (0 Bft) W 272 ° 0 min 0,000 mm 2,0 UV-I 216 W/m² 16,9 °C 18,4 °C 0,0 km/h (0 Bft)
02.06.2017 17:03 18,4 °C 18,5 °C 91 % 1014,9 hPa 0,0 mm 0,0 km/h (0 Bft) W 272 ° 0 min 0,000 mm 2,0 UV-I 213 W/m² 16,9 °C 18,4 °C 0,0 km/h (0 Bft)
02.06.2017 17:04 18,4 °C 18,5 °C 90 % 1014,9 hPa 0,0 mm 0,0 km/h (0 Bft) W 272 ° 0 min 0,000 mm 2,0 UV-I 209 W/m² 16,7 °C 18,4 °C 0,0 km/h (0 Bft)
02.06.2017 17:05 18,4 °C 18,4 °C 91 % 1014,9 hPa 0,0 mm 0,0 km/h (0 Bft) W 272 ° 0 min 0,000 mm 2,0 UV-I 200 W/m² 16,9 °C 18,4 °C 0,0 km/h (0 Bft)
02.06.2017 17:06 18,4 °C 18,4 °C 90 % 1014,9 hPa 0,0 mm 0,1 km/h (0 Bft) W 272 ° 0 min 0,000 mm 1,9 UV-I 195 W/m² 16,7 °C 18,4 °C 1,6 km/h (1 Bft)
02.06.2017 17:07 18,5 °C 18,5 °C 90 % 1014,9 hPa 0,0 mm 1,0 km/h (0 Bft) W 272 ° 0 min 0,000 mm 1,9 UV-I 192 W/m² 16,8 °C 18,5 °C 1,6 km/h (1 Bft)
02.06.2017 17:08 18,6 °C 18,6 °C 88 % 1014,9 hPa 0,0 mm 0,0 km/h (0 Bft) W 272 ° 0 min 0,000 mm 1,9 UV-I 186 W/m² 16,6 °C 18,6 °C 0,0 km/h (0 Bft)
02.06.2017 17:09 18,7 °C 18,7 °C 90 % 1014,9 hPa 0,0 mm 0,0 km/h (0 Bft) W 272 ° 0 min 0,000 mm 1,9 UV-I 181 W/m² 17,0 °C 18,7 °C 0,0 km/h (0 Bft)
02.06.2017 17:10 18,6 °C 18,7 °C 89 % 1014,8 hPa 0,0 mm 0,0 km/h (0 Bft) W 272 ° 0 min 0,000 mm 1,9 UV-I 178 W/m² 16,7 °C 18,6 °C 0,0 km/h (0 Bft)
02.06.2017 17:11 18,6 °C 18,6 °C 88 % 1014,9 hPa 0,0 mm 0,0 km/h (0 Bft) W 272 ° 0 min 0,000 mm 1,9 UV-I 169 W/m² 16,6 °C 18,6 °C 0,0 km/h (0 Bft)
02.06.2017 17:12 18,6 °C 18,6 °C 89 % 1014,8 hPa 0,0 mm 0,0 km/h (0 Bft) W 272 ° 0 min 0,000 mm 1,8 UV-I 163 W/m² 16,7 °C 18,6 °C 0,0 km/h (0 Bft)
02.06.2017 17:13 18,7 °C 18,7 °C 87 % 1014,8 hPa 0,0 mm 0,0 km/h (0 Bft) W 272 ° 0 min 0,000 mm 1,8 UV-I 158 W/m² 16,5 °C 18,7 °C 0,0 km/h (0 Bft)
02.06.2017 17:14 18,7 °C 18,7 °C 89 % 1014,8 hPa 0,0 mm 1,9 km/h (1 Bft) S 186 ° 0 min 0,000 mm 1,8 UV-I 155 W/m² 16,8 °C 18,7 °C 3,2 km/h (1 Bft)
02.06.2017 17:15 18,7 °C 18,7 °C 90 % 1014,8 hPa 0,0 mm 2,4 km/h (1 Bft) SO 130 ° 0 min 0,000 mm 1,8 UV-I 149 W/m² 17,0 °C 18,7 °C 4,8 km/h (1 Bft)
02.06.2017 17:16 18,7 °C 18,7 °C 91 % 1014,8 hPa 0,0 mm 2,7 km/h (1 Bft) O 92 ° 0 min 0,000 mm 1,7 UV-I 146 W/m² 17,2 °C 18,7 °C 4,8 km/h (1 Bft)
02.06.2017 17:17 18,7 °C 18,7 °C 90 % 1014,8 hPa 0,0 mm 2,6 km/h (1 Bft) O 92 ° 0 min 0,000 mm 1,7 UV-I 135 W/m² 17,0 °C 18,7 °C 3,2 km/h (1 Bft)
02.06.2017 17:18 18,7 °C 18,7 °C 91 % 1014,8 hPa 0,0 mm 1,5 km/h (1 Bft) O-SO 109 ° 0 min 0,000 mm 1,7 UV-I 132 W/m² 17,2 °C 18,7 °C 4,8 km/h (1 Bft)
02.06.2017 17:19 18,6 °C 18,7 °C 90 % 1014,7 hPa 0,0 mm 1,9 km/h (1 Bft) O-SO 115 ° 0 min 0,000 mm 1,6 UV-I 130 W/m² 16,9 °C 18,6 °C 4,8 km/h (1 Bft)
02.06.2017 17:20 18,6 °C 18,7 °C 89 % 1014,8 hPa 0,0 mm 2,4 km/h (1 Bft) O 92 ° 0 min 0,000 mm 1,6 UV-I 127 W/m² 16,7 °C 18,6 °C 3,2 km/h (1 Bft)
02.06.2017 17:21 18,6 °C 18,7 °C 89 % 1014,7 hPa 0,0 mm 0,1 km/h (0 Bft) O 92 ° 0 min 0,000 mm 1,6 UV-I 123 W/m² 16,7 °C 18,6 °C 1,6 km/h (1 Bft)
02.06.2017 17:22 18,7 °C 18,7 °C 88 % 1014,8 hPa 0,0 mm 0,0 km/h (0 Bft) O 92 ° 0 min 0,000 mm 1,5 UV-I 118 W/m² 16,7 °C 18,7 °C 0,0 km/h (0 Bft)
02.06.2017 17:23 18,8 °C 18,8 °C 88 % 1014,7 hPa 0,0 mm 0,7 km/h (0 Bft) O 92 ° 0 min 0,000 mm 1,5 UV-I 107 W/m² 16,8 °C 18,8 °C 1,6 km/h (1 Bft)
02.06.2017 17:24 18,8 °C 18,8 °C 88 % 1014,7 hPa 0,0 mm 0,5 km/h (0 Bft) O 92 ° 0 min 0,000 mm 1,5 UV-I 102 W/m² 16,8 °C 18,8 °C 1,6 km/h (1 Bft)
02.06.2017 17:25 18,8 °C 18,8 °C 87 % 1014,7 hPa 0,0 mm 0,0 km/h (0 Bft) O 92 ° 0 min 0,000 mm 1,4 UV-I 102 W/m² 16,6 °C 18,8 °C 0,0 km/h (0 Bft)
02.06.2017 17:26 18,8 °C 18,8 °C 88 % 1014,7 hPa 0,0 mm 0,0 km/h (0 Bft) O 92 ° 0 min 0,000 mm 1,4 UV-I 95 W/m² 16,8 °C 18,8 °C 0,0 km/h (0 Bft)
02.06.2017 17:27 18,8 °C 18,8 °C 89 % 1014,7 hPa 0,0 mm 0,0 km/h (0 Bft) O 92 ° 0 min 0,000 mm 1,4 UV-I 93 W/m² 16,9 °C 18,8 °C 0,0 km/h (0 Bft)
02.06.2017 17:28 18,7 °C 18,8 °C 89 % 1014,7 hPa 0,0 mm 0,0 km/h (0 Bft) O 92 ° 0 min 0,000 mm 1,4 UV-I 91 W/m² 16,8 °C 18,7 °C 0,0 km/h (0 Bft)
02.06.2017 17:29 18,7 °C 18,7 °C 89 % 1014,7 hPa 0,0 mm 0,0 km/h (0 Bft) O 92 ° 0 min 0,000 mm 1,4 UV-I 90 W/m² 16,8 °C 18,7 °C 0,0 km/h (0 Bft)
02.06.2017 17:30 18,6 °C 18,7 °C 89 % 1014,7 hPa 0,0 mm 0,0 km/h (0 Bft) O 92 ° 0 min 0,000 mm 1,4 UV-I 90 W/m² 16,7 °C 18,6 °C 0,0 km/h (0 Bft)
02.06.2017 17:31 18,5 °C 18,6 °C 89 % 1014,8 hPa 0,0 mm 0,0 km/h (0 Bft) O 92 ° 0 min 0,000 mm 1,4 UV-I 90 W/m² 16,7 °C 18,5 °C 0,0 km/h (0 Bft)
02.06.2017 17:32 18,4 °C 18,5 °C 90 % 1014,7 hPa 0,0 mm 0,0 km/h (0 Bft) O 92 ° 0 min 0,000 mm 1,4 UV-I 90 W/m² 16,7 °C 18,4 °C 0,0 km/h (0 Bft)
02.06.2017 17:33 18,4 °C 18,4 °C 89 % 1014,7 hPa 0,0 mm 0,0 km/h (0 Bft) O 92 ° 0 min 0,000 mm 1,4 UV-I 90 W/m² 16,6 °C 18,4 °C 0,0 km/h (0 Bft)
02.06.2017 17:34 18,4 °C 18,4 °C 88 % 1014,7 hPa 0,0 mm 0,0 km/h (0 Bft) O 92 ° 0 min 0,000 mm 1,4 UV-I 90 W/m² 16,4 °C 18,4 °C 0,0 km/h (0 Bft)
02.06.2017 17:35 18,5 °C 18,5 °C 89 % 1014,8 hPa 0,0 mm 0,0 km/h (0 Bft) O 92 ° 0 min 0,000 mm 1,4 UV-I 86 W/m² 16,7 °C 18,5 °C 0,0 km/h (0 Bft)
02.06.2017 17:36 18,5 °C 18,5 °C 89 % 1014,7 hPa 0,0 mm 0,0 km/h (0 Bft) O 92 ° 0 min 0,000 mm 1,4 UV-I 86 W/m² 16,7 °C 18,5 °C 0,0 km/h (0 Bft)
02.06.2017 17:37 18,5 °C 18,5 °C 89 % 1014,7 hPa 0,0 mm 0,0 km/h (0 Bft) O 92 ° 0 min 0,000 mm 1,4 UV-I 84 W/m² 16,7 °C 18,5 °C 0,0 km/h (0 Bft)
02.06.2017 17:38 18,5 °C 18,5 °C 89 % 1014,7 hPa 0,0 mm 0,0 km/h (0 Bft) O 92 ° 0 min 0,000 mm 1,4 UV-I 83 W/m² 16,7 °C 18,5 °C 0,0 km/h (0 Bft)
02.06.2017 17:39 18,4 °C 18,5 °C 89 % 1014,7 hPa 0,0 mm 0,0 km/h (0 Bft) O 92 ° 0 min 0,000 mm 1,4 UV-I 83 W/m² 16,6 °C 18,4 °C 0,0 km/h (0 Bft)
02.06.2017 17:40 18,4 °C 18,4 °C 89 % 1014,7 hPa 0,0 mm 0,0 km/h (0 Bft) O 92 ° 0 min 0,000 mm 1,4 UV-I 81 W/m² 16,6 °C 18,4 °C 0,0 km/h (0 Bft)
02.06.2017 17:41 18,4 °C 18,4 °C 90 % 1014,7 hPa 0,0 mm 0,0 km/h (0 Bft) O 92 ° 0 min 0,000 mm 1,4 UV-I 79 W/m² 16,7 °C 18,4 °C 0,0 km/h (0 Bft)
02.06.2017 17:42 18,4 °C 18,4 °C 90 % 1014,7 hPa 0,0 mm 0,0 km/h (0 Bft) O 92 ° 0 min 0,000 mm 1,4 UV-I 77 W/m² 16,7 °C 18,4 °C 0,0 km/h (0 Bft)
02.06.2017 17:43 18,4 °C 18,4 °C 90 % 1014,7 hPa 0,0 mm 0,0 km/h (0 Bft) O 92 ° 0 min 0,000 mm 1,4 UV-I 77 W/m² 16,7 °C 18,4 °C 0,0 km/h (0 Bft)
02.06.2017 17:44 18,4 °C 18,4 °C 90 % 1014,7 hPa 0,0 mm 0,0 km/h (0 Bft) O 92 ° 0 min 0,000 mm 1,4 UV-I 77 W/m² 16,7 °C 18,4 °C 0,0 km/h (0 Bft)
02.06.2017 17:45 18,4 °C 18,4 °C 90 % 1014,7 hPa 0,0 mm 0,0 km/h (0 Bft) O 92 ° 0 min 0,000 mm 1,4 UV-I 77 W/m² 16,7 °C 18,4 °C 0,0 km/h (0 Bft)
02.06.2017 17:46 18,4 °C 18,4 °C 90 % 1014,7 hPa 0,0 mm 0,0 km/h (0 Bft) O 92 ° 0 min 0,000 mm 1,3 UV-I 77 W/m² 16,7 °C 18,4 °C 0,0 km/h (0 Bft)
02.06.2017 17:47 18,4 °C 18,4 °C 90 % 1014,7 hPa 0,0 mm 0,0 km/h (0 Bft) O 92 ° 0 min 0,000 mm 1,3 UV-I 76 W/m² 16,7 °C 18,4 °C 0,0 km/h (0 Bft)
02.06.2017 17:48 18,4 °C 18,4 °C 91 % 1014,6 hPa 0,0 mm 0,0 km/h (0 Bft) O 92 ° 0 min 0,000 mm 1,3 UV-I 74 W/m² 16,9 °C 18,4 °C 0,0 km/h (0 Bft)
02.06.2017 17:49 18,4 °C 18,4 °C 91 % 1014,6 hPa 0,0 mm 0,0 km/h (0 Bft) O 92 ° 0 min 0,000 mm 1,3 UV-I 74 W/m² 16,9 °C 18,4 °C 0,0 km/h (0 Bft)
02.06.2017 17:50 18,3 °C 18,4 °C 90 % 1014,6 hPa 0,0 mm 0,0 km/h (0 Bft) O 92 ° 0 min 0,000 mm 1,3 UV-I 74 W/m² 16,6 °C 18,3 °C 0,0 km/h (0 Bft)
02.06.2017 17:51 18,3 °C 18,3 °C 90 % 1014,6 hPa 0,0 mm 0,0 km/h (0 Bft) O 92 ° 0 min 0,000 mm 1,3 UV-I 77 W/m² 16,6 °C 18,3 °C 0,0 km/h (0 Bft)
02.06.2017 17:52 18,3 °C 18,3 °C 91 % 1014,6 hPa 0,0 mm 0,0 km/h (0 Bft) O 92 ° 0 min 0,000 mm 1,3 UV-I 83 W/m² 16,8 °C 18,3 °C 0,0 km/h (0 Bft)
02.06.2017 17:53 18,3 °C 18,3 °C 91 % 1014,5 hPa 0,0 mm 0,0 km/h (0 Bft) O 92 ° 0 min 0,000 mm 1,3 UV-I 86 W/m² 16,8 °C 18,3 °C 0,0 km/h (0 Bft)
02.06.2017 17:54 18,3 °C 18,3 °C 91 % 1014,6 hPa 0,0 mm 0,0 km/h (0 Bft) O 92 ° 0 min 0,000 mm 1,3 UV-I 90 W/m² 16,8 °C 18,3 °C 0,0 km/h (0 Bft)
02.06.2017 17:55 18,3 °C 18,3 °C 89 % 1014,5 hPa 0,0 mm 0,0 km/h (0 Bft) O 92 ° 0 min 0,000 mm 1,3 UV-I 91 W/m² 16,5 °C 18,3 °C 0,0 km/h (0 Bft)
02.06.2017 17:56 18,3 °C 18,3 °C 89 % 1014,5 hPa 0,0 mm 0,0 km/h (0 Bft) O 92 ° 0 min 0,000 mm 1,3 UV-I 95 W/m² 16,5 °C 18,3 °C 0,0 km/h (0 Bft)
02.06.2017 17:57 18,4 °C 18,4 °C 89 % 1014,5 hPa 0,0 mm 0,0 km/h (0 Bft) O 92 ° 0 min 0,000 mm 1,3 UV-I 98 W/m² 16,6 °C 18,4 °C 0,0 km/h (0 Bft)
02.06.2017 17:58 18,4 °C 18,4 °C 88 % 1014,6 hPa 0,0 mm 0,0 km/h (0 Bft) O 92 ° 0 min 0,000 mm 1,3 UV-I 102 W/m² 16,4 °C 18,4 °C 0,0 km/h (0 Bft)
02.06.2017 17:59 18,5 °C 18,5 °C 88 % 1014,5 hPa 0,0 mm 0,0 km/h (0 Bft) O 92 ° 0 min 0,000 mm 1,3 UV-I 105 W/m² 16,5 °C 18,5 °C 0,0 km/h (0 Bft)
02.06.2017 18:00 18,6 °C 18,6 °C 87 % 1014,4 hPa 0,0 mm 0,0 km/h (0 Bft) O 92 ° 0 min 0,000 mm 1,3 UV-I 113 W/m² 16,4 °C 18,6 °C 0,0 km/h (0 Bft)
02.06.2017 18:01 18,7 °C 18,7 °C 86 % 1014,5 hPa 0,0 mm 0,0 km/h (0 Bft) O 92 ° 0 min 0,076 mm 1,3 UV-I 118 W/m² 16,3 °C 18,7 °C 0,0 km/h (0 Bft)
02.06.2017 18:02 18,8 °C 18,8 °C 87 % 1014,4 hPa 0,0 mm 0,0 km/h (0 Bft) O 92 ° 0 min 0,000 mm 1,3 UV-I 120 W/m² 16,6 °C 18,8 °C 0,0 km/h (0 Bft)
02.06.2017 18:03 18,8 °C 18,8 °C 87 % 1014,5 hPa 0,0 mm 0,0 km/h (0 Bft) O 92 ° 0 min 0,000 mm 1,4 UV-I 127 W/m² 16,6 °C 18,8 °C 0,0 km/h (0 Bft)
02.06.2017 18:04 18,9 °C 18,9 °C 84 % 1014,4 hPa 0,0 mm 0,0 km/h (0 Bft) O 92 ° 0 min 0,000 mm 1,4 UV-I 128 W/m² 16,1 °C 18,9 °C 0,0 km/h (0 Bft)
02.06.2017 18:05 18,9 °C 18,9 °C 85 % 1014,5 hPa 0,0 mm 0,0 km/h (0 Bft) O 92 ° 0 min 0,000 mm 1,4 UV-I 128 W/m² 16,3 °C 18,9 °C 0,0 km/h (0 Bft)
02.06.2017 18:06 19,1 °C 19,1 °C 83 % 1014,4 hPa 0,0 mm 0,0 km/h (0 Bft) O 92 ° 0 min 0,000 mm 1,4 UV-I 128 W/m² 16,1 °C 19,1 °C 0,0 km/h (0 Bft)
02.06.2017 18:07 19,1 °C 19,1 °C 83 % 1014,4 hPa 0,0 mm 0,0 km/h (0 Bft) O 92 ° 0 min 0,000 mm 1,4 UV-I 123 W/m² 16,1 °C 19,1 °C 0,0 km/h (0 Bft)
02.06.2017 18:08 19,2 °C 19,2 °C 82 % 1014,4 hPa 0,0 mm 0,0 km/h (0 Bft) O 92 ° 0 min 0,000 mm 1,4 UV-I 139 W/m² 16,0 °C 19,2 °C 0,0 km/h (0 Bft)
02.06.2017 18:09 19,2 °C 19,2 °C 83 % 1014,5 hPa 0,0 mm 0,0 km/h (0 Bft) O 92 ° 0 min 0,000 mm 1,4 UV-I 132 W/m² 16,2 °C 19,2 °C 0,0 km/h (0 Bft)
02.06.2017 18:10 19,3 °C 19,3 °C 84 % 1014,5 hPa 0,0 mm 0,0 km/h (0 Bft) O 92 ° 0 min 0,000 mm 1,3 UV-I 118 W/m² 16,5 °C 19,3 °C 0,0 km/h (0 Bft)
02.06.2017 18:11 19,2 °C 19,3 °C 85 % 1014,4 hPa 0,0 mm 0,0 km/h (0 Bft) O 92 ° 0 min 0,000 mm 1,3 UV-I 118 W/m² 16,6 °C 19,2 °C 0,0 km/h (0 Bft)
02.06.2017 18:12 19,2 °C 19,2 °C 84 % 1014,4 hPa 0,0 mm 0,0 km/h (0 Bft) O 92 ° 0 min 0,000 mm 1,3 UV-I 114 W/m² 16,4 °C 19,2 °C 0,0 km/h (0 Bft)
02.06.2017 18:13 19,2 °C 19,2 °C 81 % 1014,4 hPa 0,0 mm 0,0 km/h (0 Bft) O 92 ° 0 min 0,000 mm 1,3 UV-I 111 W/m² 15,9 °C 19,2 °C 0,0 km/h (0 Bft)
02.06.2017 18:14 19,3 °C 19,3 °C 83 % 1014,5 hPa 0,0 mm 0,0 km/h (0 Bft) O 92 ° 0 min 0,000 mm 1,2 UV-I 107 W/m² 16,3 °C 19,3 °C 0,0 km/h (0 Bft)
02.06.2017 18:15 19,3 °C 19,3 °C 86 % 1014,5 hPa 0,0 mm 0,0 km/h (0 Bft) O 92 ° 0 min 0,000 mm 1,2 UV-I 104 W/m² 16,9 °C 19,3 °C 0,0 km/h (0 Bft)
02.06.2017 18:16 19,3 °C 19,3 °C 84 % 1014,4 hPa 0,0 mm 0,0 km/h (0 Bft) O 92 ° 0 min 0,000 mm 1,2 UV-I 105 W/m² 16,5 °C 19,3 °C 0,0 km/h (0 Bft)
02.06.2017 18:17 19,3 °C 19,3 °C 84 % 1014,5 hPa 0,0 mm 0,0 km/h (0 Bft) O 92 ° 0 min 0,000 mm 1,2 UV-I 111 W/m² 16,5 °C 19,3 °C 0,0 km/h (0 Bft)
02.06.2017 18:18 19,3 °C 19,3 °C 83 % 1014,4 hPa 0,0 mm 0,0 km/h (0 Bft) O 92 ° 0 min 0,000 mm 1,2 UV-I 113 W/m² 16,3 °C 19,3 °C 0,0 km/h (0 Bft)
02.06.2017 18:20 19,3 °C 19,4 °C 85 % 1014,5 hPa 0,0 mm 0,0 km/h (0 Bft) O 92 ° 0 min 0,000 mm 1,2 UV-I 118 W/m² 16,7 °C 19,3 °C 0,0 km/h (0 Bft)
02.06.2017 18:21 19,3 °C 19,3 °C 86 % 1014,5 hPa 0,0 mm 0,0 km/h (0 Bft) O 92 ° 0 min 0,000 mm 1,1 UV-I 109 W/m² 16,9 °C 19,3 °C 0,0 km/h (0 Bft)
02.06.2017 18:22 19,2 °C 19,3 °C 86 % 1014,5 hPa 0,0 mm 0,0 km/h (0 Bft) O 92 ° 0 min 0,000 mm 1,1 UV-I 105 W/m² 16,8 °C 19,2 °C 0,0 km/h (0 Bft)
02.06.2017 18:23 19,2 °C 19,2 °C 86 % 1014,5 hPa 0,0 mm 0,3 km/h (0 Bft) O 92 ° 0 min 0,000 mm 1,1 UV-I 105 W/m² 16,8 °C 19,2 °C 3,2 km/h (1 Bft)
02.06.2017 18:24 19,1 °C 19,2 °C 87 % 1014,5 hPa 0,0 mm 2,1 km/h (1 Bft) W-SW 249 ° 0 min 0,000 mm 1,1 UV-I 105 W/m² 16,9 °C 19,1 °C 4,8 km/h (1 Bft)
02.06.2017 18:25 19,1 °C 19,1 °C 88 % 1014,5 hPa 0,0 mm 2,5 km/h (1 Bft) W-SW 251 ° 0 min 0,000 mm 1,1 UV-I 105 W/m² 17,1 °C 19,1 °C 4,8 km/h (1 Bft)
02.06.2017 18:26 19,1 °C 19,2 °C 87 % 1014,5 hPa 0,0 mm 1,0 km/h (0 Bft) W-SW 251 ° 0 min 0,000 mm 1,1 UV-I 109 W/m² 16,9 °C 19,1 °C 3,2 km/h (1 Bft)
02.06.2017 18:27 19,2 °C 19,2 °C 87 % 1014,5 hPa 0,0 mm 3,3 km/h (1 Bft) SW 236 ° 0 min 0,000 mm 1,1 UV-I 123 W/m² 17,0 °C 19,2 °C 6,4 km/h (2 Bft)
02.06.2017 18:28 19,2 °C 19,2 °C 87 % 1014,5 hPa 0,0 mm 3,3 km/h (1 Bft) SW 236 ° 0 min 0,000 mm 1,1 UV-I 130 W/m² 17,0 °C 19,2 °C 4,8 km/h (1 Bft)
02.06.2017 18:29 19,2 °C 19,2 °C 87 % 1014,5 hPa 0,0 mm 1,5 km/h (1 Bft) SW 236 ° 0 min 0,000 mm 1,1 UV-I 134 W/m² 17,0 °C 19,2 °C 3,2 km/h (1 Bft)
02.06.2017 18:30 19,2 °C 19,2 °C 86 % 1014,5 hPa 0,0 mm 1,0 km/h (0 Bft) SW 236 ° 0 min 0,000 mm 1,1 UV-I 139 W/m² 16,8 °C 19,2 °C 3,2 km/h (1 Bft)
02.06.2017 18:31 19,2 °C 19,2 °C 83 % 1014,5 hPa 0,0 mm 0,0 km/h (0 Bft) SW 236 ° 0 min 0,000 mm 1,1 UV-I 142 W/m² 16,2 °C 19,2 °C 0,0 km/h (0 Bft)
02.06.2017 18:32 19,2 °C 19,2 °C 85 % 1014,5 hPa 0,0 mm 0,0 km/h (0 Bft) SW 236 ° 0 min 0,000 mm 1,1 UV-I 142 W/m² 16,6 °C 19,2 °C 0,0 km/h (0 Bft)
02.06.2017 18:33 19,2 °C 19,2 °C 84 % 1014,5 hPa 0,0 mm 0,0 km/h (0 Bft) SW 236 ° 0 min 0,000 mm 1,1 UV-I 142 W/m² 16,4 °C 19,2 °C 0,0 km/h (0 Bft)
02.06.2017 18:34 19,1 °C 19,2 °C 83 % 1014,4 hPa 0,0 mm 0,0 km/h (0 Bft) SW 236 ° 0 min 0,000 mm 1,1 UV-I 146 W/m² 16,1 °C 19,1 °C 0,0 km/h (0 Bft)
02.06.2017 18:35 19,0 °C 19,1 °C 85 % 1014,4 hPa 0,0 mm 0,0 km/h (0 Bft) SW 236 ° 0 min 0,000 mm 1,0 UV-I 151 W/m² 16,4 °C 19,0 °C 0,0 km/h (0 Bft)
02.06.2017 18:36 18,9 °C 19,0 °C 84 % 1014,4 hPa 0,0 mm 0,0 km/h (0 Bft) SW 236 ° 0 min 0,000 mm 1,0 UV-I 155 W/m² 16,1 °C 18,9 °C 0,0 km/h (0 Bft)
02.06.2017 18:37 18,8 °C 18,9 °C 84 % 1014,4 hPa 0,0 mm 0,0 km/h (0 Bft) SW 236 ° 0 min 0,000 mm 1,0 UV-I 156 W/m² 16,0 °C 18,8 °C 0,0 km/h (0 Bft)
02.06.2017 18:38 18,7 °C 18,8 °C 83 % 1014,5 hPa 0,0 mm 0,0 km/h (0 Bft) SW 236 ° 0 min 0,000 mm 1,0 UV-I 158 W/m² 15,8 °C 18,7 °C 0,0 km/h (0 Bft)
02.06.2017 18:39 18,6 °C 18,7 °C 84 % 1014,4 hPa 0,0 mm 0,0 km/h (0 Bft) SW 236 ° 0 min 0,000 mm 1,0 UV-I 158 W/m² 15,8 °C 18,6 °C 0,0 km/h (0 Bft)
02.06.2017 18:40 18,6 °C 18,6 °C 83 % 1014,4 hPa 0,0 mm 0,0 km/h (0 Bft) SW 236 ° 0 min 0,000 mm 1,0 UV-I 158 W/m² 15,7 °C 18,6 °C 0,0 km/h (0 Bft)
02.06.2017 18:41 18,5 °C 18,6 °C 85 % 1014,5 hPa 0,0 mm 0,0 km/h (0 Bft) SW 236 ° 0 min 0,000 mm 0,9 UV-I 156 W/m² 15,9 °C 18,5 °C 0,0 km/h (0 Bft)
02.06.2017 18:42 18,4 °C 18,5 °C 86 % 1014,4 hPa 0,0 mm 0,0 km/h (0 Bft) SW 236 ° 0 min 0,000 mm 0,9 UV-I 151 W/m² 16,0 °C 18,4 °C 0,0 km/h (0 Bft)
02.06.2017 18:43 18,4 °C 18,4 °C 85 % 1014,4 hPa 0,0 mm 0,0 km/h (0 Bft) SW 236 ° 0 min 0,000 mm 0,9 UV-I 148 W/m² 15,8 °C 18,4 °C 0,0 km/h (0 Bft)
02.06.2017 18:44 18,4 °C 18,4 °C 85 % 1014,4 hPa 0,0 mm 0,0 km/h (0 Bft) SW 236 ° 0 min 0,000 mm 0,9 UV-I 148 W/m² 15,8 °C 18,4 °C 0,0 km/h (0 Bft)
02.06.2017 18:45 18,4 °C 18,4 °C 85 % 1014,4 hPa 0,0 mm 0,0 km/h (0 Bft) SW 236 ° 0 min 0,000 mm 0,9 UV-I 160 W/m² 15,8 °C 18,4 °C 0,0 km/h (0 Bft)
02.06.2017 18:46 18,4 °C 18,4 °C 87 % 1014,4 hPa 0,0 mm 0,0 km/h (0 Bft) SW 236 ° 0 min 0,000 mm 0,9 UV-I 183 W/m² 16,2 °C 18,4 °C 0,0 km/h (0 Bft)
02.06.2017 18:47 18,4 °C 18,4 °C 86 % 1014,4 hPa 0,0 mm 0,0 km/h (0 Bft) SW 236 ° 0 min 0,000 mm 0,9 UV-I 211 W/m² 16,0 °C 18,4 °C 0,0 km/h (0 Bft)
02.06.2017 18:48 18,6 °C 18,6 °C 87 % 1014,4 hPa 0,0 mm 0,0 km/h (0 Bft) SW 236 ° 0 min 0,000 mm 1,0 UV-I 253 W/m² 16,4 °C 18,6 °C 0,0 km/h (0 Bft)
02.06.2017 18:49 18,6 °C 18,6 °C 88 % 1014,5 hPa 0,0 mm 0,0 km/h (0 Bft) SW 236 ° 0 min 0,000 mm 1,0 UV-I 239 W/m² 16,6 °C 18,6 °C 0,0 km/h (0 Bft)
02.06.2017 18:50 18,7 °C 18,7 °C 87 % 1014,5 hPa 0,0 mm 0,0 km/h (0 Bft) SW 236 ° 0 min 0,000 mm 1,0 UV-I 199 W/m² 16,5 °C 18,7 °C 0,0 km/h (0 Bft)
02.06.2017 18:51 18,8 °C 18,8 °C 89 % 1014,4 hPa 0,0 mm 0,0 km/h (0 Bft) SW 236 ° 0 min 0,000 mm 1,0 UV-I 195 W/m² 16,9 °C 18,8 °C 0,0 km/h (0 Bft)
02.06.2017 18:52 18,9 °C 18,9 °C 88 % 1014,4 hPa 0,0 mm 0,0 km/h (0 Bft) SW 236 ° 0 min 0,000 mm 0,9 UV-I 197 W/m² 16,9 °C 18,9 °C 0,0 km/h (0 Bft)
02.06.2017 18:53 19,1 °C 19,1 °C 83 % 1014,4 hPa 0,0 mm 0,7 km/h (0 Bft) SW 236 ° 0 min 0,000 mm 0,9 UV-I 162 W/m² 16,1 °C 19,1 °C 1,6 km/h (1 Bft)
02.06.2017 18:54 19,2 °C 19,2 °C 80 % 1014,5 hPa 0,0 mm 0,0 km/h (0 Bft) SW 236 ° 0 min 0,000 mm 0,9 UV-I 158 W/m² 15,7 °C 19,2 °C 0,0 km/h (0 Bft)
02.06.2017 18:55 19,3 °C 19,3 °C 77 % 1014,4 hPa 0,0 mm 0,0 km/h (0 Bft) SW 236 ° 0 min 0,000 mm 0,8 UV-I 149 W/m² 15,2 °C 19,3 °C 0,0 km/h (0 Bft)
02.06.2017 18:56 19,4 °C 19,4 °C 75 % 1014,4 hPa 0,0 mm 0,0 km/h (0 Bft) SW 236 ° 0 min 0,000 mm 0,8 UV-I 142 W/m² 14,8 °C 19,4 °C 0,0 km/h (0 Bft)
02.06.2017 18:57 19,5 °C 19,5 °C 75 % 1014,5 hPa 0,0 mm 0,0 km/h (0 Bft) SW 236 ° 0 min 0,000 mm 0,8 UV-I 142 W/m² 14,9 °C 19,5 °C 0,0 km/h (0 Bft)
02.06.2017 18:58 19,6 °C 19,6 °C 76 % 1014,4 hPa 0,0 mm 0,0 km/h (0 Bft) SW 236 ° 0 min 0,000 mm 0,8 UV-I 142 W/m² 15,2 °C 19,6 °C 0,0 km/h (0 Bft)
02.06.2017 18:59 19,6 °C 19,6 °C 77 % 1014,4 hPa 0,0 mm 0,0 km/h (0 Bft) SW 236 ° 0 min 0,000 mm 0,8 UV-I 141 W/m² 15,5 °C 19,6 °C 0,0 km/h (0 Bft)
02.06.2017 19:00 19,6 °C 19,6 °C 80 % 1014,4 hPa 0,0 mm 0,0 km/h (0 Bft) SW 236 ° 0 min 0,000 mm 0,8 UV-I 137 W/m² 16,1 °C 19,6 °C 0,0 km/h (0 Bft)
02.06.2017 19:01 19,6 °C 19,6 °C 79 % 1014,4 hPa 0,0 mm 0,0 km/h (0 Bft) SW 236 ° 0 min 0,076 mm 0,8 UV-I 130 W/m² 15,9 °C 19,6 °C 0,0 km/h (0 Bft)
02.06.2017 19:02 19,5 °C 19,6 °C 80 % 1014,4 hPa 0,0 mm 1,1 km/h (1 Bft) SW 236 ° 0 min 0,000 mm 0,8 UV-I 127 W/m² 16,0 °C 19,5 °C 3,2 km/h (1 Bft)
02.06.2017 19:03 19,4 °C 19,5 °C 81 % 1014,4 hPa 0,0 mm 1,1 km/h (1 Bft) SW 236 ° 0 min 0,000 mm 0,8 UV-I 132 W/m² 16,1 °C 19,4 °C 3,2 km/h (1 Bft)
02.06.2017 19:04 19,4 °C 19,4 °C 82 % 1014,4 hPa 0,0 mm 2,0 km/h (1 Bft) SW 236 ° 0 min 0,000 mm 0,8 UV-I 128 W/m² 16,2 °C 19,4 °C 3,2 km/h (1 Bft)
02.06.2017 19:05 19,3 °C 19,4 °C 82 % 1014,4 hPa 0,0 mm 1,2 km/h (1 Bft) SW 236 ° 0 min 0,000 mm 0,8 UV-I 125 W/m² 16,1 °C 19,3 °C 3,2 km/h (1 Bft)
02.06.2017 19:06 19,3 °C 19,3 °C 83 % 1014,4 hPa 0,0 mm 1,9 km/h (1 Bft) SW 230 ° 0 min 0,000 mm 0,7 UV-I 125 W/m² 16,3 °C 19,3 °C 3,2 km/h (1 Bft)
02.06.2017 19:07 19,3 °C 19,3 °C 83 % 1014,4 hPa 0,0 mm 0,9 km/h (0 Bft) SW 223 ° 0 min 0,000 mm 0,7 UV-I 123 W/m² 16,3 °C 19,3 °C 3,2 km/h (1 Bft)
02.06.2017 19:08 19,3 °C 19,3 °C 84 % 1014,4 hPa 0,0 mm 3,3 km/h (1 Bft) SW 215 ° 0 min 0,000 mm 0,7 UV-I 123 W/m² 16,5 °C 19,3 °C 4,8 km/h (1 Bft)
02.06.2017 19:09 19,3 °C 19,3 °C 83 % 1014,4 hPa 0,0 mm 3,0 km/h (1 Bft) SW 214 ° 0 min 0,000 mm 0,7 UV-I 137 W/m² 16,3 °C 19,3 °C 4,8 km/h (1 Bft)
02.06.2017 19:10 19,3 °C 19,3 °C 84 % 1014,4 hPa 0,0 mm 2,4 km/h (1 Bft) SW 214 ° 0 min 0,000 mm 0,7 UV-I 123 W/m² 16,5 °C 19,3 °C 3,2 km/h (1 Bft)
02.06.2017 19:11 19,3 °C 19,3 °C 84 % 1014,4 hPa 0,0 mm 1,8 km/h (1 Bft) SW 214 ° 0 min 0,000 mm 0,7 UV-I 111 W/m² 16,5 °C 19,3 °C 3,2 km/h (1 Bft)
02.06.2017 19:12 19,3 °C 19,3 °C 83 % 1014,4 hPa 0,0 mm 1,1 km/h (1 Bft) SW 214 ° 0 min 0,000 mm 0,7 UV-I 113 W/m² 16,3 °C 19,3 °C 3,2 km/h (1 Bft)
02.06.2017 19:13 19,3 °C 19,3 °C 82 % 1014,4 hPa 0,0 mm 1,5 km/h (1 Bft) SW 214 ° 0 min 0,000 mm 0,7 UV-I 113 W/m² 16,1 °C 19,3 °C 3,2 km/h (1 Bft)
02.06.2017 19:14 19,2 °C 19,3 °C 84 % 1014,4 hPa 0,0 mm 1,0 km/h (0 Bft) SW 214 ° 0 min 0,000 mm 0,7 UV-I 118 W/m² 16,4 °C 19,2 °C 3,2 km/h (1 Bft)
02.06.2017 19:15 19,2 °C 19,2 °C 85 % 1014,4 hPa 0,0 mm 0,0 km/h (0 Bft) SW 214 ° 0 min 0,000 mm 0,6 UV-I 118 W/m² 16,6 °C 19,2 °C 0,0 km/h (0 Bft)
02.06.2017 19:16 19,1 °C 19,2 °C 85 % 1014,4 hPa 0,0 mm 0,0 km/h (0 Bft) SW 214 ° 0 min 0,000 mm 0,6 UV-I 125 W/m² 16,5 °C 19,1 °C 0,0 km/h (0 Bft)
02.06.2017 19:17 19,1 °C 19,1 °C 86 % 1014,4 hPa 0,0 mm 0,0 km/h (0 Bft) SW 214 ° 0 min 0,000 mm 0,7 UV-I 167 W/m² 16,7 °C 19,1 °C 0,0 km/h (0 Bft)
02.06.2017 19:18 18,9 °C 19,1 °C 86 % 1014,4 hPa 0,0 mm 0,0 km/h (0 Bft) SW 214 ° 0 min 0,000 mm 0,7 UV-I 188 W/m² 16,5 °C 18,9 °C 0,0 km/h (0 Bft)
02.06.2017 19:19 18,8 °C 18,9 °C 86 % 1014,4 hPa 0,0 mm 0,0 km/h (0 Bft) SW 214 ° 0 min 0,000 mm 0,7 UV-I 204 W/m² 16,4 °C 18,8 °C 0,0 km/h (0 Bft)
02.06.2017 19:20 18,8 °C 18,8 °C 86 % 1014,4 hPa 0,0 mm 0,0 km/h (0 Bft) SW 214 ° 0 min 0,000 mm 0,6 UV-I 155 W/m² 16,4 °C 18,8 °C 0,0 km/h (0 Bft)
02.06.2017 19:21 18,8 °C 18,8 °C 85 % 1014,4 hPa 0,0 mm 0,0 km/h (0 Bft) SW 214 ° 0 min 0,000 mm 0,6 UV-I 162 W/m² 16,2 °C 18,8 °C 0,0 km/h (0 Bft)
02.06.2017 19:22 18,8 °C 18,8 °C 87 % 1014,4 hPa 0,0 mm 0,0 km/h (0 Bft) SW 214 ° 0 min 0,000 mm 0,6 UV-I 149 W/m² 16,6 °C 18,8 °C 0,0 km/h (0 Bft)
02.06.2017 19:23 18,8 °C 18,8 °C 86 % 1014,4 hPa 0,0 mm 0,0 km/h (0 Bft) SW 214 ° 0 min 0,000 mm 0,6 UV-I 114 W/m² 16,4 °C 18,8 °C 0,0 km/h (0 Bft)
02.06.2017 19:24 18,8 °C 18,8 °C 85 % 1014,4 hPa 0,0 mm 0,0 km/h (0 Bft) SW 214 ° 0 min 0,000 mm 0,6 UV-I 109 W/m² 16,2 °C 18,8 °C 0,0 km/h (0 Bft)
02.06.2017 19:25 18,8 °C 18,8 °C 85 % 1014,4 hPa 0,0 mm 0,0 km/h (0 Bft) SW 214 ° 0 min 0,000 mm 0,6 UV-I 105 W/m² 16,2 °C 18,8 °C 0,0 km/h (0 Bft)
02.06.2017 19:26 18,8 °C 18,8 °C 84 % 1014,4 hPa 0,0 mm 0,0 km/h (0 Bft) SW 214 ° 0 min 0,000 mm 0,6 UV-I 102 W/m² 16,0 °C 18,8 °C 0,0 km/h (0 Bft)
02.06.2017 19:27 18,8 °C 18,8 °C 84 % 1014,4 hPa 0,0 mm 1,3 km/h (1 Bft) SW 214 ° 0 min 0,000 mm 0,6 UV-I 102 W/m² 16,0 °C 18,8 °C 3,2 km/h (1 Bft)
02.06.2017 19:28 18,8 °C 18,9 °C 84 % 1014,4 hPa 0,0 mm 1,9 km/h (1 Bft) SW 214 ° 0 min 0,000 mm 0,6 UV-I 100 W/m² 16,0 °C 18,8 °C 3,2 km/h (1 Bft)
02.06.2017 19:29 18,8 °C 18,8 °C 83 % 1014,4 hPa 0,0 mm 3,3 km/h (1 Bft) S-SW 213 ° 0 min 0,000 mm 0,6 UV-I 100 W/m² 15,8 °C 18,8 °C 4,8 km/h (1 Bft)
02.06.2017 19:30 18,8 °C 18,8 °C 84 % 1014,4 hPa 0,0 mm 3,0 km/h (1 Bft) S-SW 211 ° 0 min 0,000 mm 0,6 UV-I 98 W/m² 16,0 °C 18,8 °C 4,8 km/h (1 Bft)
02.06.2017 19:31 18,8 °C 18,8 °C 83 % 1014,4 hPa 0,0 mm 3,1 km/h (1 Bft) S-SW 211 ° 0 min 0,000 mm 0,6 UV-I 97 W/m² 15,8 °C 18,8 °C 4,8 km/h (1 Bft)
02.06.2017 19:32 18,8 °C 18,8 °C 84 % 1014,4 hPa 0,0 mm 1,5 km/h (1 Bft) S-SW 211 ° 0 min 0,000 mm 0,6 UV-I 91 W/m² 16,0 °C 18,8 °C 3,2 km/h (1 Bft)
02.06.2017 19:33 18,8 °C 18,8 °C 85 % 1014,4 hPa 0,0 mm 0,9 km/h (0 Bft) S-SW 211 ° 0 min 0,000 mm 0,5 UV-I 90 W/m² 16,2 °C 18,8 °C 3,2 km/h (1 Bft)
02.06.2017 19:34 18,7 °C 18,8 °C 84 % 1014,4 hPa 0,0 mm 2,2 km/h (1 Bft) S-SW 211 ° 0 min 0,000 mm 0,5 UV-I 88 W/m² 15,9 °C 18,7 °C 3,2 km/h (1 Bft)
02.06.2017 19:35 18,7 °C 18,7 °C 84 % 1014,4 hPa 0,0 mm 0,0 km/h (0 Bft) S-SW 211 ° 0 min 0,000 mm 0,5 UV-I 100 W/m² 15,9 °C 18,7 °C 0,0 km/h (0 Bft)
02.06.2017 19:36 18,6 °C 18,7 °C 86 % 1014,4 hPa 0,0 mm 0,0 km/h (0 Bft) S-SW 211 ° 0 min 0,000 mm 0,6 UV-I 155 W/m² 16,2 °C 18,6 °C 0,0 km/h (0 Bft)
02.06.2017 19:37 18,6 °C 18,7 °C 85 % 1014,4 hPa 0,0 mm 2,1 km/h (1 Bft) S-SW 211 ° 0 min 0,000 mm 0,5 UV-I 102 W/m² 16,0 °C 18,6 °C 3,2 km/h (1 Bft)
02.06.2017 19:38 18,6 °C 18,6 °C 85 % 1014,4 hPa 0,0 mm 0,6 km/h (0 Bft) S-SW 211 ° 0 min 0,000 mm 0,5 UV-I 120 W/m² 16,0 °C 18,6 °C 3,2 km/h (1 Bft)
02.06.2017 19:39 18,5 °C 18,6 °C 86 % 1014,4 hPa 0,0 mm 0,0 km/h (0 Bft) S-SW 211 ° 0 min 0,000 mm 0,5 UV-I 127 W/m² 16,1 °C 18,5 °C 0,0 km/h (0 Bft)
02.06.2017 19:40 18,5 °C 18,5 °C 86 % 1014,4 hPa 0,0 mm 0,0 km/h (0 Bft) S-SW 211 ° 0 min 0,000 mm 0,5 UV-I 146 W/m² 16,1 °C 18,5 °C 0,0 km/h (0 Bft)
02.06.2017 19:41 18,4 °C 18,5 °C 86 % 1014,4 hPa 0,0 mm 0,0 km/h (0 Bft) S-SW 211 ° 0 min 0,000 mm 0,5 UV-I 153 W/m² 16,0 °C 18,4 °C 0,0 km/h (0 Bft)
02.06.2017 19:42 18,4 °C 18,4 °C 87 % 1014,4 hPa 0,0 mm 0,0 km/h (0 Bft) S-SW 211 ° 0 min 0,000 mm 0,5 UV-I 153 W/m² 16,2 °C 18,4 °C 0,0 km/h (0 Bft)
02.06.2017 19:43 18,4 °C 18,4 °C 87 % 1014,4 hPa 0,0 mm 0,0 km/h (0 Bft) S-SW 211 ° 0 min 0,000 mm 0,5 UV-I 153 W/m² 16,2 °C 18,4 °C 0,0 km/h (0 Bft)
02.06.2017 19:44 18,3 °C 18,4 °C 87 % 1014,4 hPa 0,0 mm 0,0 km/h (0 Bft) S-SW 211 ° 0 min 0,000 mm 0,5 UV-I 134 W/m² 16,1 °C 18,3 °C 0,0 km/h (0 Bft)
02.06.2017 19:45 18,4 °C 18,4 °C 88 % 1014,4 hPa 0,0 mm 0,0 km/h (0 Bft) S-SW 211 ° 0 min 0,000 mm 0,5 UV-I 135 W/m² 16,4 °C 18,4 °C 0,0 km/h (0 Bft)
02.06.2017 19:46 18,4 °C 18,4 °C 88 % 1014,4 hPa 0,0 mm 0,0 km/h (0 Bft) S-SW 211 ° 0 min 0,000 mm 0,5 UV-I 142 W/m² 16,4 °C 18,4 °C 0,0 km/h (0 Bft)
02.06.2017 19:47 18,4 °C 18,4 °C 88 % 1014,4 hPa 0,0 mm 0,2 km/h (0 Bft) S-SW 211 ° 0 min 0,000 mm 0,5 UV-I 142 W/m² 16,4 °C 18,4 °C 1,6 km/h (1 Bft)
02.06.2017 19:48 18,3 °C 18,4 °C 87 % 1014,4 hPa 0,0 mm 0,1 km/h (0 Bft) S-SW 211 ° 0 min 0,000 mm 0,5 UV-I 134 W/m² 16,1 °C 18,3 °C 1,6 km/h (1 Bft)
02.06.2017 19:49 18,4 °C 18,4 °C 84 % 1014,4 hPa 0,0 mm 0,0 km/h (0 Bft) S-SW 211 ° 0 min 0,000 mm 0,0 UV-I 127 W/m² 15,6 °C 18,4 °C 0,0 km/h (0 Bft)
02.06.2017 19:50 18,4 °C 18,4 °C 87 % 1014,4 hPa 0,0 mm 0,0 km/h (0 Bft) S-SW 211 ° 0 min 0,000 mm 0,0 UV-I 123 W/m² 16,2 °C 18,4 °C 0,0 km/h (0 Bft)
02.06.2017 19:51 18,4 °C 18,4 °C 86 % 1014,4 hPa 0,0 mm 0,0 km/h (0 Bft) S-SW 211 ° 0 min 0,000 mm 0,0 UV-I 120 W/m² 16,0 °C 18,4 °C 0,0 km/h (0 Bft)
02.06.2017 19:52 18,4 °C 18,4 °C 87 % 1014,4 hPa 0,0 mm 0,0 km/h (0 Bft) S-SW 211 ° 0 min 0,000 mm 0,0 UV-I 114 W/m² 16,2 °C 18,4 °C 0,0 km/h (0 Bft)
02.06.2017 19:53 18,3 °C 18,4 °C 86 % 1014,4 hPa 0,0 mm 0,0 km/h (0 Bft) S-SW 211 ° 0 min 0,000 mm 0,0 UV-I 111 W/m² 15,9 °C 18,3 °C 0,0 km/h (0 Bft)
02.06.2017 19:54 18,3 °C 18,3 °C 86 % 1014,4 hPa 0,0 mm 0,0 km/h (0 Bft) S-SW 211 ° 0 min 0,000 mm 0,0 UV-I 111 W/m² 15,9 °C 18,3 °C 0,0 km/h (0 Bft)
02.06.2017 19:55 18,3 °C 18,4 °C 87 % 1014,4 hPa 0,0 mm 0,1 km/h (0 Bft) S-SW 211 ° 0 min 0,000 mm 0,0 UV-I 39 W/m² 16,1 °C 18,3 °C 1,6 km/h (1 Bft)
02.06.2017 19:56 18,3 °C 18,3 °C 85 % 1014,3 hPa 0,0 mm 1,1 km/h (1 Bft) S-SW 212 ° 0 min 0,000 mm 0,0 UV-I 37 W/m² 15,7 °C 18,3 °C 3,2 km/h (1 Bft)
02.06.2017 19:57 18,3 °C 18,3 °C 84 % 1014,5 hPa 0,0 mm 1,2 km/h (1 Bft) S-SW 212 ° 0 min 0,000 mm 0,0 UV-I 60 W/m² 15,5 °C 18,3 °C 3,2 km/h (1 Bft)
02.06.2017 19:58 18,3 °C 18,3 °C 84 % 1014,4 hPa 0,0 mm 0,0 km/h (0 Bft) S-SW 212 ° 0 min 0,000 mm 0,0 UV-I 88 W/m² 15,5 °C 18,3 °C 0,0 km/h (0 Bft)
02.06.2017 19:59 18,3 °C 18,3 °C 84 % 1014,4 hPa 0,0 mm 0,1 km/h (0 Bft) S-SW 212 ° 0 min 0,000 mm 0,0 UV-I 74 W/m² 15,5 °C 18,3 °C 1,6 km/h (1 Bft)
02.06.2017 20:00 18,3 °C 18,3 °C 84 % 1014,4 hPa 0,0 mm 0,0 km/h (0 Bft) S-SW 212 ° 0 min 0,000 mm 0,0 UV-I 53 W/m² 15,5 °C 18,3 °C 0,0 km/h (0 Bft)
02.06.2017 20:01 18,3 °C 18,3 °C 83 % 1014,4 hPa 0,0 mm 0,1 km/h (0 Bft) S-SW 212 ° 0 min 0,077 mm 0,0 UV-I 49 W/m² 15,4 °C 18,3 °C 1,6 km/h (1 Bft)
02.06.2017 20:02 18,2 °C 18,3 °C 84 % 1014,4 hPa 0,0 mm 0,0 km/h (0 Bft) S-SW 212 ° 0 min 0,000 mm 0,0 UV-I 42 W/m² 15,4 °C 18,2 °C 0,0 km/h (0 Bft)
02.06.2017 20:03 18,2 °C 18,2 °C 85 % 1014,4 hPa 0,0 mm 0,4 km/h (0 Bft) S-SW 212 ° 0 min 0,000 mm 0,0 UV-I 35 W/m² 15,6 °C 18,2 °C 1,6 km/h (1 Bft)
02.06.2017 20:04 18,2 °C 18,2 °C 87 % 1014,5 hPa 0,0 mm 1,4 km/h (1 Bft) S-SW 212 ° 0 min 0,000 mm 0,0 UV-I 35 W/m² 16,0 °C 18,2 °C 3,2 km/h (1 Bft)
02.06.2017 20:05 18,0 °C 18,2 °C 86 % 1014,4 hPa 0,0 mm 1,1 km/h (1 Bft) S-SW 212 ° 0 min 0,000 mm 0,0 UV-I 35 W/m² 15,6 °C 18,0 °C 3,2 km/h (1 Bft)
02.06.2017 20:06 17,9 °C 18,0 °C 86 % 1014,4 hPa 0,0 mm 0,2 km/h (0 Bft) S-SW 212 ° 0 min 0,000 mm 0,0 UV-I 35 W/m² 15,5 °C 17,9 °C 1,6 km/h (1 Bft)
02.06.2017 20:07 17,8 °C 17,9 °C 86 % 1014,4 hPa 0,0 mm 0,2 km/h (0 Bft) S-SW 212 ° 0 min 0,000 mm 0,0 UV-I 69 W/m² 15,4 °C 17,8 °C 1,6 km/h (1 Bft)
02.06.2017 20:08 17,8 °C 17,8 °C 86 % 1014,4 hPa 0,0 mm 0,0 km/h (0 Bft) S-SW 212 ° 0 min 0,000 mm 0,0 UV-I 69 W/m² 15,4 °C 17,8 °C 0,0 km/h (0 Bft)
02.06.2017 20:09 17,6 °C 17,8 °C 86 % 1014,5 hPa 0,0 mm 1,1 km/h (1 Bft) S-SW 212 ° 0 min 0,000 mm 0,0 UV-I 72 W/m² 15,2 °C 17,6 °C 3,2 km/h (1 Bft)
02.06.2017 20:10 17,6 °C 17,6 °C 86 % 1014,4 hPa 0,0 mm 0,3 km/h (0 Bft) S-SW 212 ° 0 min 0,000 mm 0,0 UV-I 70 W/m² 15,2 °C 17,6 °C 1,6 km/h (1 Bft)
02.06.2017 20:11 17,5 °C 17,6 °C 87 % 1014,5 hPa 0,0 mm 0,0 km/h (0 Bft) S-SW 212 ° 0 min 0,000 mm 0,0 UV-I 69 W/m² 15,3 °C 17,5 °C 0,0 km/h (0 Bft)
02.06.2017 20:12 17,4 °C 17,5 °C 86 % 1014,5 hPa 0,0 mm 0,0 km/h (0 Bft) S-SW 212 ° 0 min 0,000 mm 0,0 UV-I 65 W/m² 15,0 °C 17,4 °C 0,0 km/h (0 Bft)
02.06.2017 20:13 17,4 °C 17,4 °C 86 % 1014,4 hPa 0,0 mm 0,0 km/h (0 Bft) S-SW 212 ° 0 min 0,000 mm 0,0 UV-I 63 W/m² 15,0 °C 17,4 °C 0,0 km/h (0 Bft)
02.06.2017 20:14 17,4 °C 17,4 °C 87 % 1014,5 hPa 0,0 mm 0,0 km/h (0 Bft) S-SW 212 ° 0 min 0,000 mm 0,0 UV-I 62 W/m² 15,2 °C 17,4 °C 0,0 km/h (0 Bft)
02.06.2017 20:15 17,3 °C 17,4 °C 86 % 1014,4 hPa 0,0 mm 0,0 km/h (0 Bft) S-SW 212 ° 0 min 0,000 mm 0,0 UV-I 60 W/m² 14,9 °C 17,3 °C 0,0 km/h (0 Bft)
02.06.2017 20:16 17,3 °C 17,3 °C 87 % 1014,4 hPa 0,0 mm 0,0 km/h (0 Bft) S-SW 212 ° 0 min 0,000 mm 0,0 UV-I 58 W/m² 15,1 °C 17,3 °C 0,0 km/h (0 Bft)
02.06.2017 20:17 17,3 °C 17,3 °C 87 % 1014,5 hPa 0,0 mm 0,0 km/h (0 Bft) S-SW 212 ° 0 min 0,000 mm 0,0 UV-I 56 W/m² 15,1 °C 17,3 °C 0,0 km/h (0 Bft)
02.06.2017 20:18 17,3 °C 17,3 °C 87 % 1014,5 hPa 0,0 mm 0,0 km/h (0 Bft) S-SW 212 ° 0 min 0,000 mm 0,0 UV-I 54 W/m² 15,1 °C 17,3 °C 0,0 km/h (0 Bft)
02.06.2017 20:19 17,3 °C 17,3 °C 87 % 1014,5 hPa 0,0 mm 0,0 km/h (0 Bft) S-SW 212 ° 0 min 0,000 mm 0,0 UV-I 51 W/m² 15,1 °C 17,3 °C 0,0 km/h (0 Bft)
02.06.2017 20:20 17,3 °C 17,3 °C 87 % 1014,5 hPa 0,0 mm 0,0 km/h (0 Bft) S-SW 212 ° 0 min 0,000 mm 0,0 UV-I 49 W/m² 15,1 °C 17,3 °C 0,0 km/h (0 Bft)
02.06.2017 20:21 17,2 °C 17,3 °C 87 % 1014,5 hPa 0,0 mm 0,0 km/h (0 Bft) S-SW 212 ° 0 min 0,000 mm 0,0 UV-I 47 W/m² 15,0 °C 17,2 °C 0,0 km/h (0 Bft)
02.06.2017 20:22 17,2 °C 17,2 °C 88 % 1014,5 hPa 0,0 mm 0,0 km/h (0 Bft) S-SW 212 ° 0 min 0,000 mm 0,0 UV-I 47 W/m² 15,2 °C 17,2 °C 0,0 km/h (0 Bft)
02.06.2017 20:23 17,2 °C 17,2 °C 88 % 1014,5 hPa 0,0 mm 0,0 km/h (0 Bft) S-SW 212 ° 0 min 0,000 mm 0,0 UV-I 44 W/m² 15,2 °C 17,2 °C 0,0 km/h (0 Bft)
02.06.2017 20:24 17,1 °C 17,2 °C 88 % 1014,5 hPa 0,0 mm 0,0 km/h (0 Bft) S-SW 212 ° 0 min 0,000 mm 0,0 UV-I 35 W/m² 15,1 °C 17,1 °C 0,0 km/h (0 Bft)
02.06.2017 20:25 16,9 °C 17,1 °C 88 % 1014,5 hPa 0,0 mm 0,0 km/h (0 Bft) S-SW 212 ° 0 min 0,000 mm 0,0 UV-I 32 W/m² 14,9 °C 16,9 °C 0,0 km/h (0 Bft)
02.06.2017 20:26 16,9 °C 16,9 °C 89 % 1014,6 hPa 0,0 mm 0,0 km/h (0 Bft) S-SW 212 ° 0 min 0,000 mm 0,0 UV-I 32 W/m² 15,1 °C 16,9 °C 0,0 km/h (0 Bft)
02.06.2017 20:27 16,8 °C 16,9 °C 89 % 1014,5 hPa 0,0 mm 0,0 km/h (0 Bft) S-SW 212 ° 0 min 0,000 mm 0,0 UV-I 33 W/m² 15,0 °C 16,8 °C 0,0 km/h (0 Bft)
02.06.2017 20:28 16,7 °C 16,8 °C 90 % 1014,5 hPa 0,0 mm 0,0 km/h (0 Bft) S-SW 212 ° 0 min 0,000 mm 0,0 UV-I 33 W/m² 15,0 °C 16,7 °C 0,0 km/h (0 Bft)
02.06.2017 20:29 16,7 °C 16,7 °C 90 % 1014,5 hPa 0,0 mm 0,0 km/h (0 Bft) S-SW 212 ° 0 min 0,000 mm 0,0 UV-I 32 W/m² 15,0 °C 16,7 °C 0,0 km/h (0 Bft)
02.06.2017 20:30 16,6 °C 16,7 °C 90 % 1014,6 hPa 0,0 mm 0,0 km/h (0 Bft) S-SW 212 ° 0 min 0,000 mm 0,0 UV-I 26 W/m² 15,0 °C 16,6 °C 0,0 km/h (0 Bft)
02.06.2017 20:31 16,5 °C 16,6 °C 90 % 1014,6 hPa 0,0 mm 0,0 km/h (0 Bft) S-SW 212 ° 0 min 0,000 mm 0,0 UV-I 25 W/m² 14,9 °C 16,5 °C 0,0 km/h (0 Bft)
02.06.2017 20:32 16,5 °C 16,5 °C 90 % 1014,6 hPa 0,0 mm 0,0 km/h (0 Bft) S-SW 212 ° 0 min 0,000 mm 0,0 UV-I 23 W/m² 14,9 °C 16,5 °C 0,0 km/h (0 Bft)
02.06.2017 20:33 16,4 °C 16,5 °C 90 % 1014,6 hPa 0,0 mm 0,5 km/h (0 Bft) S-SW 212 ° 0 min 0,000 mm 0,0 UV-I 23 W/m² 14,8 °C 16,4 °C 1,6 km/h (1 Bft)
02.06.2017 20:34 16,4 °C 16,4 °C 91 % 1014,5 hPa 0,0 mm 0,6 km/h (0 Bft) S-SW 212 ° 0 min 0,000 mm 0,0 UV-I 21 W/m² 14,9 °C 16,4 °C 3,2 km/h (1 Bft)
02.06.2017 20:35 16,4 °C 16,4 °C 91 % 1014,6 hPa 0,0 mm 0,4 km/h (0 Bft) S-SW 212 ° 0 min 0,000 mm 0,0 UV-I 21 W/m² 14,9 °C 16,4 °C 1,6 km/h (1 Bft)
02.06.2017 20:36 16,4 °C 16,4 °C 91 % 1014,6 hPa 0,0 mm 0,1 km/h (0 Bft) S-SW 212 ° 0 min 0,000 mm 0,0 UV-I 19 W/m² 14,9 °C 16,4 °C 1,6 km/h (1 Bft)
02.06.2017 20:37 16,3 °C 16,4 °C 91 % 1014,6 hPa 0,0 mm 0,0 km/h (0 Bft) S-SW 212 ° 0 min 0,000 mm 0,0 UV-I 18 W/m² 14,8 °C 16,3 °C 0,0 km/h (0 Bft)
02.06.2017 20:38 16,3 °C 16,4 °C 91 % 1014,6 hPa 0,0 mm 0,1 km/h (0 Bft) S-SW 212 ° 0 min 0,000 mm 0,0 UV-I 16 W/m² 14,8 °C 16,3 °C 1,6 km/h (1 Bft)
02.06.2017 20:39 16,3 °C 16,3 °C 91 % 1014,6 hPa 0,0 mm 1,0 km/h (0 Bft) S-SW 212 ° 0 min 0,000 mm 0,0 UV-I 16 W/m² 14,8 °C 16,3 °C 3,2 km/h (1 Bft)
02.06.2017 20:40 16,3 °C 16,3 °C 91 % 1014,6 hPa 0,0 mm 0,3 km/h (0 Bft) S-SW 212 ° 0 min 0,000 mm 0,0 UV-I 14 W/m² 14,8 °C 16,3 °C 1,6 km/h (1 Bft)
02.06.2017 20:41 16,3 °C 16,3 °C 91 % 1014,5 hPa 0,0 mm 0,0 km/h (0 Bft) S-SW 212 ° 0 min 0,000 mm 0,0 UV-I 14 W/m² 14,8 °C 16,3 °C 0,0 km/h (0 Bft)
02.06.2017 20:42 16,3 °C 16,3 °C 91 % 1014,6 hPa 0,0 mm 0,0 km/h (0 Bft) S-SW 212 ° 0 min 0,000 mm 0,0 UV-I 12 W/m² 14,8 °C 16,3 °C 0,0 km/h (0 Bft)
02.06.2017 20:43 16,3 °C 16,3 °C 91 % 1014,6 hPa 0,0 mm 0,0 km/h (0 Bft) S-SW 212 ° 0 min 0,000 mm 0,0 UV-I 12 W/m² 14,8 °C 16,3 °C 0,0 km/h (0 Bft)
02.06.2017 20:44 16,2 °C 16,3 °C 91 % 1014,6 hPa 0,0 mm 0,0 km/h (0 Bft) S-SW 212 ° 0 min 0,000 mm 0,0 UV-I 12 W/m² 14,7 °C 16,2 °C 0,0 km/h (0 Bft)
02.06.2017 20:45 16,2 °C 16,2 °C 91 % 1014,6 hPa 0,0 mm 0,0 km/h (0 Bft) S-SW 212 ° 0 min 0,000 mm 0,0 UV-I 11 W/m² 14,7 °C 16,2 °C 0,0 km/h (0 Bft)
02.06.2017 20:46 16,2 °C 16,2 °C 91 % 1014,6 hPa 0,0 mm 0,0 km/h (0 Bft) S-SW 212 ° 0 min 0,000 mm 0,0 UV-I 11 W/m² 14,7 °C 16,2 °C 0,0 km/h (0 Bft)
02.06.2017 20:47 16,2 °C 16,2 °C 92 % 1014,6 hPa 0,0 mm 0,0 km/h (0 Bft) S-SW 212 ° 0 min 0,000 mm 0,0 UV-I 11 W/m² 14,9 °C 16,2 °C 0,0 km/h (0 Bft)
02.06.2017 20:48 16,2 °C 16,2 °C 92 % 1014,6 hPa 0,0 mm 0,0 km/h (0 Bft) S-SW 212 ° 0 min 0,000 mm 0,0 UV-I 9 W/m² 14,9 °C 16,2 °C 0,0 km/h (0 Bft)
02.06.2017 20:49 16,1 °C 16,2 °C 92 % 1014,6 hPa 0,0 mm 0,0 km/h (0 Bft) S-SW 212 ° 0 min 0,000 mm 0,0 UV-I 9 W/m² 14,8 °C 16,1 °C 0,0 km/h (0 Bft)
02.06.2017 20:50 16,1 °C 16,2 °C 92 % 1014,6 hPa 0,0 mm 0,0 km/h (0 Bft) S-SW 212 ° 0 min 0,000 mm 0,0 UV-I 7 W/m² 14,8 °C 16,1 °C 0,0 km/h (0 Bft)
02.06.2017 20:51 16,1 °C 16,1 °C 92 % 1014,6 hPa 0,0 mm 0,0 km/h (0 Bft) S-SW 212 ° 0 min 0,000 mm 0,0 UV-I 7 W/m² 14,8 °C 16,1 °C 0,0 km/h (0 Bft)
02.06.2017 20:52 16,1 °C 16,1 °C 92 % 1014,6 hPa 0,0 mm 0,0 km/h (0 Bft) S-SW 212 ° 0 min 0,000 mm 0,0 UV-I 7 W/m² 14,8 °C 16,1 °C 0,0 km/h (0 Bft)
02.06.2017 20:53 16,1 °C 16,1 °C 92 % 1014,6 hPa 0,0 mm 0,0 km/h (0 Bft) S-SW 212 ° 0 min 0,000 mm 0,0 UV-I 7 W/m² 14,8 °C 16,1 °C 0,0 km/h (0 Bft)
02.06.2017 20:54 16,0 °C 16,1 °C 92 % 1014,6 hPa 0,0 mm 0,0 km/h (0 Bft) S-SW 212 ° 0 min 0,000 mm 0,0 UV-I 7 W/m² 14,7 °C 16,0 °C 0,0 km/h (0 Bft)
02.06.2017 20:55 15,9 °C 16,0 °C 92 % 1014,7 hPa 0,0 mm 0,0 km/h (0 Bft) S-SW 212 ° 0 min 0,000 mm 0,0 UV-I 7 W/m² 14,6 °C 15,9 °C 0,0 km/h (0 Bft)
02.06.2017 20:56 15,9 °C 15,9 °C 92 % 1014,7 hPa 0,0 mm 0,0 km/h (0 Bft) S-SW 212 ° 0 min 0,000 mm 0,0 UV-I 5 W/m² 14,6 °C 15,9 °C 0,0 km/h (0 Bft)
02.06.2017 20:57 15,8 °C 15,9 °C 92 % 1014,7 hPa 0,0 mm 0,0 km/h (0 Bft) S-SW 212 ° 0 min 0,000 mm 0,0 UV-I 5 W/m² 14,5 °C 15,8 °C 0,0 km/h (0 Bft)
02.06.2017 20:58 15,8 °C 15,8 °C 92 % 1014,7 hPa 0,0 mm 0,0 km/h (0 Bft) S-SW 212 ° 0 min 0,000 mm 0,0 UV-I 5 W/m² 14,5 °C 15,8 °C 0,0 km/h (0 Bft)
02.06.2017 20:59 15,7 °C 15,8 °C 92 % 1014,8 hPa 0,0 mm 0,0 km/h (0 Bft) S-SW 212 ° 0 min 0,000 mm 0,0 UV-I 5 W/m² 14,4 °C 15,7 °C 0,0 km/h (0 Bft)
02.06.2017 21:00 15,7 °C 15,7 °C 92 % 1014,7 hPa 0,0 mm 0,0 km/h (0 Bft) S-SW 212 ° 0 min 0,000 mm 0,0 UV-I 5 W/m² 14,4 °C 15,7 °C 0,0 km/h (0 Bft)
02.06.2017 21:01 15,6 °C 15,7 °C 92 % 1014,8 hPa 0,0 mm 0,0 km/h (0 Bft) S-SW 212 ° 0 min 0,025 mm 0,0 UV-I 5 W/m² 14,3 °C 15,6 °C 0,0 km/h (0 Bft)
02.06.2017 21:02 15,6 °C 15,6 °C 92 % 1014,8 hPa 0,0 mm 0,0 km/h (0 Bft) S-SW 212 ° 0 min 0,000 mm 0,0 UV-I 0 W/m² 14,3 °C 15,6 °C 0,0 km/h (0 Bft)
02.06.2017 21:04 15,4 °C 15,6 °C 92 % 1014,8 hPa 0,0 mm 0,0 km/h (0 Bft) S-SW 212 ° 0 min 0,000 mm 0,0 UV-I 0 W/m² 14,1 °C 15,4 °C 0,0 km/h (0 Bft)
02.06.2017 21:05 15,4 °C 15,5 °C 92 % 1014,7 hPa 0,0 mm 0,0 km/h (0 Bft) S-SW 212 ° 0 min 0,000 mm 0,0 UV-I 0 W/m² 14,1 °C 15,4 °C 0,0 km/h (0 Bft)
02.06.2017 21:06 15,4 °C 15,4 °C 92 % 1014,7 hPa 0,0 mm 0,0 km/h (0 Bft) S-SW 212 ° 0 min 0,000 mm 0,0 UV-I 0 W/m² 14,1 °C 15,4 °C 0,0 km/h (0 Bft)
02.06.2017 21:07 15,4 °C 15,4 °C 93 % 1014,7 hPa 0,0 mm 0,0 km/h (0 Bft) S-SW 212 ° 0 min 0,000 mm 0,0 UV-I 0 W/m² 14,3 °C 15,4 °C 0,0 km/h (0 Bft)
02.06.2017 21:08 15,4 °C 15,4 °C 92 % 1014,7 hPa 0,0 mm 0,0 km/h (0 Bft) S-SW 212 ° 0 min 0,000 mm 0,0 UV-I 0 W/m² 14,1 °C 15,4 °C 0,0 km/h (0 Bft)
02.06.2017 21:09 15,3 °C 15,4 °C 92 % 1014,8 hPa 0,0 mm 0,0 km/h (0 Bft) S-SW 212 ° 0 min 0,000 mm 0,0 UV-I 0 W/m² 14,0 °C 15,3 °C 0,0 km/h (0 Bft)
02.06.2017 21:10 15,2 °C 15,3 °C 92 % 1014,7 hPa 0,0 mm 0,0 km/h (0 Bft) S-SW 212 ° 0 min 0,000 mm 0,0 UV-I 0 W/m² 13,9 °C 15,2 °C 0,0 km/h (0 Bft)
02.06.2017 21:11 15,2 °C 15,3 °C 92 % 1014,7 hPa 0,0 mm 0,0 km/h (0 Bft) S-SW 212 ° 0 min 0,000 mm 0,0 UV-I 0 W/m² 13,9 °C 15,2 °C 0,0 km/h (0 Bft)
02.06.2017 21:12 15,2 °C 15,2 °C 92 % 1014,8 hPa 0,0 mm 0,0 km/h (0 Bft) S-SW 212 ° 0 min 0,000 mm 0,0 UV-I 0 W/m² 13,9 °C 15,2 °C 0,0 km/h (0 Bft)
02.06.2017 21:13 15,2 °C 15,2 °C 93 % 1014,7 hPa 0,0 mm 0,0 km/h (0 Bft) S-SW 212 ° 0 min 0,000 mm 0,0 UV-I 0 W/m² 14,1 °C 15,2 °C 0,0 km/h (0 Bft)
02.06.2017 21:14 15,2 °C 15,2 °C 93 % 1014,7 hPa 0,0 mm 0,0 km/h (0 Bft) S-SW 212 ° 0 min 0,000 mm 0,0 UV-I 0 W/m² 14,1 °C 15,2 °C 0,0 km/h (0 Bft)
02.06.2017 21:15 15,2 °C 15,2 °C 93 % 1014,7 hPa 0,0 mm 0,0 km/h (0 Bft) S-SW 212 ° 0 min 0,000 mm 0,0 UV-I 0 W/m² 14,1 °C 15,2 °C 0,0 km/h (0 Bft)
02.06.2017 21:16 15,2 °C 15,2 °C 93 % 1014,7 hPa 0,0 mm 0,0 km/h (0 Bft) S-SW 212 ° 0 min 0,000 mm 0,0 UV-I 0 W/m² 14,1 °C 15,2 °C 0,0 km/h (0 Bft)
02.06.2017 21:17 15,2 °C 15,3 °C 93 % 1014,8 hPa 0,0 mm 0,0 km/h (0 Bft) S-SW 212 ° 0 min 0,000 mm 0,0 UV-I 0 W/m² 14,1 °C 15,2 °C 0,0 km/h (0 Bft)
02.06.2017 21:18 15,2 °C 15,3 °C 93 % 1014,8 hPa 0,0 mm 0,0 km/h (0 Bft) S-SW 212 ° 0 min 0,000 mm 0,0 UV-I 0 W/m² 14,1 °C 15,2 °C 0,0 km/h (0 Bft)
02.06.2017 21:19 15,2 °C 15,3 °C 93 % 1014,8 hPa 0,0 mm 0,0 km/h (0 Bft) S-SW 212 ° 0 min 0,000 mm 0,0 UV-I 0 W/m² 14,1 °C 15,2 °C 0,0 km/h (0 Bft)
02.06.2017 21:20 15,2 °C 15,3 °C 93 % 1014,8 hPa 0,0 mm 0,0 km/h (0 Bft) S-SW 212 ° 0 min 0,000 mm 0,0 UV-I 0 W/m² 14,1 °C 15,2 °C 0,0 km/h (0 Bft)
02.06.2017 21:21 15,2 °C 15,3 °C 93 % 1014,8 hPa 0,0 mm 0,0 km/h (0 Bft) S-SW 212 ° 0 min 0,000 mm 0,0 UV-I 0 W/m² 14,1 °C 15,2 °C 0,0 km/h (0 Bft)
02.06.2017 21:22 15,2 °C 15,2 °C 93 % 1014,8 hPa 0,0 mm 0,0 km/h (0 Bft) S-SW 212 ° 0 min 0,000 mm 0,0 UV-I 0 W/m² 14,1 °C 15,2 °C 0,0 km/h (0 Bft)
02.06.2017 21:23 15,2 °C 15,2 °C 93 % 1014,8 hPa 0,0 mm 0,0 km/h (0 Bft) S-SW 212 ° 0 min 0,000 mm 0,0 UV-I 0 W/m² 14,1 °C 15,2 °C 0,0 km/h (0 Bft)
02.06.2017 21:24 15,2 °C 15,3 °C 93 % 1014,8 hPa 0,0 mm 0,0 km/h (0 Bft) S-SW 212 ° 0 min 0,000 mm 0,0 UV-I 0 W/m² 14,1 °C 15,2 °C 0,0 km/h (0 Bft)
02.06.2017 21:25 15,2 °C 15,2 °C 93 % 1014,9 hPa 0,0 mm 0,0 km/h (0 Bft) S-SW 212 ° 0 min 0,000 mm 0,0 UV-I 0 W/m² 14,1 °C 15,2 °C 0,0 km/h (0 Bft)
02.06.2017 21:26 15,2 °C 15,2 °C 93 % 1014,9 hPa 0,0 mm 0,0 km/h (0 Bft) S-SW 212 ° 0 min 0,000 mm 0,0 UV-I 0 W/m² 14,1 °C 15,2 °C 0,0 km/h (0 Bft)
02.06.2017 21:27 15,2 °C 15,2 °C 93 % 1014,9 hPa 0,0 mm 0,0 km/h (0 Bft) S-SW 212 ° 0 min 0,000 mm 0,0 UV-I 0 W/m² 14,1 °C 15,2 °C 0,0 km/h (0 Bft)
02.06.2017 21:28 15,2 °C 15,2 °C 93 % 1014,9 hPa 0,0 mm 0,0 km/h (0 Bft) S-SW 212 ° 0 min 0,000 mm 0,0 UV-I 0 W/m² 14,1 °C 15,2 °C 0,0 km/h (0 Bft)
02.06.2017 21:29 15,1 °C 15,2 °C 93 % 1014,9 hPa 0,0 mm 0,0 km/h (0 Bft) S-SW 212 ° 0 min 0,000 mm 0,0 UV-I 0 W/m² 14,0 °C 15,1 °C 0,0 km/h (0 Bft)
02.06.2017 21:30 15,1 °C 15,1 °C 93 % 1014,9 hPa 0,0 mm 0,0 km/h (0 Bft) S-SW 212 ° 0 min 0,000 mm 0,0 UV-I 0 W/m² 14,0 °C 15,1 °C 0,0 km/h (0 Bft)
02.06.2017 21:31 15,0 °C 15,1 °C 92 % 1014,9 hPa 0,0 mm 0,0 km/h (0 Bft) S-SW 212 ° 0 min 0,000 mm 0,0 UV-I 0 W/m² 13,7 °C 15,0 °C 0,0 km/h (0 Bft)
02.06.2017 21:32 14,9 °C 15,0 °C 92 % 1014,9 hPa 0,0 mm 0,0 km/h (0 Bft) S-SW 212 ° 0 min 0,000 mm 0,0 UV-I 0 W/m² 13,6 °C 14,9 °C 0,0 km/h (0 Bft)
02.06.2017 21:34 14,8 °C 15,0 °C 92 % 1014,9 hPa 0,0 mm 0,0 km/h (0 Bft) S-SW 212 ° 0 min 0,000 mm 0,0 UV-I 0 W/m² 13,5 °C 14,8 °C 0,0 km/h (0 Bft)
02.06.2017 21:35 14,8 °C 14,8 °C 92 % 1014,9 hPa 0,0 mm 0,0 km/h (0 Bft) S-SW 212 ° 0 min 0,000 mm 0,0 UV-I 0 W/m² 13,5 °C 14,8 °C 0,0 km/h (0 Bft)
02.06.2017 21:36 14,7 °C 14,8 °C 92 % 1014,9 hPa 0,0 mm 0,0 km/h (0 Bft) S-SW 212 ° 0 min 0,000 mm 0,0 UV-I 0 W/m² 13,4 °C 14,7 °C 0,0 km/h (0 Bft)
02.06.2017 21:37 14,7 °C 14,7 °C 93 % 1015,0 hPa 0,0 mm 0,0 km/h (0 Bft) S-SW 212 ° 0 min 0,000 mm 0,0 UV-I 0 W/m² 13,6 °C 14,7 °C 0,0 km/h (0 Bft)
02.06.2017 21:38 14,7 °C 14,7 °C 93 % 1014,9 hPa 0,0 mm 0,0 km/h (0 Bft) S-SW 212 ° 0 min 0,000 mm 0,0 UV-I 0 W/m² 13,6 °C 14,7 °C 0,0 km/h (0 Bft)
02.06.2017 21:39 14,7 °C 14,8 °C 93 % 1014,9 hPa 0,0 mm 0,0 km/h (0 Bft) S-SW 212 ° 0 min 0,000 mm 0,0 UV-I 0 W/m² 13,6 °C 14,7 °C 0,0 km/h (0 Bft)
02.06.2017 21:40 14,8 °C 14,8 °C 93 % 1015,0 hPa 0,0 mm 0,0 km/h (0 Bft) S-SW 212 ° 0 min 0,000 mm 0,0 UV-I 0 W/m² 13,7 °C 14,8 °C 0,0 km/h (0 Bft)
02.06.2017 21:41 14,8 °C 14,8 °C 93 % 1014,9 hPa 0,0 mm 0,0 km/h (0 Bft) S-SW 212 ° 0 min 0,000 mm 0,0 UV-I 0 W/m² 13,7 °C 14,8 °C 0,0 km/h (0 Bft)
02.06.2017 21:42 14,8 °C 14,8 °C 93 % 1014,9 hPa 0,0 mm 0,0 km/h (0 Bft) S-SW 212 ° 0 min 0,000 mm 0,0 UV-I 0 W/m² 13,7 °C 14,8 °C 0,0 km/h (0 Bft)
02.06.2017 21:43 14,8 °C 14,8 °C 93 % 1015,0 hPa 0,0 mm 0,0 km/h (0 Bft) S-SW 212 ° 0 min 0,000 mm 0,0 UV-I 0 W/m² 13,7 °C 14,8 °C 0,0 km/h (0 Bft)
02.06.2017 21:44 14,8 °C 14,8 °C 93 % 1015,0 hPa 0,0 mm 0,0 km/h (0 Bft) S-SW 212 ° 0 min 0,000 mm 0,0 UV-I 0 W/m² 13,7 °C 14,8 °C 0,0 km/h (0 Bft)
02.06.2017 21:45 14,8 °C 14,8 °C 93 % 1015,0 hPa 0,0 mm 0,0 km/h (0 Bft) S-SW 212 ° 0 min 0,000 mm 0,0 UV-I 0 W/m² 13,7 °C 14,8 °C 0,0 km/h (0 Bft)
02.06.2017 21:46 14,7 °C 14,8 °C 93 % 1015,0 hPa 0,0 mm 0,0 km/h (0 Bft) S-SW 212 ° 0 min 0,000 mm 0,0 UV-I 0 W/m² 13,6 °C 14,7 °C 0,0 km/h (0 Bft)
02.06.2017 21:47 14,7 °C 14,7 °C 93 % 1015,0 hPa 0,0 mm 0,0 km/h (0 Bft) S-SW 212 ° 0 min 0,000 mm 0,0 UV-I 0 W/m² 13,6 °C 14,7 °C 0,0 km/h (0 Bft)
02.06.2017 21:48 14,6 °C 14,7 °C 93 % 1015,0 hPa 0,0 mm 0,0 km/h (0 Bft) S-SW 212 ° 0 min 0,000 mm 0,0 UV-I 0 W/m² 13,5 °C 14,6 °C 0,0 km/h (0 Bft)
02.06.2017 21:49 14,6 °C 14,6 °C 93 % 1015,0 hPa 0,0 mm 0,0 km/h (0 Bft) S-SW 212 ° 0 min 0,000 mm 0,0 UV-I 0 W/m² 13,5 °C 14,6 °C 0,0 km/h (0 Bft)
02.06.2017 21:50 14,6 °C 14,6 °C 93 % 1015,0 hPa 0,0 mm 0,0 km/h (0 Bft) S-SW 212 ° 0 min 0,000 mm 0,0 UV-I 0 W/m² 13,5 °C 14,6 °C 0,0 km/h (0 Bft)
02.06.2017 21:51 14,6 °C 14,6 °C 93 % 1015,1 hPa 0,0 mm 1,2 km/h (1 Bft) S-SW 212 ° 0 min 0,000 mm 0,0 UV-I 0 W/m² 13,5 °C 14,6 °C 3,2 km/h (1 Bft)
02.06.2017 21:52 14,6 °C 14,6 °C 93 % 1015,1 hPa 0,0 mm 0,8 km/h (0 Bft) S-SW 212 ° 0 min 0,000 mm 0,0 UV-I 0 W/m² 13,5 °C 14,6 °C 1,6 km/h (1 Bft)
02.06.2017 21:53 14,6 °C 14,6 °C 93 % 1015,1 hPa 0,0 mm 0,5 km/h (0 Bft) S-SW 212 ° 0 min 0,000 mm 0,0 UV-I 0 W/m² 13,5 °C 14,6 °C 1,6 km/h (1 Bft)
02.06.2017 21:54 14,6 °C 14,6 °C 93 % 1015,0 hPa 0,0 mm 0,0 km/h (0 Bft) S-SW 212 ° 0 min 0,000 mm 0,0 UV-I 0 W/m² 13,5 °C 14,6 °C 0,0 km/h (0 Bft)
02.06.2017 21:55 14,6 °C 14,6 °C 93 % 1015,1 hPa 0,0 mm 0,0 km/h (0 Bft) S-SW 212 ° 0 min 0,000 mm 0,0 UV-I 0 W/m² 13,5 °C 14,6 °C 0,0 km/h (0 Bft)
02.06.2017 21:56 14,7 °C 14,7 °C 94 % 1015,1 hPa 0,0 mm 0,0 km/h (0 Bft) S-SW 212 ° 0 min 0,000 mm 0,0 UV-I 0 W/m² 13,7 °C 14,7 °C 0,0 km/h (0 Bft)
02.06.2017 21:57 14,7 °C 14,7 °C 93 % 1015,1 hPa 0,0 mm 0,0 km/h (0 Bft) S-SW 212 ° 0 min 0,000 mm 0,0 UV-I 0 W/m² 13,6 °C 14,7 °C 0,0 km/h (0 Bft)
02.06.2017 21:58 14,7 °C 14,8 °C 93 % 1015,0 hPa 0,0 mm 0,0 km/h (0 Bft) S-SW 212 ° 0 min 0,000 mm 0,0 UV-I 0 W/m² 13,6 °C 14,7 °C 0,0 km/h (0 Bft)
02.06.2017 21:59 14,8 °C 14,8 °C 93 % 1015,0 hPa 0,0 mm 0,0 km/h (0 Bft) S-SW 212 ° 0 min 0,000 mm 0,0 UV-I 0 W/m² 13,7 °C 14,8 °C 0,0 km/h (0 Bft)
02.06.2017 22:00 14,8 °C 14,8 °C 93 % 1015,1 hPa 0,0 mm 0,0 km/h (0 Bft) S-SW 212 ° 0 min 0,000 mm 0,0 UV-I 0 W/m² 13,7 °C 14,8 °C 0,0 km/h (0 Bft)
02.06.2017 22:01 14,8 °C 14,8 °C 93 % 1015,1 hPa 0,0 mm 0,0 km/h (0 Bft) S-SW 212 ° 0 min 0,000 mm 0,0 UV-I 0 W/m² 13,7 °C 14,8 °C 0,0 km/h (0 Bft)
02.06.2017 22:02 14,8 °C 14,8 °C 93 % 1015,1 hPa 0,0 mm 0,0 km/h (0 Bft) S-SW 212 ° 0 min 0,000 mm 0,0 UV-I 0 W/m² 13,7 °C 14,8 °C 0,0 km/h (0 Bft)
02.06.2017 22:03 14,8 °C 14,8 °C 93 % 1015,1 hPa 0,0 mm 0,0 km/h (0 Bft) S-SW 212 ° 0 min 0,000 mm 0,0 UV-I 0 W/m² 13,7 °C 14,8 °C 0,0 km/h (0 Bft)
02.06.2017 22:04 14,8 °C 14,8 °C 93 % 1015,1 hPa 0,0 mm 0,0 km/h (0 Bft) S-SW 212 ° 0 min 0,000 mm 0,0 UV-I 0 W/m² 13,7 °C 14,8 °C 0,0 km/h (0 Bft)
02.06.2017 22:05 14,7 °C 14,8 °C 93 % 1015,1 hPa 0,0 mm 0,0 km/h (0 Bft) S-SW 212 ° 0 min 0,000 mm 0,0 UV-I 0 W/m² 13,6 °C 14,7 °C 0,0 km/h (0 Bft)
02.06.2017 22:06 14,7 °C 14,7 °C 93 % 1015,1 hPa 0,0 mm 0,0 km/h (0 Bft) S-SW 212 ° 0 min 0,000 mm 0,0 UV-I 0 W/m² 13,6 °C 14,7 °C 0,0 km/h (0 Bft)
02.06.2017 22:07 14,7 °C 14,7 °C 93 % 1015,1 hPa 0,0 mm 0,0 km/h (0 Bft) S-SW 212 ° 0 min 0,000 mm 0,0 UV-I 0 W/m² 13,6 °C 14,7 °C 0,0 km/h (0 Bft)
02.06.2017 22:08 14,7 °C 14,7 °C 93 % 1015,1 hPa 0,0 mm 0,0 km/h (0 Bft) S-SW 212 ° 0 min 0,000 mm 0,0 UV-I 0 W/m² 13,6 °C 14,7 °C 0,0 km/h (0 Bft)
02.06.2017 22:09 14,7 °C 14,7 °C 93 % 1015,1 hPa 0,0 mm 0,0 km/h (0 Bft) S-SW 212 ° 0 min 0,000 mm 0,0 UV-I 0 W/m² 13,6 °C 14,7 °C 0,0 km/h (0 Bft)
02.06.2017 22:10 14,7 °C 14,7 °C 93 % 1015,1 hPa 0,0 mm 0,0 km/h (0 Bft) S-SW 212 ° 0 min 0,000 mm 0,0 UV-I 0 W/m² 13,6 °C 14,7 °C 0,0 km/h (0 Bft)
02.06.2017 22:11 14,6 °C 14,7 °C 93 % 1015,1 hPa 0,0 mm 0,0 km/h (0 Bft) S-SW 212 ° 0 min 0,000 mm 0,0 UV-I 0 W/m² 13,5 °C 14,6 °C 0,0 km/h (0 Bft)
02.06.2017 22:12 14,6 °C 14,6 °C 93 % 1015,0 hPa 0,0 mm 0,0 km/h (0 Bft) S-SW 212 ° 0 min 0,000 mm 0,0 UV-I 0 W/m² 13,5 °C 14,6 °C 0,0 km/h (0 Bft)
02.06.2017 22:13 14,6 °C 14,6 °C 93 % 1015,0 hPa 0,0 mm 0,0 km/h (0 Bft) S-SW 212 ° 0 min 0,000 mm 0,0 UV-I 0 W/m² 13,5 °C 14,6 °C 0,0 km/h (0 Bft)
02.06.2017 22:14 14,6 °C 14,6 °C 93 % 1015,0 hPa 0,0 mm 0,0 km/h (0 Bft) S-SW 212 ° 0 min 0,000 mm 0,0 UV-I 0 W/m² 13,5 °C 14,6 °C 0,0 km/h (0 Bft)
02.06.2017 22:15 14,6 °C 14,6 °C 93 % 1015,0 hPa 0,0 mm 0,0 km/h (0 Bft) S-SW 212 ° 0 min 0,000 mm 0,0 UV-I 0 W/m² 13,5 °C 14,6 °C 0,0 km/h (0 Bft)
02.06.2017 22:16 14,6 °C 14,6 °C 93 % 1015,0 hPa 0,0 mm 0,0 km/h (0 Bft) S-SW 212 ° 0 min 0,000 mm 0,0 UV-I 0 W/m² 13,5 °C 14,6 °C 0,0 km/h (0 Bft)
02.06.2017 22:17 14,5 °C 14,6 °C 93 % 1015,0 hPa 0,0 mm 0,0 km/h (0 Bft) S-SW 212 ° 0 min 0,000 mm 0,0 UV-I 0 W/m² 13,4 °C 14,5 °C 0,0 km/h (0 Bft)
02.06.2017 22:18 14,4 °C 14,6 °C 93 % 1015,0 hPa 0,0 mm 0,0 km/h (0 Bft) S-SW 212 ° 0 min 0,000 mm 0,0 UV-I 0 W/m² 13,3 °C 14,4 °C 0,0 km/h (0 Bft)
02.06.2017 22:19 14,4 °C 14,4 °C 93 % 1015,0 hPa 0,0 mm 0,0 km/h (0 Bft) S-SW 212 ° 0 min 0,000 mm 0,0 UV-I 0 W/m² 13,3 °C 14,4 °C 0,0 km/h (0 Bft)
02.06.2017 22:20 14,4 °C 14,4 °C 93 % 1015,0 hPa 0,0 mm 0,0 km/h (0 Bft) S-SW 212 ° 0 min 0,000 mm 0,0 UV-I 0 W/m² 13,3 °C 14,4 °C 0,0 km/h (0 Bft)
02.06.2017 22:21 14,4 °C 14,4 °C 93 % 1015,1 hPa 0,0 mm 0,0 km/h (0 Bft) S-SW 212 ° 0 min 0,000 mm 0,0 UV-I 0 W/m² 13,3 °C 14,4 °C 0,0 km/h (0 Bft)
02.06.2017 22:22 14,4 °C 14,4 °C 93 % 1015,0 hPa 0,0 mm 0,0 km/h (0 Bft) S-SW 212 ° 0 min 0,000 mm 0,0 UV-I 0 W/m² 13,3 °C 14,4 °C 0,0 km/h (0 Bft)
02.06.2017 22:23 14,3 °C 14,4 °C 93 % 1015,1 hPa 0,0 mm 0,3 km/h (0 Bft) S-SW 212 ° 0 min 0,000 mm 0,0 UV-I 0 W/m² 13,2 °C 14,3 °C 1,6 km/h (1 Bft)
02.06.2017 22:24 14,2 °C 14,3 °C 93 % 1015,1 hPa 0,0 mm 0,7 km/h (0 Bft) S-SW 212 ° 0 min 0,000 mm 0,0 UV-I 0 W/m² 13,1 °C 14,2 °C 3,2 km/h (1 Bft)
02.06.2017 22:25 14,2 °C 14,2 °C 92 % 1015,1 hPa 0,0 mm 0,6 km/h (0 Bft) S-SW 213 ° 0 min 0,000 mm 0,0 UV-I 0 W/m² 12,9 °C 14,2 °C 1,6 km/h (1 Bft)
02.06.2017 22:26 14,1 °C 14,2 °C 92 % 1015,1 hPa 0,0 mm 0,1 km/h (0 Bft) S-SW 213 ° 0 min 0,000 mm 0,0 UV-I 0 W/m² 12,8 °C 14,1 °C 1,6 km/h (1 Bft)
02.06.2017 22:27 14,0 °C 14,1 °C 93 % 1015,1 hPa 0,0 mm 0,3 km/h (0 Bft) S-SW 213 ° 0 min 0,000 mm 0,0 UV-I 0 W/m² 12,9 °C 14,0 °C 1,6 km/h (1 Bft)
02.06.2017 22:28 14,0 °C 14,0 °C 93 % 1015,1 hPa 0,0 mm 0,0 km/h (0 Bft) S-SW 213 ° 0 min 0,000 mm 0,0 UV-I 0 W/m² 12,9 °C 14,0 °C 0,0 km/h (0 Bft)
02.06.2017 22:29 13,9 °C 14,0 °C 93 % 1015,2 hPa 0,0 mm 0,0 km/h (0 Bft) S-SW 213 ° 0 min 0,000 mm 0,0 UV-I 0 W/m² 12,8 °C 13,9 °C 0,0 km/h (0 Bft)
02.06.2017 22:30 13,9 °C 13,9 °C 93 % 1015,2 hPa 0,0 mm 0,0 km/h (0 Bft) S-SW 213 ° 0 min 0,000 mm 0,0 UV-I 0 W/m² 12,8 °C 13,9 °C 0,0 km/h (0 Bft)
02.06.2017 22:31 13,9 °C 13,9 °C 93 % 1015,1 hPa 0,0 mm 0,0 km/h (0 Bft) S-SW 213 ° 0 min 0,000 mm 0,0 UV-I 0 W/m² 12,8 °C 13,9 °C 0,0 km/h (0 Bft)
02.06.2017 22:32 13,9 °C 13,9 °C 93 % 1015,1 hPa 0,0 mm 0,0 km/h (0 Bft) S-SW 213 ° 0 min 0,000 mm 0,0 UV-I 0 W/m² 12,8 °C 13,9 °C 0,0 km/h (0 Bft)
02.06.2017 22:33 13,9 °C 13,9 °C 93 % 1015,1 hPa 0,0 mm 0,0 km/h (0 Bft) S-SW 213 ° 0 min 0,000 mm 0,0 UV-I 0 W/m² 12,8 °C 13,9 °C 0,0 km/h (0 Bft)
02.06.2017 22:34 13,8 °C 13,9 °C 93 % 1015,1 hPa 0,0 mm 0,0 km/h (0 Bft) S-SW 213 ° 0 min 0,000 mm 0,0 UV-I 0 W/m² 12,7 °C 13,8 °C 0,0 km/h (0 Bft)
02.06.2017 22:35 13,8 °C 13,8 °C 93 % 1015,1 hPa 0,0 mm 0,0 km/h (0 Bft) S-SW 213 ° 0 min 0,000 mm 0,0 UV-I 0 W/m² 12,7 °C 13,8 °C 0,0 km/h (0 Bft)
02.06.2017 22:36 13,8 °C 13,8 °C 93 % 1015,1 hPa 0,0 mm 0,0 km/h (0 Bft) S-SW 213 ° 0 min 0,000 mm 0,0 UV-I 0 W/m² 12,7 °C 13,8 °C 0,0 km/h (0 Bft)
02.06.2017 22:37 13,8 °C 13,8 °C 93 % 1015,1 hPa 0,0 mm 0,0 km/h (0 Bft) S-SW 213 ° 0 min 0,000 mm 0,0 UV-I 0 W/m² 12,7 °C 13,8 °C 0,0 km/h (0 Bft)
02.06.2017 22:38 13,8 °C 13,8 °C 93 % 1015,1 hPa 0,0 mm 0,0 km/h (0 Bft) S-SW 213 ° 0 min 0,000 mm 0,0 UV-I 0 W/m² 12,7 °C 13,8 °C 0,0 km/h (0 Bft)
02.06.2017 22:39 13,7 °C 13,8 °C 93 % 1015,1 hPa 0,0 mm 0,0 km/h (0 Bft) S-SW 213 ° 0 min 0,000 mm 0,0 UV-I 0 W/m² 12,6 °C 13,7 °C 0,0 km/h (0 Bft)
02.06.2017 22:40 13,7 °C 13,7 °C 94 % 1015,0 hPa 0,0 mm 0,0 km/h (0 Bft) S-SW 213 ° 0 min 0,000 mm 0,0 UV-I 0 W/m² 12,8 °C 13,7 °C 0,0 km/h (0 Bft)
02.06.2017 22:41 13,7 °C 13,7 °C 94 % 1015,0 hPa 0,0 mm 0,0 km/h (0 Bft) S-SW 213 ° 0 min 0,000 mm 0,0 UV-I 0 W/m² 12,8 °C 13,7 °C 0,0 km/h (0 Bft)
02.06.2017 22:42 13,7 °C 13,7 °C 94 % 1015,0 hPa 0,0 mm 0,0 km/h (0 Bft) S-SW 213 ° 0 min 0,000 mm 0,0 UV-I 0 W/m² 12,8 °C 13,7 °C 0,0 km/h (0 Bft)
02.06.2017 22:43 13,6 °C 13,7 °C 94 % 1015,0 hPa 0,0 mm 0,0 km/h (0 Bft) S-SW 213 ° 0 min 0,000 mm 0,0 UV-I 0 W/m² 12,7 °C 13,6 °C 0,0 km/h (0 Bft)
02.06.2017 22:44 13,6 °C 13,6 °C 94 % 1015,0 hPa 0,0 mm 0,0 km/h (0 Bft) S-SW 213 ° 0 min 0,000 mm 0,0 UV-I 0 W/m² 12,7 °C 13,6 °C 0,0 km/h (0 Bft)
02.06.2017 22:45 13,6 °C 13,6 °C 94 % 1015,0 hPa 0,0 mm 0,0 km/h (0 Bft) S-SW 213 ° 0 min 0,000 mm 0,0 UV-I 0 W/m² 12,7 °C 13,6 °C 0,0 km/h (0 Bft)
02.06.2017 22:46 13,6 °C 13,6 °C 94 % 1015,0 hPa 0,0 mm 0,0 km/h (0 Bft) S-SW 213 ° 0 min 0,000 mm 0,0 UV-I 0 W/m² 12,7 °C 13,6 °C 0,0 km/h (0 Bft)
02.06.2017 22:47 13,5 °C 13,6 °C 94 % 1015,0 hPa 0,0 mm 0,0 km/h (0 Bft) S-SW 213 ° 0 min 0,000 mm 0,0 UV-I 0 W/m² 12,6 °C 13,5 °C 0,0 km/h (0 Bft)
02.06.2017 22:48 13,5 °C 13,5 °C 94 % 1015,0 hPa 0,0 mm 0,0 km/h (0 Bft) S-SW 213 ° 0 min 0,000 mm 0,0 UV-I 0 W/m² 12,6 °C 13,5 °C 0,0 km/h (0 Bft)
02.06.2017 22:49 13,5 °C 13,5 °C 94 % 1015,0 hPa 0,0 mm 0,0 km/h (0 Bft) S-SW 213 ° 0 min 0,000 mm 0,0 UV-I 0 W/m² 12,6 °C 13,5 °C 0,0 km/h (0 Bft)
02.06.2017 22:50 13,4 °C 13,5 °C 94 % 1015,0 hPa 0,0 mm 0,0 km/h (0 Bft) S-SW 213 ° 0 min 0,000 mm 0,0 UV-I 0 W/m² 12,5 °C 13,4 °C 0,0 km/h (0 Bft)
02.06.2017 22:51 13,5 °C 13,5 °C 94 % 1015,1 hPa 0,0 mm 0,0 km/h (0 Bft) S-SW 213 ° 0 min 0,000 mm 0,0 UV-I 0 W/m² 12,6 °C 13,5 °C 0,0 km/h (0 Bft)
02.06.2017 22:52 13,5 °C 13,5 °C 94 % 1015,0 hPa 0,0 mm 0,0 km/h (0 Bft) S-SW 213 ° 0 min 0,000 mm 0,0 UV-I 0 W/m² 12,6 °C 13,5 °C 0,0 km/h (0 Bft)
02.06.2017 22:53 13,6 °C 13,6 °C 94 % 1015,1 hPa 0,0 mm 0,0 km/h (0 Bft) S-SW 213 ° 0 min 0,000 mm 0,0 UV-I 0 W/m² 12,7 °C 13,6 °C 0,0 km/h (0 Bft)
02.06.2017 22:54 13,5 °C 13,6 °C 94 % 1015,1 hPa 0,0 mm 0,0 km/h (0 Bft) S-SW 213 ° 0 min 0,000 mm 0,0 UV-I 0 W/m² 12,6 °C 13,5 °C 0,0 km/h (0 Bft)
02.06.2017 22:55 13,4 °C 13,5 °C 94 % 1015,1 hPa 0,0 mm 0,0 km/h (0 Bft) S-SW 213 ° 0 min 0,000 mm 0,0 UV-I 0 W/m² 12,5 °C 13,4 °C 0,0 km/h (0 Bft)
02.06.2017 22:56 13,4 °C 13,5 °C 94 % 1015,1 hPa 0,0 mm 0,0 km/h (0 Bft) S-SW 213 ° 0 min 0,000 mm 0,0 UV-I 0 W/m² 12,5 °C 13,4 °C 0,0 km/h (0 Bft)
02.06.2017 22:57 13,4 °C 13,4 °C 94 % 1015,0 hPa 0,0 mm 0,0 km/h (0 Bft) S-SW 213 ° 0 min 0,000 mm 0,0 UV-I 0 W/m² 12,5 °C 13,4 °C 0,0 km/h (0 Bft)
02.06.2017 22:58 13,3 °C 13,4 °C 94 % 1015,0 hPa 0,0 mm 0,0 km/h (0 Bft) S-SW 213 ° 0 min 0,000 mm 0,0 UV-I 0 W/m² 12,4 °C 13,3 °C 0,0 km/h (0 Bft)
02.06.2017 22:59 13,3 °C 13,3 °C 94 % 1015,0 hPa 0,0 mm 0,0 km/h (0 Bft) S-SW 213 ° 0 min 0,000 mm 0,0 UV-I 0 W/m² 12,4 °C 13,3 °C 0,0 km/h (0 Bft)
02.06.2017 23:00 13,2 °C 13,3 °C 94 % 1015,0 hPa 0,0 mm 0,0 km/h (0 Bft) S-SW 213 ° 0 min 0,000 mm 0,0 UV-I 0 W/m² 12,3 °C 13,2 °C 0,0 km/h (0 Bft)
02.06.2017 23:01 13,2 °C 13,2 °C 94 % 1015,1 hPa 0,0 mm 0,0 km/h (0 Bft) S-SW 213 ° 0 min 0,000 mm 0,0 UV-I 0 W/m² 12,3 °C 13,2 °C 0,0 km/h (0 Bft)
02.06.2017 23:02 13,2 °C 13,2 °C 94 % 1015,0 hPa 0,0 mm 0,0 km/h (0 Bft) S-SW 213 ° 0 min 0,000 mm 0,0 UV-I 0 W/m² 12,3 °C 13,2 °C 0,0 km/h (0 Bft)
02.06.2017 23:03 13,2 °C 13,2 °C 94 % 1015,0 hPa 0,0 mm 0,0 km/h (0 Bft) S-SW 213 ° 0 min 0,000 mm 0,0 UV-I 0 W/m² 12,3 °C 13,2 °C 0,0 km/h (0 Bft)
02.06.2017 23:04 13,1 °C 13,2 °C 94 % 1015,0 hPa 0,0 mm 0,0 km/h (0 Bft) S-SW 213 ° 0 min 0,000 mm 0,0 UV-I 0 W/m² 12,2 °C 13,1 °C 0,0 km/h (0 Bft)
02.06.2017 23:05 13,2 °C 13,2 °C 94 % 1015,0 hPa 0,0 mm 0,0 km/h (0 Bft) S-SW 213 ° 0 min 0,000 mm 0,0 UV-I 0 W/m² 12,3 °C 13,2 °C 0,0 km/h (0 Bft)
02.06.2017 23:06 13,1 °C 13,2 °C 94 % 1015,0 hPa 0,0 mm 0,0 km/h (0 Bft) S-SW 213 ° 0 min 0,000 mm 0,0 UV-I 0 W/m² 12,2 °C 13,1 °C 0,0 km/h (0 Bft)
02.06.2017 23:07 13,1 °C 13,1 °C 94 % 1015,0 hPa 0,0 mm 0,0 km/h (0 Bft) S-SW 213 ° 0 min 0,000 mm 0,0 UV-I 0 W/m² 12,2 °C 13,1 °C 0,0 km/h (0 Bft)
02.06.2017 23:08 13,1 °C 13,1 °C 94 % 1015,0 hPa 0,0 mm 0,0 km/h (0 Bft) S-SW 213 ° 0 min 0,000 mm 0,0 UV-I 0 W/m² 12,2 °C 13,1 °C 0,0 km/h (0 Bft)
02.06.2017 23:09 13,1 °C 13,1 °C 94 % 1014,9 hPa 0,0 mm 0,0 km/h (0 Bft) S-SW 213 ° 0 min 0,000 mm 0,0 UV-I 0 W/m² 12,2 °C 13,1 °C 0,0 km/h (0 Bft)
02.06.2017 23:10 13,0 °C 13,1 °C 94 % 1015,0 hPa 0,0 mm 0,0 km/h (0 Bft) S-SW 213 ° 0 min 0,000 mm 0,0 UV-I 0 W/m² 12,1 °C 13,0 °C 0,0 km/h (0 Bft)
02.06.2017 23:11 13,1 °C 13,1 °C 94 % 1014,9 hPa 0,0 mm 0,0 km/h (0 Bft) S-SW 213 ° 0 min 0,000 mm 0,0 UV-I 0 W/m² 12,2 °C 13,1 °C 0,0 km/h (0 Bft)
02.06.2017 23:12 13,1 °C 13,1 °C 94 % 1014,9 hPa 0,0 mm 0,0 km/h (0 Bft) S-SW 213 ° 0 min 0,000 mm 0,0 UV-I 0 W/m² 12,2 °C 13,1 °C 0,0 km/h (0 Bft)
02.06.2017 23:13 13,1 °C 13,1 °C 94 % 1014,9 hPa 0,0 mm 0,5 km/h (0 Bft) S-SW 213 ° 0 min 0,000 mm 0,0 UV-I 0 W/m² 12,2 °C 13,1 °C 1,6 km/h (1 Bft)
02.06.2017 23:14 13,1 °C 13,1 °C 95 % 1014,9 hPa 0,0 mm 1,6 km/h (1 Bft) S-SW 213 ° 0 min 0,000 mm 0,0 UV-I 0 W/m² 12,3 °C 13,1 °C 3,2 km/h (1 Bft)
02.06.2017 23:15 13,1 °C 13,2 °C 95 % 1014,9 hPa 0,0 mm 0,5 km/h (0 Bft) S-SW 213 ° 0 min 0,000 mm 0,0 UV-I 0 W/m² 12,3 °C 13,1 °C 1,6 km/h (1 Bft)
02.06.2017 23:16 13,1 °C 13,2 °C 94 % 1014,9 hPa 0,0 mm 1,7 km/h (1 Bft) S-SW 213 ° 0 min 0,000 mm 0,0 UV-I 0 W/m² 12,2 °C 13,1 °C 3,2 km/h (1 Bft)
02.06.2017 23:17 13,1 °C 13,2 °C 94 % 1014,9 hPa 0,0 mm 1,9 km/h (1 Bft) S-SW 213 ° 0 min 0,000 mm 0,0 UV-I 0 W/m² 12,2 °C 13,1 °C 3,2 km/h (1 Bft)
02.06.2017 23:18 13,2 °C 13,2 °C 94 % 1014,9 hPa 0,0 mm 1,2 km/h (1 Bft) S-SW 213 ° 0 min 0,000 mm 0,0 UV-I 0 W/m² 12,3 °C 13,2 °C 3,2 km/h (1 Bft)
02.06.2017 23:19 13,2 °C 13,2 °C 94 % 1014,9 hPa 0,0 mm 1,0 km/h (0 Bft) S-SW 213 ° 0 min 0,000 mm 0,0 UV-I 0 W/m² 12,3 °C 13,2 °C 1,6 km/h (1 Bft)
02.06.2017 23:20 13,2 °C 13,2 °C 94 % 1014,9 hPa 0,0 mm 0,1 km/h (0 Bft) S-SW 213 ° 0 min 0,000 mm 0,0 UV-I 0 W/m² 12,3 °C 13,2 °C 1,6 km/h (1 Bft)
02.06.2017 23:21 13,2 °C 13,2 °C 94 % 1014,9 hPa 0,0 mm 0,0 km/h (0 Bft) S-SW 213 ° 0 min 0,000 mm 0,0 UV-I 0 W/m² 12,3 °C 13,2 °C 0,0 km/h (0 Bft)
02.06.2017 23:22 13,2 °C 13,2 °C 94 % 1014,9 hPa 0,0 mm 0,0 km/h (0 Bft) S-SW 213 ° 0 min 0,000 mm 0,0 UV-I 0 W/m² 12,3 °C 13,2 °C 0,0 km/h (0 Bft)
02.06.2017 23:23 13,2 °C 13,2 °C 94 % 1014,9 hPa 0,0 mm 0,0 km/h (0 Bft) S-SW 213 ° 0 min 0,000 mm 0,0 UV-I 0 W/m² 12,3 °C 13,2 °C 0,0 km/h (0 Bft)
02.06.2017 23:24 13,2 °C 13,2 °C 93 % 1014,9 hPa 0,0 mm 0,0 km/h (0 Bft) S-SW 213 ° 0 min 0,000 mm 0,0 UV-I 0 W/m² 12,1 °C 13,2 °C 0,0 km/h (0 Bft)
02.06.2017 23:25 13,2 °C 13,2 °C 93 % 1014,9 hPa 0,0 mm 0,0 km/h (0 Bft) S-SW 213 ° 0 min 0,000 mm 0,0 UV-I 0 W/m² 12,1 °C 13,2 °C 0,0 km/h (0 Bft)
02.06.2017 23:26 13,2 °C 13,2 °C 93 % 1014,9 hPa 0,0 mm 0,0 km/h (0 Bft) S-SW 213 ° 0 min 0,000 mm 0,0 UV-I 0 W/m² 12,1 °C 13,2 °C 0,0 km/h (0 Bft)
02.06.2017 23:27 13,2 °C 13,2 °C 93 % 1014,9 hPa 0,0 mm 0,0 km/h (0 Bft) S-SW 213 ° 0 min 0,000 mm 0,0 UV-I 0 W/m² 12,1 °C 13,2 °C 0,0 km/h (0 Bft)
02.06.2017 23:28 13,2 °C 13,2 °C 93 % 1014,8 hPa 0,0 mm 0,0 km/h (0 Bft) S-SW 213 ° 0 min 0,000 mm 0,0 UV-I 0 W/m² 12,1 °C 13,2 °C 0,0 km/h (0 Bft)
02.06.2017 23:29 13,2 °C 13,2 °C 93 % 1014,8 hPa 0,0 mm 0,0 km/h (0 Bft) S-SW 213 ° 0 min 0,000 mm 0,0 UV-I 0 W/m² 12,1 °C 13,2 °C 0,0 km/h (0 Bft)
02.06.2017 23:30 13,1 °C 13,2 °C 93 % 1014,8 hPa 0,0 mm 0,0 km/h (0 Bft) S-SW 213 ° 0 min 0,000 mm 0,0 UV-I 0 W/m² 12,0 °C 13,1 °C 0,0 km/h (0 Bft)
02.06.2017 23:31 13,1 °C 13,1 °C 93 % 1014,8 hPa 0,0 mm 0,0 km/h (0 Bft) S-SW 213 ° 0 min 0,000 mm 0,0 UV-I 0 W/m² 12,0 °C 13,1 °C 0,0 km/h (0 Bft)
02.06.2017 23:32 13,1 °C 13,1 °C 93 % 1014,8 hPa 0,0 mm 0,0 km/h (0 Bft) S-SW 213 ° 0 min 0,000 mm 0,0 UV-I 0 W/m² 12,0 °C 13,1 °C 0,0 km/h (0 Bft)
02.06.2017 23:33 13,1 °C 13,1 °C 94 % 1014,8 hPa 0,0 mm 0,0 km/h (0 Bft) S-SW 213 ° 0 min 0,000 mm 0,0 UV-I 0 W/m² 12,2 °C 13,1 °C 0,0 km/h (0 Bft)
02.06.2017 23:34 13,0 °C 13,1 °C 94 % 1014,7 hPa 0,0 mm 0,0 km/h (0 Bft) S-SW 213 ° 0 min 0,000 mm 0,0 UV-I 0 W/m² 12,1 °C 13,0 °C 0,0 km/h (0 Bft)
02.06.2017 23:35 13,0 °C 13,1 °C 94 % 1014,7 hPa 0,0 mm 0,0 km/h (0 Bft) S-SW 213 ° 0 min 0,000 mm 0,0 UV-I 0 W/m² 12,1 °C 13,0 °C 0,0 km/h (0 Bft)
02.06.2017 23:36 13,0 °C 13,0 °C 94 % 1014,7 hPa 0,0 mm 0,0 km/h (0 Bft) S-SW 213 ° 0 min 0,000 mm 0,0 UV-I 0 W/m² 12,1 °C 13,0 °C 0,0 km/h (0 Bft)
02.06.2017 23:37 12,9 °C 13,0 °C 94 % 1014,7 hPa 0,0 mm 0,0 km/h (0 Bft) S-SW 213 ° 0 min 0,000 mm 0,0 UV-I 0 W/m² 12,0 °C 12,9 °C 0,0 km/h (0 Bft)
02.06.2017 23:38 12,9 °C 12,9 °C 93 % 1014,7 hPa 0,0 mm 0,0 km/h (0 Bft) S-SW 213 ° 0 min 0,000 mm 0,0 UV-I 0 W/m² 11,8 °C 12,9 °C 0,0 km/h (0 Bft)
02.06.2017 23:39 12,9 °C 12,9 °C 94 % 1014,7 hPa 0,0 mm 0,0 km/h (0 Bft) S-SW 213 ° 0 min 0,000 mm 0,0 UV-I 0 W/m² 12,0 °C 12,9 °C 0,0 km/h (0 Bft)
02.06.2017 23:40 12,8 °C 12,9 °C 94 % 1014,7 hPa 0,0 mm 0,0 km/h (0 Bft) S-SW 213 ° 0 min 0,000 mm 0,0 UV-I 0 W/m² 11,9 °C 12,8 °C 0,0 km/h (0 Bft)
02.06.2017 23:41 12,8 °C 12,8 °C 94 % 1014,7 hPa 0,0 mm 0,0 km/h (0 Bft) S-SW 213 ° 0 min 0,000 mm 0,0 UV-I 0 W/m² 11,9 °C 12,8 °C 0,0 km/h (0 Bft)
02.06.2017 23:42 12,8 °C 12,8 °C 94 % 1014,8 hPa 0,0 mm 0,0 km/h (0 Bft) S-SW 213 ° 0 min 0,000 mm 0,0 UV-I 0 W/m² 11,9 °C 12,8 °C 0,0 km/h (0 Bft)
02.06.2017 23:43 12,8 °C 12,8 °C 94 % 1014,8 hPa 0,0 mm 0,0 km/h (0 Bft) S-SW 213 ° 0 min 0,000 mm 0,0 UV-I 0 W/m² 11,9 °C 12,8 °C 0,0 km/h (0 Bft)
02.06.2017 23:44 12,7 °C 12,8 °C 94 % 1014,8 hPa 0,0 mm 0,0 km/h (0 Bft) S-SW 213 ° 0 min 0,000 mm 0,0 UV-I 0 W/m² 11,8 °C 12,7 °C 0,0 km/h (0 Bft)
02.06.2017 23:45 12,7 °C 12,7 °C 94 % 1014,7 hPa 0,0 mm 0,0 km/h (0 Bft) S-SW 213 ° 0 min 0,000 mm 0,0 UV-I 0 W/m² 11,8 °C 12,7 °C 0,0 km/h (0 Bft)
02.06.2017 23:46 12,7 °C 12,7 °C 94 % 1014,7 hPa 0,0 mm 0,0 km/h (0 Bft) S-SW 213 ° 0 min 0,000 mm 0,0 UV-I 0 W/m² 11,8 °C 12,7 °C 0,0 km/h (0 Bft)
02.06.2017 23:47 12,7 °C 12,7 °C 94 % 1014,7 hPa 0,0 mm 0,0 km/h (0 Bft) S-SW 213 ° 0 min 0,000 mm 0,0 UV-I 0 W/m² 11,8 °C 12,7 °C 0,0 km/h (0 Bft)
02.06.2017 23:48 12,7 °C 12,7 °C 94 % 1014,7 hPa 0,0 mm 0,0 km/h (0 Bft) S-SW 213 ° 0 min 0,000 mm 0,0 UV-I 0 W/m² 11,8 °C 12,7 °C 0,0 km/h (0 Bft)
02.06.2017 23:49 12,7 °C 12,7 °C 94 % 1014,7 hPa 0,0 mm 0,0 km/h (0 Bft) S-SW 213 ° 0 min 0,000 mm 0,0 UV-I 0 W/m² 11,8 °C 12,7 °C 0,0 km/h (0 Bft)
02.06.2017 23:50 12,7 °C 12,8 °C 94 % 1014,7 hPa 0,0 mm 0,0 km/h (0 Bft) S-SW 213 ° 0 min 0,000 mm 0,0 UV-I 0 W/m² 11,8 °C 12,7 °C 0,0 km/h (0 Bft)
02.06.2017 23:51 12,7 °C 12,7 °C 94 % 1014,7 hPa 0,0 mm 0,0 km/h (0 Bft) S-SW 213 ° 0 min 0,000 mm 0,0 UV-I 0 W/m² 11,8 °C 12,7 °C 0,0 km/h (0 Bft)
02.06.2017 23:52 12,7 °C 12,7 °C 94 % 1014,7 hPa 0,0 mm 0,0 km/h (0 Bft) S-SW 213 ° 0 min 0,000 mm 0,0 UV-I 0 W/m² 11,8 °C 12,7 °C 0,0 km/h (0 Bft)
02.06.2017 23:53 12,7 °C 12,7 °C 94 % 1014,7 hPa 0,0 mm 0,0 km/h (0 Bft) S-SW 213 ° 0 min 0,000 mm 0,0 UV-I 0 W/m² 11,8 °C 12,7 °C 0,0 km/h (0 Bft)
02.06.2017 23:54 12,7 °C 12,7 °C 94 % 1014,6 hPa 0,0 mm 0,0 km/h (0 Bft) S-SW 213 ° 0 min 0,000 mm 0,0 UV-I 0 W/m² 11,8 °C 12,7 °C 0,0 km/h (0 Bft)
02.06.2017 23:55 12,7 °C 12,7 °C 94 % 1014,6 hPa 0,0 mm 0,8 km/h (0 Bft) S-SW 213 ° 0 min 0,000 mm 0,0 UV-I 0 W/m² 11,8 °C 12,7 °C 3,2 km/h (1 Bft)
02.06.2017 23:56 12,7 °C 12,7 °C 94 % 1014,7 hPa 0,0 mm 0,0 km/h (0 Bft) S-SW 213 ° 0 min 0,000 mm 0,0 UV-I 0 W/m² 11,8 °C 12,7 °C 0,0 km/h (0 Bft)
02.06.2017 23:57 12,8 °C 12,8 °C 94 % 1014,7 hPa 0,0 mm 0,0 km/h (0 Bft) S-SW 213 ° 0 min 0,000 mm 0,0 UV-I 0 W/m² 11,9 °C 12,8 °C 0,0 km/h (0 Bft)
02.06.2017 23:58 12,8 °C 12,8 °C 94 % 1014,6 hPa 0,0 mm 0,1 km/h (0 Bft) S-SW 213 ° 0 min 0,000 mm 0,0 UV-I 0 W/m² 11,9 °C 12,8 °C 1,6 km/h (1 Bft)
02.06.2017 23:59 12,8 °C 12,8 °C 94 % 1014,7 hPa 0,0 mm 0,5 km/h (0 Bft) S-SW 213 ° 0 min 0,000 mm 0,0 UV-I 0 W/m² 11,9 °C 12,8 °C 3,2 km/h (1 Bft)
_ Min-Zeit 04:56 04:55 13:32 19:56 - 23:57 - - - - - - 04:50 04:56 23:57
Minimum _ 12,2 °C 12,2 °C 60 % 1014,3 hPa - 0,0 km/h (0 Bft) - - - - - - 10,8 °C 12,2 °C 0,0 km/h (0 Bft)
_ Max-Zeit 13:47 13:48 23:15 02:06 15:18 14:25 - - 13:49 12:00 12:09 12:10 17:18 13:47 14:25
Maximum _ 21,7 °C 21,7 °C 95 % 1017,2 hPa 0,2 mm 10,3 km/h
O-NO (2 Bft)
- - 1 min 0,406 mm 7,6 UV-I 1083 W/m² 17,2 °C 21,7 °C 19,3 km/h
NO (3 Bft)
Durchschnitt _ 16,3 °C 16,3 °C 86 % 1015,8 hPa #2,6 mm 1,0 km/h (0 Bft) NW - #3:44 h #2,032 mm 2,3 UV-I 140 W/m² 13,8 °C 16,3 °C 1,8 km/h (1 Bft)